<?xml version="1.0" encoding="UTF-8" standalone="no" ?>
<gpx xmlns="http://www.topografix.com/GPX/1/1" xmlns:xsi="http://www.w3.org/2001/XMLSchema-instance" xsi:schemaLocation="http://www.topografix.com/GPX/1/1 http://www.topografix.com/GPX/1/1/gpx.xsd" version="1.1" creator="VisuGPX - https://www.visugpx.com">
  <metadata>
    <name>Course à pied en soirée</name>
  </metadata>
  <trk>
    <name><![CDATA[Course à pied en soirée_1]]></name>
    <trkseg>
      <trkpt lat="43.64908" lon="1.37512">
        <ele>143</ele>
        <time>2025-01-23T17:16:51Z</time>
      </trkpt>
      <trkpt lat="43.64908" lon="1.37512">
        <ele>143</ele>
        <time>2025-01-23T17:16:52Z</time>
      </trkpt>
      <trkpt lat="43.64908" lon="1.37512">
        <ele>143</ele>
        <time>2025-01-23T17:16:53Z</time>
      </trkpt>
      <trkpt lat="43.64908" lon="1.37512">
        <ele>143</ele>
        <time>2025-01-23T17:16:54Z</time>
      </trkpt>
      <trkpt lat="43.64908" lon="1.37512">
        <ele>143</ele>
        <time>2025-01-23T17:16:55Z</time>
      </trkpt>
      <trkpt lat="43.64908" lon="1.37512">
        <ele>143</ele>
        <time>2025-01-23T17:16:56Z</time>
      </trkpt>
      <trkpt lat="43.64908" lon="1.37512">
        <ele>144</ele>
        <time>2025-01-23T17:16:57Z</time>
      </trkpt>
      <trkpt lat="43.64908" lon="1.37512">
        <ele>144</ele>
        <time>2025-01-23T17:16:58Z</time>
      </trkpt>
      <trkpt lat="43.64908" lon="1.37512">
        <ele>144</ele>
        <time>2025-01-23T17:16:59Z</time>
      </trkpt>
      <trkpt lat="43.64908" lon="1.37512">
        <ele>144</ele>
        <time>2025-01-23T17:17:00Z</time>
      </trkpt>
      <trkpt lat="43.64908" lon="1.37512">
        <ele>144</ele>
        <time>2025-01-23T17:17:01Z</time>
      </trkpt>
      <trkpt lat="43.64908" lon="1.37512">
        <ele>144</ele>
        <time>2025-01-23T17:17:02Z</time>
      </trkpt>
      <trkpt lat="43.64908" lon="1.37512">
        <ele>144</ele>
        <time>2025-01-23T17:17:03Z</time>
      </trkpt>
      <trkpt lat="43.64908" lon="1.37512">
        <ele>144</ele>
        <time>2025-01-23T17:17:04Z</time>
      </trkpt>
      <trkpt lat="43.64908" lon="1.37512">
        <ele>144</ele>
        <time>2025-01-23T17:17:05Z</time>
      </trkpt>
      <trkpt lat="43.64908" lon="1.37512">
        <ele>144</ele>
        <time>2025-01-23T17:17:06Z</time>
      </trkpt>
      <trkpt lat="43.64908" lon="1.37512">
        <ele>144</ele>
        <time>2025-01-23T17:17:07Z</time>
      </trkpt>
      <trkpt lat="43.64908" lon="1.37512">
        <ele>144</ele>
        <time>2025-01-23T17:17:08Z</time>
      </trkpt>
      <trkpt lat="43.64908" lon="1.37512">
        <ele>144</ele>
        <time>2025-01-23T17:17:09Z</time>
      </trkpt>
      <trkpt lat="43.64908" lon="1.37512">
        <ele>144</ele>
        <time>2025-01-23T17:17:10Z</time>
      </trkpt>
      <trkpt lat="43.64908" lon="1.37512">
        <ele>144</ele>
        <time>2025-01-23T17:17:11Z</time>
      </trkpt>
      <trkpt lat="43.64908" lon="1.37512">
        <ele>144</ele>
        <time>2025-01-23T17:17:12Z</time>
      </trkpt>
      <trkpt lat="43.64908" lon="1.37512">
        <ele>144</ele>
        <time>2025-01-23T17:17:13Z</time>
      </trkpt>
      <trkpt lat="43.64908" lon="1.37512">
        <ele>144</ele>
        <time>2025-01-23T17:17:14Z</time>
      </trkpt>
      <trkpt lat="43.64908" lon="1.37512">
        <ele>144</ele>
        <time>2025-01-23T17:17:15Z</time>
      </trkpt>
      <trkpt lat="43.64908" lon="1.37512">
        <ele>144</ele>
        <time>2025-01-23T17:17:16Z</time>
      </trkpt>
      <trkpt lat="43.64908" lon="1.37512">
        <ele>144</ele>
        <time>2025-01-23T17:17:17Z</time>
      </trkpt>
      <trkpt lat="43.64908" lon="1.37512">
        <ele>144</ele>
        <time>2025-01-23T17:17:18Z</time>
      </trkpt>
      <trkpt lat="43.64908" lon="1.37512">
        <ele>144</ele>
        <time>2025-01-23T17:17:19Z</time>
      </trkpt>
      <trkpt lat="43.64908" lon="1.37512">
        <ele>144</ele>
        <time>2025-01-23T17:17:20Z</time>
      </trkpt>
      <trkpt lat="43.64908" lon="1.37512">
        <ele>144</ele>
        <time>2025-01-23T17:17:21Z</time>
      </trkpt>
      <trkpt lat="43.64908" lon="1.37512">
        <ele>145</ele>
        <time>2025-01-23T17:17:22Z</time>
      </trkpt>
      <trkpt lat="43.64908" lon="1.37512">
        <ele>145</ele>
        <time>2025-01-23T17:17:23Z</time>
      </trkpt>
      <trkpt lat="43.64908" lon="1.37512">
        <ele>144</ele>
        <time>2025-01-23T17:17:24Z</time>
      </trkpt>
      <trkpt lat="43.64908" lon="1.37512">
        <ele>144</ele>
        <time>2025-01-23T17:17:25Z</time>
      </trkpt>
      <trkpt lat="43.64908" lon="1.37512">
        <ele>144</ele>
        <time>2025-01-23T17:17:26Z</time>
      </trkpt>
      <trkpt lat="43.64908" lon="1.37512">
        <ele>145</ele>
        <time>2025-01-23T17:17:27Z</time>
      </trkpt>
      <trkpt lat="43.64908" lon="1.37512">
        <ele>145</ele>
        <time>2025-01-23T17:17:28Z</time>
      </trkpt>
      <trkpt lat="43.64908" lon="1.37512">
        <ele>144</ele>
        <time>2025-01-23T17:17:29Z</time>
      </trkpt>
      <trkpt lat="43.64908" lon="1.37512">
        <ele>144</ele>
        <time>2025-01-23T17:17:30Z</time>
      </trkpt>
      <trkpt lat="43.64909" lon="1.37512">
        <ele>144</ele>
        <time>2025-01-23T17:17:31Z</time>
      </trkpt>
      <trkpt lat="43.6491" lon="1.37512">
        <ele>144</ele>
        <time>2025-01-23T17:17:32Z</time>
      </trkpt>
      <trkpt lat="43.6491" lon="1.37511">
        <ele>144</ele>
        <time>2025-01-23T17:17:33Z</time>
      </trkpt>
      <trkpt lat="43.64911" lon="1.37511">
        <ele>145</ele>
        <time>2025-01-23T17:17:34Z</time>
      </trkpt>
      <trkpt lat="43.64912" lon="1.37511">
        <ele>145</ele>
        <time>2025-01-23T17:17:35Z</time>
      </trkpt>
      <trkpt lat="43.64913" lon="1.3751">
        <ele>145</ele>
        <time>2025-01-23T17:17:36Z</time>
      </trkpt>
      <trkpt lat="43.64913" lon="1.3751">
        <ele>145</ele>
        <time>2025-01-23T17:17:37Z</time>
      </trkpt>
      <trkpt lat="43.64914" lon="1.3751">
        <ele>145</ele>
        <time>2025-01-23T17:17:38Z</time>
      </trkpt>
      <trkpt lat="43.64915" lon="1.37509">
        <ele>144</ele>
        <time>2025-01-23T17:17:39Z</time>
      </trkpt>
      <trkpt lat="43.64916" lon="1.37509">
        <ele>144</ele>
        <time>2025-01-23T17:17:40Z</time>
      </trkpt>
      <trkpt lat="43.64916" lon="1.37509">
        <ele>144</ele>
        <time>2025-01-23T17:17:41Z</time>
      </trkpt>
      <trkpt lat="43.64917" lon="1.37508">
        <ele>144</ele>
        <time>2025-01-23T17:17:42Z</time>
      </trkpt>
      <trkpt lat="43.64918" lon="1.37508">
        <ele>145</ele>
        <time>2025-01-23T17:17:43Z</time>
      </trkpt>
      <trkpt lat="43.64919" lon="1.37508">
        <ele>145</ele>
        <time>2025-01-23T17:17:44Z</time>
      </trkpt>
      <trkpt lat="43.64922" lon="1.37507">
        <ele>144</ele>
        <time>2025-01-23T17:17:45Z</time>
      </trkpt>
      <trkpt lat="43.64925" lon="1.37506">
        <ele>144</ele>
        <time>2025-01-23T17:17:46Z</time>
      </trkpt>
      <trkpt lat="43.64929" lon="1.37505">
        <ele>144</ele>
        <time>2025-01-23T17:17:47Z</time>
      </trkpt>
      <trkpt lat="43.64932" lon="1.37504">
        <ele>144</ele>
        <time>2025-01-23T17:17:48Z</time>
      </trkpt>
      <trkpt lat="43.64934" lon="1.37504">
        <ele>144</ele>
        <time>2025-01-23T17:17:49Z</time>
      </trkpt>
      <trkpt lat="43.64935" lon="1.37503">
        <ele>144</ele>
        <time>2025-01-23T17:17:50Z</time>
      </trkpt>
      <trkpt lat="43.64937" lon="1.37503">
        <ele>145</ele>
        <time>2025-01-23T17:17:51Z</time>
      </trkpt>
      <trkpt lat="43.64938" lon="1.37503">
        <ele>145</ele>
        <time>2025-01-23T17:17:52Z</time>
      </trkpt>
      <trkpt lat="43.64945" lon="1.37501">
        <ele>145</ele>
        <time>2025-01-23T17:17:53Z</time>
      </trkpt>
      <trkpt lat="43.64947" lon="1.37501">
        <ele>145</ele>
        <time>2025-01-23T17:17:54Z</time>
      </trkpt>
      <trkpt lat="43.64948" lon="1.37501">
        <ele>145</ele>
        <time>2025-01-23T17:17:55Z</time>
      </trkpt>
      <trkpt lat="43.6495" lon="1.375">
        <ele>145</ele>
        <time>2025-01-23T17:17:56Z</time>
      </trkpt>
      <trkpt lat="43.64958" lon="1.37499">
        <ele>145</ele>
        <time>2025-01-23T17:17:57Z</time>
      </trkpt>
      <trkpt lat="43.64961" lon="1.37498">
        <ele>145</ele>
        <time>2025-01-23T17:17:58Z</time>
      </trkpt>
      <trkpt lat="43.64963" lon="1.37497">
        <ele>144</ele>
        <time>2025-01-23T17:17:59Z</time>
      </trkpt>
      <trkpt lat="43.64966" lon="1.37497">
        <ele>144</ele>
        <time>2025-01-23T17:18:00Z</time>
      </trkpt>
      <trkpt lat="43.64968" lon="1.37496">
        <ele>144</ele>
        <time>2025-01-23T17:18:01Z</time>
      </trkpt>
      <trkpt lat="43.6497" lon="1.37496">
        <ele>144</ele>
        <time>2025-01-23T17:18:02Z</time>
      </trkpt>
      <trkpt lat="43.64973" lon="1.37496">
        <ele>144</ele>
        <time>2025-01-23T17:18:03Z</time>
      </trkpt>
      <trkpt lat="43.64975" lon="1.37496">
        <ele>144</ele>
        <time>2025-01-23T17:18:04Z</time>
      </trkpt>
      <trkpt lat="43.64978" lon="1.37495">
        <ele>144</ele>
        <time>2025-01-23T17:18:05Z</time>
      </trkpt>
      <trkpt lat="43.6498" lon="1.37495">
        <ele>144</ele>
        <time>2025-01-23T17:18:06Z</time>
      </trkpt>
      <trkpt lat="43.64982" lon="1.37494">
        <ele>144</ele>
        <time>2025-01-23T17:18:07Z</time>
      </trkpt>
      <trkpt lat="43.64984" lon="1.37493">
        <ele>144</ele>
        <time>2025-01-23T17:18:08Z</time>
      </trkpt>
      <trkpt lat="43.64986" lon="1.37493">
        <ele>144</ele>
        <time>2025-01-23T17:18:09Z</time>
      </trkpt>
      <trkpt lat="43.64987" lon="1.37493">
        <ele>144</ele>
        <time>2025-01-23T17:18:10Z</time>
      </trkpt>
      <trkpt lat="43.64989" lon="1.37492">
        <ele>144</ele>
        <time>2025-01-23T17:18:11Z</time>
      </trkpt>
      <trkpt lat="43.6499" lon="1.37492">
        <ele>144</ele>
        <time>2025-01-23T17:18:12Z</time>
      </trkpt>
      <trkpt lat="43.64998" lon="1.37491">
        <ele>144</ele>
        <time>2025-01-23T17:18:13Z</time>
      </trkpt>
      <trkpt lat="43.65001" lon="1.37491">
        <ele>144</ele>
        <time>2025-01-23T17:18:14Z</time>
      </trkpt>
      <trkpt lat="43.65003" lon="1.37491">
        <ele>144</ele>
        <time>2025-01-23T17:18:15Z</time>
      </trkpt>
      <trkpt lat="43.65006" lon="1.37491">
        <ele>144</ele>
        <time>2025-01-23T17:18:16Z</time>
      </trkpt>
      <trkpt lat="43.65008" lon="1.37489">
        <ele>144</ele>
        <time>2025-01-23T17:18:17Z</time>
      </trkpt>
      <trkpt lat="43.6501" lon="1.37488">
        <ele>144</ele>
        <time>2025-01-23T17:18:18Z</time>
      </trkpt>
      <trkpt lat="43.65012" lon="1.37486">
        <ele>144</ele>
        <time>2025-01-23T17:18:19Z</time>
      </trkpt>
      <trkpt lat="43.65014" lon="1.37485">
        <ele>144</ele>
        <time>2025-01-23T17:18:20Z</time>
      </trkpt>
      <trkpt lat="43.65016" lon="1.37483">
        <ele>144</ele>
        <time>2025-01-23T17:18:21Z</time>
      </trkpt>
      <trkpt lat="43.65018" lon="1.37482">
        <ele>144</ele>
        <time>2025-01-23T17:18:22Z</time>
      </trkpt>
      <trkpt lat="43.65021" lon="1.37481">
        <ele>144</ele>
        <time>2025-01-23T17:18:23Z</time>
      </trkpt>
      <trkpt lat="43.65023" lon="1.3748">
        <ele>144</ele>
        <time>2025-01-23T17:18:24Z</time>
      </trkpt>
      <trkpt lat="43.65025" lon="1.37478">
        <ele>144</ele>
        <time>2025-01-23T17:18:25Z</time>
      </trkpt>
      <trkpt lat="43.65028" lon="1.37477">
        <ele>144</ele>
        <time>2025-01-23T17:18:26Z</time>
      </trkpt>
      <trkpt lat="43.6503" lon="1.37476">
        <ele>144</ele>
        <time>2025-01-23T17:18:27Z</time>
      </trkpt>
      <trkpt lat="43.65032" lon="1.37475">
        <ele>144</ele>
        <time>2025-01-23T17:18:28Z</time>
      </trkpt>
      <trkpt lat="43.65035" lon="1.37474">
        <ele>144</ele>
        <time>2025-01-23T17:18:29Z</time>
      </trkpt>
      <trkpt lat="43.65037" lon="1.37473">
        <ele>144</ele>
        <time>2025-01-23T17:18:30Z</time>
      </trkpt>
      <trkpt lat="43.65039" lon="1.37472">
        <ele>144</ele>
        <time>2025-01-23T17:18:31Z</time>
      </trkpt>
      <trkpt lat="43.65041" lon="1.37471">
        <ele>144</ele>
        <time>2025-01-23T17:18:32Z</time>
      </trkpt>
      <trkpt lat="43.65044" lon="1.3747">
        <ele>144</ele>
        <time>2025-01-23T17:18:33Z</time>
      </trkpt>
      <trkpt lat="43.65046" lon="1.37468">
        <ele>144</ele>
        <time>2025-01-23T17:18:34Z</time>
      </trkpt>
      <trkpt lat="43.65048" lon="1.37467">
        <ele>144</ele>
        <time>2025-01-23T17:18:35Z</time>
      </trkpt>
      <trkpt lat="43.6505" lon="1.37466">
        <ele>144</ele>
        <time>2025-01-23T17:18:36Z</time>
      </trkpt>
      <trkpt lat="43.65053" lon="1.37465">
        <ele>144</ele>
        <time>2025-01-23T17:18:37Z</time>
      </trkpt>
      <trkpt lat="43.65055" lon="1.37465">
        <ele>144</ele>
        <time>2025-01-23T17:18:38Z</time>
      </trkpt>
      <trkpt lat="43.65057" lon="1.37464">
        <ele>144</ele>
        <time>2025-01-23T17:18:39Z</time>
      </trkpt>
      <trkpt lat="43.6506" lon="1.37463">
        <ele>144</ele>
        <time>2025-01-23T17:18:40Z</time>
      </trkpt>
      <trkpt lat="43.65062" lon="1.37462">
        <ele>144</ele>
        <time>2025-01-23T17:18:41Z</time>
      </trkpt>
      <trkpt lat="43.65065" lon="1.37461">
        <ele>144</ele>
        <time>2025-01-23T17:18:42Z</time>
      </trkpt>
      <trkpt lat="43.65067" lon="1.3746">
        <ele>144</ele>
        <time>2025-01-23T17:18:43Z</time>
      </trkpt>
      <trkpt lat="43.65069" lon="1.37458">
        <ele>144</ele>
        <time>2025-01-23T17:18:44Z</time>
      </trkpt>
      <trkpt lat="43.6507" lon="1.37458">
        <ele>144</ele>
        <time>2025-01-23T17:18:45Z</time>
      </trkpt>
      <trkpt lat="43.65071" lon="1.37457">
        <ele>144</ele>
        <time>2025-01-23T17:18:46Z</time>
      </trkpt>
      <trkpt lat="43.65072" lon="1.37456">
        <ele>144</ele>
        <time>2025-01-23T17:18:47Z</time>
      </trkpt>
      <trkpt lat="43.65073" lon="1.37456">
        <ele>144</ele>
        <time>2025-01-23T17:18:48Z</time>
      </trkpt>
      <trkpt lat="43.65074" lon="1.37455">
        <ele>144</ele>
        <time>2025-01-23T17:18:49Z</time>
      </trkpt>
      <trkpt lat="43.65082" lon="1.37451">
        <ele>144</ele>
        <time>2025-01-23T17:18:50Z</time>
      </trkpt>
      <trkpt lat="43.65085" lon="1.37451">
        <ele>144</ele>
        <time>2025-01-23T17:18:51Z</time>
      </trkpt>
      <trkpt lat="43.65088" lon="1.37451">
        <ele>144</ele>
        <time>2025-01-23T17:18:52Z</time>
      </trkpt>
      <trkpt lat="43.65091" lon="1.3745">
        <ele>144</ele>
        <time>2025-01-23T17:18:53Z</time>
      </trkpt>
      <trkpt lat="43.65093" lon="1.3745">
        <ele>144</ele>
        <time>2025-01-23T17:18:54Z</time>
      </trkpt>
      <trkpt lat="43.65096" lon="1.37449">
        <ele>144</ele>
        <time>2025-01-23T17:18:55Z</time>
      </trkpt>
      <trkpt lat="43.65099" lon="1.37449">
        <ele>144</ele>
        <time>2025-01-23T17:18:56Z</time>
      </trkpt>
      <trkpt lat="43.65101" lon="1.37448">
        <ele>144</ele>
        <time>2025-01-23T17:18:57Z</time>
      </trkpt>
      <trkpt lat="43.65103" lon="1.37447">
        <ele>144</ele>
        <time>2025-01-23T17:18:58Z</time>
      </trkpt>
      <trkpt lat="43.65105" lon="1.37445">
        <ele>144</ele>
        <time>2025-01-23T17:18:59Z</time>
      </trkpt>
      <trkpt lat="43.65107" lon="1.37444">
        <ele>144</ele>
        <time>2025-01-23T17:19:00Z</time>
      </trkpt>
      <trkpt lat="43.65109" lon="1.37444">
        <ele>144</ele>
        <time>2025-01-23T17:19:01Z</time>
      </trkpt>
      <trkpt lat="43.65111" lon="1.37444">
        <ele>144</ele>
        <time>2025-01-23T17:19:02Z</time>
      </trkpt>
      <trkpt lat="43.65113" lon="1.37443">
        <ele>144</ele>
        <time>2025-01-23T17:19:03Z</time>
      </trkpt>
      <trkpt lat="43.65115" lon="1.37443">
        <ele>144</ele>
        <time>2025-01-23T17:19:04Z</time>
      </trkpt>
      <trkpt lat="43.65117" lon="1.37443">
        <ele>144</ele>
        <time>2025-01-23T17:19:05Z</time>
      </trkpt>
      <trkpt lat="43.65119" lon="1.37442">
        <ele>144</ele>
        <time>2025-01-23T17:19:06Z</time>
      </trkpt>
      <trkpt lat="43.65121" lon="1.37441">
        <ele>144</ele>
        <time>2025-01-23T17:19:07Z</time>
      </trkpt>
      <trkpt lat="43.65123" lon="1.3744">
        <ele>144</ele>
        <time>2025-01-23T17:19:08Z</time>
      </trkpt>
      <trkpt lat="43.65125" lon="1.37439">
        <ele>144</ele>
        <time>2025-01-23T17:19:09Z</time>
      </trkpt>
      <trkpt lat="43.65127" lon="1.37438">
        <ele>144</ele>
        <time>2025-01-23T17:19:10Z</time>
      </trkpt>
      <trkpt lat="43.6513" lon="1.3744">
        <ele>144</ele>
        <time>2025-01-23T17:19:11Z</time>
      </trkpt>
      <trkpt lat="43.65132" lon="1.37441">
        <ele>144</ele>
        <time>2025-01-23T17:19:12Z</time>
      </trkpt>
      <trkpt lat="43.65134" lon="1.37443">
        <ele>144</ele>
        <time>2025-01-23T17:19:13Z</time>
      </trkpt>
      <trkpt lat="43.65136" lon="1.37445">
        <ele>144</ele>
        <time>2025-01-23T17:19:14Z</time>
      </trkpt>
      <trkpt lat="43.65138" lon="1.37443">
        <ele>143</ele>
        <time>2025-01-23T17:19:15Z</time>
      </trkpt>
      <trkpt lat="43.6514" lon="1.37441">
        <ele>143</ele>
        <time>2025-01-23T17:19:16Z</time>
      </trkpt>
      <trkpt lat="43.65142" lon="1.3744">
        <ele>143</ele>
        <time>2025-01-23T17:19:17Z</time>
      </trkpt>
      <trkpt lat="43.65144" lon="1.37438">
        <ele>143</ele>
        <time>2025-01-23T17:19:18Z</time>
      </trkpt>
      <trkpt lat="43.65146" lon="1.37438">
        <ele>143</ele>
        <time>2025-01-23T17:19:19Z</time>
      </trkpt>
      <trkpt lat="43.65148" lon="1.37437">
        <ele>143</ele>
        <time>2025-01-23T17:19:20Z</time>
      </trkpt>
      <trkpt lat="43.6515" lon="1.37437">
        <ele>143</ele>
        <time>2025-01-23T17:19:21Z</time>
      </trkpt>
      <trkpt lat="43.65153" lon="1.37437">
        <ele>143</ele>
        <time>2025-01-23T17:19:22Z</time>
      </trkpt>
      <trkpt lat="43.65155" lon="1.37436">
        <ele>143</ele>
        <time>2025-01-23T17:19:23Z</time>
      </trkpt>
      <trkpt lat="43.65157" lon="1.37434">
        <ele>143</ele>
        <time>2025-01-23T17:19:24Z</time>
      </trkpt>
      <trkpt lat="43.6516" lon="1.37432">
        <ele>143</ele>
        <time>2025-01-23T17:19:25Z</time>
      </trkpt>
      <trkpt lat="43.65163" lon="1.37429">
        <ele>143</ele>
        <time>2025-01-23T17:19:26Z</time>
      </trkpt>
      <trkpt lat="43.65166" lon="1.37429">
        <ele>143</ele>
        <time>2025-01-23T17:19:27Z</time>
      </trkpt>
      <trkpt lat="43.65168" lon="1.37428">
        <ele>143</ele>
        <time>2025-01-23T17:19:28Z</time>
      </trkpt>
      <trkpt lat="43.65171" lon="1.37428">
        <ele>143</ele>
        <time>2025-01-23T17:19:29Z</time>
      </trkpt>
      <trkpt lat="43.65174" lon="1.37427">
        <ele>144</ele>
        <time>2025-01-23T17:19:30Z</time>
      </trkpt>
      <trkpt lat="43.65176" lon="1.37428">
        <ele>144</ele>
        <time>2025-01-23T17:19:31Z</time>
      </trkpt>
      <trkpt lat="43.65178" lon="1.37429">
        <ele>144</ele>
        <time>2025-01-23T17:19:32Z</time>
      </trkpt>
      <trkpt lat="43.65179" lon="1.37431">
        <ele>144</ele>
        <time>2025-01-23T17:19:33Z</time>
      </trkpt>
      <trkpt lat="43.65187" lon="1.37434">
        <ele>144</ele>
        <time>2025-01-23T17:19:34Z</time>
      </trkpt>
      <trkpt lat="43.65189" lon="1.37434">
        <ele>144</ele>
        <time>2025-01-23T17:19:35Z</time>
      </trkpt>
      <trkpt lat="43.65191" lon="1.37434">
        <ele>144</ele>
        <time>2025-01-23T17:19:36Z</time>
      </trkpt>
      <trkpt lat="43.65194" lon="1.37434">
        <ele>144</ele>
        <time>2025-01-23T17:19:37Z</time>
      </trkpt>
      <trkpt lat="43.65197" lon="1.37435">
        <ele>143</ele>
        <time>2025-01-23T17:19:38Z</time>
      </trkpt>
      <trkpt lat="43.652" lon="1.37436">
        <ele>143</ele>
        <time>2025-01-23T17:19:39Z</time>
      </trkpt>
      <trkpt lat="43.65203" lon="1.37437">
        <ele>143</ele>
        <time>2025-01-23T17:19:40Z</time>
      </trkpt>
      <trkpt lat="43.65205" lon="1.37438">
        <ele>143</ele>
        <time>2025-01-23T17:19:41Z</time>
      </trkpt>
      <trkpt lat="43.65208" lon="1.37438">
        <ele>143</ele>
        <time>2025-01-23T17:19:42Z</time>
      </trkpt>
      <trkpt lat="43.65211" lon="1.37439">
        <ele>143</ele>
        <time>2025-01-23T17:19:43Z</time>
      </trkpt>
      <trkpt lat="43.65213" lon="1.3744">
        <ele>143</ele>
        <time>2025-01-23T17:19:44Z</time>
      </trkpt>
      <trkpt lat="43.65215" lon="1.3744">
        <ele>143</ele>
        <time>2025-01-23T17:19:45Z</time>
      </trkpt>
      <trkpt lat="43.65218" lon="1.3744">
        <ele>143</ele>
        <time>2025-01-23T17:19:46Z</time>
      </trkpt>
      <trkpt lat="43.6522" lon="1.3744">
        <ele>143</ele>
        <time>2025-01-23T17:19:47Z</time>
      </trkpt>
      <trkpt lat="43.65222" lon="1.3744">
        <ele>143</ele>
        <time>2025-01-23T17:19:48Z</time>
      </trkpt>
      <trkpt lat="43.65224" lon="1.3744">
        <ele>143</ele>
        <time>2025-01-23T17:19:49Z</time>
      </trkpt>
      <trkpt lat="43.65226" lon="1.37441">
        <ele>143</ele>
        <time>2025-01-23T17:19:50Z</time>
      </trkpt>
      <trkpt lat="43.65228" lon="1.37441">
        <ele>143</ele>
        <time>2025-01-23T17:19:51Z</time>
      </trkpt>
      <trkpt lat="43.6523" lon="1.37442">
        <ele>143</ele>
        <time>2025-01-23T17:19:52Z</time>
      </trkpt>
      <trkpt lat="43.65232" lon="1.37442">
        <ele>143</ele>
        <time>2025-01-23T17:19:53Z</time>
      </trkpt>
      <trkpt lat="43.65235" lon="1.37443">
        <ele>143</ele>
        <time>2025-01-23T17:19:54Z</time>
      </trkpt>
      <trkpt lat="43.65237" lon="1.37444">
        <ele>143</ele>
        <time>2025-01-23T17:19:55Z</time>
      </trkpt>
      <trkpt lat="43.65239" lon="1.37445">
        <ele>143</ele>
        <time>2025-01-23T17:19:56Z</time>
      </trkpt>
      <trkpt lat="43.65242" lon="1.37446">
        <ele>143</ele>
        <time>2025-01-23T17:19:57Z</time>
      </trkpt>
      <trkpt lat="43.65244" lon="1.37447">
        <ele>143</ele>
        <time>2025-01-23T17:19:58Z</time>
      </trkpt>
      <trkpt lat="43.65247" lon="1.37448">
        <ele>143</ele>
        <time>2025-01-23T17:19:59Z</time>
      </trkpt>
      <trkpt lat="43.6525" lon="1.37448">
        <ele>143</ele>
        <time>2025-01-23T17:20:00Z</time>
      </trkpt>
      <trkpt lat="43.65253" lon="1.37449">
        <ele>143</ele>
        <time>2025-01-23T17:20:01Z</time>
      </trkpt>
      <trkpt lat="43.65255" lon="1.37449">
        <ele>143</ele>
        <time>2025-01-23T17:20:02Z</time>
      </trkpt>
      <trkpt lat="43.65258" lon="1.3745">
        <ele>143</ele>
        <time>2025-01-23T17:20:03Z</time>
      </trkpt>
      <trkpt lat="43.6526" lon="1.3745">
        <ele>143</ele>
        <time>2025-01-23T17:20:04Z</time>
      </trkpt>
      <trkpt lat="43.65262" lon="1.3745">
        <ele>143</ele>
        <time>2025-01-23T17:20:05Z</time>
      </trkpt>
      <trkpt lat="43.65265" lon="1.3745">
        <ele>143</ele>
        <time>2025-01-23T17:20:06Z</time>
      </trkpt>
      <trkpt lat="43.65267" lon="1.37451">
        <ele>142</ele>
        <time>2025-01-23T17:20:07Z</time>
      </trkpt>
      <trkpt lat="43.65269" lon="1.37451">
        <ele>143</ele>
        <time>2025-01-23T17:20:08Z</time>
      </trkpt>
      <trkpt lat="43.65272" lon="1.37451">
        <ele>143</ele>
        <time>2025-01-23T17:20:09Z</time>
      </trkpt>
      <trkpt lat="43.65273" lon="1.37452">
        <ele>143</ele>
        <time>2025-01-23T17:20:10Z</time>
      </trkpt>
      <trkpt lat="43.65274" lon="1.37452">
        <ele>143</ele>
        <time>2025-01-23T17:20:11Z</time>
      </trkpt>
      <trkpt lat="43.65275" lon="1.37452">
        <ele>143</ele>
        <time>2025-01-23T17:20:12Z</time>
      </trkpt>
      <trkpt lat="43.65276" lon="1.37453">
        <ele>143</ele>
        <time>2025-01-23T17:20:13Z</time>
      </trkpt>
      <trkpt lat="43.65277" lon="1.37453">
        <ele>143</ele>
        <time>2025-01-23T17:20:14Z</time>
      </trkpt>
      <trkpt lat="43.65285" lon="1.37456">
        <ele>143</ele>
        <time>2025-01-23T17:20:15Z</time>
      </trkpt>
      <trkpt lat="43.65287" lon="1.37458">
        <ele>143</ele>
        <time>2025-01-23T17:20:16Z</time>
      </trkpt>
      <trkpt lat="43.65289" lon="1.37459">
        <ele>143</ele>
        <time>2025-01-23T17:20:17Z</time>
      </trkpt>
      <trkpt lat="43.65292" lon="1.3746">
        <ele>143</ele>
        <time>2025-01-23T17:20:18Z</time>
      </trkpt>
      <trkpt lat="43.65293" lon="1.3746">
        <ele>143</ele>
        <time>2025-01-23T17:20:19Z</time>
      </trkpt>
      <trkpt lat="43.65294" lon="1.3746">
        <ele>143</ele>
        <time>2025-01-23T17:20:20Z</time>
      </trkpt>
      <trkpt lat="43.65296" lon="1.3746">
        <ele>143</ele>
        <time>2025-01-23T17:20:21Z</time>
      </trkpt>
      <trkpt lat="43.65297" lon="1.3746">
        <ele>143</ele>
        <time>2025-01-23T17:20:22Z</time>
      </trkpt>
      <trkpt lat="43.65305" lon="1.37461">
        <ele>142</ele>
        <time>2025-01-23T17:20:23Z</time>
      </trkpt>
      <trkpt lat="43.65307" lon="1.3746">
        <ele>142</ele>
        <time>2025-01-23T17:20:24Z</time>
      </trkpt>
      <trkpt lat="43.65309" lon="1.3746">
        <ele>142</ele>
        <time>2025-01-23T17:20:25Z</time>
      </trkpt>
      <trkpt lat="43.65311" lon="1.37459">
        <ele>143</ele>
        <time>2025-01-23T17:20:26Z</time>
      </trkpt>
      <trkpt lat="43.65314" lon="1.37459">
        <ele>143</ele>
        <time>2025-01-23T17:20:27Z</time>
      </trkpt>
      <trkpt lat="43.65316" lon="1.37458">
        <ele>143</ele>
        <time>2025-01-23T17:20:28Z</time>
      </trkpt>
      <trkpt lat="43.65318" lon="1.37458">
        <ele>143</ele>
        <time>2025-01-23T17:20:29Z</time>
      </trkpt>
      <trkpt lat="43.6532" lon="1.37457">
        <ele>143</ele>
        <time>2025-01-23T17:20:30Z</time>
      </trkpt>
      <trkpt lat="43.65323" lon="1.37457">
        <ele>143</ele>
        <time>2025-01-23T17:20:31Z</time>
      </trkpt>
      <trkpt lat="43.65325" lon="1.37456">
        <ele>143</ele>
        <time>2025-01-23T17:20:32Z</time>
      </trkpt>
      <trkpt lat="43.65327" lon="1.37456">
        <ele>142</ele>
        <time>2025-01-23T17:20:33Z</time>
      </trkpt>
      <trkpt lat="43.6533" lon="1.37455">
        <ele>143</ele>
        <time>2025-01-23T17:20:34Z</time>
      </trkpt>
      <trkpt lat="43.65332" lon="1.37455">
        <ele>143</ele>
        <time>2025-01-23T17:20:35Z</time>
      </trkpt>
      <trkpt lat="43.65334" lon="1.37454">
        <ele>143</ele>
        <time>2025-01-23T17:20:36Z</time>
      </trkpt>
      <trkpt lat="43.65337" lon="1.37454">
        <ele>143</ele>
        <time>2025-01-23T17:20:37Z</time>
      </trkpt>
      <trkpt lat="43.65339" lon="1.37453">
        <ele>143</ele>
        <time>2025-01-23T17:20:38Z</time>
      </trkpt>
      <trkpt lat="43.65341" lon="1.37453">
        <ele>143</ele>
        <time>2025-01-23T17:20:39Z</time>
      </trkpt>
      <trkpt lat="43.65344" lon="1.37452">
        <ele>143</ele>
        <time>2025-01-23T17:20:40Z</time>
      </trkpt>
      <trkpt lat="43.65346" lon="1.37451">
        <ele>143</ele>
        <time>2025-01-23T17:20:41Z</time>
      </trkpt>
      <trkpt lat="43.65348" lon="1.3745">
        <ele>143</ele>
        <time>2025-01-23T17:20:42Z</time>
      </trkpt>
      <trkpt lat="43.65351" lon="1.37449">
        <ele>143</ele>
        <time>2025-01-23T17:20:43Z</time>
      </trkpt>
      <trkpt lat="43.65353" lon="1.37449">
        <ele>143</ele>
        <time>2025-01-23T17:20:44Z</time>
      </trkpt>
      <trkpt lat="43.65355" lon="1.37448">
        <ele>143</ele>
        <time>2025-01-23T17:20:45Z</time>
      </trkpt>
      <trkpt lat="43.65357" lon="1.37447">
        <ele>143</ele>
        <time>2025-01-23T17:20:46Z</time>
      </trkpt>
      <trkpt lat="43.65358" lon="1.37446">
        <ele>143</ele>
        <time>2025-01-23T17:20:47Z</time>
      </trkpt>
      <trkpt lat="43.65359" lon="1.37446">
        <ele>143</ele>
        <time>2025-01-23T17:20:48Z</time>
      </trkpt>
      <trkpt lat="43.6536" lon="1.37445">
        <ele>143</ele>
        <time>2025-01-23T17:20:49Z</time>
      </trkpt>
      <trkpt lat="43.65361" lon="1.37445">
        <ele>143</ele>
        <time>2025-01-23T17:20:50Z</time>
      </trkpt>
      <trkpt lat="43.65363" lon="1.37444">
        <ele>143</ele>
        <time>2025-01-23T17:20:51Z</time>
      </trkpt>
      <trkpt lat="43.65369" lon="1.37441">
        <ele>143</ele>
        <time>2025-01-23T17:20:52Z</time>
      </trkpt>
      <trkpt lat="43.6537" lon="1.3744">
        <ele>143</ele>
        <time>2025-01-23T17:20:53Z</time>
      </trkpt>
      <trkpt lat="43.65371" lon="1.3744">
        <ele>143</ele>
        <time>2025-01-23T17:20:54Z</time>
      </trkpt>
      <trkpt lat="43.65372" lon="1.37439">
        <ele>142</ele>
        <time>2025-01-23T17:20:55Z</time>
      </trkpt>
      <trkpt lat="43.65373" lon="1.37439">
        <ele>142</ele>
        <time>2025-01-23T17:20:56Z</time>
      </trkpt>
      <trkpt lat="43.6538" lon="1.37434">
        <ele>142</ele>
        <time>2025-01-23T17:20:57Z</time>
      </trkpt>
      <trkpt lat="43.65382" lon="1.37433">
        <ele>142</ele>
        <time>2025-01-23T17:20:58Z</time>
      </trkpt>
      <trkpt lat="43.65384" lon="1.37431">
        <ele>142</ele>
        <time>2025-01-23T17:20:59Z</time>
      </trkpt>
      <trkpt lat="43.65386" lon="1.3743">
        <ele>143</ele>
        <time>2025-01-23T17:21:00Z</time>
      </trkpt>
      <trkpt lat="43.65388" lon="1.37429">
        <ele>143</ele>
        <time>2025-01-23T17:21:01Z</time>
      </trkpt>
      <trkpt lat="43.65391" lon="1.37428">
        <ele>143</ele>
        <time>2025-01-23T17:21:02Z</time>
      </trkpt>
      <trkpt lat="43.65393" lon="1.37427">
        <ele>143</ele>
        <time>2025-01-23T17:21:03Z</time>
      </trkpt>
      <trkpt lat="43.65395" lon="1.37425">
        <ele>143</ele>
        <time>2025-01-23T17:21:04Z</time>
      </trkpt>
      <trkpt lat="43.65398" lon="1.37424">
        <ele>142</ele>
        <time>2025-01-23T17:21:05Z</time>
      </trkpt>
      <trkpt lat="43.654" lon="1.37423">
        <ele>142</ele>
        <time>2025-01-23T17:21:06Z</time>
      </trkpt>
      <trkpt lat="43.65403" lon="1.37422">
        <ele>142</ele>
        <time>2025-01-23T17:21:07Z</time>
      </trkpt>
      <trkpt lat="43.65405" lon="1.37421">
        <ele>142</ele>
        <time>2025-01-23T17:21:08Z</time>
      </trkpt>
      <trkpt lat="43.65408" lon="1.3742">
        <ele>142</ele>
        <time>2025-01-23T17:21:09Z</time>
      </trkpt>
      <trkpt lat="43.65411" lon="1.37419">
        <ele>142</ele>
        <time>2025-01-23T17:21:10Z</time>
      </trkpt>
      <trkpt lat="43.65415" lon="1.37418">
        <ele>142</ele>
        <time>2025-01-23T17:21:11Z</time>
      </trkpt>
      <trkpt lat="43.65424" lon="1.37416">
        <ele>142</ele>
        <time>2025-01-23T17:21:12Z</time>
      </trkpt>
      <trkpt lat="43.65424" lon="1.37416">
        <ele>142</ele>
        <time>2025-01-23T17:21:13Z</time>
      </trkpt>
      <trkpt lat="43.65425" lon="1.37414">
        <ele>142</ele>
        <time>2025-01-23T17:21:14Z</time>
      </trkpt>
      <trkpt lat="43.65427" lon="1.37412">
        <ele>142</ele>
        <time>2025-01-23T17:21:15Z</time>
      </trkpt>
      <trkpt lat="43.65428" lon="1.3741">
        <ele>142</ele>
        <time>2025-01-23T17:21:16Z</time>
      </trkpt>
      <trkpt lat="43.65429" lon="1.37408">
        <ele>143</ele>
        <time>2025-01-23T17:21:17Z</time>
      </trkpt>
      <trkpt lat="43.6543" lon="1.37406">
        <ele>143</ele>
        <time>2025-01-23T17:21:18Z</time>
      </trkpt>
      <trkpt lat="43.65432" lon="1.37406">
        <ele>143</ele>
        <time>2025-01-23T17:21:19Z</time>
      </trkpt>
      <trkpt lat="43.65433" lon="1.37405">
        <ele>143</ele>
        <time>2025-01-23T17:21:20Z</time>
      </trkpt>
      <trkpt lat="43.65435" lon="1.37404">
        <ele>143</ele>
        <time>2025-01-23T17:21:21Z</time>
      </trkpt>
      <trkpt lat="43.65436" lon="1.37403">
        <ele>142</ele>
        <time>2025-01-23T17:21:22Z</time>
      </trkpt>
      <trkpt lat="43.65438" lon="1.37403">
        <ele>142</ele>
        <time>2025-01-23T17:21:23Z</time>
      </trkpt>
      <trkpt lat="43.6544" lon="1.37402">
        <ele>142</ele>
        <time>2025-01-23T17:21:24Z</time>
      </trkpt>
      <trkpt lat="43.65443" lon="1.37401">
        <ele>143</ele>
        <time>2025-01-23T17:21:25Z</time>
      </trkpt>
      <trkpt lat="43.65446" lon="1.374">
        <ele>143</ele>
        <time>2025-01-23T17:21:26Z</time>
      </trkpt>
      <trkpt lat="43.65448" lon="1.374">
        <ele>142</ele>
        <time>2025-01-23T17:21:27Z</time>
      </trkpt>
      <trkpt lat="43.65451" lon="1.37399">
        <ele>142</ele>
        <time>2025-01-23T17:21:28Z</time>
      </trkpt>
      <trkpt lat="43.65463" lon="1.37396">
        <ele>142</ele>
        <time>2025-01-23T17:21:29Z</time>
      </trkpt>
      <trkpt lat="43.65463" lon="1.37396">
        <ele>142</ele>
        <time>2025-01-23T17:21:30Z</time>
      </trkpt>
      <trkpt lat="43.65464" lon="1.37394">
        <ele>142</ele>
        <time>2025-01-23T17:21:31Z</time>
      </trkpt>
      <trkpt lat="43.65465" lon="1.37392">
        <ele>142</ele>
        <time>2025-01-23T17:21:32Z</time>
      </trkpt>
      <trkpt lat="43.65466" lon="1.3739">
        <ele>142</ele>
        <time>2025-01-23T17:21:33Z</time>
      </trkpt>
      <trkpt lat="43.65467" lon="1.37388">
        <ele>142</ele>
        <time>2025-01-23T17:21:34Z</time>
      </trkpt>
      <trkpt lat="43.65468" lon="1.37385">
        <ele>142</ele>
        <time>2025-01-23T17:21:35Z</time>
      </trkpt>
      <trkpt lat="43.65469" lon="1.37384">
        <ele>142</ele>
        <time>2025-01-23T17:21:36Z</time>
      </trkpt>
      <trkpt lat="43.65469" lon="1.37382">
        <ele>142</ele>
        <time>2025-01-23T17:21:37Z</time>
      </trkpt>
      <trkpt lat="43.65469" lon="1.3738">
        <ele>142</ele>
        <time>2025-01-23T17:21:38Z</time>
      </trkpt>
      <trkpt lat="43.65469" lon="1.37379">
        <ele>142</ele>
        <time>2025-01-23T17:21:39Z</time>
      </trkpt>
      <trkpt lat="43.65473" lon="1.37371">
        <ele>142</ele>
        <time>2025-01-23T17:21:40Z</time>
      </trkpt>
      <trkpt lat="43.65477" lon="1.3737">
        <ele>142</ele>
        <time>2025-01-23T17:21:41Z</time>
      </trkpt>
      <trkpt lat="43.6548" lon="1.37369">
        <ele>142</ele>
        <time>2025-01-23T17:21:42Z</time>
      </trkpt>
      <trkpt lat="43.65482" lon="1.37369">
        <ele>142</ele>
        <time>2025-01-23T17:21:43Z</time>
      </trkpt>
      <trkpt lat="43.65484" lon="1.37369">
        <ele>142</ele>
        <time>2025-01-23T17:21:44Z</time>
      </trkpt>
      <trkpt lat="43.65487" lon="1.37369">
        <ele>142</ele>
        <time>2025-01-23T17:21:45Z</time>
      </trkpt>
      <trkpt lat="43.65489" lon="1.37369">
        <ele>142</ele>
        <time>2025-01-23T17:21:46Z</time>
      </trkpt>
      <trkpt lat="43.65491" lon="1.37368">
        <ele>142</ele>
        <time>2025-01-23T17:21:47Z</time>
      </trkpt>
      <trkpt lat="43.65494" lon="1.37367">
        <ele>142</ele>
        <time>2025-01-23T17:21:48Z</time>
      </trkpt>
      <trkpt lat="43.65496" lon="1.37367">
        <ele>142</ele>
        <time>2025-01-23T17:21:49Z</time>
      </trkpt>
      <trkpt lat="43.65503" lon="1.37363">
        <ele>141</ele>
        <time>2025-01-23T17:21:50Z</time>
      </trkpt>
      <trkpt lat="43.65504" lon="1.37361">
        <ele>141</ele>
        <time>2025-01-23T17:21:51Z</time>
      </trkpt>
      <trkpt lat="43.65505" lon="1.37359">
        <ele>141</ele>
        <time>2025-01-23T17:21:52Z</time>
      </trkpt>
      <trkpt lat="43.65506" lon="1.37357">
        <ele>141</ele>
        <time>2025-01-23T17:21:53Z</time>
      </trkpt>
      <trkpt lat="43.65507" lon="1.37355">
        <ele>141</ele>
        <time>2025-01-23T17:21:54Z</time>
      </trkpt>
      <trkpt lat="43.65508" lon="1.37353">
        <ele>141</ele>
        <time>2025-01-23T17:21:55Z</time>
      </trkpt>
      <trkpt lat="43.6551" lon="1.37351">
        <ele>141</ele>
        <time>2025-01-23T17:21:56Z</time>
      </trkpt>
      <trkpt lat="43.65512" lon="1.37349">
        <ele>142</ele>
        <time>2025-01-23T17:21:57Z</time>
      </trkpt>
      <trkpt lat="43.65513" lon="1.37346">
        <ele>142</ele>
        <time>2025-01-23T17:21:58Z</time>
      </trkpt>
      <trkpt lat="43.65515" lon="1.37344">
        <ele>141</ele>
        <time>2025-01-23T17:21:59Z</time>
      </trkpt>
      <trkpt lat="43.65518" lon="1.37343">
        <ele>141</ele>
        <time>2025-01-23T17:22:00Z</time>
      </trkpt>
      <trkpt lat="43.6552" lon="1.37342">
        <ele>141</ele>
        <time>2025-01-23T17:22:01Z</time>
      </trkpt>
      <trkpt lat="43.65523" lon="1.3734">
        <ele>141</ele>
        <time>2025-01-23T17:22:02Z</time>
      </trkpt>
      <trkpt lat="43.65526" lon="1.37339">
        <ele>141</ele>
        <time>2025-01-23T17:22:03Z</time>
      </trkpt>
      <trkpt lat="43.65527" lon="1.37338">
        <ele>141</ele>
        <time>2025-01-23T17:22:04Z</time>
      </trkpt>
      <trkpt lat="43.65529" lon="1.37336">
        <ele>141</ele>
        <time>2025-01-23T17:22:05Z</time>
      </trkpt>
      <trkpt lat="43.65531" lon="1.37334">
        <ele>141</ele>
        <time>2025-01-23T17:22:06Z</time>
      </trkpt>
      <trkpt lat="43.65532" lon="1.37332">
        <ele>141</ele>
        <time>2025-01-23T17:22:07Z</time>
      </trkpt>
      <trkpt lat="43.65534" lon="1.37331">
        <ele>141</ele>
        <time>2025-01-23T17:22:08Z</time>
      </trkpt>
      <trkpt lat="43.65535" lon="1.3733">
        <ele>141</ele>
        <time>2025-01-23T17:22:09Z</time>
      </trkpt>
      <trkpt lat="43.65537" lon="1.3733">
        <ele>141</ele>
        <time>2025-01-23T17:22:10Z</time>
      </trkpt>
      <trkpt lat="43.65538" lon="1.37329">
        <ele>141</ele>
        <time>2025-01-23T17:22:11Z</time>
      </trkpt>
      <trkpt lat="43.65539" lon="1.37329">
        <ele>141</ele>
        <time>2025-01-23T17:22:12Z</time>
      </trkpt>
      <trkpt lat="43.65547" lon="1.37325">
        <ele>141</ele>
        <time>2025-01-23T17:22:13Z</time>
      </trkpt>
      <trkpt lat="43.65549" lon="1.37324">
        <ele>141</ele>
        <time>2025-01-23T17:22:14Z</time>
      </trkpt>
      <trkpt lat="43.65551" lon="1.37323">
        <ele>141</ele>
        <time>2025-01-23T17:22:15Z</time>
      </trkpt>
      <trkpt lat="43.65553" lon="1.37321">
        <ele>141</ele>
        <time>2025-01-23T17:22:16Z</time>
      </trkpt>
      <trkpt lat="43.65555" lon="1.3732">
        <ele>141</ele>
        <time>2025-01-23T17:22:17Z</time>
      </trkpt>
      <trkpt lat="43.65556" lon="1.37318">
        <ele>141</ele>
        <time>2025-01-23T17:22:18Z</time>
      </trkpt>
      <trkpt lat="43.65558" lon="1.37316">
        <ele>141</ele>
        <time>2025-01-23T17:22:19Z</time>
      </trkpt>
      <trkpt lat="43.65559" lon="1.37315">
        <ele>141</ele>
        <time>2025-01-23T17:22:20Z</time>
      </trkpt>
      <trkpt lat="43.65561" lon="1.37313">
        <ele>141</ele>
        <time>2025-01-23T17:22:21Z</time>
      </trkpt>
      <trkpt lat="43.65563" lon="1.37312">
        <ele>141</ele>
        <time>2025-01-23T17:22:22Z</time>
      </trkpt>
      <trkpt lat="43.65565" lon="1.37311">
        <ele>141</ele>
        <time>2025-01-23T17:22:23Z</time>
      </trkpt>
      <trkpt lat="43.65567" lon="1.3731">
        <ele>141</ele>
        <time>2025-01-23T17:22:24Z</time>
      </trkpt>
      <trkpt lat="43.65569" lon="1.37309">
        <ele>141</ele>
        <time>2025-01-23T17:22:25Z</time>
      </trkpt>
      <trkpt lat="43.6557" lon="1.37309">
        <ele>141</ele>
        <time>2025-01-23T17:22:26Z</time>
      </trkpt>
      <trkpt lat="43.65572" lon="1.37308">
        <ele>141</ele>
        <time>2025-01-23T17:22:27Z</time>
      </trkpt>
      <trkpt lat="43.65573" lon="1.37307">
        <ele>141</ele>
        <time>2025-01-23T17:22:28Z</time>
      </trkpt>
      <trkpt lat="43.65574" lon="1.37306">
        <ele>141</ele>
        <time>2025-01-23T17:22:29Z</time>
      </trkpt>
      <trkpt lat="43.65581" lon="1.37302">
        <ele>141</ele>
        <time>2025-01-23T17:22:30Z</time>
      </trkpt>
      <trkpt lat="43.65583" lon="1.37301">
        <ele>141</ele>
        <time>2025-01-23T17:22:31Z</time>
      </trkpt>
      <trkpt lat="43.65585" lon="1.37301">
        <ele>141</ele>
        <time>2025-01-23T17:22:32Z</time>
      </trkpt>
      <trkpt lat="43.65595" lon="1.37299">
        <ele>141</ele>
        <time>2025-01-23T17:22:33Z</time>
      </trkpt>
      <trkpt lat="43.65599" lon="1.37298">
        <ele>141</ele>
        <time>2025-01-23T17:22:34Z</time>
      </trkpt>
      <trkpt lat="43.65602" lon="1.37297">
        <ele>141</ele>
        <time>2025-01-23T17:22:35Z</time>
      </trkpt>
      <trkpt lat="43.65603" lon="1.37296">
        <ele>141</ele>
        <time>2025-01-23T17:22:36Z</time>
      </trkpt>
      <trkpt lat="43.65603" lon="1.37295">
        <ele>141</ele>
        <time>2025-01-23T17:22:37Z</time>
      </trkpt>
      <trkpt lat="43.65604" lon="1.37295">
        <ele>141</ele>
        <time>2025-01-23T17:22:38Z</time>
      </trkpt>
      <trkpt lat="43.65605" lon="1.37294">
        <ele>141</ele>
        <time>2025-01-23T17:22:39Z</time>
      </trkpt>
      <trkpt lat="43.65605" lon="1.37293">
        <ele>141</ele>
        <time>2025-01-23T17:22:40Z</time>
      </trkpt>
      <trkpt lat="43.65606" lon="1.37292">
        <ele>141</ele>
        <time>2025-01-23T17:22:41Z</time>
      </trkpt>
      <trkpt lat="43.65612" lon="1.37286">
        <ele>141</ele>
        <time>2025-01-23T17:22:42Z</time>
      </trkpt>
      <trkpt lat="43.65615" lon="1.37285">
        <ele>141</ele>
        <time>2025-01-23T17:22:43Z</time>
      </trkpt>
      <trkpt lat="43.65617" lon="1.37284">
        <ele>141</ele>
        <time>2025-01-23T17:22:44Z</time>
      </trkpt>
      <trkpt lat="43.65619" lon="1.37282">
        <ele>141</ele>
        <time>2025-01-23T17:22:45Z</time>
      </trkpt>
      <trkpt lat="43.6562" lon="1.3728">
        <ele>141</ele>
        <time>2025-01-23T17:22:46Z</time>
      </trkpt>
      <trkpt lat="43.65622" lon="1.37278">
        <ele>141</ele>
        <time>2025-01-23T17:22:47Z</time>
      </trkpt>
      <trkpt lat="43.65623" lon="1.37276">
        <ele>141</ele>
        <time>2025-01-23T17:22:48Z</time>
      </trkpt>
      <trkpt lat="43.65624" lon="1.37274">
        <ele>141</ele>
        <time>2025-01-23T17:22:49Z</time>
      </trkpt>
      <trkpt lat="43.65626" lon="1.37272">
        <ele>141</ele>
        <time>2025-01-23T17:22:50Z</time>
      </trkpt>
      <trkpt lat="43.65627" lon="1.37269">
        <ele>141</ele>
        <time>2025-01-23T17:22:51Z</time>
      </trkpt>
      <trkpt lat="43.65628" lon="1.37266">
        <ele>141</ele>
        <time>2025-01-23T17:22:52Z</time>
      </trkpt>
      <trkpt lat="43.6563" lon="1.37263">
        <ele>141</ele>
        <time>2025-01-23T17:22:53Z</time>
      </trkpt>
      <trkpt lat="43.65631" lon="1.37261">
        <ele>141</ele>
        <time>2025-01-23T17:22:54Z</time>
      </trkpt>
      <trkpt lat="43.65633" lon="1.37258">
        <ele>141</ele>
        <time>2025-01-23T17:22:55Z</time>
      </trkpt>
      <trkpt lat="43.65634" lon="1.37256">
        <ele>141</ele>
        <time>2025-01-23T17:22:56Z</time>
      </trkpt>
      <trkpt lat="43.65636" lon="1.37254">
        <ele>141</ele>
        <time>2025-01-23T17:22:57Z</time>
      </trkpt>
      <trkpt lat="43.65638" lon="1.37252">
        <ele>141</ele>
        <time>2025-01-23T17:22:58Z</time>
      </trkpt>
      <trkpt lat="43.6564" lon="1.3725">
        <ele>141</ele>
        <time>2025-01-23T17:22:59Z</time>
      </trkpt>
      <trkpt lat="43.65643" lon="1.37249">
        <ele>141</ele>
        <time>2025-01-23T17:23:00Z</time>
      </trkpt>
      <trkpt lat="43.65645" lon="1.37247">
        <ele>141</ele>
        <time>2025-01-23T17:23:01Z</time>
      </trkpt>
      <trkpt lat="43.65648" lon="1.37246">
        <ele>141</ele>
        <time>2025-01-23T17:23:02Z</time>
      </trkpt>
      <trkpt lat="43.6565" lon="1.37244">
        <ele>141</ele>
        <time>2025-01-23T17:23:03Z</time>
      </trkpt>
      <trkpt lat="43.65653" lon="1.37243">
        <ele>141</ele>
        <time>2025-01-23T17:23:04Z</time>
      </trkpt>
      <trkpt lat="43.65653" lon="1.37243">
        <ele>141</ele>
        <time>2025-01-23T17:23:05Z</time>
      </trkpt>
      <trkpt lat="43.65655" lon="1.37242">
        <ele>141</ele>
        <time>2025-01-23T17:23:06Z</time>
      </trkpt>
      <trkpt lat="43.65657" lon="1.37241">
        <ele>141</ele>
        <time>2025-01-23T17:23:07Z</time>
      </trkpt>
      <trkpt lat="43.65662" lon="1.3724">
        <ele>141</ele>
        <time>2025-01-23T17:23:08Z</time>
      </trkpt>
      <trkpt lat="43.65664" lon="1.37239">
        <ele>141</ele>
        <time>2025-01-23T17:23:09Z</time>
      </trkpt>
      <trkpt lat="43.65666" lon="1.37237">
        <ele>141</ele>
        <time>2025-01-23T17:23:10Z</time>
      </trkpt>
      <trkpt lat="43.65666" lon="1.37237">
        <ele>141</ele>
        <time>2025-01-23T17:23:11Z</time>
      </trkpt>
      <trkpt lat="43.65668" lon="1.37236">
        <ele>141</ele>
        <time>2025-01-23T17:23:12Z</time>
      </trkpt>
      <trkpt lat="43.65672" lon="1.37234">
        <ele>141</ele>
        <time>2025-01-23T17:23:13Z</time>
      </trkpt>
      <trkpt lat="43.65674" lon="1.37233">
        <ele>141</ele>
        <time>2025-01-23T17:23:14Z</time>
      </trkpt>
      <trkpt lat="43.65676" lon="1.37232">
        <ele>141</ele>
        <time>2025-01-23T17:23:15Z</time>
      </trkpt>
      <trkpt lat="43.65678" lon="1.37231">
        <ele>141</ele>
        <time>2025-01-23T17:23:16Z</time>
      </trkpt>
      <trkpt lat="43.65678" lon="1.37231">
        <ele>141</ele>
        <time>2025-01-23T17:23:17Z</time>
      </trkpt>
      <trkpt lat="43.65684" lon="1.37228">
        <ele>141</ele>
        <time>2025-01-23T17:23:18Z</time>
      </trkpt>
      <trkpt lat="43.65684" lon="1.37228">
        <ele>141</ele>
        <time>2025-01-23T17:23:19Z</time>
      </trkpt>
      <trkpt lat="43.65686" lon="1.37227">
        <ele>141</ele>
        <time>2025-01-23T17:23:20Z</time>
      </trkpt>
      <trkpt lat="43.65689" lon="1.37226">
        <ele>141</ele>
        <time>2025-01-23T17:23:21Z</time>
      </trkpt>
      <trkpt lat="43.65691" lon="1.37224">
        <ele>140</ele>
        <time>2025-01-23T17:23:22Z</time>
      </trkpt>
      <trkpt lat="43.65693" lon="1.37223">
        <ele>140</ele>
        <time>2025-01-23T17:23:23Z</time>
      </trkpt>
      <trkpt lat="43.65695" lon="1.37221">
        <ele>140</ele>
        <time>2025-01-23T17:23:24Z</time>
      </trkpt>
      <trkpt lat="43.65697" lon="1.37219">
        <ele>141</ele>
        <time>2025-01-23T17:23:25Z</time>
      </trkpt>
      <trkpt lat="43.65699" lon="1.37217">
        <ele>141</ele>
        <time>2025-01-23T17:23:26Z</time>
      </trkpt>
      <trkpt lat="43.657" lon="1.37215">
        <ele>141</ele>
        <time>2025-01-23T17:23:27Z</time>
      </trkpt>
      <trkpt lat="43.65704" lon="1.37212">
        <ele>141</ele>
        <time>2025-01-23T17:23:28Z</time>
      </trkpt>
      <trkpt lat="43.65706" lon="1.3721">
        <ele>141</ele>
        <time>2025-01-23T17:23:29Z</time>
      </trkpt>
      <trkpt lat="43.65708" lon="1.37208">
        <ele>141</ele>
        <time>2025-01-23T17:23:30Z</time>
      </trkpt>
      <trkpt lat="43.6571" lon="1.37206">
        <ele>141</ele>
        <time>2025-01-23T17:23:31Z</time>
      </trkpt>
      <trkpt lat="43.65713" lon="1.37205">
        <ele>140</ele>
        <time>2025-01-23T17:23:32Z</time>
      </trkpt>
      <trkpt lat="43.65713" lon="1.37205">
        <ele>140</ele>
        <time>2025-01-23T17:23:33Z</time>
      </trkpt>
      <trkpt lat="43.65715" lon="1.37203">
        <ele>141</ele>
        <time>2025-01-23T17:23:34Z</time>
      </trkpt>
      <trkpt lat="43.65718" lon="1.37202">
        <ele>141</ele>
        <time>2025-01-23T17:23:35Z</time>
      </trkpt>
      <trkpt lat="43.6572" lon="1.372">
        <ele>140</ele>
        <time>2025-01-23T17:23:36Z</time>
      </trkpt>
      <trkpt lat="43.65722" lon="1.37199">
        <ele>140</ele>
        <time>2025-01-23T17:23:37Z</time>
      </trkpt>
      <trkpt lat="43.65724" lon="1.37197">
        <ele>140</ele>
        <time>2025-01-23T17:23:38Z</time>
      </trkpt>
      <trkpt lat="43.65726" lon="1.37195">
        <ele>140</ele>
        <time>2025-01-23T17:23:39Z</time>
      </trkpt>
      <trkpt lat="43.65729" lon="1.37194">
        <ele>140</ele>
        <time>2025-01-23T17:23:40Z</time>
      </trkpt>
      <trkpt lat="43.65731" lon="1.37192">
        <ele>140</ele>
        <time>2025-01-23T17:23:41Z</time>
      </trkpt>
      <trkpt lat="43.65733" lon="1.37191">
        <ele>140</ele>
        <time>2025-01-23T17:23:42Z</time>
      </trkpt>
      <trkpt lat="43.65735" lon="1.3719">
        <ele>140</ele>
        <time>2025-01-23T17:23:43Z</time>
      </trkpt>
      <trkpt lat="43.65737" lon="1.37188">
        <ele>140</ele>
        <time>2025-01-23T17:23:44Z</time>
      </trkpt>
      <trkpt lat="43.65739" lon="1.37187">
        <ele>140</ele>
        <time>2025-01-23T17:23:45Z</time>
      </trkpt>
      <trkpt lat="43.65741" lon="1.37186">
        <ele>140</ele>
        <time>2025-01-23T17:23:46Z</time>
      </trkpt>
      <trkpt lat="43.65743" lon="1.37184">
        <ele>140</ele>
        <time>2025-01-23T17:23:47Z</time>
      </trkpt>
      <trkpt lat="43.65745" lon="1.37183">
        <ele>140</ele>
        <time>2025-01-23T17:23:48Z</time>
      </trkpt>
      <trkpt lat="43.65747" lon="1.37182">
        <ele>140</ele>
        <time>2025-01-23T17:23:49Z</time>
      </trkpt>
      <trkpt lat="43.6575" lon="1.37181">
        <ele>140</ele>
        <time>2025-01-23T17:23:50Z</time>
      </trkpt>
      <trkpt lat="43.65752" lon="1.3718">
        <ele>141</ele>
        <time>2025-01-23T17:23:51Z</time>
      </trkpt>
      <trkpt lat="43.65754" lon="1.37179">
        <ele>141</ele>
        <time>2025-01-23T17:23:52Z</time>
      </trkpt>
      <trkpt lat="43.65756" lon="1.37178">
        <ele>141</ele>
        <time>2025-01-23T17:23:53Z</time>
      </trkpt>
      <trkpt lat="43.65758" lon="1.37177">
        <ele>141</ele>
        <time>2025-01-23T17:23:54Z</time>
      </trkpt>
      <trkpt lat="43.65761" lon="1.37175">
        <ele>141</ele>
        <time>2025-01-23T17:23:55Z</time>
      </trkpt>
      <trkpt lat="43.65763" lon="1.37174">
        <ele>141</ele>
        <time>2025-01-23T17:23:56Z</time>
      </trkpt>
      <trkpt lat="43.65765" lon="1.37172">
        <ele>141</ele>
        <time>2025-01-23T17:23:57Z</time>
      </trkpt>
      <trkpt lat="43.65767" lon="1.3717">
        <ele>140</ele>
        <time>2025-01-23T17:23:58Z</time>
      </trkpt>
      <trkpt lat="43.65769" lon="1.37168">
        <ele>140</ele>
        <time>2025-01-23T17:23:59Z</time>
      </trkpt>
      <trkpt lat="43.65771" lon="1.37166">
        <ele>140</ele>
        <time>2025-01-23T17:24:00Z</time>
      </trkpt>
      <trkpt lat="43.65773" lon="1.37164">
        <ele>140</ele>
        <time>2025-01-23T17:24:01Z</time>
      </trkpt>
      <trkpt lat="43.65775" lon="1.37163">
        <ele>140</ele>
        <time>2025-01-23T17:24:02Z</time>
      </trkpt>
      <trkpt lat="43.65777" lon="1.37161">
        <ele>140</ele>
        <time>2025-01-23T17:24:03Z</time>
      </trkpt>
      <trkpt lat="43.65779" lon="1.3716">
        <ele>140</ele>
        <time>2025-01-23T17:24:04Z</time>
      </trkpt>
      <trkpt lat="43.65781" lon="1.37159">
        <ele>140</ele>
        <time>2025-01-23T17:24:05Z</time>
      </trkpt>
      <trkpt lat="43.65783" lon="1.37158">
        <ele>139</ele>
        <time>2025-01-23T17:24:06Z</time>
      </trkpt>
      <trkpt lat="43.65785" lon="1.37156">
        <ele>140</ele>
        <time>2025-01-23T17:24:07Z</time>
      </trkpt>
      <trkpt lat="43.65786" lon="1.37155">
        <ele>140</ele>
        <time>2025-01-23T17:24:08Z</time>
      </trkpt>
      <trkpt lat="43.65788" lon="1.37154">
        <ele>140</ele>
        <time>2025-01-23T17:24:09Z</time>
      </trkpt>
      <trkpt lat="43.65791" lon="1.37152">
        <ele>140</ele>
        <time>2025-01-23T17:24:10Z</time>
      </trkpt>
      <trkpt lat="43.65793" lon="1.37149">
        <ele>140</ele>
        <time>2025-01-23T17:24:11Z</time>
      </trkpt>
      <trkpt lat="43.65796" lon="1.37146">
        <ele>141</ele>
        <time>2025-01-23T17:24:12Z</time>
      </trkpt>
      <trkpt lat="43.65798" lon="1.37145">
        <ele>141</ele>
        <time>2025-01-23T17:24:13Z</time>
      </trkpt>
      <trkpt lat="43.658" lon="1.37143">
        <ele>141</ele>
        <time>2025-01-23T17:24:14Z</time>
      </trkpt>
      <trkpt lat="43.65802" lon="1.37141">
        <ele>141</ele>
        <time>2025-01-23T17:24:15Z</time>
      </trkpt>
      <trkpt lat="43.65804" lon="1.37139">
        <ele>141</ele>
        <time>2025-01-23T17:24:16Z</time>
      </trkpt>
      <trkpt lat="43.65807" lon="1.37138">
        <ele>141</ele>
        <time>2025-01-23T17:24:17Z</time>
      </trkpt>
      <trkpt lat="43.65809" lon="1.37137">
        <ele>141</ele>
        <time>2025-01-23T17:24:18Z</time>
      </trkpt>
      <trkpt lat="43.65811" lon="1.37136">
        <ele>141</ele>
        <time>2025-01-23T17:24:19Z</time>
      </trkpt>
      <trkpt lat="43.65813" lon="1.37135">
        <ele>141</ele>
        <time>2025-01-23T17:24:20Z</time>
      </trkpt>
      <trkpt lat="43.65816" lon="1.37134">
        <ele>141</ele>
        <time>2025-01-23T17:24:21Z</time>
      </trkpt>
      <trkpt lat="43.65819" lon="1.37133">
        <ele>141</ele>
        <time>2025-01-23T17:24:22Z</time>
      </trkpt>
      <trkpt lat="43.65822" lon="1.37132">
        <ele>140</ele>
        <time>2025-01-23T17:24:23Z</time>
      </trkpt>
      <trkpt lat="43.65824" lon="1.3713">
        <ele>140</ele>
        <time>2025-01-23T17:24:24Z</time>
      </trkpt>
      <trkpt lat="43.65827" lon="1.37129">
        <ele>140</ele>
        <time>2025-01-23T17:24:25Z</time>
      </trkpt>
      <trkpt lat="43.65829" lon="1.37127">
        <ele>140</ele>
        <time>2025-01-23T17:24:26Z</time>
      </trkpt>
      <trkpt lat="43.65831" lon="1.37126">
        <ele>140</ele>
        <time>2025-01-23T17:24:27Z</time>
      </trkpt>
      <trkpt lat="43.65833" lon="1.37124">
        <ele>140</ele>
        <time>2025-01-23T17:24:28Z</time>
      </trkpt>
      <trkpt lat="43.65835" lon="1.37122">
        <ele>141</ele>
        <time>2025-01-23T17:24:29Z</time>
      </trkpt>
      <trkpt lat="43.65837" lon="1.3712">
        <ele>141</ele>
        <time>2025-01-23T17:24:30Z</time>
      </trkpt>
      <trkpt lat="43.65839" lon="1.37118">
        <ele>141</ele>
        <time>2025-01-23T17:24:31Z</time>
      </trkpt>
      <trkpt lat="43.65841" lon="1.37117">
        <ele>141</ele>
        <time>2025-01-23T17:24:32Z</time>
      </trkpt>
      <trkpt lat="43.65843" lon="1.37115">
        <ele>141</ele>
        <time>2025-01-23T17:24:33Z</time>
      </trkpt>
      <trkpt lat="43.65845" lon="1.37113">
        <ele>141</ele>
        <time>2025-01-23T17:24:34Z</time>
      </trkpt>
      <trkpt lat="43.65846" lon="1.37112">
        <ele>141</ele>
        <time>2025-01-23T17:24:35Z</time>
      </trkpt>
      <trkpt lat="43.65848" lon="1.3711">
        <ele>141</ele>
        <time>2025-01-23T17:24:36Z</time>
      </trkpt>
      <trkpt lat="43.6585" lon="1.37107">
        <ele>141</ele>
        <time>2025-01-23T17:24:37Z</time>
      </trkpt>
      <trkpt lat="43.65852" lon="1.37105">
        <ele>141</ele>
        <time>2025-01-23T17:24:38Z</time>
      </trkpt>
      <trkpt lat="43.65853" lon="1.37103">
        <ele>141</ele>
        <time>2025-01-23T17:24:39Z</time>
      </trkpt>
      <trkpt lat="43.65855" lon="1.37102">
        <ele>141</ele>
        <time>2025-01-23T17:24:40Z</time>
      </trkpt>
      <trkpt lat="43.65857" lon="1.371">
        <ele>141</ele>
        <time>2025-01-23T17:24:41Z</time>
      </trkpt>
      <trkpt lat="43.65859" lon="1.37099">
        <ele>141</ele>
        <time>2025-01-23T17:24:42Z</time>
      </trkpt>
      <trkpt lat="43.65861" lon="1.37097">
        <ele>141</ele>
        <time>2025-01-23T17:24:43Z</time>
      </trkpt>
      <trkpt lat="43.65863" lon="1.37095">
        <ele>141</ele>
        <time>2025-01-23T17:24:44Z</time>
      </trkpt>
      <trkpt lat="43.65865" lon="1.37093">
        <ele>141</ele>
        <time>2025-01-23T17:24:45Z</time>
      </trkpt>
      <trkpt lat="43.65867" lon="1.37092">
        <ele>141</ele>
        <time>2025-01-23T17:24:46Z</time>
      </trkpt>
      <trkpt lat="43.65869" lon="1.3709">
        <ele>141</ele>
        <time>2025-01-23T17:24:47Z</time>
      </trkpt>
      <trkpt lat="43.65871" lon="1.37088">
        <ele>141</ele>
        <time>2025-01-23T17:24:48Z</time>
      </trkpt>
      <trkpt lat="43.65873" lon="1.37087">
        <ele>141</ele>
        <time>2025-01-23T17:24:49Z</time>
      </trkpt>
      <trkpt lat="43.65875" lon="1.37085">
        <ele>141</ele>
        <time>2025-01-23T17:24:50Z</time>
      </trkpt>
      <trkpt lat="43.65878" lon="1.37084">
        <ele>141</ele>
        <time>2025-01-23T17:24:51Z</time>
      </trkpt>
      <trkpt lat="43.65879" lon="1.37082">
        <ele>141</ele>
        <time>2025-01-23T17:24:52Z</time>
      </trkpt>
      <trkpt lat="43.65881" lon="1.37081">
        <ele>141</ele>
        <time>2025-01-23T17:24:53Z</time>
      </trkpt>
      <trkpt lat="43.65883" lon="1.37079">
        <ele>141</ele>
        <time>2025-01-23T17:24:54Z</time>
      </trkpt>
      <trkpt lat="43.65885" lon="1.37078">
        <ele>141</ele>
        <time>2025-01-23T17:24:55Z</time>
      </trkpt>
      <trkpt lat="43.65886" lon="1.37077">
        <ele>141</ele>
        <time>2025-01-23T17:24:56Z</time>
      </trkpt>
      <trkpt lat="43.65888" lon="1.37075">
        <ele>141</ele>
        <time>2025-01-23T17:24:57Z</time>
      </trkpt>
      <trkpt lat="43.6589" lon="1.37074">
        <ele>141</ele>
        <time>2025-01-23T17:24:58Z</time>
      </trkpt>
      <trkpt lat="43.65892" lon="1.37073">
        <ele>141</ele>
        <time>2025-01-23T17:24:59Z</time>
      </trkpt>
      <trkpt lat="43.65894" lon="1.37071">
        <ele>141</ele>
        <time>2025-01-23T17:25:00Z</time>
      </trkpt>
      <trkpt lat="43.65896" lon="1.3707">
        <ele>141</ele>
        <time>2025-01-23T17:25:01Z</time>
      </trkpt>
      <trkpt lat="43.65899" lon="1.37068">
        <ele>141</ele>
        <time>2025-01-23T17:25:02Z</time>
      </trkpt>
      <trkpt lat="43.659" lon="1.37067">
        <ele>141</ele>
        <time>2025-01-23T17:25:03Z</time>
      </trkpt>
      <trkpt lat="43.65902" lon="1.37065">
        <ele>141</ele>
        <time>2025-01-23T17:25:04Z</time>
      </trkpt>
      <trkpt lat="43.65905" lon="1.37064">
        <ele>141</ele>
        <time>2025-01-23T17:25:05Z</time>
      </trkpt>
      <trkpt lat="43.65907" lon="1.37062">
        <ele>141</ele>
        <time>2025-01-23T17:25:06Z</time>
      </trkpt>
      <trkpt lat="43.6591" lon="1.37061">
        <ele>141</ele>
        <time>2025-01-23T17:25:07Z</time>
      </trkpt>
      <trkpt lat="43.65912" lon="1.3706">
        <ele>140</ele>
        <time>2025-01-23T17:25:08Z</time>
      </trkpt>
      <trkpt lat="43.65914" lon="1.37059">
        <ele>140</ele>
        <time>2025-01-23T17:25:09Z</time>
      </trkpt>
      <trkpt lat="43.65916" lon="1.37058">
        <ele>140</ele>
        <time>2025-01-23T17:25:10Z</time>
      </trkpt>
      <trkpt lat="43.65918" lon="1.37056">
        <ele>140</ele>
        <time>2025-01-23T17:25:11Z</time>
      </trkpt>
      <trkpt lat="43.6592" lon="1.37056">
        <ele>140</ele>
        <time>2025-01-23T17:25:12Z</time>
      </trkpt>
      <trkpt lat="43.65922" lon="1.37055">
        <ele>140</ele>
        <time>2025-01-23T17:25:13Z</time>
      </trkpt>
      <trkpt lat="43.65924" lon="1.37053">
        <ele>140</ele>
        <time>2025-01-23T17:25:14Z</time>
      </trkpt>
      <trkpt lat="43.65926" lon="1.37052">
        <ele>140</ele>
        <time>2025-01-23T17:25:15Z</time>
      </trkpt>
      <trkpt lat="43.65928" lon="1.37051">
        <ele>140</ele>
        <time>2025-01-23T17:25:16Z</time>
      </trkpt>
      <trkpt lat="43.65932" lon="1.37049">
        <ele>140</ele>
        <time>2025-01-23T17:25:17Z</time>
      </trkpt>
      <trkpt lat="43.65932" lon="1.37049">
        <ele>140</ele>
        <time>2025-01-23T17:25:18Z</time>
      </trkpt>
      <trkpt lat="43.65934" lon="1.37046">
        <ele>141</ele>
        <time>2025-01-23T17:25:19Z</time>
      </trkpt>
      <trkpt lat="43.65936" lon="1.37045">
        <ele>141</ele>
        <time>2025-01-23T17:25:20Z</time>
      </trkpt>
      <trkpt lat="43.65938" lon="1.37043">
        <ele>141</ele>
        <time>2025-01-23T17:25:21Z</time>
      </trkpt>
      <trkpt lat="43.6594" lon="1.37041">
        <ele>141</ele>
        <time>2025-01-23T17:25:22Z</time>
      </trkpt>
      <trkpt lat="43.65942" lon="1.37039">
        <ele>141</ele>
        <time>2025-01-23T17:25:23Z</time>
      </trkpt>
      <trkpt lat="43.65944" lon="1.37038">
        <ele>141</ele>
        <time>2025-01-23T17:25:24Z</time>
      </trkpt>
      <trkpt lat="43.65946" lon="1.37036">
        <ele>141</ele>
        <time>2025-01-23T17:25:25Z</time>
      </trkpt>
      <trkpt lat="43.65949" lon="1.37034">
        <ele>141</ele>
        <time>2025-01-23T17:25:26Z</time>
      </trkpt>
      <trkpt lat="43.65951" lon="1.37033">
        <ele>141</ele>
        <time>2025-01-23T17:25:27Z</time>
      </trkpt>
      <trkpt lat="43.65955" lon="1.3703">
        <ele>140</ele>
        <time>2025-01-23T17:25:28Z</time>
      </trkpt>
      <trkpt lat="43.65955" lon="1.3703">
        <ele>140</ele>
        <time>2025-01-23T17:25:29Z</time>
      </trkpt>
      <trkpt lat="43.65957" lon="1.37028">
        <ele>140</ele>
        <time>2025-01-23T17:25:30Z</time>
      </trkpt>
      <trkpt lat="43.65959" lon="1.37026">
        <ele>140</ele>
        <time>2025-01-23T17:25:31Z</time>
      </trkpt>
      <trkpt lat="43.6596" lon="1.37025">
        <ele>140</ele>
        <time>2025-01-23T17:25:32Z</time>
      </trkpt>
      <trkpt lat="43.65962" lon="1.37023">
        <ele>141</ele>
        <time>2025-01-23T17:25:33Z</time>
      </trkpt>
      <trkpt lat="43.65964" lon="1.37021">
        <ele>141</ele>
        <time>2025-01-23T17:25:34Z</time>
      </trkpt>
      <trkpt lat="43.65966" lon="1.37019">
        <ele>141</ele>
        <time>2025-01-23T17:25:35Z</time>
      </trkpt>
      <trkpt lat="43.65968" lon="1.37017">
        <ele>141</ele>
        <time>2025-01-23T17:25:36Z</time>
      </trkpt>
      <trkpt lat="43.65971" lon="1.37015">
        <ele>141</ele>
        <time>2025-01-23T17:25:37Z</time>
      </trkpt>
      <trkpt lat="43.65973" lon="1.37013">
        <ele>140</ele>
        <time>2025-01-23T17:25:38Z</time>
      </trkpt>
      <trkpt lat="43.65975" lon="1.37012">
        <ele>140</ele>
        <time>2025-01-23T17:25:39Z</time>
      </trkpt>
      <trkpt lat="43.65977" lon="1.3701">
        <ele>140</ele>
        <time>2025-01-23T17:25:40Z</time>
      </trkpt>
      <trkpt lat="43.65979" lon="1.37009">
        <ele>140</ele>
        <time>2025-01-23T17:25:41Z</time>
      </trkpt>
      <trkpt lat="43.65981" lon="1.37007">
        <ele>140</ele>
        <time>2025-01-23T17:25:42Z</time>
      </trkpt>
      <trkpt lat="43.65984" lon="1.37004">
        <ele>140</ele>
        <time>2025-01-23T17:25:43Z</time>
      </trkpt>
      <trkpt lat="43.65984" lon="1.37004">
        <ele>140</ele>
        <time>2025-01-23T17:25:44Z</time>
      </trkpt>
      <trkpt lat="43.65986" lon="1.37003">
        <ele>140</ele>
        <time>2025-01-23T17:25:45Z</time>
      </trkpt>
      <trkpt lat="43.6599" lon="1.37002">
        <ele>140</ele>
        <time>2025-01-23T17:25:46Z</time>
      </trkpt>
      <trkpt lat="43.65992" lon="1.37">
        <ele>140</ele>
        <time>2025-01-23T17:25:47Z</time>
      </trkpt>
      <trkpt lat="43.65993" lon="1.36998">
        <ele>140</ele>
        <time>2025-01-23T17:25:48Z</time>
      </trkpt>
      <trkpt lat="43.65994" lon="1.36996">
        <ele>140</ele>
        <time>2025-01-23T17:25:49Z</time>
      </trkpt>
      <trkpt lat="43.65996" lon="1.36994">
        <ele>140</ele>
        <time>2025-01-23T17:25:50Z</time>
      </trkpt>
      <trkpt lat="43.65998" lon="1.36993">
        <ele>140</ele>
        <time>2025-01-23T17:25:51Z</time>
      </trkpt>
      <trkpt lat="43.66" lon="1.36991">
        <ele>140</ele>
        <time>2025-01-23T17:25:52Z</time>
      </trkpt>
      <trkpt lat="43.66002" lon="1.3699">
        <ele>140</ele>
        <time>2025-01-23T17:25:53Z</time>
      </trkpt>
      <trkpt lat="43.66004" lon="1.36989">
        <ele>140</ele>
        <time>2025-01-23T17:25:54Z</time>
      </trkpt>
      <trkpt lat="43.66006" lon="1.36988">
        <ele>140</ele>
        <time>2025-01-23T17:25:55Z</time>
      </trkpt>
      <trkpt lat="43.66009" lon="1.36986">
        <ele>140</ele>
        <time>2025-01-23T17:25:56Z</time>
      </trkpt>
      <trkpt lat="43.66011" lon="1.36984">
        <ele>140</ele>
        <time>2025-01-23T17:25:57Z</time>
      </trkpt>
      <trkpt lat="43.66013" lon="1.36982">
        <ele>140</ele>
        <time>2025-01-23T17:25:58Z</time>
      </trkpt>
      <trkpt lat="43.66015" lon="1.3698">
        <ele>140</ele>
        <time>2025-01-23T17:25:59Z</time>
      </trkpt>
      <trkpt lat="43.66017" lon="1.36979">
        <ele>140</ele>
        <time>2025-01-23T17:26:00Z</time>
      </trkpt>
      <trkpt lat="43.66019" lon="1.36977">
        <ele>140</ele>
        <time>2025-01-23T17:26:01Z</time>
      </trkpt>
      <trkpt lat="43.66022" lon="1.36975">
        <ele>140</ele>
        <time>2025-01-23T17:26:02Z</time>
      </trkpt>
      <trkpt lat="43.66024" lon="1.36973">
        <ele>140</ele>
        <time>2025-01-23T17:26:03Z</time>
      </trkpt>
      <trkpt lat="43.66025" lon="1.36971">
        <ele>140</ele>
        <time>2025-01-23T17:26:04Z</time>
      </trkpt>
      <trkpt lat="43.66026" lon="1.36969">
        <ele>140</ele>
        <time>2025-01-23T17:26:05Z</time>
      </trkpt>
      <trkpt lat="43.66028" lon="1.36967">
        <ele>140</ele>
        <time>2025-01-23T17:26:06Z</time>
      </trkpt>
      <trkpt lat="43.6603" lon="1.36966">
        <ele>140</ele>
        <time>2025-01-23T17:26:07Z</time>
      </trkpt>
      <trkpt lat="43.66032" lon="1.36964">
        <ele>140</ele>
        <time>2025-01-23T17:26:08Z</time>
      </trkpt>
      <trkpt lat="43.66035" lon="1.36963">
        <ele>140</ele>
        <time>2025-01-23T17:26:09Z</time>
      </trkpt>
      <trkpt lat="43.66037" lon="1.36962">
        <ele>140</ele>
        <time>2025-01-23T17:26:10Z</time>
      </trkpt>
      <trkpt lat="43.66039" lon="1.3696">
        <ele>140</ele>
        <time>2025-01-23T17:26:11Z</time>
      </trkpt>
      <trkpt lat="43.66041" lon="1.36959">
        <ele>140</ele>
        <time>2025-01-23T17:26:12Z</time>
      </trkpt>
      <trkpt lat="43.66044" lon="1.36957">
        <ele>139</ele>
        <time>2025-01-23T17:26:13Z</time>
      </trkpt>
      <trkpt lat="43.66046" lon="1.36956">
        <ele>139</ele>
        <time>2025-01-23T17:26:14Z</time>
      </trkpt>
      <trkpt lat="43.66048" lon="1.36954">
        <ele>139</ele>
        <time>2025-01-23T17:26:15Z</time>
      </trkpt>
      <trkpt lat="43.6605" lon="1.36953">
        <ele>139</ele>
        <time>2025-01-23T17:26:16Z</time>
      </trkpt>
      <trkpt lat="43.66053" lon="1.36951">
        <ele>139</ele>
        <time>2025-01-23T17:26:17Z</time>
      </trkpt>
      <trkpt lat="43.66055" lon="1.3695">
        <ele>140</ele>
        <time>2025-01-23T17:26:18Z</time>
      </trkpt>
      <trkpt lat="43.66057" lon="1.36948">
        <ele>140</ele>
        <time>2025-01-23T17:26:19Z</time>
      </trkpt>
      <trkpt lat="43.66059" lon="1.36946">
        <ele>140</ele>
        <time>2025-01-23T17:26:20Z</time>
      </trkpt>
      <trkpt lat="43.66062" lon="1.36943">
        <ele>140</ele>
        <time>2025-01-23T17:26:21Z</time>
      </trkpt>
      <trkpt lat="43.66062" lon="1.36943">
        <ele>140</ele>
        <time>2025-01-23T17:26:22Z</time>
      </trkpt>
      <trkpt lat="43.66064" lon="1.36941">
        <ele>140</ele>
        <time>2025-01-23T17:26:23Z</time>
      </trkpt>
      <trkpt lat="43.66065" lon="1.36939">
        <ele>140</ele>
        <time>2025-01-23T17:26:24Z</time>
      </trkpt>
      <trkpt lat="43.66068" lon="1.36937">
        <ele>140</ele>
        <time>2025-01-23T17:26:25Z</time>
      </trkpt>
      <trkpt lat="43.6607" lon="1.36936">
        <ele>140</ele>
        <time>2025-01-23T17:26:26Z</time>
      </trkpt>
      <trkpt lat="43.66072" lon="1.36934">
        <ele>139</ele>
        <time>2025-01-23T17:26:27Z</time>
      </trkpt>
      <trkpt lat="43.66074" lon="1.36932">
        <ele>139</ele>
        <time>2025-01-23T17:26:28Z</time>
      </trkpt>
      <trkpt lat="43.66076" lon="1.3693">
        <ele>139</ele>
        <time>2025-01-23T17:26:29Z</time>
      </trkpt>
      <trkpt lat="43.66078" lon="1.36928">
        <ele>139</ele>
        <time>2025-01-23T17:26:30Z</time>
      </trkpt>
      <trkpt lat="43.66081" lon="1.36927">
        <ele>139</ele>
        <time>2025-01-23T17:26:31Z</time>
      </trkpt>
      <trkpt lat="43.66083" lon="1.36925">
        <ele>139</ele>
        <time>2025-01-23T17:26:32Z</time>
      </trkpt>
      <trkpt lat="43.66085" lon="1.36923">
        <ele>139</ele>
        <time>2025-01-23T17:26:33Z</time>
      </trkpt>
      <trkpt lat="43.66087" lon="1.36922">
        <ele>139</ele>
        <time>2025-01-23T17:26:34Z</time>
      </trkpt>
      <trkpt lat="43.66089" lon="1.3692">
        <ele>139</ele>
        <time>2025-01-23T17:26:35Z</time>
      </trkpt>
      <trkpt lat="43.6609" lon="1.36919">
        <ele>139</ele>
        <time>2025-01-23T17:26:36Z</time>
      </trkpt>
      <trkpt lat="43.66091" lon="1.36918">
        <ele>139</ele>
        <time>2025-01-23T17:26:37Z</time>
      </trkpt>
      <trkpt lat="43.66092" lon="1.36916">
        <ele>139</ele>
        <time>2025-01-23T17:26:38Z</time>
      </trkpt>
      <trkpt lat="43.66093" lon="1.36915">
        <ele>139</ele>
        <time>2025-01-23T17:26:39Z</time>
      </trkpt>
      <trkpt lat="43.66097" lon="1.36911">
        <ele>139</ele>
        <time>2025-01-23T17:26:40Z</time>
      </trkpt>
      <trkpt lat="43.66101" lon="1.36909">
        <ele>139</ele>
        <time>2025-01-23T17:26:41Z</time>
      </trkpt>
      <trkpt lat="43.66103" lon="1.36907">
        <ele>139</ele>
        <time>2025-01-23T17:26:42Z</time>
      </trkpt>
      <trkpt lat="43.66105" lon="1.36906">
        <ele>139</ele>
        <time>2025-01-23T17:26:43Z</time>
      </trkpt>
      <trkpt lat="43.66108" lon="1.36905">
        <ele>139</ele>
        <time>2025-01-23T17:26:44Z</time>
      </trkpt>
      <trkpt lat="43.6611" lon="1.36904">
        <ele>139</ele>
        <time>2025-01-23T17:26:45Z</time>
      </trkpt>
      <trkpt lat="43.66112" lon="1.36902">
        <ele>139</ele>
        <time>2025-01-23T17:26:46Z</time>
      </trkpt>
      <trkpt lat="43.66114" lon="1.36901">
        <ele>139</ele>
        <time>2025-01-23T17:26:47Z</time>
      </trkpt>
      <trkpt lat="43.66116" lon="1.369">
        <ele>139</ele>
        <time>2025-01-23T17:26:48Z</time>
      </trkpt>
      <trkpt lat="43.66118" lon="1.36899">
        <ele>139</ele>
        <time>2025-01-23T17:26:49Z</time>
      </trkpt>
      <trkpt lat="43.6612" lon="1.36898">
        <ele>139</ele>
        <time>2025-01-23T17:26:50Z</time>
      </trkpt>
      <trkpt lat="43.66123" lon="1.36897">
        <ele>139</ele>
        <time>2025-01-23T17:26:51Z</time>
      </trkpt>
      <trkpt lat="43.66125" lon="1.36896">
        <ele>139</ele>
        <time>2025-01-23T17:26:52Z</time>
      </trkpt>
      <trkpt lat="43.66127" lon="1.36894">
        <ele>139</ele>
        <time>2025-01-23T17:26:53Z</time>
      </trkpt>
      <trkpt lat="43.66129" lon="1.36892">
        <ele>139</ele>
        <time>2025-01-23T17:26:54Z</time>
      </trkpt>
      <trkpt lat="43.66131" lon="1.36891">
        <ele>139</ele>
        <time>2025-01-23T17:26:55Z</time>
      </trkpt>
      <trkpt lat="43.66133" lon="1.3689">
        <ele>139</ele>
        <time>2025-01-23T17:26:56Z</time>
      </trkpt>
      <trkpt lat="43.66135" lon="1.36888">
        <ele>139</ele>
        <time>2025-01-23T17:26:57Z</time>
      </trkpt>
      <trkpt lat="43.6614" lon="1.36885">
        <ele>139</ele>
        <time>2025-01-23T17:26:58Z</time>
      </trkpt>
      <trkpt lat="43.6614" lon="1.36885">
        <ele>139</ele>
        <time>2025-01-23T17:26:59Z</time>
      </trkpt>
      <trkpt lat="43.66142" lon="1.36883">
        <ele>139</ele>
        <time>2025-01-23T17:27:00Z</time>
      </trkpt>
      <trkpt lat="43.66145" lon="1.36882">
        <ele>139</ele>
        <time>2025-01-23T17:27:01Z</time>
      </trkpt>
      <trkpt lat="43.66147" lon="1.3688">
        <ele>139</ele>
        <time>2025-01-23T17:27:02Z</time>
      </trkpt>
      <trkpt lat="43.6615" lon="1.36879">
        <ele>138</ele>
        <time>2025-01-23T17:27:03Z</time>
      </trkpt>
      <trkpt lat="43.66152" lon="1.36877">
        <ele>139</ele>
        <time>2025-01-23T17:27:04Z</time>
      </trkpt>
      <trkpt lat="43.66154" lon="1.36876">
        <ele>139</ele>
        <time>2025-01-23T17:27:05Z</time>
      </trkpt>
      <trkpt lat="43.66157" lon="1.36874">
        <ele>139</ele>
        <time>2025-01-23T17:27:06Z</time>
      </trkpt>
      <trkpt lat="43.66159" lon="1.36873">
        <ele>139</ele>
        <time>2025-01-23T17:27:07Z</time>
      </trkpt>
      <trkpt lat="43.66162" lon="1.36872">
        <ele>139</ele>
        <time>2025-01-23T17:27:08Z</time>
      </trkpt>
      <trkpt lat="43.66164" lon="1.3687">
        <ele>139</ele>
        <time>2025-01-23T17:27:09Z</time>
      </trkpt>
      <trkpt lat="43.66166" lon="1.36868">
        <ele>139</ele>
        <time>2025-01-23T17:27:10Z</time>
      </trkpt>
      <trkpt lat="43.66168" lon="1.36867">
        <ele>139</ele>
        <time>2025-01-23T17:27:11Z</time>
      </trkpt>
      <trkpt lat="43.6617" lon="1.36865">
        <ele>139</ele>
        <time>2025-01-23T17:27:12Z</time>
      </trkpt>
      <trkpt lat="43.66172" lon="1.36863">
        <ele>139</ele>
        <time>2025-01-23T17:27:13Z</time>
      </trkpt>
      <trkpt lat="43.66175" lon="1.36861">
        <ele>139</ele>
        <time>2025-01-23T17:27:14Z</time>
      </trkpt>
      <trkpt lat="43.66177" lon="1.3686">
        <ele>139</ele>
        <time>2025-01-23T17:27:15Z</time>
      </trkpt>
      <trkpt lat="43.66179" lon="1.36859">
        <ele>139</ele>
        <time>2025-01-23T17:27:16Z</time>
      </trkpt>
      <trkpt lat="43.66181" lon="1.36857">
        <ele>139</ele>
        <time>2025-01-23T17:27:17Z</time>
      </trkpt>
      <trkpt lat="43.66186" lon="1.36854">
        <ele>139</ele>
        <time>2025-01-23T17:27:18Z</time>
      </trkpt>
      <trkpt lat="43.66186" lon="1.36854">
        <ele>139</ele>
        <time>2025-01-23T17:27:19Z</time>
      </trkpt>
      <trkpt lat="43.66188" lon="1.36852">
        <ele>139</ele>
        <time>2025-01-23T17:27:20Z</time>
      </trkpt>
      <trkpt lat="43.6619" lon="1.3685">
        <ele>139</ele>
        <time>2025-01-23T17:27:21Z</time>
      </trkpt>
      <trkpt lat="43.66192" lon="1.36849">
        <ele>139</ele>
        <time>2025-01-23T17:27:22Z</time>
      </trkpt>
      <trkpt lat="43.66194" lon="1.36847">
        <ele>139</ele>
        <time>2025-01-23T17:27:23Z</time>
      </trkpt>
      <trkpt lat="43.66196" lon="1.36845">
        <ele>139</ele>
        <time>2025-01-23T17:27:24Z</time>
      </trkpt>
      <trkpt lat="43.66198" lon="1.36844">
        <ele>139</ele>
        <time>2025-01-23T17:27:25Z</time>
      </trkpt>
      <trkpt lat="43.662" lon="1.36842">
        <ele>139</ele>
        <time>2025-01-23T17:27:26Z</time>
      </trkpt>
      <trkpt lat="43.66202" lon="1.3684">
        <ele>139</ele>
        <time>2025-01-23T17:27:27Z</time>
      </trkpt>
      <trkpt lat="43.66204" lon="1.36838">
        <ele>139</ele>
        <time>2025-01-23T17:27:28Z</time>
      </trkpt>
      <trkpt lat="43.66207" lon="1.36837">
        <ele>139</ele>
        <time>2025-01-23T17:27:29Z</time>
      </trkpt>
      <trkpt lat="43.6621" lon="1.36836">
        <ele>139</ele>
        <time>2025-01-23T17:27:30Z</time>
      </trkpt>
      <trkpt lat="43.66212" lon="1.36834">
        <ele>139</ele>
        <time>2025-01-23T17:27:31Z</time>
      </trkpt>
      <trkpt lat="43.66214" lon="1.36832">
        <ele>138</ele>
        <time>2025-01-23T17:27:32Z</time>
      </trkpt>
      <trkpt lat="43.66216" lon="1.36831">
        <ele>138</ele>
        <time>2025-01-23T17:27:33Z</time>
      </trkpt>
      <trkpt lat="43.66218" lon="1.36829">
        <ele>138</ele>
        <time>2025-01-23T17:27:34Z</time>
      </trkpt>
      <trkpt lat="43.6622" lon="1.36828">
        <ele>138</ele>
        <time>2025-01-23T17:27:35Z</time>
      </trkpt>
      <trkpt lat="43.66222" lon="1.36826">
        <ele>138</ele>
        <time>2025-01-23T17:27:36Z</time>
      </trkpt>
      <trkpt lat="43.66225" lon="1.36823">
        <ele>138</ele>
        <time>2025-01-23T17:27:37Z</time>
      </trkpt>
      <trkpt lat="43.66225" lon="1.36822">
        <ele>138</ele>
        <time>2025-01-23T17:27:38Z</time>
      </trkpt>
      <trkpt lat="43.66227" lon="1.36821">
        <ele>138</ele>
        <time>2025-01-23T17:27:39Z</time>
      </trkpt>
      <trkpt lat="43.66229" lon="1.36819">
        <ele>138</ele>
        <time>2025-01-23T17:27:40Z</time>
      </trkpt>
      <trkpt lat="43.66231" lon="1.36817">
        <ele>138</ele>
        <time>2025-01-23T17:27:41Z</time>
      </trkpt>
      <trkpt lat="43.66233" lon="1.36816">
        <ele>138</ele>
        <time>2025-01-23T17:27:42Z</time>
      </trkpt>
      <trkpt lat="43.66235" lon="1.36815">
        <ele>138</ele>
        <time>2025-01-23T17:27:43Z</time>
      </trkpt>
      <trkpt lat="43.66237" lon="1.36813">
        <ele>138</ele>
        <time>2025-01-23T17:27:44Z</time>
      </trkpt>
      <trkpt lat="43.66239" lon="1.36812">
        <ele>138</ele>
        <time>2025-01-23T17:27:45Z</time>
      </trkpt>
      <trkpt lat="43.66241" lon="1.3681">
        <ele>138</ele>
        <time>2025-01-23T17:27:46Z</time>
      </trkpt>
      <trkpt lat="43.66243" lon="1.36809">
        <ele>138</ele>
        <time>2025-01-23T17:27:47Z</time>
      </trkpt>
      <trkpt lat="43.66246" lon="1.36808">
        <ele>138</ele>
        <time>2025-01-23T17:27:48Z</time>
      </trkpt>
      <trkpt lat="43.66248" lon="1.36807">
        <ele>138</ele>
        <time>2025-01-23T17:27:49Z</time>
      </trkpt>
      <trkpt lat="43.6625" lon="1.36806">
        <ele>138</ele>
        <time>2025-01-23T17:27:50Z</time>
      </trkpt>
      <trkpt lat="43.66252" lon="1.36806">
        <ele>138</ele>
        <time>2025-01-23T17:27:51Z</time>
      </trkpt>
      <trkpt lat="43.66254" lon="1.36807">
        <ele>138</ele>
        <time>2025-01-23T17:27:52Z</time>
      </trkpt>
      <trkpt lat="43.66273" lon="1.3687">
        <ele>137</ele>
        <time>2025-01-23T17:33:38Z</time>
      </trkpt>
      <trkpt lat="43.66274" lon="1.36873">
        <ele>137</ele>
        <time>2025-01-23T17:33:39Z</time>
      </trkpt>
      <trkpt lat="43.66274" lon="1.36873">
        <ele>137</ele>
        <time>2025-01-23T17:33:40Z</time>
      </trkpt>
      <trkpt lat="43.66276" lon="1.36877">
        <ele>137</ele>
        <time>2025-01-23T17:33:41Z</time>
      </trkpt>
      <trkpt lat="43.66277" lon="1.3688">
        <ele>137</ele>
        <time>2025-01-23T17:33:42Z</time>
      </trkpt>
      <trkpt lat="43.66278" lon="1.36882">
        <ele>137</ele>
        <time>2025-01-23T17:33:43Z</time>
      </trkpt>
      <trkpt lat="43.66278" lon="1.36882">
        <ele>137</ele>
        <time>2025-01-23T17:33:44Z</time>
      </trkpt>
      <trkpt lat="43.6628" lon="1.36886">
        <ele>137</ele>
        <time>2025-01-23T17:33:45Z</time>
      </trkpt>
      <trkpt lat="43.66281" lon="1.36888">
        <ele>137</ele>
        <time>2025-01-23T17:33:46Z</time>
      </trkpt>
      <trkpt lat="43.66282" lon="1.3689">
        <ele>137</ele>
        <time>2025-01-23T17:33:47Z</time>
      </trkpt>
      <trkpt lat="43.66283" lon="1.36893">
        <ele>137</ele>
        <time>2025-01-23T17:33:48Z</time>
      </trkpt>
      <trkpt lat="43.66283" lon="1.36895">
        <ele>137</ele>
        <time>2025-01-23T17:33:49Z</time>
      </trkpt>
      <trkpt lat="43.66284" lon="1.36898">
        <ele>137</ele>
        <time>2025-01-23T17:33:50Z</time>
      </trkpt>
      <trkpt lat="43.66285" lon="1.369">
        <ele>137</ele>
        <time>2025-01-23T17:33:51Z</time>
      </trkpt>
      <trkpt lat="43.66286" lon="1.36902">
        <ele>137</ele>
        <time>2025-01-23T17:33:52Z</time>
      </trkpt>
      <trkpt lat="43.66288" lon="1.36905">
        <ele>137</ele>
        <time>2025-01-23T17:33:53Z</time>
      </trkpt>
      <trkpt lat="43.66288" lon="1.36907">
        <ele>137</ele>
        <time>2025-01-23T17:33:54Z</time>
      </trkpt>
      <trkpt lat="43.66289" lon="1.36909">
        <ele>137</ele>
        <time>2025-01-23T17:33:55Z</time>
      </trkpt>
      <trkpt lat="43.66289" lon="1.36909">
        <ele>137</ele>
        <time>2025-01-23T17:33:56Z</time>
      </trkpt>
      <trkpt lat="43.6629" lon="1.36914">
        <ele>137</ele>
        <time>2025-01-23T17:33:57Z</time>
      </trkpt>
      <trkpt lat="43.6629" lon="1.36914">
        <ele>137</ele>
        <time>2025-01-23T17:33:58Z</time>
      </trkpt>
      <trkpt lat="43.66291" lon="1.36919">
        <ele>137</ele>
        <time>2025-01-23T17:33:59Z</time>
      </trkpt>
      <trkpt lat="43.66291" lon="1.36919">
        <ele>137</ele>
        <time>2025-01-23T17:34:00Z</time>
      </trkpt>
      <trkpt lat="43.66291" lon="1.36923">
        <ele>137</ele>
        <time>2025-01-23T17:34:01Z</time>
      </trkpt>
      <trkpt lat="43.66291" lon="1.36923">
        <ele>137</ele>
        <time>2025-01-23T17:34:02Z</time>
      </trkpt>
      <trkpt lat="43.66289" lon="1.36926">
        <ele>137</ele>
        <time>2025-01-23T17:34:03Z</time>
      </trkpt>
      <trkpt lat="43.66289" lon="1.36926">
        <ele>137</ele>
        <time>2025-01-23T17:34:04Z</time>
      </trkpt>
      <trkpt lat="43.66286" lon="1.36928">
        <ele>137</ele>
        <time>2025-01-23T17:34:05Z</time>
      </trkpt>
      <trkpt lat="43.66284" lon="1.3693">
        <ele>137</ele>
        <time>2025-01-23T17:34:06Z</time>
      </trkpt>
      <trkpt lat="43.66282" lon="1.36931">
        <ele>137</ele>
        <time>2025-01-23T17:34:07Z</time>
      </trkpt>
      <trkpt lat="43.66281" lon="1.36933">
        <ele>137</ele>
        <time>2025-01-23T17:34:08Z</time>
      </trkpt>
      <trkpt lat="43.66279" lon="1.36936">
        <ele>137</ele>
        <time>2025-01-23T17:34:09Z</time>
      </trkpt>
      <trkpt lat="43.66277" lon="1.36937">
        <ele>137</ele>
        <time>2025-01-23T17:34:10Z</time>
      </trkpt>
      <trkpt lat="43.66275" lon="1.36939">
        <ele>137</ele>
        <time>2025-01-23T17:34:11Z</time>
      </trkpt>
      <trkpt lat="43.66274" lon="1.36941">
        <ele>137</ele>
        <time>2025-01-23T17:34:12Z</time>
      </trkpt>
      <trkpt lat="43.66272" lon="1.36942">
        <ele>137</ele>
        <time>2025-01-23T17:34:13Z</time>
      </trkpt>
      <trkpt lat="43.6627" lon="1.36944">
        <ele>137</ele>
        <time>2025-01-23T17:34:14Z</time>
      </trkpt>
      <trkpt lat="43.66268" lon="1.36946">
        <ele>137</ele>
        <time>2025-01-23T17:34:15Z</time>
      </trkpt>
      <trkpt lat="43.66266" lon="1.36947">
        <ele>137</ele>
        <time>2025-01-23T17:34:16Z</time>
      </trkpt>
      <trkpt lat="43.66264" lon="1.36949">
        <ele>137</ele>
        <time>2025-01-23T17:34:17Z</time>
      </trkpt>
      <trkpt lat="43.66262" lon="1.3695">
        <ele>137</ele>
        <time>2025-01-23T17:34:18Z</time>
      </trkpt>
      <trkpt lat="43.6626" lon="1.36951">
        <ele>137</ele>
        <time>2025-01-23T17:34:19Z</time>
      </trkpt>
      <trkpt lat="43.6626" lon="1.36951">
        <ele>137</ele>
        <time>2025-01-23T17:34:20Z</time>
      </trkpt>
      <trkpt lat="43.66257" lon="1.36952">
        <ele>137</ele>
        <time>2025-01-23T17:34:21Z</time>
      </trkpt>
      <trkpt lat="43.66256" lon="1.36953">
        <ele>136</ele>
        <time>2025-01-23T17:34:22Z</time>
      </trkpt>
      <trkpt lat="43.66256" lon="1.36953">
        <ele>136</ele>
        <time>2025-01-23T17:34:23Z</time>
      </trkpt>
      <trkpt lat="43.66252" lon="1.36956">
        <ele>136</ele>
        <time>2025-01-23T17:34:24Z</time>
      </trkpt>
      <trkpt lat="43.6625" lon="1.36957">
        <ele>136</ele>
        <time>2025-01-23T17:34:25Z</time>
      </trkpt>
      <trkpt lat="43.66248" lon="1.36959">
        <ele>136</ele>
        <time>2025-01-23T17:34:26Z</time>
      </trkpt>
      <trkpt lat="43.66246" lon="1.36961">
        <ele>136</ele>
        <time>2025-01-23T17:34:27Z</time>
      </trkpt>
      <trkpt lat="43.66244" lon="1.36963">
        <ele>136</ele>
        <time>2025-01-23T17:34:28Z</time>
      </trkpt>
      <trkpt lat="43.66242" lon="1.36965">
        <ele>136</ele>
        <time>2025-01-23T17:34:29Z</time>
      </trkpt>
      <trkpt lat="43.6624" lon="1.36967">
        <ele>136</ele>
        <time>2025-01-23T17:34:30Z</time>
      </trkpt>
      <trkpt lat="43.66238" lon="1.36969">
        <ele>136</ele>
        <time>2025-01-23T17:34:31Z</time>
      </trkpt>
      <trkpt lat="43.66236" lon="1.3697">
        <ele>136</ele>
        <time>2025-01-23T17:34:32Z</time>
      </trkpt>
      <trkpt lat="43.66234" lon="1.36972">
        <ele>136</ele>
        <time>2025-01-23T17:34:33Z</time>
      </trkpt>
      <trkpt lat="43.66232" lon="1.36973">
        <ele>136</ele>
        <time>2025-01-23T17:34:34Z</time>
      </trkpt>
      <trkpt lat="43.6623" lon="1.36975">
        <ele>136</ele>
        <time>2025-01-23T17:34:35Z</time>
      </trkpt>
      <trkpt lat="43.66228" lon="1.36976">
        <ele>136</ele>
        <time>2025-01-23T17:34:36Z</time>
      </trkpt>
      <trkpt lat="43.66226" lon="1.36977">
        <ele>136</ele>
        <time>2025-01-23T17:34:37Z</time>
      </trkpt>
      <trkpt lat="43.66226" lon="1.36977">
        <ele>136</ele>
        <time>2025-01-23T17:34:38Z</time>
      </trkpt>
      <trkpt lat="43.66223" lon="1.36978">
        <ele>136</ele>
        <time>2025-01-23T17:34:39Z</time>
      </trkpt>
      <trkpt lat="43.66223" lon="1.36978">
        <ele>136</ele>
        <time>2025-01-23T17:34:40Z</time>
      </trkpt>
      <trkpt lat="43.6622" lon="1.3698">
        <ele>136</ele>
        <time>2025-01-23T17:34:41Z</time>
      </trkpt>
      <trkpt lat="43.66218" lon="1.36981">
        <ele>136</ele>
        <time>2025-01-23T17:34:42Z</time>
      </trkpt>
      <trkpt lat="43.66216" lon="1.36982">
        <ele>136</ele>
        <time>2025-01-23T17:34:43Z</time>
      </trkpt>
      <trkpt lat="43.66214" lon="1.36983">
        <ele>136</ele>
        <time>2025-01-23T17:34:44Z</time>
      </trkpt>
      <trkpt lat="43.66212" lon="1.36984">
        <ele>136</ele>
        <time>2025-01-23T17:34:45Z</time>
      </trkpt>
      <trkpt lat="43.6621" lon="1.36987">
        <ele>136</ele>
        <time>2025-01-23T17:34:46Z</time>
      </trkpt>
      <trkpt lat="43.66208" lon="1.36989">
        <ele>136</ele>
        <time>2025-01-23T17:34:47Z</time>
      </trkpt>
      <trkpt lat="43.66205" lon="1.36992">
        <ele>136</ele>
        <time>2025-01-23T17:34:48Z</time>
      </trkpt>
      <trkpt lat="43.66202" lon="1.36994">
        <ele>136</ele>
        <time>2025-01-23T17:34:49Z</time>
      </trkpt>
      <trkpt lat="43.66199" lon="1.36996">
        <ele>136</ele>
        <time>2025-01-23T17:34:50Z</time>
      </trkpt>
      <trkpt lat="43.66197" lon="1.36998">
        <ele>136</ele>
        <time>2025-01-23T17:34:51Z</time>
      </trkpt>
      <trkpt lat="43.66195" lon="1.37">
        <ele>136</ele>
        <time>2025-01-23T17:34:52Z</time>
      </trkpt>
      <trkpt lat="43.66192" lon="1.37001">
        <ele>136</ele>
        <time>2025-01-23T17:34:53Z</time>
      </trkpt>
      <trkpt lat="43.66189" lon="1.37004">
        <ele>136</ele>
        <time>2025-01-23T17:34:54Z</time>
      </trkpt>
      <trkpt lat="43.66189" lon="1.37004">
        <ele>136</ele>
        <time>2025-01-23T17:34:55Z</time>
      </trkpt>
      <trkpt lat="43.66187" lon="1.37005">
        <ele>136</ele>
        <time>2025-01-23T17:34:56Z</time>
      </trkpt>
      <trkpt lat="43.66185" lon="1.37006">
        <ele>136</ele>
        <time>2025-01-23T17:34:57Z</time>
      </trkpt>
      <trkpt lat="43.66183" lon="1.37007">
        <ele>136</ele>
        <time>2025-01-23T17:34:58Z</time>
      </trkpt>
      <trkpt lat="43.66181" lon="1.37008">
        <ele>136</ele>
        <time>2025-01-23T17:34:59Z</time>
      </trkpt>
      <trkpt lat="43.66179" lon="1.37009">
        <ele>135</ele>
        <time>2025-01-23T17:35:00Z</time>
      </trkpt>
      <trkpt lat="43.66178" lon="1.37011">
        <ele>136</ele>
        <time>2025-01-23T17:35:01Z</time>
      </trkpt>
      <trkpt lat="43.66176" lon="1.37012">
        <ele>136</ele>
        <time>2025-01-23T17:35:02Z</time>
      </trkpt>
      <trkpt lat="43.66173" lon="1.37013">
        <ele>136</ele>
        <time>2025-01-23T17:35:03Z</time>
      </trkpt>
      <trkpt lat="43.66172" lon="1.37015">
        <ele>136</ele>
        <time>2025-01-23T17:35:04Z</time>
      </trkpt>
      <trkpt lat="43.6617" lon="1.37017">
        <ele>136</ele>
        <time>2025-01-23T17:35:05Z</time>
      </trkpt>
      <trkpt lat="43.66168" lon="1.37019">
        <ele>136</ele>
        <time>2025-01-23T17:35:06Z</time>
      </trkpt>
      <trkpt lat="43.66166" lon="1.3702">
        <ele>136</ele>
        <time>2025-01-23T17:35:07Z</time>
      </trkpt>
      <trkpt lat="43.66164" lon="1.37022">
        <ele>136</ele>
        <time>2025-01-23T17:35:08Z</time>
      </trkpt>
      <trkpt lat="43.66163" lon="1.37023">
        <ele>136</ele>
        <time>2025-01-23T17:35:09Z</time>
      </trkpt>
      <trkpt lat="43.66161" lon="1.37025">
        <ele>136</ele>
        <time>2025-01-23T17:35:10Z</time>
      </trkpt>
      <trkpt lat="43.66159" lon="1.37026">
        <ele>136</ele>
        <time>2025-01-23T17:35:11Z</time>
      </trkpt>
      <trkpt lat="43.66157" lon="1.37028">
        <ele>136</ele>
        <time>2025-01-23T17:35:12Z</time>
      </trkpt>
      <trkpt lat="43.66152" lon="1.37032">
        <ele>136</ele>
        <time>2025-01-23T17:35:13Z</time>
      </trkpt>
      <trkpt lat="43.66152" lon="1.37032">
        <ele>136</ele>
        <time>2025-01-23T17:35:14Z</time>
      </trkpt>
      <trkpt lat="43.6615" lon="1.37034">
        <ele>136</ele>
        <time>2025-01-23T17:35:15Z</time>
      </trkpt>
      <trkpt lat="43.66148" lon="1.37036">
        <ele>136</ele>
        <time>2025-01-23T17:35:16Z</time>
      </trkpt>
      <trkpt lat="43.66146" lon="1.37037">
        <ele>136</ele>
        <time>2025-01-23T17:35:17Z</time>
      </trkpt>
      <trkpt lat="43.66144" lon="1.37038">
        <ele>136</ele>
        <time>2025-01-23T17:35:18Z</time>
      </trkpt>
      <trkpt lat="43.66142" lon="1.3704">
        <ele>136</ele>
        <time>2025-01-23T17:35:19Z</time>
      </trkpt>
      <trkpt lat="43.6614" lon="1.37041">
        <ele>136</ele>
        <time>2025-01-23T17:35:20Z</time>
      </trkpt>
      <trkpt lat="43.6614" lon="1.37041">
        <ele>136</ele>
        <time>2025-01-23T17:35:21Z</time>
      </trkpt>
      <trkpt lat="43.66137" lon="1.37043">
        <ele>136</ele>
        <time>2025-01-23T17:35:22Z</time>
      </trkpt>
      <trkpt lat="43.66135" lon="1.37044">
        <ele>136</ele>
        <time>2025-01-23T17:35:23Z</time>
      </trkpt>
      <trkpt lat="43.66133" lon="1.37046">
        <ele>136</ele>
        <time>2025-01-23T17:35:24Z</time>
      </trkpt>
      <trkpt lat="43.66132" lon="1.37048">
        <ele>136</ele>
        <time>2025-01-23T17:35:25Z</time>
      </trkpt>
      <trkpt lat="43.6613" lon="1.3705">
        <ele>136</ele>
        <time>2025-01-23T17:35:26Z</time>
      </trkpt>
      <trkpt lat="43.66128" lon="1.37052">
        <ele>136</ele>
        <time>2025-01-23T17:35:27Z</time>
      </trkpt>
      <trkpt lat="43.66127" lon="1.37053">
        <ele>136</ele>
        <time>2025-01-23T17:35:28Z</time>
      </trkpt>
      <trkpt lat="43.66125" lon="1.37055">
        <ele>136</ele>
        <time>2025-01-23T17:35:29Z</time>
      </trkpt>
      <trkpt lat="43.66123" lon="1.37057">
        <ele>136</ele>
        <time>2025-01-23T17:35:30Z</time>
      </trkpt>
      <trkpt lat="43.66121" lon="1.37058">
        <ele>136</ele>
        <time>2025-01-23T17:35:31Z</time>
      </trkpt>
      <trkpt lat="43.66116" lon="1.37061">
        <ele>136</ele>
        <time>2025-01-23T17:35:32Z</time>
      </trkpt>
      <trkpt lat="43.66116" lon="1.37061">
        <ele>136</ele>
        <time>2025-01-23T17:35:33Z</time>
      </trkpt>
      <trkpt lat="43.66114" lon="1.37063">
        <ele>136</ele>
        <time>2025-01-23T17:35:34Z</time>
      </trkpt>
      <trkpt lat="43.66112" lon="1.37064">
        <ele>136</ele>
        <time>2025-01-23T17:35:35Z</time>
      </trkpt>
      <trkpt lat="43.6611" lon="1.37065">
        <ele>136</ele>
        <time>2025-01-23T17:35:36Z</time>
      </trkpt>
      <trkpt lat="43.66108" lon="1.37067">
        <ele>136</ele>
        <time>2025-01-23T17:35:37Z</time>
      </trkpt>
      <trkpt lat="43.66106" lon="1.37068">
        <ele>136</ele>
        <time>2025-01-23T17:35:38Z</time>
      </trkpt>
      <trkpt lat="43.66104" lon="1.3707">
        <ele>136</ele>
        <time>2025-01-23T17:35:39Z</time>
      </trkpt>
      <trkpt lat="43.66102" lon="1.37071">
        <ele>135</ele>
        <time>2025-01-23T17:35:40Z</time>
      </trkpt>
      <trkpt lat="43.661" lon="1.37073">
        <ele>135</ele>
        <time>2025-01-23T17:35:41Z</time>
      </trkpt>
      <trkpt lat="43.66098" lon="1.37074">
        <ele>135</ele>
        <time>2025-01-23T17:35:42Z</time>
      </trkpt>
      <trkpt lat="43.66096" lon="1.37075">
        <ele>135</ele>
        <time>2025-01-23T17:35:43Z</time>
      </trkpt>
      <trkpt lat="43.66094" lon="1.37077">
        <ele>136</ele>
        <time>2025-01-23T17:35:44Z</time>
      </trkpt>
      <trkpt lat="43.66092" lon="1.37078">
        <ele>136</ele>
        <time>2025-01-23T17:35:45Z</time>
      </trkpt>
      <trkpt lat="43.6609" lon="1.3708">
        <ele>136</ele>
        <time>2025-01-23T17:35:46Z</time>
      </trkpt>
      <trkpt lat="43.66088" lon="1.37081">
        <ele>136</ele>
        <time>2025-01-23T17:35:47Z</time>
      </trkpt>
      <trkpt lat="43.66086" lon="1.37083">
        <ele>136</ele>
        <time>2025-01-23T17:35:48Z</time>
      </trkpt>
      <trkpt lat="43.66085" lon="1.37085">
        <ele>135</ele>
        <time>2025-01-23T17:35:49Z</time>
      </trkpt>
      <trkpt lat="43.66083" lon="1.37086">
        <ele>135</ele>
        <time>2025-01-23T17:35:50Z</time>
      </trkpt>
      <trkpt lat="43.66081" lon="1.37088">
        <ele>135</ele>
        <time>2025-01-23T17:35:51Z</time>
      </trkpt>
      <trkpt lat="43.66079" lon="1.37089">
        <ele>135</ele>
        <time>2025-01-23T17:35:52Z</time>
      </trkpt>
      <trkpt lat="43.66077" lon="1.3709">
        <ele>135</ele>
        <time>2025-01-23T17:35:53Z</time>
      </trkpt>
      <trkpt lat="43.66075" lon="1.37092">
        <ele>135</ele>
        <time>2025-01-23T17:35:54Z</time>
      </trkpt>
      <trkpt lat="43.66073" lon="1.37093">
        <ele>135</ele>
        <time>2025-01-23T17:35:55Z</time>
      </trkpt>
      <trkpt lat="43.66071" lon="1.37095">
        <ele>135</ele>
        <time>2025-01-23T17:35:56Z</time>
      </trkpt>
      <trkpt lat="43.66069" lon="1.37096">
        <ele>135</ele>
        <time>2025-01-23T17:35:57Z</time>
      </trkpt>
      <trkpt lat="43.66067" lon="1.37097">
        <ele>135</ele>
        <time>2025-01-23T17:35:58Z</time>
      </trkpt>
      <trkpt lat="43.66065" lon="1.37097">
        <ele>135</ele>
        <time>2025-01-23T17:35:59Z</time>
      </trkpt>
      <trkpt lat="43.66063" lon="1.37098">
        <ele>135</ele>
        <time>2025-01-23T17:36:00Z</time>
      </trkpt>
      <trkpt lat="43.66062" lon="1.37099">
        <ele>135</ele>
        <time>2025-01-23T17:36:01Z</time>
      </trkpt>
      <trkpt lat="43.6606" lon="1.371">
        <ele>135</ele>
        <time>2025-01-23T17:36:02Z</time>
      </trkpt>
      <trkpt lat="43.66058" lon="1.37102">
        <ele>135</ele>
        <time>2025-01-23T17:36:03Z</time>
      </trkpt>
      <trkpt lat="43.66056" lon="1.37103">
        <ele>135</ele>
        <time>2025-01-23T17:36:04Z</time>
      </trkpt>
      <trkpt lat="43.66054" lon="1.37105">
        <ele>135</ele>
        <time>2025-01-23T17:36:05Z</time>
      </trkpt>
      <trkpt lat="43.66053" lon="1.37107">
        <ele>135</ele>
        <time>2025-01-23T17:36:06Z</time>
      </trkpt>
      <trkpt lat="43.66051" lon="1.37109">
        <ele>135</ele>
        <time>2025-01-23T17:36:07Z</time>
      </trkpt>
      <trkpt lat="43.66048" lon="1.3711">
        <ele>135</ele>
        <time>2025-01-23T17:36:08Z</time>
      </trkpt>
      <trkpt lat="43.66046" lon="1.37111">
        <ele>135</ele>
        <time>2025-01-23T17:36:09Z</time>
      </trkpt>
      <trkpt lat="43.66044" lon="1.37113">
        <ele>135</ele>
        <time>2025-01-23T17:36:10Z</time>
      </trkpt>
      <trkpt lat="43.66042" lon="1.37113">
        <ele>135</ele>
        <time>2025-01-23T17:36:11Z</time>
      </trkpt>
      <trkpt lat="43.6604" lon="1.37114">
        <ele>135</ele>
        <time>2025-01-23T17:36:12Z</time>
      </trkpt>
      <trkpt lat="43.66038" lon="1.37116">
        <ele>135</ele>
        <time>2025-01-23T17:36:13Z</time>
      </trkpt>
      <trkpt lat="43.66036" lon="1.37117">
        <ele>135</ele>
        <time>2025-01-23T17:36:14Z</time>
      </trkpt>
      <trkpt lat="43.66034" lon="1.37119">
        <ele>135</ele>
        <time>2025-01-23T17:36:15Z</time>
      </trkpt>
      <trkpt lat="43.66033" lon="1.37121">
        <ele>135</ele>
        <time>2025-01-23T17:36:16Z</time>
      </trkpt>
      <trkpt lat="43.66031" lon="1.37123">
        <ele>135</ele>
        <time>2025-01-23T17:36:17Z</time>
      </trkpt>
      <trkpt lat="43.66029" lon="1.37125">
        <ele>135</ele>
        <time>2025-01-23T17:36:18Z</time>
      </trkpt>
      <trkpt lat="43.66027" lon="1.37126">
        <ele>135</ele>
        <time>2025-01-23T17:36:19Z</time>
      </trkpt>
      <trkpt lat="43.66025" lon="1.37128">
        <ele>135</ele>
        <time>2025-01-23T17:36:20Z</time>
      </trkpt>
      <trkpt lat="43.66023" lon="1.37129">
        <ele>135</ele>
        <time>2025-01-23T17:36:21Z</time>
      </trkpt>
      <trkpt lat="43.6602" lon="1.37131">
        <ele>135</ele>
        <time>2025-01-23T17:36:22Z</time>
      </trkpt>
      <trkpt lat="43.66018" lon="1.37132">
        <ele>135</ele>
        <time>2025-01-23T17:36:23Z</time>
      </trkpt>
      <trkpt lat="43.66016" lon="1.37133">
        <ele>135</ele>
        <time>2025-01-23T17:36:24Z</time>
      </trkpt>
      <trkpt lat="43.66014" lon="1.37135">
        <ele>135</ele>
        <time>2025-01-23T17:36:25Z</time>
      </trkpt>
      <trkpt lat="43.66012" lon="1.37136">
        <ele>135</ele>
        <time>2025-01-23T17:36:26Z</time>
      </trkpt>
      <trkpt lat="43.6601" lon="1.37138">
        <ele>135</ele>
        <time>2025-01-23T17:36:27Z</time>
      </trkpt>
      <trkpt lat="43.66008" lon="1.37139">
        <ele>135</ele>
        <time>2025-01-23T17:36:28Z</time>
      </trkpt>
      <trkpt lat="43.66006" lon="1.37141">
        <ele>135</ele>
        <time>2025-01-23T17:36:29Z</time>
      </trkpt>
      <trkpt lat="43.66005" lon="1.37142">
        <ele>135</ele>
        <time>2025-01-23T17:36:30Z</time>
      </trkpt>
      <trkpt lat="43.66003" lon="1.37144">
        <ele>135</ele>
        <time>2025-01-23T17:36:31Z</time>
      </trkpt>
      <trkpt lat="43.66001" lon="1.37144">
        <ele>135</ele>
        <time>2025-01-23T17:36:32Z</time>
      </trkpt>
      <trkpt lat="43.65999" lon="1.37146">
        <ele>135</ele>
        <time>2025-01-23T17:36:33Z</time>
      </trkpt>
      <trkpt lat="43.65997" lon="1.37147">
        <ele>135</ele>
        <time>2025-01-23T17:36:34Z</time>
      </trkpt>
      <trkpt lat="43.65996" lon="1.37148">
        <ele>135</ele>
        <time>2025-01-23T17:36:35Z</time>
      </trkpt>
      <trkpt lat="43.65994" lon="1.37149">
        <ele>135</ele>
        <time>2025-01-23T17:36:36Z</time>
      </trkpt>
      <trkpt lat="43.65992" lon="1.37151">
        <ele>134</ele>
        <time>2025-01-23T17:36:37Z</time>
      </trkpt>
      <trkpt lat="43.65991" lon="1.37153">
        <ele>134</ele>
        <time>2025-01-23T17:36:38Z</time>
      </trkpt>
      <trkpt lat="43.6599" lon="1.37155">
        <ele>134</ele>
        <time>2025-01-23T17:36:39Z</time>
      </trkpt>
      <trkpt lat="43.65988" lon="1.37157">
        <ele>134</ele>
        <time>2025-01-23T17:36:40Z</time>
      </trkpt>
      <trkpt lat="43.65987" lon="1.3716">
        <ele>134</ele>
        <time>2025-01-23T17:36:41Z</time>
      </trkpt>
      <trkpt lat="43.65985" lon="1.37161">
        <ele>135</ele>
        <time>2025-01-23T17:36:42Z</time>
      </trkpt>
      <trkpt lat="43.65983" lon="1.37163">
        <ele>135</ele>
        <time>2025-01-23T17:36:43Z</time>
      </trkpt>
      <trkpt lat="43.6598" lon="1.37164">
        <ele>135</ele>
        <time>2025-01-23T17:36:44Z</time>
      </trkpt>
      <trkpt lat="43.65978" lon="1.37165">
        <ele>135</ele>
        <time>2025-01-23T17:36:45Z</time>
      </trkpt>
      <trkpt lat="43.65976" lon="1.37166">
        <ele>135</ele>
        <time>2025-01-23T17:36:46Z</time>
      </trkpt>
      <trkpt lat="43.65974" lon="1.37167">
        <ele>134</ele>
        <time>2025-01-23T17:36:47Z</time>
      </trkpt>
      <trkpt lat="43.65972" lon="1.37168">
        <ele>134</ele>
        <time>2025-01-23T17:36:48Z</time>
      </trkpt>
      <trkpt lat="43.6597" lon="1.37169">
        <ele>135</ele>
        <time>2025-01-23T17:36:49Z</time>
      </trkpt>
      <trkpt lat="43.65968" lon="1.3717">
        <ele>135</ele>
        <time>2025-01-23T17:36:50Z</time>
      </trkpt>
      <trkpt lat="43.65966" lon="1.37171">
        <ele>135</ele>
        <time>2025-01-23T17:36:51Z</time>
      </trkpt>
      <trkpt lat="43.65964" lon="1.37173">
        <ele>135</ele>
        <time>2025-01-23T17:36:52Z</time>
      </trkpt>
      <trkpt lat="43.65962" lon="1.37175">
        <ele>135</ele>
        <time>2025-01-23T17:36:53Z</time>
      </trkpt>
      <trkpt lat="43.65959" lon="1.37176">
        <ele>135</ele>
        <time>2025-01-23T17:36:54Z</time>
      </trkpt>
      <trkpt lat="43.65957" lon="1.37178">
        <ele>135</ele>
        <time>2025-01-23T17:36:55Z</time>
      </trkpt>
      <trkpt lat="43.65956" lon="1.3718">
        <ele>135</ele>
        <time>2025-01-23T17:36:56Z</time>
      </trkpt>
      <trkpt lat="43.65954" lon="1.37182">
        <ele>135</ele>
        <time>2025-01-23T17:36:57Z</time>
      </trkpt>
      <trkpt lat="43.65953" lon="1.37184">
        <ele>135</ele>
        <time>2025-01-23T17:36:58Z</time>
      </trkpt>
      <trkpt lat="43.65951" lon="1.37185">
        <ele>135</ele>
        <time>2025-01-23T17:36:59Z</time>
      </trkpt>
      <trkpt lat="43.65948" lon="1.37186">
        <ele>135</ele>
        <time>2025-01-23T17:37:00Z</time>
      </trkpt>
      <trkpt lat="43.65946" lon="1.37187">
        <ele>135</ele>
        <time>2025-01-23T17:37:01Z</time>
      </trkpt>
      <trkpt lat="43.65944" lon="1.37188">
        <ele>135</ele>
        <time>2025-01-23T17:37:02Z</time>
      </trkpt>
      <trkpt lat="43.65942" lon="1.37189">
        <ele>135</ele>
        <time>2025-01-23T17:37:03Z</time>
      </trkpt>
      <trkpt lat="43.6594" lon="1.3719">
        <ele>135</ele>
        <time>2025-01-23T17:37:04Z</time>
      </trkpt>
      <trkpt lat="43.65938" lon="1.37191">
        <ele>135</ele>
        <time>2025-01-23T17:37:05Z</time>
      </trkpt>
      <trkpt lat="43.65936" lon="1.37192">
        <ele>135</ele>
        <time>2025-01-23T17:37:06Z</time>
      </trkpt>
      <trkpt lat="43.65933" lon="1.37193">
        <ele>135</ele>
        <time>2025-01-23T17:37:07Z</time>
      </trkpt>
      <trkpt lat="43.65931" lon="1.37195">
        <ele>135</ele>
        <time>2025-01-23T17:37:08Z</time>
      </trkpt>
      <trkpt lat="43.65929" lon="1.37196">
        <ele>135</ele>
        <time>2025-01-23T17:37:09Z</time>
      </trkpt>
      <trkpt lat="43.65927" lon="1.37197">
        <ele>135</ele>
        <time>2025-01-23T17:37:10Z</time>
      </trkpt>
      <trkpt lat="43.65925" lon="1.37199">
        <ele>136</ele>
        <time>2025-01-23T17:37:11Z</time>
      </trkpt>
      <trkpt lat="43.65923" lon="1.372">
        <ele>136</ele>
        <time>2025-01-23T17:37:12Z</time>
      </trkpt>
      <trkpt lat="43.65921" lon="1.37202">
        <ele>135</ele>
        <time>2025-01-23T17:37:13Z</time>
      </trkpt>
      <trkpt lat="43.6592" lon="1.37203">
        <ele>135</ele>
        <time>2025-01-23T17:37:14Z</time>
      </trkpt>
      <trkpt lat="43.65918" lon="1.37205">
        <ele>135</ele>
        <time>2025-01-23T17:37:15Z</time>
      </trkpt>
      <trkpt lat="43.65916" lon="1.37207">
        <ele>135</ele>
        <time>2025-01-23T17:37:16Z</time>
      </trkpt>
      <trkpt lat="43.65915" lon="1.37209">
        <ele>135</ele>
        <time>2025-01-23T17:37:17Z</time>
      </trkpt>
      <trkpt lat="43.65913" lon="1.3721">
        <ele>136</ele>
        <time>2025-01-23T17:37:18Z</time>
      </trkpt>
      <trkpt lat="43.65911" lon="1.37211">
        <ele>136</ele>
        <time>2025-01-23T17:37:19Z</time>
      </trkpt>
      <trkpt lat="43.65909" lon="1.37212">
        <ele>136</ele>
        <time>2025-01-23T17:37:20Z</time>
      </trkpt>
      <trkpt lat="43.65907" lon="1.37213">
        <ele>136</ele>
        <time>2025-01-23T17:37:21Z</time>
      </trkpt>
      <trkpt lat="43.65905" lon="1.37214">
        <ele>136</ele>
        <time>2025-01-23T17:37:22Z</time>
      </trkpt>
      <trkpt lat="43.65903" lon="1.37216">
        <ele>136</ele>
        <time>2025-01-23T17:37:23Z</time>
      </trkpt>
      <trkpt lat="43.65902" lon="1.37217">
        <ele>136</ele>
        <time>2025-01-23T17:37:24Z</time>
      </trkpt>
      <trkpt lat="43.659" lon="1.37218">
        <ele>136</ele>
        <time>2025-01-23T17:37:25Z</time>
      </trkpt>
      <trkpt lat="43.65898" lon="1.3722">
        <ele>136</ele>
        <time>2025-01-23T17:37:26Z</time>
      </trkpt>
      <trkpt lat="43.65896" lon="1.37221">
        <ele>136</ele>
        <time>2025-01-23T17:37:27Z</time>
      </trkpt>
      <trkpt lat="43.65894" lon="1.37222">
        <ele>136</ele>
        <time>2025-01-23T17:37:28Z</time>
      </trkpt>
      <trkpt lat="43.65891" lon="1.37223">
        <ele>136</ele>
        <time>2025-01-23T17:37:29Z</time>
      </trkpt>
      <trkpt lat="43.65889" lon="1.37225">
        <ele>136</ele>
        <time>2025-01-23T17:37:30Z</time>
      </trkpt>
      <trkpt lat="43.65887" lon="1.37226">
        <ele>136</ele>
        <time>2025-01-23T17:37:31Z</time>
      </trkpt>
      <trkpt lat="43.65885" lon="1.37229">
        <ele>136</ele>
        <time>2025-01-23T17:37:32Z</time>
      </trkpt>
      <trkpt lat="43.65883" lon="1.3723">
        <ele>136</ele>
        <time>2025-01-23T17:37:33Z</time>
      </trkpt>
      <trkpt lat="43.65881" lon="1.37232">
        <ele>136</ele>
        <time>2025-01-23T17:37:34Z</time>
      </trkpt>
      <trkpt lat="43.65879" lon="1.37233">
        <ele>136</ele>
        <time>2025-01-23T17:37:35Z</time>
      </trkpt>
      <trkpt lat="43.65877" lon="1.37235">
        <ele>136</ele>
        <time>2025-01-23T17:37:36Z</time>
      </trkpt>
      <trkpt lat="43.65875" lon="1.37236">
        <ele>136</ele>
        <time>2025-01-23T17:37:37Z</time>
      </trkpt>
      <trkpt lat="43.65871" lon="1.37239">
        <ele>136</ele>
        <time>2025-01-23T17:37:38Z</time>
      </trkpt>
      <trkpt lat="43.65871" lon="1.37239">
        <ele>136</ele>
        <time>2025-01-23T17:37:39Z</time>
      </trkpt>
      <trkpt lat="43.65869" lon="1.3724">
        <ele>136</ele>
        <time>2025-01-23T17:37:40Z</time>
      </trkpt>
      <trkpt lat="43.65867" lon="1.37242">
        <ele>136</ele>
        <time>2025-01-23T17:37:41Z</time>
      </trkpt>
      <trkpt lat="43.65865" lon="1.37243">
        <ele>136</ele>
        <time>2025-01-23T17:37:42Z</time>
      </trkpt>
      <trkpt lat="43.65863" lon="1.37245">
        <ele>136</ele>
        <time>2025-01-23T17:37:43Z</time>
      </trkpt>
      <trkpt lat="43.65861" lon="1.37247">
        <ele>136</ele>
        <time>2025-01-23T17:37:44Z</time>
      </trkpt>
      <trkpt lat="43.65858" lon="1.37251">
        <ele>136</ele>
        <time>2025-01-23T17:37:45Z</time>
      </trkpt>
      <trkpt lat="43.65858" lon="1.37251">
        <ele>136</ele>
        <time>2025-01-23T17:37:46Z</time>
      </trkpt>
      <trkpt lat="43.65856" lon="1.37253">
        <ele>136</ele>
        <time>2025-01-23T17:37:47Z</time>
      </trkpt>
      <trkpt lat="43.65854" lon="1.37255">
        <ele>136</ele>
        <time>2025-01-23T17:37:48Z</time>
      </trkpt>
      <trkpt lat="43.65853" lon="1.37257">
        <ele>136</ele>
        <time>2025-01-23T17:37:49Z</time>
      </trkpt>
      <trkpt lat="43.65851" lon="1.37259">
        <ele>136</ele>
        <time>2025-01-23T17:37:50Z</time>
      </trkpt>
      <trkpt lat="43.65849" lon="1.37261">
        <ele>136</ele>
        <time>2025-01-23T17:37:51Z</time>
      </trkpt>
      <trkpt lat="43.65847" lon="1.37262">
        <ele>136</ele>
        <time>2025-01-23T17:37:52Z</time>
      </trkpt>
      <trkpt lat="43.65845" lon="1.37263">
        <ele>136</ele>
        <time>2025-01-23T17:37:53Z</time>
      </trkpt>
      <trkpt lat="43.65842" lon="1.37264">
        <ele>136</ele>
        <time>2025-01-23T17:37:54Z</time>
      </trkpt>
      <trkpt lat="43.6584" lon="1.37265">
        <ele>136</ele>
        <time>2025-01-23T17:37:55Z</time>
      </trkpt>
      <trkpt lat="43.65838" lon="1.37267">
        <ele>136</ele>
        <time>2025-01-23T17:37:56Z</time>
      </trkpt>
      <trkpt lat="43.65836" lon="1.37269">
        <ele>136</ele>
        <time>2025-01-23T17:37:57Z</time>
      </trkpt>
      <trkpt lat="43.65834" lon="1.3727">
        <ele>136</ele>
        <time>2025-01-23T17:37:58Z</time>
      </trkpt>
      <trkpt lat="43.65832" lon="1.37272">
        <ele>136</ele>
        <time>2025-01-23T17:37:59Z</time>
      </trkpt>
      <trkpt lat="43.65831" lon="1.37274">
        <ele>136</ele>
        <time>2025-01-23T17:38:00Z</time>
      </trkpt>
      <trkpt lat="43.65829" lon="1.37276">
        <ele>136</ele>
        <time>2025-01-23T17:38:01Z</time>
      </trkpt>
      <trkpt lat="43.65827" lon="1.37278">
        <ele>136</ele>
        <time>2025-01-23T17:38:02Z</time>
      </trkpt>
      <trkpt lat="43.65825" lon="1.3728">
        <ele>136</ele>
        <time>2025-01-23T17:38:03Z</time>
      </trkpt>
      <trkpt lat="43.65823" lon="1.37282">
        <ele>136</ele>
        <time>2025-01-23T17:38:04Z</time>
      </trkpt>
      <trkpt lat="43.65821" lon="1.37283">
        <ele>136</ele>
        <time>2025-01-23T17:38:05Z</time>
      </trkpt>
      <trkpt lat="43.65819" lon="1.37285">
        <ele>136</ele>
        <time>2025-01-23T17:38:06Z</time>
      </trkpt>
      <trkpt lat="43.65817" lon="1.37286">
        <ele>136</ele>
        <time>2025-01-23T17:38:07Z</time>
      </trkpt>
      <trkpt lat="43.65815" lon="1.37288">
        <ele>136</ele>
        <time>2025-01-23T17:38:08Z</time>
      </trkpt>
      <trkpt lat="43.65813" lon="1.3729">
        <ele>136</ele>
        <time>2025-01-23T17:38:09Z</time>
      </trkpt>
      <trkpt lat="43.65811" lon="1.37291">
        <ele>137</ele>
        <time>2025-01-23T17:38:10Z</time>
      </trkpt>
      <trkpt lat="43.65809" lon="1.37293">
        <ele>137</ele>
        <time>2025-01-23T17:38:11Z</time>
      </trkpt>
      <trkpt lat="43.65807" lon="1.37295">
        <ele>136</ele>
        <time>2025-01-23T17:38:12Z</time>
      </trkpt>
      <trkpt lat="43.65805" lon="1.37296">
        <ele>136</ele>
        <time>2025-01-23T17:38:13Z</time>
      </trkpt>
      <trkpt lat="43.65803" lon="1.37297">
        <ele>136</ele>
        <time>2025-01-23T17:38:14Z</time>
      </trkpt>
      <trkpt lat="43.65801" lon="1.37299">
        <ele>137</ele>
        <time>2025-01-23T17:38:15Z</time>
      </trkpt>
      <trkpt lat="43.65799" lon="1.373">
        <ele>137</ele>
        <time>2025-01-23T17:38:16Z</time>
      </trkpt>
      <trkpt lat="43.65797" lon="1.37302">
        <ele>137</ele>
        <time>2025-01-23T17:38:17Z</time>
      </trkpt>
      <trkpt lat="43.65794" lon="1.37304">
        <ele>137</ele>
        <time>2025-01-23T17:38:18Z</time>
      </trkpt>
      <trkpt lat="43.65792" lon="1.37305">
        <ele>137</ele>
        <time>2025-01-23T17:38:19Z</time>
      </trkpt>
      <trkpt lat="43.6579" lon="1.37307">
        <ele>137</ele>
        <time>2025-01-23T17:38:20Z</time>
      </trkpt>
      <trkpt lat="43.65789" lon="1.37308">
        <ele>137</ele>
        <time>2025-01-23T17:38:21Z</time>
      </trkpt>
      <trkpt lat="43.65787" lon="1.3731">
        <ele>137</ele>
        <time>2025-01-23T17:38:22Z</time>
      </trkpt>
      <trkpt lat="43.65785" lon="1.37312">
        <ele>137</ele>
        <time>2025-01-23T17:38:23Z</time>
      </trkpt>
      <trkpt lat="43.65783" lon="1.37314">
        <ele>137</ele>
        <time>2025-01-23T17:38:24Z</time>
      </trkpt>
      <trkpt lat="43.6578" lon="1.37315">
        <ele>137</ele>
        <time>2025-01-23T17:38:25Z</time>
      </trkpt>
      <trkpt lat="43.65778" lon="1.37316">
        <ele>137</ele>
        <time>2025-01-23T17:38:26Z</time>
      </trkpt>
      <trkpt lat="43.65776" lon="1.37318">
        <ele>137</ele>
        <time>2025-01-23T17:38:27Z</time>
      </trkpt>
      <trkpt lat="43.65774" lon="1.37319">
        <ele>137</ele>
        <time>2025-01-23T17:38:28Z</time>
      </trkpt>
      <trkpt lat="43.65772" lon="1.3732">
        <ele>137</ele>
        <time>2025-01-23T17:38:29Z</time>
      </trkpt>
      <trkpt lat="43.6577" lon="1.37322">
        <ele>137</ele>
        <time>2025-01-23T17:38:30Z</time>
      </trkpt>
      <trkpt lat="43.65767" lon="1.37323">
        <ele>137</ele>
        <time>2025-01-23T17:38:31Z</time>
      </trkpt>
      <trkpt lat="43.65765" lon="1.37325">
        <ele>137</ele>
        <time>2025-01-23T17:38:32Z</time>
      </trkpt>
      <trkpt lat="43.65763" lon="1.37326">
        <ele>137</ele>
        <time>2025-01-23T17:38:33Z</time>
      </trkpt>
      <trkpt lat="43.65761" lon="1.37328">
        <ele>137</ele>
        <time>2025-01-23T17:38:34Z</time>
      </trkpt>
      <trkpt lat="43.65759" lon="1.37329">
        <ele>137</ele>
        <time>2025-01-23T17:38:35Z</time>
      </trkpt>
      <trkpt lat="43.65757" lon="1.37331">
        <ele>137</ele>
        <time>2025-01-23T17:38:36Z</time>
      </trkpt>
      <trkpt lat="43.65755" lon="1.37332">
        <ele>137</ele>
        <time>2025-01-23T17:38:37Z</time>
      </trkpt>
      <trkpt lat="43.65753" lon="1.37333">
        <ele>136</ele>
        <time>2025-01-23T17:38:38Z</time>
      </trkpt>
      <trkpt lat="43.65751" lon="1.37334">
        <ele>136</ele>
        <time>2025-01-23T17:38:39Z</time>
      </trkpt>
      <trkpt lat="43.65749" lon="1.37336">
        <ele>137</ele>
        <time>2025-01-23T17:38:40Z</time>
      </trkpt>
      <trkpt lat="43.65746" lon="1.37337">
        <ele>137</ele>
        <time>2025-01-23T17:38:41Z</time>
      </trkpt>
      <trkpt lat="43.65744" lon="1.37339">
        <ele>137</ele>
        <time>2025-01-23T17:38:42Z</time>
      </trkpt>
      <trkpt lat="43.65743" lon="1.37341">
        <ele>137</ele>
        <time>2025-01-23T17:38:43Z</time>
      </trkpt>
      <trkpt lat="43.65741" lon="1.37342">
        <ele>137</ele>
        <time>2025-01-23T17:38:44Z</time>
      </trkpt>
      <trkpt lat="43.65739" lon="1.37344">
        <ele>137</ele>
        <time>2025-01-23T17:38:45Z</time>
      </trkpt>
      <trkpt lat="43.65737" lon="1.37346">
        <ele>137</ele>
        <time>2025-01-23T17:38:46Z</time>
      </trkpt>
      <trkpt lat="43.65734" lon="1.37347">
        <ele>137</ele>
        <time>2025-01-23T17:38:47Z</time>
      </trkpt>
      <trkpt lat="43.65732" lon="1.37348">
        <ele>137</ele>
        <time>2025-01-23T17:38:48Z</time>
      </trkpt>
      <trkpt lat="43.6573" lon="1.3735">
        <ele>137</ele>
        <time>2025-01-23T17:38:49Z</time>
      </trkpt>
      <trkpt lat="43.65728" lon="1.37352">
        <ele>137</ele>
        <time>2025-01-23T17:38:50Z</time>
      </trkpt>
      <trkpt lat="43.65726" lon="1.37353">
        <ele>137</ele>
        <time>2025-01-23T17:38:51Z</time>
      </trkpt>
      <trkpt lat="43.65724" lon="1.37355">
        <ele>137</ele>
        <time>2025-01-23T17:38:52Z</time>
      </trkpt>
      <trkpt lat="43.65722" lon="1.37356">
        <ele>137</ele>
        <time>2025-01-23T17:38:53Z</time>
      </trkpt>
      <trkpt lat="43.6572" lon="1.37357">
        <ele>137</ele>
        <time>2025-01-23T17:38:54Z</time>
      </trkpt>
      <trkpt lat="43.65718" lon="1.37358">
        <ele>137</ele>
        <time>2025-01-23T17:38:55Z</time>
      </trkpt>
      <trkpt lat="43.65716" lon="1.37359">
        <ele>137</ele>
        <time>2025-01-23T17:38:56Z</time>
      </trkpt>
      <trkpt lat="43.65713" lon="1.3736">
        <ele>137</ele>
        <time>2025-01-23T17:38:57Z</time>
      </trkpt>
      <trkpt lat="43.65711" lon="1.37362">
        <ele>137</ele>
        <time>2025-01-23T17:38:58Z</time>
      </trkpt>
      <trkpt lat="43.65709" lon="1.37363">
        <ele>137</ele>
        <time>2025-01-23T17:38:59Z</time>
      </trkpt>
      <trkpt lat="43.65707" lon="1.37365">
        <ele>138</ele>
        <time>2025-01-23T17:39:00Z</time>
      </trkpt>
      <trkpt lat="43.65704" lon="1.37367">
        <ele>138</ele>
        <time>2025-01-23T17:39:01Z</time>
      </trkpt>
      <trkpt lat="43.65703" lon="1.37368">
        <ele>137</ele>
        <time>2025-01-23T17:39:02Z</time>
      </trkpt>
      <trkpt lat="43.65701" lon="1.3737">
        <ele>137</ele>
        <time>2025-01-23T17:39:03Z</time>
      </trkpt>
      <trkpt lat="43.65699" lon="1.37371">
        <ele>137</ele>
        <time>2025-01-23T17:39:04Z</time>
      </trkpt>
      <trkpt lat="43.65697" lon="1.37373">
        <ele>137</ele>
        <time>2025-01-23T17:39:05Z</time>
      </trkpt>
      <trkpt lat="43.65695" lon="1.37375">
        <ele>137</ele>
        <time>2025-01-23T17:39:06Z</time>
      </trkpt>
      <trkpt lat="43.65693" lon="1.37377">
        <ele>137</ele>
        <time>2025-01-23T17:39:07Z</time>
      </trkpt>
      <trkpt lat="43.65691" lon="1.37378">
        <ele>137</ele>
        <time>2025-01-23T17:39:08Z</time>
      </trkpt>
      <trkpt lat="43.65689" lon="1.3738">
        <ele>137</ele>
        <time>2025-01-23T17:39:09Z</time>
      </trkpt>
      <trkpt lat="43.65687" lon="1.37382">
        <ele>137</ele>
        <time>2025-01-23T17:39:10Z</time>
      </trkpt>
      <trkpt lat="43.65684" lon="1.37384">
        <ele>137</ele>
        <time>2025-01-23T17:39:11Z</time>
      </trkpt>
      <trkpt lat="43.65682" lon="1.37386">
        <ele>137</ele>
        <time>2025-01-23T17:39:12Z</time>
      </trkpt>
      <trkpt lat="43.6568" lon="1.37388">
        <ele>137</ele>
        <time>2025-01-23T17:39:13Z</time>
      </trkpt>
      <trkpt lat="43.65678" lon="1.3739">
        <ele>137</ele>
        <time>2025-01-23T17:39:14Z</time>
      </trkpt>
      <trkpt lat="43.65676" lon="1.37391">
        <ele>137</ele>
        <time>2025-01-23T17:39:15Z</time>
      </trkpt>
      <trkpt lat="43.65673" lon="1.37393">
        <ele>137</ele>
        <time>2025-01-23T17:39:16Z</time>
      </trkpt>
      <trkpt lat="43.65671" lon="1.37395">
        <ele>137</ele>
        <time>2025-01-23T17:39:17Z</time>
      </trkpt>
      <trkpt lat="43.65669" lon="1.37397">
        <ele>137</ele>
        <time>2025-01-23T17:39:18Z</time>
      </trkpt>
      <trkpt lat="43.65666" lon="1.37398">
        <ele>137</ele>
        <time>2025-01-23T17:39:19Z</time>
      </trkpt>
      <trkpt lat="43.65662" lon="1.37402">
        <ele>137</ele>
        <time>2025-01-23T17:39:20Z</time>
      </trkpt>
      <trkpt lat="43.65662" lon="1.37402">
        <ele>137</ele>
        <time>2025-01-23T17:39:21Z</time>
      </trkpt>
      <trkpt lat="43.6566" lon="1.37403">
        <ele>137</ele>
        <time>2025-01-23T17:39:22Z</time>
      </trkpt>
      <trkpt lat="43.65658" lon="1.37405">
        <ele>137</ele>
        <time>2025-01-23T17:39:23Z</time>
      </trkpt>
      <trkpt lat="43.65656" lon="1.37407">
        <ele>136</ele>
        <time>2025-01-23T17:39:24Z</time>
      </trkpt>
      <trkpt lat="43.65653" lon="1.37409">
        <ele>137</ele>
        <time>2025-01-23T17:39:25Z</time>
      </trkpt>
      <trkpt lat="43.65651" lon="1.3741">
        <ele>137</ele>
        <time>2025-01-23T17:39:26Z</time>
      </trkpt>
      <trkpt lat="43.65649" lon="1.37412">
        <ele>137</ele>
        <time>2025-01-23T17:39:27Z</time>
      </trkpt>
      <trkpt lat="43.65647" lon="1.37414">
        <ele>137</ele>
        <time>2025-01-23T17:39:28Z</time>
      </trkpt>
      <trkpt lat="43.65645" lon="1.37415">
        <ele>137</ele>
        <time>2025-01-23T17:39:29Z</time>
      </trkpt>
      <trkpt lat="43.65643" lon="1.37417">
        <ele>137</ele>
        <time>2025-01-23T17:39:30Z</time>
      </trkpt>
      <trkpt lat="43.65641" lon="1.37418">
        <ele>137</ele>
        <time>2025-01-23T17:39:31Z</time>
      </trkpt>
      <trkpt lat="43.65639" lon="1.37419">
        <ele>137</ele>
        <time>2025-01-23T17:39:32Z</time>
      </trkpt>
      <trkpt lat="43.65637" lon="1.37421">
        <ele>137</ele>
        <time>2025-01-23T17:39:33Z</time>
      </trkpt>
      <trkpt lat="43.65635" lon="1.37422">
        <ele>137</ele>
        <time>2025-01-23T17:39:34Z</time>
      </trkpt>
      <trkpt lat="43.65633" lon="1.37424">
        <ele>137</ele>
        <time>2025-01-23T17:39:35Z</time>
      </trkpt>
      <trkpt lat="43.65631" lon="1.37425">
        <ele>137</ele>
        <time>2025-01-23T17:39:36Z</time>
      </trkpt>
      <trkpt lat="43.65629" lon="1.37426">
        <ele>137</ele>
        <time>2025-01-23T17:39:37Z</time>
      </trkpt>
      <trkpt lat="43.65627" lon="1.37428">
        <ele>137</ele>
        <time>2025-01-23T17:39:38Z</time>
      </trkpt>
      <trkpt lat="43.65623" lon="1.37431">
        <ele>138</ele>
        <time>2025-01-23T17:39:39Z</time>
      </trkpt>
      <trkpt lat="43.65623" lon="1.37431">
        <ele>138</ele>
        <time>2025-01-23T17:39:40Z</time>
      </trkpt>
      <trkpt lat="43.65621" lon="1.37433">
        <ele>138</ele>
        <time>2025-01-23T17:39:41Z</time>
      </trkpt>
      <trkpt lat="43.65619" lon="1.37434">
        <ele>137</ele>
        <time>2025-01-23T17:39:42Z</time>
      </trkpt>
      <trkpt lat="43.65617" lon="1.37436">
        <ele>137</ele>
        <time>2025-01-23T17:39:43Z</time>
      </trkpt>
      <trkpt lat="43.65614" lon="1.37437">
        <ele>137</ele>
        <time>2025-01-23T17:39:44Z</time>
      </trkpt>
      <trkpt lat="43.65612" lon="1.37439">
        <ele>138</ele>
        <time>2025-01-23T17:39:45Z</time>
      </trkpt>
      <trkpt lat="43.65611" lon="1.3744">
        <ele>138</ele>
        <time>2025-01-23T17:39:46Z</time>
      </trkpt>
      <trkpt lat="43.65609" lon="1.37441">
        <ele>138</ele>
        <time>2025-01-23T17:39:47Z</time>
      </trkpt>
      <trkpt lat="43.65606" lon="1.37442">
        <ele>138</ele>
        <time>2025-01-23T17:39:48Z</time>
      </trkpt>
      <trkpt lat="43.65604" lon="1.37443">
        <ele>138</ele>
        <time>2025-01-23T17:39:49Z</time>
      </trkpt>
      <trkpt lat="43.65602" lon="1.37445">
        <ele>138</ele>
        <time>2025-01-23T17:39:50Z</time>
      </trkpt>
      <trkpt lat="43.656" lon="1.37447">
        <ele>138</ele>
        <time>2025-01-23T17:39:51Z</time>
      </trkpt>
      <trkpt lat="43.65598" lon="1.37448">
        <ele>138</ele>
        <time>2025-01-23T17:39:52Z</time>
      </trkpt>
      <trkpt lat="43.65596" lon="1.3745">
        <ele>138</ele>
        <time>2025-01-23T17:39:53Z</time>
      </trkpt>
      <trkpt lat="43.65594" lon="1.37451">
        <ele>138</ele>
        <time>2025-01-23T17:39:54Z</time>
      </trkpt>
      <trkpt lat="43.65592" lon="1.37453">
        <ele>138</ele>
        <time>2025-01-23T17:39:55Z</time>
      </trkpt>
      <trkpt lat="43.6559" lon="1.37454">
        <ele>138</ele>
        <time>2025-01-23T17:39:56Z</time>
      </trkpt>
      <trkpt lat="43.65588" lon="1.37455">
        <ele>138</ele>
        <time>2025-01-23T17:39:57Z</time>
      </trkpt>
      <trkpt lat="43.65584" lon="1.37457">
        <ele>138</ele>
        <time>2025-01-23T17:39:58Z</time>
      </trkpt>
      <trkpt lat="43.65584" lon="1.37457">
        <ele>138</ele>
        <time>2025-01-23T17:39:59Z</time>
      </trkpt>
      <trkpt lat="43.65582" lon="1.37459">
        <ele>138</ele>
        <time>2025-01-23T17:40:00Z</time>
      </trkpt>
      <trkpt lat="43.65581" lon="1.37461">
        <ele>138</ele>
        <time>2025-01-23T17:40:01Z</time>
      </trkpt>
      <trkpt lat="43.65579" lon="1.37463">
        <ele>137</ele>
        <time>2025-01-23T17:40:02Z</time>
      </trkpt>
      <trkpt lat="43.65577" lon="1.37464">
        <ele>137</ele>
        <time>2025-01-23T17:40:03Z</time>
      </trkpt>
      <trkpt lat="43.65575" lon="1.37466">
        <ele>137</ele>
        <time>2025-01-23T17:40:04Z</time>
      </trkpt>
      <trkpt lat="43.65573" lon="1.37467">
        <ele>137</ele>
        <time>2025-01-23T17:40:05Z</time>
      </trkpt>
      <trkpt lat="43.65571" lon="1.37468">
        <ele>137</ele>
        <time>2025-01-23T17:40:06Z</time>
      </trkpt>
      <trkpt lat="43.65569" lon="1.3747">
        <ele>137</ele>
        <time>2025-01-23T17:40:07Z</time>
      </trkpt>
      <trkpt lat="43.65567" lon="1.37471">
        <ele>137</ele>
        <time>2025-01-23T17:40:08Z</time>
      </trkpt>
      <trkpt lat="43.65565" lon="1.37473">
        <ele>137</ele>
        <time>2025-01-23T17:40:09Z</time>
      </trkpt>
      <trkpt lat="43.65562" lon="1.37474">
        <ele>138</ele>
        <time>2025-01-23T17:40:10Z</time>
      </trkpt>
      <trkpt lat="43.6556" lon="1.37475">
        <ele>138</ele>
        <time>2025-01-23T17:40:11Z</time>
      </trkpt>
      <trkpt lat="43.65559" lon="1.37477">
        <ele>138</ele>
        <time>2025-01-23T17:40:12Z</time>
      </trkpt>
      <trkpt lat="43.65557" lon="1.37478">
        <ele>138</ele>
        <time>2025-01-23T17:40:13Z</time>
      </trkpt>
      <trkpt lat="43.65554" lon="1.37479">
        <ele>138</ele>
        <time>2025-01-23T17:40:14Z</time>
      </trkpt>
      <trkpt lat="43.65552" lon="1.3748">
        <ele>138</ele>
        <time>2025-01-23T17:40:15Z</time>
      </trkpt>
      <trkpt lat="43.6555" lon="1.37481">
        <ele>138</ele>
        <time>2025-01-23T17:40:16Z</time>
      </trkpt>
      <trkpt lat="43.65548" lon="1.37482">
        <ele>138</ele>
        <time>2025-01-23T17:40:17Z</time>
      </trkpt>
      <trkpt lat="43.65545" lon="1.37481">
        <ele>138</ele>
        <time>2025-01-23T17:40:18Z</time>
      </trkpt>
      <trkpt lat="43.65543" lon="1.37479">
        <ele>138</ele>
        <time>2025-01-23T17:40:19Z</time>
      </trkpt>
      <trkpt lat="43.65541" lon="1.37477">
        <ele>138</ele>
        <time>2025-01-23T17:40:20Z</time>
      </trkpt>
      <trkpt lat="43.6554" lon="1.37474">
        <ele>138</ele>
        <time>2025-01-23T17:40:21Z</time>
      </trkpt>
      <trkpt lat="43.65539" lon="1.37472">
        <ele>138</ele>
        <time>2025-01-23T17:40:22Z</time>
      </trkpt>
      <trkpt lat="43.65538" lon="1.37469">
        <ele>138</ele>
        <time>2025-01-23T17:40:23Z</time>
      </trkpt>
      <trkpt lat="43.65536" lon="1.37466">
        <ele>138</ele>
        <time>2025-01-23T17:40:24Z</time>
      </trkpt>
      <trkpt lat="43.65535" lon="1.37464">
        <ele>138</ele>
        <time>2025-01-23T17:40:25Z</time>
      </trkpt>
      <trkpt lat="43.65534" lon="1.37461">
        <ele>138</ele>
        <time>2025-01-23T17:40:26Z</time>
      </trkpt>
      <trkpt lat="43.65532" lon="1.37458">
        <ele>138</ele>
        <time>2025-01-23T17:40:27Z</time>
      </trkpt>
      <trkpt lat="43.65531" lon="1.37456">
        <ele>138</ele>
        <time>2025-01-23T17:40:28Z</time>
      </trkpt>
      <trkpt lat="43.6553" lon="1.37453">
        <ele>138</ele>
        <time>2025-01-23T17:40:29Z</time>
      </trkpt>
      <trkpt lat="43.65529" lon="1.37451">
        <ele>138</ele>
        <time>2025-01-23T17:40:30Z</time>
      </trkpt>
      <trkpt lat="43.65528" lon="1.37449">
        <ele>138</ele>
        <time>2025-01-23T17:40:31Z</time>
      </trkpt>
      <trkpt lat="43.65527" lon="1.37447">
        <ele>138</ele>
        <time>2025-01-23T17:40:32Z</time>
      </trkpt>
      <trkpt lat="43.65526" lon="1.37444">
        <ele>138</ele>
        <time>2025-01-23T17:40:33Z</time>
      </trkpt>
      <trkpt lat="43.65524" lon="1.37442">
        <ele>138</ele>
        <time>2025-01-23T17:40:34Z</time>
      </trkpt>
      <trkpt lat="43.65523" lon="1.3744">
        <ele>138</ele>
        <time>2025-01-23T17:40:35Z</time>
      </trkpt>
      <trkpt lat="43.65522" lon="1.37438">
        <ele>138</ele>
        <time>2025-01-23T17:40:36Z</time>
      </trkpt>
      <trkpt lat="43.65521" lon="1.37435">
        <ele>138</ele>
        <time>2025-01-23T17:40:37Z</time>
      </trkpt>
      <trkpt lat="43.65519" lon="1.37432">
        <ele>138</ele>
        <time>2025-01-23T17:40:38Z</time>
      </trkpt>
      <trkpt lat="43.65518" lon="1.3743">
        <ele>138</ele>
        <time>2025-01-23T17:40:39Z</time>
      </trkpt>
      <trkpt lat="43.65516" lon="1.37428">
        <ele>139</ele>
        <time>2025-01-23T17:40:40Z</time>
      </trkpt>
      <trkpt lat="43.65515" lon="1.37425">
        <ele>139</ele>
        <time>2025-01-23T17:40:41Z</time>
      </trkpt>
      <trkpt lat="43.65513" lon="1.37423">
        <ele>139</ele>
        <time>2025-01-23T17:40:42Z</time>
      </trkpt>
      <trkpt lat="43.65512" lon="1.3742">
        <ele>139</ele>
        <time>2025-01-23T17:40:43Z</time>
      </trkpt>
      <trkpt lat="43.65511" lon="1.37417">
        <ele>139</ele>
        <time>2025-01-23T17:40:44Z</time>
      </trkpt>
      <trkpt lat="43.65509" lon="1.37415">
        <ele>139</ele>
        <time>2025-01-23T17:40:45Z</time>
      </trkpt>
      <trkpt lat="43.65508" lon="1.37412">
        <ele>139</ele>
        <time>2025-01-23T17:40:46Z</time>
      </trkpt>
      <trkpt lat="43.65507" lon="1.37409">
        <ele>139</ele>
        <time>2025-01-23T17:40:47Z</time>
      </trkpt>
      <trkpt lat="43.65505" lon="1.37407">
        <ele>139</ele>
        <time>2025-01-23T17:40:48Z</time>
      </trkpt>
      <trkpt lat="43.65504" lon="1.37403">
        <ele>139</ele>
        <time>2025-01-23T17:40:49Z</time>
      </trkpt>
      <trkpt lat="43.65503" lon="1.37401">
        <ele>139</ele>
        <time>2025-01-23T17:40:50Z</time>
      </trkpt>
      <trkpt lat="43.655" lon="1.37395">
        <ele>139</ele>
        <time>2025-01-23T17:40:51Z</time>
      </trkpt>
      <trkpt lat="43.655" lon="1.37395">
        <ele>139</ele>
        <time>2025-01-23T17:40:52Z</time>
      </trkpt>
      <trkpt lat="43.65499" lon="1.37393">
        <ele>139</ele>
        <time>2025-01-23T17:40:53Z</time>
      </trkpt>
      <trkpt lat="43.65498" lon="1.3739">
        <ele>139</ele>
        <time>2025-01-23T17:40:54Z</time>
      </trkpt>
      <trkpt lat="43.65496" lon="1.37387">
        <ele>139</ele>
        <time>2025-01-23T17:40:55Z</time>
      </trkpt>
      <trkpt lat="43.65495" lon="1.37384">
        <ele>139</ele>
        <time>2025-01-23T17:40:56Z</time>
      </trkpt>
      <trkpt lat="43.65495" lon="1.3738">
        <ele>139</ele>
        <time>2025-01-23T17:40:57Z</time>
      </trkpt>
      <trkpt lat="43.65497" lon="1.37377">
        <ele>139</ele>
        <time>2025-01-23T17:40:58Z</time>
      </trkpt>
      <trkpt lat="43.65499" lon="1.37374">
        <ele>139</ele>
        <time>2025-01-23T17:40:59Z</time>
      </trkpt>
      <trkpt lat="43.65501" lon="1.37371">
        <ele>139</ele>
        <time>2025-01-23T17:41:00Z</time>
      </trkpt>
      <trkpt lat="43.65504" lon="1.37369">
        <ele>139</ele>
        <time>2025-01-23T17:41:01Z</time>
      </trkpt>
      <trkpt lat="43.65506" lon="1.37367">
        <ele>139</ele>
        <time>2025-01-23T17:41:02Z</time>
      </trkpt>
      <trkpt lat="43.65509" lon="1.37364">
        <ele>139</ele>
        <time>2025-01-23T17:41:03Z</time>
      </trkpt>
      <trkpt lat="43.65511" lon="1.37362">
        <ele>139</ele>
        <time>2025-01-23T17:41:04Z</time>
      </trkpt>
      <trkpt lat="43.65513" lon="1.3736">
        <ele>139</ele>
        <time>2025-01-23T17:41:05Z</time>
      </trkpt>
      <trkpt lat="43.65515" lon="1.37358">
        <ele>139</ele>
        <time>2025-01-23T17:41:06Z</time>
      </trkpt>
      <trkpt lat="43.65517" lon="1.37355">
        <ele>139</ele>
        <time>2025-01-23T17:41:07Z</time>
      </trkpt>
      <trkpt lat="43.65519" lon="1.37353">
        <ele>139</ele>
        <time>2025-01-23T17:41:08Z</time>
      </trkpt>
      <trkpt lat="43.65522" lon="1.37352">
        <ele>139</ele>
        <time>2025-01-23T17:41:09Z</time>
      </trkpt>
      <trkpt lat="43.65524" lon="1.3735">
        <ele>139</ele>
        <time>2025-01-23T17:41:10Z</time>
      </trkpt>
      <trkpt lat="43.65526" lon="1.37348">
        <ele>139</ele>
        <time>2025-01-23T17:41:11Z</time>
      </trkpt>
      <trkpt lat="43.65528" lon="1.37346">
        <ele>139</ele>
        <time>2025-01-23T17:41:12Z</time>
      </trkpt>
      <trkpt lat="43.6553" lon="1.37344">
        <ele>139</ele>
        <time>2025-01-23T17:41:13Z</time>
      </trkpt>
      <trkpt lat="43.65532" lon="1.37342">
        <ele>139</ele>
        <time>2025-01-23T17:41:14Z</time>
      </trkpt>
      <trkpt lat="43.65534" lon="1.3734">
        <ele>139</ele>
        <time>2025-01-23T17:41:15Z</time>
      </trkpt>
      <trkpt lat="43.65536" lon="1.37338">
        <ele>139</ele>
        <time>2025-01-23T17:41:16Z</time>
      </trkpt>
      <trkpt lat="43.65539" lon="1.37336">
        <ele>139</ele>
        <time>2025-01-23T17:41:17Z</time>
      </trkpt>
      <trkpt lat="43.65541" lon="1.37334">
        <ele>139</ele>
        <time>2025-01-23T17:41:18Z</time>
      </trkpt>
      <trkpt lat="43.65543" lon="1.37333">
        <ele>139</ele>
        <time>2025-01-23T17:41:19Z</time>
      </trkpt>
      <trkpt lat="43.65545" lon="1.37331">
        <ele>139</ele>
        <time>2025-01-23T17:41:20Z</time>
      </trkpt>
      <trkpt lat="43.65547" lon="1.37329">
        <ele>139</ele>
        <time>2025-01-23T17:41:21Z</time>
      </trkpt>
      <trkpt lat="43.65549" lon="1.37327">
        <ele>139</ele>
        <time>2025-01-23T17:41:22Z</time>
      </trkpt>
      <trkpt lat="43.65552" lon="1.37325">
        <ele>139</ele>
        <time>2025-01-23T17:41:23Z</time>
      </trkpt>
      <trkpt lat="43.65554" lon="1.37323">
        <ele>139</ele>
        <time>2025-01-23T17:41:24Z</time>
      </trkpt>
      <trkpt lat="43.65556" lon="1.37322">
        <ele>139</ele>
        <time>2025-01-23T17:41:25Z</time>
      </trkpt>
      <trkpt lat="43.65558" lon="1.3732">
        <ele>139</ele>
        <time>2025-01-23T17:41:26Z</time>
      </trkpt>
      <trkpt lat="43.6556" lon="1.37318">
        <ele>139</ele>
        <time>2025-01-23T17:41:27Z</time>
      </trkpt>
      <trkpt lat="43.65563" lon="1.37316">
        <ele>139</ele>
        <time>2025-01-23T17:41:28Z</time>
      </trkpt>
      <trkpt lat="43.65565" lon="1.37314">
        <ele>139</ele>
        <time>2025-01-23T17:41:29Z</time>
      </trkpt>
      <trkpt lat="43.65567" lon="1.37312">
        <ele>139</ele>
        <time>2025-01-23T17:41:30Z</time>
      </trkpt>
      <trkpt lat="43.65569" lon="1.37311">
        <ele>139</ele>
        <time>2025-01-23T17:41:31Z</time>
      </trkpt>
      <trkpt lat="43.65571" lon="1.37309">
        <ele>139</ele>
        <time>2025-01-23T17:41:32Z</time>
      </trkpt>
      <trkpt lat="43.65573" lon="1.37307">
        <ele>139</ele>
        <time>2025-01-23T17:41:33Z</time>
      </trkpt>
      <trkpt lat="43.65575" lon="1.37305">
        <ele>139</ele>
        <time>2025-01-23T17:41:34Z</time>
      </trkpt>
      <trkpt lat="43.65578" lon="1.37303">
        <ele>139</ele>
        <time>2025-01-23T17:41:35Z</time>
      </trkpt>
      <trkpt lat="43.6558" lon="1.37302">
        <ele>139</ele>
        <time>2025-01-23T17:41:36Z</time>
      </trkpt>
      <trkpt lat="43.65582" lon="1.37301">
        <ele>138</ele>
        <time>2025-01-23T17:41:37Z</time>
      </trkpt>
      <trkpt lat="43.65585" lon="1.37299">
        <ele>138</ele>
        <time>2025-01-23T17:41:38Z</time>
      </trkpt>
      <trkpt lat="43.65587" lon="1.37298">
        <ele>138</ele>
        <time>2025-01-23T17:41:39Z</time>
      </trkpt>
      <trkpt lat="43.65589" lon="1.37296">
        <ele>138</ele>
        <time>2025-01-23T17:41:40Z</time>
      </trkpt>
      <trkpt lat="43.65592" lon="1.37294">
        <ele>138</ele>
        <time>2025-01-23T17:41:41Z</time>
      </trkpt>
      <trkpt lat="43.65594" lon="1.37293">
        <ele>139</ele>
        <time>2025-01-23T17:41:42Z</time>
      </trkpt>
      <trkpt lat="43.65596" lon="1.37291">
        <ele>139</ele>
        <time>2025-01-23T17:41:43Z</time>
      </trkpt>
      <trkpt lat="43.65598" lon="1.3729">
        <ele>139</ele>
        <time>2025-01-23T17:41:44Z</time>
      </trkpt>
      <trkpt lat="43.656" lon="1.37288">
        <ele>139</ele>
        <time>2025-01-23T17:41:45Z</time>
      </trkpt>
      <trkpt lat="43.65603" lon="1.37287">
        <ele>139</ele>
        <time>2025-01-23T17:41:46Z</time>
      </trkpt>
      <trkpt lat="43.65605" lon="1.37285">
        <ele>139</ele>
        <time>2025-01-23T17:41:47Z</time>
      </trkpt>
      <trkpt lat="43.65606" lon="1.37284">
        <ele>139</ele>
        <time>2025-01-23T17:41:48Z</time>
      </trkpt>
      <trkpt lat="43.65608" lon="1.37282">
        <ele>139</ele>
        <time>2025-01-23T17:41:49Z</time>
      </trkpt>
      <trkpt lat="43.6561" lon="1.37281">
        <ele>138</ele>
        <time>2025-01-23T17:41:50Z</time>
      </trkpt>
      <trkpt lat="43.65612" lon="1.37279">
        <ele>138</ele>
        <time>2025-01-23T17:41:51Z</time>
      </trkpt>
      <trkpt lat="43.65617" lon="1.37276">
        <ele>138</ele>
        <time>2025-01-23T17:41:52Z</time>
      </trkpt>
      <trkpt lat="43.65617" lon="1.37276">
        <ele>138</ele>
        <time>2025-01-23T17:41:53Z</time>
      </trkpt>
      <trkpt lat="43.65619" lon="1.37274">
        <ele>138</ele>
        <time>2025-01-23T17:41:54Z</time>
      </trkpt>
      <trkpt lat="43.65621" lon="1.37272">
        <ele>138</ele>
        <time>2025-01-23T17:41:55Z</time>
      </trkpt>
      <trkpt lat="43.65623" lon="1.3727">
        <ele>138</ele>
        <time>2025-01-23T17:41:56Z</time>
      </trkpt>
      <trkpt lat="43.65625" lon="1.37268">
        <ele>138</ele>
        <time>2025-01-23T17:41:57Z</time>
      </trkpt>
      <trkpt lat="43.65627" lon="1.37267">
        <ele>138</ele>
        <time>2025-01-23T17:41:58Z</time>
      </trkpt>
      <trkpt lat="43.65629" lon="1.37265">
        <ele>138</ele>
        <time>2025-01-23T17:41:59Z</time>
      </trkpt>
      <trkpt lat="43.65632" lon="1.37263">
        <ele>138</ele>
        <time>2025-01-23T17:42:00Z</time>
      </trkpt>
      <trkpt lat="43.65634" lon="1.37262">
        <ele>138</ele>
        <time>2025-01-23T17:42:01Z</time>
      </trkpt>
      <trkpt lat="43.65637" lon="1.3726">
        <ele>138</ele>
        <time>2025-01-23T17:42:02Z</time>
      </trkpt>
      <trkpt lat="43.65639" lon="1.37258">
        <ele>138</ele>
        <time>2025-01-23T17:42:03Z</time>
      </trkpt>
      <trkpt lat="43.65641" lon="1.37256">
        <ele>138</ele>
        <time>2025-01-23T17:42:04Z</time>
      </trkpt>
      <trkpt lat="43.65643" lon="1.37255">
        <ele>138</ele>
        <time>2025-01-23T17:42:05Z</time>
      </trkpt>
      <trkpt lat="43.65645" lon="1.37253">
        <ele>138</ele>
        <time>2025-01-23T17:42:06Z</time>
      </trkpt>
      <trkpt lat="43.65647" lon="1.37251">
        <ele>139</ele>
        <time>2025-01-23T17:42:07Z</time>
      </trkpt>
      <trkpt lat="43.6565" lon="1.3725">
        <ele>139</ele>
        <time>2025-01-23T17:42:08Z</time>
      </trkpt>
      <trkpt lat="43.65652" lon="1.37248">
        <ele>139</ele>
        <time>2025-01-23T17:42:09Z</time>
      </trkpt>
      <trkpt lat="43.65654" lon="1.37246">
        <ele>138</ele>
        <time>2025-01-23T17:42:10Z</time>
      </trkpt>
      <trkpt lat="43.65658" lon="1.37243">
        <ele>138</ele>
        <time>2025-01-23T17:42:11Z</time>
      </trkpt>
      <trkpt lat="43.65658" lon="1.37243">
        <ele>138</ele>
        <time>2025-01-23T17:42:12Z</time>
      </trkpt>
      <trkpt lat="43.6566" lon="1.37241">
        <ele>138</ele>
        <time>2025-01-23T17:42:13Z</time>
      </trkpt>
      <trkpt lat="43.65662" lon="1.3724">
        <ele>138</ele>
        <time>2025-01-23T17:42:14Z</time>
      </trkpt>
      <trkpt lat="43.65664" lon="1.37238">
        <ele>138</ele>
        <time>2025-01-23T17:42:15Z</time>
      </trkpt>
      <trkpt lat="43.65667" lon="1.37237">
        <ele>138</ele>
        <time>2025-01-23T17:42:16Z</time>
      </trkpt>
      <trkpt lat="43.65669" lon="1.37235">
        <ele>138</ele>
        <time>2025-01-23T17:42:17Z</time>
      </trkpt>
      <trkpt lat="43.65671" lon="1.37233">
        <ele>138</ele>
        <time>2025-01-23T17:42:18Z</time>
      </trkpt>
      <trkpt lat="43.65673" lon="1.37231">
        <ele>138</ele>
        <time>2025-01-23T17:42:19Z</time>
      </trkpt>
      <trkpt lat="43.65675" lon="1.37229">
        <ele>138</ele>
        <time>2025-01-23T17:42:20Z</time>
      </trkpt>
      <trkpt lat="43.65676" lon="1.37227">
        <ele>138</ele>
        <time>2025-01-23T17:42:21Z</time>
      </trkpt>
      <trkpt lat="43.65676" lon="1.37227">
        <ele>138</ele>
        <time>2025-01-23T17:42:22Z</time>
      </trkpt>
      <trkpt lat="43.6568" lon="1.37224">
        <ele>138</ele>
        <time>2025-01-23T17:42:23Z</time>
      </trkpt>
      <trkpt lat="43.65682" lon="1.37223">
        <ele>138</ele>
        <time>2025-01-23T17:42:24Z</time>
      </trkpt>
      <trkpt lat="43.65684" lon="1.37221">
        <ele>138</ele>
        <time>2025-01-23T17:42:25Z</time>
      </trkpt>
      <trkpt lat="43.65686" lon="1.3722">
        <ele>138</ele>
        <time>2025-01-23T17:42:26Z</time>
      </trkpt>
      <trkpt lat="43.65689" lon="1.37216">
        <ele>138</ele>
        <time>2025-01-23T17:42:27Z</time>
      </trkpt>
      <trkpt lat="43.65689" lon="1.37216">
        <ele>138</ele>
        <time>2025-01-23T17:42:28Z</time>
      </trkpt>
      <trkpt lat="43.65691" lon="1.37214">
        <ele>138</ele>
        <time>2025-01-23T17:42:29Z</time>
      </trkpt>
      <trkpt lat="43.65696" lon="1.37211">
        <ele>138</ele>
        <time>2025-01-23T17:42:30Z</time>
      </trkpt>
      <trkpt lat="43.65696" lon="1.37211">
        <ele>138</ele>
        <time>2025-01-23T17:42:31Z</time>
      </trkpt>
      <trkpt lat="43.65698" lon="1.3721">
        <ele>138</ele>
        <time>2025-01-23T17:42:32Z</time>
      </trkpt>
      <trkpt lat="43.657" lon="1.37208">
        <ele>138</ele>
        <time>2025-01-23T17:42:33Z</time>
      </trkpt>
      <trkpt lat="43.65703" lon="1.37207">
        <ele>138</ele>
        <time>2025-01-23T17:42:34Z</time>
      </trkpt>
      <trkpt lat="43.65705" lon="1.37205">
        <ele>139</ele>
        <time>2025-01-23T17:42:35Z</time>
      </trkpt>
      <trkpt lat="43.65707" lon="1.37204">
        <ele>139</ele>
        <time>2025-01-23T17:42:36Z</time>
      </trkpt>
      <trkpt lat="43.6571" lon="1.37203">
        <ele>139</ele>
        <time>2025-01-23T17:42:37Z</time>
      </trkpt>
      <trkpt lat="43.65712" lon="1.37201">
        <ele>139</ele>
        <time>2025-01-23T17:42:38Z</time>
      </trkpt>
      <trkpt lat="43.65714" lon="1.372">
        <ele>139</ele>
        <time>2025-01-23T17:42:39Z</time>
      </trkpt>
      <trkpt lat="43.65716" lon="1.37198">
        <ele>139</ele>
        <time>2025-01-23T17:42:40Z</time>
      </trkpt>
      <trkpt lat="43.65718" lon="1.37196">
        <ele>139</ele>
        <time>2025-01-23T17:42:41Z</time>
      </trkpt>
      <trkpt lat="43.6572" lon="1.37195">
        <ele>139</ele>
        <time>2025-01-23T17:42:42Z</time>
      </trkpt>
      <trkpt lat="43.65722" lon="1.37193">
        <ele>138</ele>
        <time>2025-01-23T17:42:43Z</time>
      </trkpt>
      <trkpt lat="43.65724" lon="1.37192">
        <ele>139</ele>
        <time>2025-01-23T17:42:44Z</time>
      </trkpt>
      <trkpt lat="43.65727" lon="1.3719">
        <ele>139</ele>
        <time>2025-01-23T17:42:45Z</time>
      </trkpt>
      <trkpt lat="43.65729" lon="1.37189">
        <ele>139</ele>
        <time>2025-01-23T17:42:46Z</time>
      </trkpt>
      <trkpt lat="43.65732" lon="1.37187">
        <ele>139</ele>
        <time>2025-01-23T17:42:47Z</time>
      </trkpt>
      <trkpt lat="43.65734" lon="1.37186">
        <ele>139</ele>
        <time>2025-01-23T17:42:48Z</time>
      </trkpt>
      <trkpt lat="43.65738" lon="1.37184">
        <ele>139</ele>
        <time>2025-01-23T17:42:49Z</time>
      </trkpt>
      <trkpt lat="43.65739" lon="1.37183">
        <ele>139</ele>
        <time>2025-01-23T17:42:50Z</time>
      </trkpt>
      <trkpt lat="43.65741" lon="1.37181">
        <ele>139</ele>
        <time>2025-01-23T17:42:51Z</time>
      </trkpt>
      <trkpt lat="43.65743" lon="1.3718">
        <ele>139</ele>
        <time>2025-01-23T17:42:52Z</time>
      </trkpt>
      <trkpt lat="43.65745" lon="1.37178">
        <ele>139</ele>
        <time>2025-01-23T17:42:53Z</time>
      </trkpt>
      <trkpt lat="43.65748" lon="1.37177">
        <ele>138</ele>
        <time>2025-01-23T17:42:54Z</time>
      </trkpt>
      <trkpt lat="43.6575" lon="1.37175">
        <ele>138</ele>
        <time>2025-01-23T17:42:55Z</time>
      </trkpt>
      <trkpt lat="43.65752" lon="1.37174">
        <ele>138</ele>
        <time>2025-01-23T17:42:56Z</time>
      </trkpt>
      <trkpt lat="43.65754" lon="1.37172">
        <ele>138</ele>
        <time>2025-01-23T17:42:57Z</time>
      </trkpt>
      <trkpt lat="43.65756" lon="1.37171">
        <ele>138</ele>
        <time>2025-01-23T17:42:58Z</time>
      </trkpt>
      <trkpt lat="43.65758" lon="1.3717">
        <ele>138</ele>
        <time>2025-01-23T17:42:59Z</time>
      </trkpt>
      <trkpt lat="43.6576" lon="1.37168">
        <ele>138</ele>
        <time>2025-01-23T17:43:00Z</time>
      </trkpt>
      <trkpt lat="43.65762" lon="1.37166">
        <ele>138</ele>
        <time>2025-01-23T17:43:01Z</time>
      </trkpt>
      <trkpt lat="43.65764" lon="1.37165">
        <ele>138</ele>
        <time>2025-01-23T17:43:02Z</time>
      </trkpt>
      <trkpt lat="43.65766" lon="1.37164">
        <ele>138</ele>
        <time>2025-01-23T17:43:03Z</time>
      </trkpt>
      <trkpt lat="43.65768" lon="1.37162">
        <ele>138</ele>
        <time>2025-01-23T17:43:04Z</time>
      </trkpt>
      <trkpt lat="43.6577" lon="1.3716">
        <ele>138</ele>
        <time>2025-01-23T17:43:05Z</time>
      </trkpt>
      <trkpt lat="43.65773" lon="1.37159">
        <ele>138</ele>
        <time>2025-01-23T17:43:06Z</time>
      </trkpt>
      <trkpt lat="43.65775" lon="1.37157">
        <ele>138</ele>
        <time>2025-01-23T17:43:07Z</time>
      </trkpt>
      <trkpt lat="43.65779" lon="1.37154">
        <ele>138</ele>
        <time>2025-01-23T17:43:08Z</time>
      </trkpt>
      <trkpt lat="43.65779" lon="1.37154">
        <ele>138</ele>
        <time>2025-01-23T17:43:09Z</time>
      </trkpt>
      <trkpt lat="43.65781" lon="1.37152">
        <ele>138</ele>
        <time>2025-01-23T17:43:10Z</time>
      </trkpt>
      <trkpt lat="43.65783" lon="1.37151">
        <ele>138</ele>
        <time>2025-01-23T17:43:11Z</time>
      </trkpt>
      <trkpt lat="43.65785" lon="1.37149">
        <ele>138</ele>
        <time>2025-01-23T17:43:12Z</time>
      </trkpt>
      <trkpt lat="43.65787" lon="1.37147">
        <ele>138</ele>
        <time>2025-01-23T17:43:13Z</time>
      </trkpt>
      <trkpt lat="43.65789" lon="1.37146">
        <ele>138</ele>
        <time>2025-01-23T17:43:14Z</time>
      </trkpt>
      <trkpt lat="43.65792" lon="1.37144">
        <ele>138</ele>
        <time>2025-01-23T17:43:15Z</time>
      </trkpt>
      <trkpt lat="43.65794" lon="1.37143">
        <ele>138</ele>
        <time>2025-01-23T17:43:16Z</time>
      </trkpt>
      <trkpt lat="43.65796" lon="1.37141">
        <ele>138</ele>
        <time>2025-01-23T17:43:17Z</time>
      </trkpt>
      <trkpt lat="43.65798" lon="1.37139">
        <ele>138</ele>
        <time>2025-01-23T17:43:18Z</time>
      </trkpt>
      <trkpt lat="43.65801" lon="1.37138">
        <ele>138</ele>
        <time>2025-01-23T17:43:19Z</time>
      </trkpt>
      <trkpt lat="43.65803" lon="1.37136">
        <ele>138</ele>
        <time>2025-01-23T17:43:20Z</time>
      </trkpt>
      <trkpt lat="43.65805" lon="1.37134">
        <ele>138</ele>
        <time>2025-01-23T17:43:21Z</time>
      </trkpt>
      <trkpt lat="43.65807" lon="1.37133">
        <ele>139</ele>
        <time>2025-01-23T17:43:22Z</time>
      </trkpt>
      <trkpt lat="43.6581" lon="1.37131">
        <ele>139</ele>
        <time>2025-01-23T17:43:23Z</time>
      </trkpt>
      <trkpt lat="43.65812" lon="1.3713">
        <ele>139</ele>
        <time>2025-01-23T17:43:24Z</time>
      </trkpt>
      <trkpt lat="43.65813" lon="1.37128">
        <ele>139</ele>
        <time>2025-01-23T17:43:25Z</time>
      </trkpt>
      <trkpt lat="43.65816" lon="1.37127">
        <ele>139</ele>
        <time>2025-01-23T17:43:26Z</time>
      </trkpt>
      <trkpt lat="43.65819" lon="1.37123">
        <ele>139</ele>
        <time>2025-01-23T17:43:27Z</time>
      </trkpt>
      <trkpt lat="43.65819" lon="1.37123">
        <ele>139</ele>
        <time>2025-01-23T17:43:28Z</time>
      </trkpt>
      <trkpt lat="43.65821" lon="1.37122">
        <ele>139</ele>
        <time>2025-01-23T17:43:29Z</time>
      </trkpt>
      <trkpt lat="43.65823" lon="1.3712">
        <ele>138</ele>
        <time>2025-01-23T17:43:30Z</time>
      </trkpt>
      <trkpt lat="43.65825" lon="1.37119">
        <ele>138</ele>
        <time>2025-01-23T17:43:31Z</time>
      </trkpt>
      <trkpt lat="43.65828" lon="1.37117">
        <ele>138</ele>
        <time>2025-01-23T17:43:32Z</time>
      </trkpt>
      <trkpt lat="43.6583" lon="1.37115">
        <ele>138</ele>
        <time>2025-01-23T17:43:33Z</time>
      </trkpt>
      <trkpt lat="43.65832" lon="1.37114">
        <ele>138</ele>
        <time>2025-01-23T17:43:34Z</time>
      </trkpt>
      <trkpt lat="43.65834" lon="1.37112">
        <ele>138</ele>
        <time>2025-01-23T17:43:35Z</time>
      </trkpt>
      <trkpt lat="43.65836" lon="1.37111">
        <ele>138</ele>
        <time>2025-01-23T17:43:36Z</time>
      </trkpt>
      <trkpt lat="43.65838" lon="1.37109">
        <ele>138</ele>
        <time>2025-01-23T17:43:37Z</time>
      </trkpt>
      <trkpt lat="43.6584" lon="1.37107">
        <ele>138</ele>
        <time>2025-01-23T17:43:38Z</time>
      </trkpt>
      <trkpt lat="43.65842" lon="1.37105">
        <ele>138</ele>
        <time>2025-01-23T17:43:39Z</time>
      </trkpt>
      <trkpt lat="43.65845" lon="1.37104">
        <ele>138</ele>
        <time>2025-01-23T17:43:40Z</time>
      </trkpt>
      <trkpt lat="43.65847" lon="1.37102">
        <ele>138</ele>
        <time>2025-01-23T17:43:41Z</time>
      </trkpt>
      <trkpt lat="43.65849" lon="1.371">
        <ele>138</ele>
        <time>2025-01-23T17:43:42Z</time>
      </trkpt>
      <trkpt lat="43.65851" lon="1.37098">
        <ele>138</ele>
        <time>2025-01-23T17:43:43Z</time>
      </trkpt>
      <trkpt lat="43.65853" lon="1.37096">
        <ele>138</ele>
        <time>2025-01-23T17:43:44Z</time>
      </trkpt>
      <trkpt lat="43.65855" lon="1.37094">
        <ele>138</ele>
        <time>2025-01-23T17:43:45Z</time>
      </trkpt>
      <trkpt lat="43.65857" lon="1.37093">
        <ele>138</ele>
        <time>2025-01-23T17:43:46Z</time>
      </trkpt>
      <trkpt lat="43.6586" lon="1.37091">
        <ele>138</ele>
        <time>2025-01-23T17:43:47Z</time>
      </trkpt>
      <trkpt lat="43.65862" lon="1.3709">
        <ele>138</ele>
        <time>2025-01-23T17:43:48Z</time>
      </trkpt>
      <trkpt lat="43.65864" lon="1.37088">
        <ele>138</ele>
        <time>2025-01-23T17:43:49Z</time>
      </trkpt>
      <trkpt lat="43.65866" lon="1.37086">
        <ele>137</ele>
        <time>2025-01-23T17:43:50Z</time>
      </trkpt>
      <trkpt lat="43.65868" lon="1.37084">
        <ele>138</ele>
        <time>2025-01-23T17:43:51Z</time>
      </trkpt>
      <trkpt lat="43.6587" lon="1.37083">
        <ele>138</ele>
        <time>2025-01-23T17:43:52Z</time>
      </trkpt>
      <trkpt lat="43.65872" lon="1.37081">
        <ele>138</ele>
        <time>2025-01-23T17:43:53Z</time>
      </trkpt>
      <trkpt lat="43.65875" lon="1.3708">
        <ele>138</ele>
        <time>2025-01-23T17:43:54Z</time>
      </trkpt>
      <trkpt lat="43.65876" lon="1.37078">
        <ele>138</ele>
        <time>2025-01-23T17:43:55Z</time>
      </trkpt>
      <trkpt lat="43.65879" lon="1.37077">
        <ele>138</ele>
        <time>2025-01-23T17:43:56Z</time>
      </trkpt>
      <trkpt lat="43.65881" lon="1.37075">
        <ele>138</ele>
        <time>2025-01-23T17:43:57Z</time>
      </trkpt>
      <trkpt lat="43.65883" lon="1.37073">
        <ele>138</ele>
        <time>2025-01-23T17:43:58Z</time>
      </trkpt>
      <trkpt lat="43.65885" lon="1.37072">
        <ele>138</ele>
        <time>2025-01-23T17:43:59Z</time>
      </trkpt>
      <trkpt lat="43.65887" lon="1.3707">
        <ele>138</ele>
        <time>2025-01-23T17:44:00Z</time>
      </trkpt>
      <trkpt lat="43.65889" lon="1.37068">
        <ele>138</ele>
        <time>2025-01-23T17:44:01Z</time>
      </trkpt>
      <trkpt lat="43.65892" lon="1.37067">
        <ele>138</ele>
        <time>2025-01-23T17:44:02Z</time>
      </trkpt>
      <trkpt lat="43.65894" lon="1.37065">
        <ele>138</ele>
        <time>2025-01-23T17:44:03Z</time>
      </trkpt>
      <trkpt lat="43.65896" lon="1.37064">
        <ele>138</ele>
        <time>2025-01-23T17:44:04Z</time>
      </trkpt>
      <trkpt lat="43.659" lon="1.37061">
        <ele>138</ele>
        <time>2025-01-23T17:44:05Z</time>
      </trkpt>
      <trkpt lat="43.659" lon="1.37061">
        <ele>138</ele>
        <time>2025-01-23T17:44:06Z</time>
      </trkpt>
      <trkpt lat="43.65903" lon="1.3706">
        <ele>138</ele>
        <time>2025-01-23T17:44:07Z</time>
      </trkpt>
      <trkpt lat="43.65905" lon="1.37058">
        <ele>138</ele>
        <time>2025-01-23T17:44:08Z</time>
      </trkpt>
      <trkpt lat="43.65907" lon="1.37056">
        <ele>138</ele>
        <time>2025-01-23T17:44:09Z</time>
      </trkpt>
      <trkpt lat="43.6591" lon="1.37055">
        <ele>138</ele>
        <time>2025-01-23T17:44:10Z</time>
      </trkpt>
      <trkpt lat="43.65912" lon="1.37053">
        <ele>138</ele>
        <time>2025-01-23T17:44:11Z</time>
      </trkpt>
      <trkpt lat="43.65914" lon="1.37052">
        <ele>138</ele>
        <time>2025-01-23T17:44:12Z</time>
      </trkpt>
      <trkpt lat="43.65916" lon="1.37051">
        <ele>138</ele>
        <time>2025-01-23T17:44:13Z</time>
      </trkpt>
      <trkpt lat="43.65918" lon="1.37049">
        <ele>138</ele>
        <time>2025-01-23T17:44:14Z</time>
      </trkpt>
      <trkpt lat="43.65921" lon="1.37048">
        <ele>138</ele>
        <time>2025-01-23T17:44:15Z</time>
      </trkpt>
      <trkpt lat="43.65923" lon="1.37046">
        <ele>138</ele>
        <time>2025-01-23T17:44:16Z</time>
      </trkpt>
      <trkpt lat="43.65925" lon="1.37044">
        <ele>138</ele>
        <time>2025-01-23T17:44:17Z</time>
      </trkpt>
      <trkpt lat="43.65927" lon="1.37043">
        <ele>138</ele>
        <time>2025-01-23T17:44:18Z</time>
      </trkpt>
      <trkpt lat="43.65929" lon="1.37041">
        <ele>138</ele>
        <time>2025-01-23T17:44:19Z</time>
      </trkpt>
      <trkpt lat="43.65931" lon="1.37039">
        <ele>138</ele>
        <time>2025-01-23T17:44:20Z</time>
      </trkpt>
      <trkpt lat="43.65933" lon="1.37038">
        <ele>138</ele>
        <time>2025-01-23T17:44:21Z</time>
      </trkpt>
      <trkpt lat="43.65935" lon="1.37036">
        <ele>138</ele>
        <time>2025-01-23T17:44:22Z</time>
      </trkpt>
      <trkpt lat="43.65937" lon="1.37034">
        <ele>138</ele>
        <time>2025-01-23T17:44:23Z</time>
      </trkpt>
      <trkpt lat="43.65942" lon="1.37031">
        <ele>138</ele>
        <time>2025-01-23T17:44:24Z</time>
      </trkpt>
      <trkpt lat="43.65942" lon="1.37031">
        <ele>138</ele>
        <time>2025-01-23T17:44:25Z</time>
      </trkpt>
      <trkpt lat="43.65944" lon="1.3703">
        <ele>138</ele>
        <time>2025-01-23T17:44:26Z</time>
      </trkpt>
      <trkpt lat="43.65946" lon="1.37028">
        <ele>138</ele>
        <time>2025-01-23T17:44:27Z</time>
      </trkpt>
      <trkpt lat="43.65948" lon="1.37026">
        <ele>138</ele>
        <time>2025-01-23T17:44:28Z</time>
      </trkpt>
      <trkpt lat="43.6595" lon="1.37024">
        <ele>138</ele>
        <time>2025-01-23T17:44:29Z</time>
      </trkpt>
      <trkpt lat="43.65952" lon="1.37023">
        <ele>138</ele>
        <time>2025-01-23T17:44:30Z</time>
      </trkpt>
      <trkpt lat="43.65954" lon="1.37021">
        <ele>138</ele>
        <time>2025-01-23T17:44:31Z</time>
      </trkpt>
      <trkpt lat="43.65957" lon="1.3702">
        <ele>138</ele>
        <time>2025-01-23T17:44:32Z</time>
      </trkpt>
      <trkpt lat="43.65959" lon="1.37018">
        <ele>138</ele>
        <time>2025-01-23T17:44:33Z</time>
      </trkpt>
      <trkpt lat="43.65961" lon="1.37017">
        <ele>138</ele>
        <time>2025-01-23T17:44:34Z</time>
      </trkpt>
      <trkpt lat="43.65963" lon="1.37015">
        <ele>138</ele>
        <time>2025-01-23T17:44:35Z</time>
      </trkpt>
      <trkpt lat="43.65965" lon="1.37013">
        <ele>138</ele>
        <time>2025-01-23T17:44:36Z</time>
      </trkpt>
      <trkpt lat="43.65967" lon="1.37011">
        <ele>138</ele>
        <time>2025-01-23T17:44:37Z</time>
      </trkpt>
      <trkpt lat="43.65969" lon="1.3701">
        <ele>138</ele>
        <time>2025-01-23T17:44:38Z</time>
      </trkpt>
      <trkpt lat="43.65971" lon="1.37008">
        <ele>138</ele>
        <time>2025-01-23T17:44:39Z</time>
      </trkpt>
      <trkpt lat="43.65973" lon="1.37006">
        <ele>138</ele>
        <time>2025-01-23T17:44:40Z</time>
      </trkpt>
      <trkpt lat="43.65976" lon="1.37005">
        <ele>138</ele>
        <time>2025-01-23T17:44:41Z</time>
      </trkpt>
      <trkpt lat="43.65978" lon="1.37003">
        <ele>138</ele>
        <time>2025-01-23T17:44:42Z</time>
      </trkpt>
      <trkpt lat="43.65982" lon="1.36999">
        <ele>138</ele>
        <time>2025-01-23T17:44:43Z</time>
      </trkpt>
      <trkpt lat="43.65982" lon="1.36999">
        <ele>138</ele>
        <time>2025-01-23T17:44:44Z</time>
      </trkpt>
      <trkpt lat="43.65984" lon="1.36997">
        <ele>138</ele>
        <time>2025-01-23T17:44:45Z</time>
      </trkpt>
      <trkpt lat="43.65986" lon="1.36995">
        <ele>138</ele>
        <time>2025-01-23T17:44:46Z</time>
      </trkpt>
      <trkpt lat="43.65988" lon="1.36994">
        <ele>138</ele>
        <time>2025-01-23T17:44:47Z</time>
      </trkpt>
      <trkpt lat="43.65991" lon="1.36992">
        <ele>138</ele>
        <time>2025-01-23T17:44:48Z</time>
      </trkpt>
      <trkpt lat="43.65993" lon="1.36991">
        <ele>138</ele>
        <time>2025-01-23T17:44:49Z</time>
      </trkpt>
      <trkpt lat="43.65995" lon="1.3699">
        <ele>138</ele>
        <time>2025-01-23T17:44:50Z</time>
      </trkpt>
      <trkpt lat="43.65998" lon="1.36988">
        <ele>138</ele>
        <time>2025-01-23T17:44:51Z</time>
      </trkpt>
      <trkpt lat="43.66" lon="1.36987">
        <ele>138</ele>
        <time>2025-01-23T17:44:52Z</time>
      </trkpt>
      <trkpt lat="43.66003" lon="1.36985">
        <ele>138</ele>
        <time>2025-01-23T17:44:53Z</time>
      </trkpt>
      <trkpt lat="43.66005" lon="1.36983">
        <ele>138</ele>
        <time>2025-01-23T17:44:54Z</time>
      </trkpt>
      <trkpt lat="43.66007" lon="1.36982">
        <ele>138</ele>
        <time>2025-01-23T17:44:55Z</time>
      </trkpt>
      <trkpt lat="43.66009" lon="1.3698">
        <ele>138</ele>
        <time>2025-01-23T17:44:56Z</time>
      </trkpt>
      <trkpt lat="43.66012" lon="1.36979">
        <ele>138</ele>
        <time>2025-01-23T17:44:57Z</time>
      </trkpt>
      <trkpt lat="43.66014" lon="1.36978">
        <ele>138</ele>
        <time>2025-01-23T17:44:58Z</time>
      </trkpt>
      <trkpt lat="43.66016" lon="1.36976">
        <ele>138</ele>
        <time>2025-01-23T17:44:59Z</time>
      </trkpt>
      <trkpt lat="43.66019" lon="1.36975">
        <ele>138</ele>
        <time>2025-01-23T17:45:00Z</time>
      </trkpt>
      <trkpt lat="43.66021" lon="1.36973">
        <ele>137</ele>
        <time>2025-01-23T17:45:01Z</time>
      </trkpt>
      <trkpt lat="43.66025" lon="1.3697">
        <ele>137</ele>
        <time>2025-01-23T17:45:02Z</time>
      </trkpt>
      <trkpt lat="43.66025" lon="1.3697">
        <ele>137</ele>
        <time>2025-01-23T17:45:03Z</time>
      </trkpt>
      <trkpt lat="43.66027" lon="1.36969">
        <ele>137</ele>
        <time>2025-01-23T17:45:04Z</time>
      </trkpt>
      <trkpt lat="43.6603" lon="1.36967">
        <ele>137</ele>
        <time>2025-01-23T17:45:05Z</time>
      </trkpt>
      <trkpt lat="43.66032" lon="1.36966">
        <ele>137</ele>
        <time>2025-01-23T17:45:06Z</time>
      </trkpt>
      <trkpt lat="43.66034" lon="1.36964">
        <ele>137</ele>
        <time>2025-01-23T17:45:07Z</time>
      </trkpt>
      <trkpt lat="43.66036" lon="1.36962">
        <ele>137</ele>
        <time>2025-01-23T17:45:08Z</time>
      </trkpt>
      <trkpt lat="43.66038" lon="1.3696">
        <ele>137</ele>
        <time>2025-01-23T17:45:09Z</time>
      </trkpt>
      <trkpt lat="43.6604" lon="1.36959">
        <ele>137</ele>
        <time>2025-01-23T17:45:10Z</time>
      </trkpt>
      <trkpt lat="43.66043" lon="1.36957">
        <ele>138</ele>
        <time>2025-01-23T17:45:11Z</time>
      </trkpt>
      <trkpt lat="43.66045" lon="1.36956">
        <ele>138</ele>
        <time>2025-01-23T17:45:12Z</time>
      </trkpt>
      <trkpt lat="43.66047" lon="1.36954">
        <ele>138</ele>
        <time>2025-01-23T17:45:13Z</time>
      </trkpt>
      <trkpt lat="43.66049" lon="1.36952">
        <ele>138</ele>
        <time>2025-01-23T17:45:14Z</time>
      </trkpt>
      <trkpt lat="43.66052" lon="1.36951">
        <ele>138</ele>
        <time>2025-01-23T17:45:15Z</time>
      </trkpt>
      <trkpt lat="43.66054" lon="1.36949">
        <ele>138</ele>
        <time>2025-01-23T17:45:16Z</time>
      </trkpt>
      <trkpt lat="43.66056" lon="1.36948">
        <ele>138</ele>
        <time>2025-01-23T17:45:17Z</time>
      </trkpt>
      <trkpt lat="43.66058" lon="1.36946">
        <ele>138</ele>
        <time>2025-01-23T17:45:18Z</time>
      </trkpt>
      <trkpt lat="43.66061" lon="1.36944">
        <ele>138</ele>
        <time>2025-01-23T17:45:19Z</time>
      </trkpt>
      <trkpt lat="43.66063" lon="1.36943">
        <ele>137</ele>
        <time>2025-01-23T17:45:20Z</time>
      </trkpt>
      <trkpt lat="43.66065" lon="1.36941">
        <ele>137</ele>
        <time>2025-01-23T17:45:21Z</time>
      </trkpt>
      <trkpt lat="43.66068" lon="1.36939">
        <ele>137</ele>
        <time>2025-01-23T17:45:22Z</time>
      </trkpt>
      <trkpt lat="43.6607" lon="1.36937">
        <ele>137</ele>
        <time>2025-01-23T17:45:23Z</time>
      </trkpt>
      <trkpt lat="43.66072" lon="1.36935">
        <ele>137</ele>
        <time>2025-01-23T17:45:24Z</time>
      </trkpt>
      <trkpt lat="43.66074" lon="1.36934">
        <ele>137</ele>
        <time>2025-01-23T17:45:25Z</time>
      </trkpt>
      <trkpt lat="43.66075" lon="1.36932">
        <ele>138</ele>
        <time>2025-01-23T17:45:26Z</time>
      </trkpt>
      <trkpt lat="43.66078" lon="1.3693">
        <ele>138</ele>
        <time>2025-01-23T17:45:27Z</time>
      </trkpt>
      <trkpt lat="43.6608" lon="1.36928">
        <ele>138</ele>
        <time>2025-01-23T17:45:28Z</time>
      </trkpt>
      <trkpt lat="43.66082" lon="1.36927">
        <ele>137</ele>
        <time>2025-01-23T17:45:29Z</time>
      </trkpt>
      <trkpt lat="43.66084" lon="1.36925">
        <ele>137</ele>
        <time>2025-01-23T17:45:30Z</time>
      </trkpt>
      <trkpt lat="43.66086" lon="1.36923">
        <ele>137</ele>
        <time>2025-01-23T17:45:31Z</time>
      </trkpt>
      <trkpt lat="43.66088" lon="1.36921">
        <ele>137</ele>
        <time>2025-01-23T17:45:32Z</time>
      </trkpt>
      <trkpt lat="43.6609" lon="1.36919">
        <ele>137</ele>
        <time>2025-01-23T17:45:33Z</time>
      </trkpt>
      <trkpt lat="43.66092" lon="1.36916">
        <ele>136</ele>
        <time>2025-01-23T17:45:34Z</time>
      </trkpt>
      <trkpt lat="43.66094" lon="1.36915">
        <ele>136</ele>
        <time>2025-01-23T17:45:35Z</time>
      </trkpt>
      <trkpt lat="43.66096" lon="1.36913">
        <ele>137</ele>
        <time>2025-01-23T17:45:36Z</time>
      </trkpt>
      <trkpt lat="43.66098" lon="1.36911">
        <ele>137</ele>
        <time>2025-01-23T17:45:37Z</time>
      </trkpt>
      <trkpt lat="43.661" lon="1.36909">
        <ele>138</ele>
        <time>2025-01-23T17:45:38Z</time>
      </trkpt>
      <trkpt lat="43.66103" lon="1.36908">
        <ele>138</ele>
        <time>2025-01-23T17:45:39Z</time>
      </trkpt>
      <trkpt lat="43.66105" lon="1.36906">
        <ele>137</ele>
        <time>2025-01-23T17:45:40Z</time>
      </trkpt>
      <trkpt lat="43.66107" lon="1.36905">
        <ele>137</ele>
        <time>2025-01-23T17:45:41Z</time>
      </trkpt>
      <trkpt lat="43.66109" lon="1.36903">
        <ele>137</ele>
        <time>2025-01-23T17:45:42Z</time>
      </trkpt>
      <trkpt lat="43.66111" lon="1.36901">
        <ele>137</ele>
        <time>2025-01-23T17:45:43Z</time>
      </trkpt>
      <trkpt lat="43.66113" lon="1.369">
        <ele>136</ele>
        <time>2025-01-23T17:45:44Z</time>
      </trkpt>
      <trkpt lat="43.66116" lon="1.36898">
        <ele>137</ele>
        <time>2025-01-23T17:45:45Z</time>
      </trkpt>
      <trkpt lat="43.66118" lon="1.36897">
        <ele>137</ele>
        <time>2025-01-23T17:45:46Z</time>
      </trkpt>
      <trkpt lat="43.6612" lon="1.36894">
        <ele>136</ele>
        <time>2025-01-23T17:45:47Z</time>
      </trkpt>
      <trkpt lat="43.66123" lon="1.36893">
        <ele>136</ele>
        <time>2025-01-23T17:45:48Z</time>
      </trkpt>
      <trkpt lat="43.66125" lon="1.36891">
        <ele>137</ele>
        <time>2025-01-23T17:45:49Z</time>
      </trkpt>
      <trkpt lat="43.66127" lon="1.3689">
        <ele>137</ele>
        <time>2025-01-23T17:45:50Z</time>
      </trkpt>
      <trkpt lat="43.66131" lon="1.36887">
        <ele>137</ele>
        <time>2025-01-23T17:45:51Z</time>
      </trkpt>
      <trkpt lat="43.66132" lon="1.36886">
        <ele>137</ele>
        <time>2025-01-23T17:45:52Z</time>
      </trkpt>
      <trkpt lat="43.66134" lon="1.36885">
        <ele>137</ele>
        <time>2025-01-23T17:45:53Z</time>
      </trkpt>
      <trkpt lat="43.66137" lon="1.36883">
        <ele>137</ele>
        <time>2025-01-23T17:45:54Z</time>
      </trkpt>
      <trkpt lat="43.6614" lon="1.36882">
        <ele>137</ele>
        <time>2025-01-23T17:45:55Z</time>
      </trkpt>
      <trkpt lat="43.66142" lon="1.36881">
        <ele>137</ele>
        <time>2025-01-23T17:45:56Z</time>
      </trkpt>
      <trkpt lat="43.66144" lon="1.36879">
        <ele>137</ele>
        <time>2025-01-23T17:45:57Z</time>
      </trkpt>
      <trkpt lat="43.66146" lon="1.36878">
        <ele>137</ele>
        <time>2025-01-23T17:45:58Z</time>
      </trkpt>
      <trkpt lat="43.66148" lon="1.36876">
        <ele>137</ele>
        <time>2025-01-23T17:45:59Z</time>
      </trkpt>
      <trkpt lat="43.6615" lon="1.36874">
        <ele>137</ele>
        <time>2025-01-23T17:46:00Z</time>
      </trkpt>
      <trkpt lat="43.66152" lon="1.36872">
        <ele>137</ele>
        <time>2025-01-23T17:46:01Z</time>
      </trkpt>
      <trkpt lat="43.66154" lon="1.36871">
        <ele>137</ele>
        <time>2025-01-23T17:46:02Z</time>
      </trkpt>
      <trkpt lat="43.66156" lon="1.3687">
        <ele>137</ele>
        <time>2025-01-23T17:46:03Z</time>
      </trkpt>
      <trkpt lat="43.66158" lon="1.36868">
        <ele>137</ele>
        <time>2025-01-23T17:46:04Z</time>
      </trkpt>
      <trkpt lat="43.66161" lon="1.36867">
        <ele>137</ele>
        <time>2025-01-23T17:46:05Z</time>
      </trkpt>
      <trkpt lat="43.66162" lon="1.36865">
        <ele>137</ele>
        <time>2025-01-23T17:46:06Z</time>
      </trkpt>
      <trkpt lat="43.66164" lon="1.36862">
        <ele>137</ele>
        <time>2025-01-23T17:46:07Z</time>
      </trkpt>
      <trkpt lat="43.66167" lon="1.36861">
        <ele>137</ele>
        <time>2025-01-23T17:46:08Z</time>
      </trkpt>
      <trkpt lat="43.66168" lon="1.36859">
        <ele>137</ele>
        <time>2025-01-23T17:46:09Z</time>
      </trkpt>
      <trkpt lat="43.66171" lon="1.36858">
        <ele>137</ele>
        <time>2025-01-23T17:46:10Z</time>
      </trkpt>
      <trkpt lat="43.66173" lon="1.36856">
        <ele>137</ele>
        <time>2025-01-23T17:46:11Z</time>
      </trkpt>
      <trkpt lat="43.66175" lon="1.36855">
        <ele>137</ele>
        <time>2025-01-23T17:46:12Z</time>
      </trkpt>
      <trkpt lat="43.66177" lon="1.36853">
        <ele>137</ele>
        <time>2025-01-23T17:46:13Z</time>
      </trkpt>
      <trkpt lat="43.6618" lon="1.36852">
        <ele>136</ele>
        <time>2025-01-23T17:46:14Z</time>
      </trkpt>
      <trkpt lat="43.66182" lon="1.3685">
        <ele>136</ele>
        <time>2025-01-23T17:46:15Z</time>
      </trkpt>
      <trkpt lat="43.66184" lon="1.36849">
        <ele>136</ele>
        <time>2025-01-23T17:46:16Z</time>
      </trkpt>
      <trkpt lat="43.66186" lon="1.36847">
        <ele>137</ele>
        <time>2025-01-23T17:46:17Z</time>
      </trkpt>
      <trkpt lat="43.66188" lon="1.36846">
        <ele>137</ele>
        <time>2025-01-23T17:46:18Z</time>
      </trkpt>
      <trkpt lat="43.66191" lon="1.36844">
        <ele>137</ele>
        <time>2025-01-23T17:46:19Z</time>
      </trkpt>
      <trkpt lat="43.66193" lon="1.36843">
        <ele>137</ele>
        <time>2025-01-23T17:46:20Z</time>
      </trkpt>
      <trkpt lat="43.66195" lon="1.36842">
        <ele>137</ele>
        <time>2025-01-23T17:46:21Z</time>
      </trkpt>
      <trkpt lat="43.66198" lon="1.36841">
        <ele>137</ele>
        <time>2025-01-23T17:46:22Z</time>
      </trkpt>
      <trkpt lat="43.662" lon="1.36839">
        <ele>137</ele>
        <time>2025-01-23T17:46:23Z</time>
      </trkpt>
      <trkpt lat="43.66202" lon="1.36838">
        <ele>137</ele>
        <time>2025-01-23T17:46:24Z</time>
      </trkpt>
      <trkpt lat="43.66204" lon="1.36836">
        <ele>137</ele>
        <time>2025-01-23T17:46:25Z</time>
      </trkpt>
      <trkpt lat="43.66207" lon="1.36834">
        <ele>136</ele>
        <time>2025-01-23T17:46:26Z</time>
      </trkpt>
      <trkpt lat="43.66209" lon="1.36833">
        <ele>136</ele>
        <time>2025-01-23T17:46:27Z</time>
      </trkpt>
      <trkpt lat="43.66211" lon="1.36831">
        <ele>136</ele>
        <time>2025-01-23T17:46:28Z</time>
      </trkpt>
      <trkpt lat="43.66213" lon="1.36829">
        <ele>136</ele>
        <time>2025-01-23T17:46:29Z</time>
      </trkpt>
      <trkpt lat="43.66215" lon="1.36828">
        <ele>136</ele>
        <time>2025-01-23T17:46:30Z</time>
      </trkpt>
      <trkpt lat="43.66217" lon="1.36826">
        <ele>136</ele>
        <time>2025-01-23T17:46:31Z</time>
      </trkpt>
      <trkpt lat="43.66218" lon="1.36825">
        <ele>136</ele>
        <time>2025-01-23T17:46:32Z</time>
      </trkpt>
      <trkpt lat="43.6622" lon="1.36823">
        <ele>136</ele>
        <time>2025-01-23T17:46:33Z</time>
      </trkpt>
      <trkpt lat="43.66222" lon="1.36822">
        <ele>136</ele>
        <time>2025-01-23T17:46:34Z</time>
      </trkpt>
      <trkpt lat="43.66224" lon="1.36821">
        <ele>136</ele>
        <time>2025-01-23T17:46:35Z</time>
      </trkpt>
      <trkpt lat="43.66227" lon="1.3682">
        <ele>136</ele>
        <time>2025-01-23T17:46:36Z</time>
      </trkpt>
      <trkpt lat="43.66231" lon="1.36817">
        <ele>136</ele>
        <time>2025-01-23T17:46:37Z</time>
      </trkpt>
      <trkpt lat="43.66231" lon="1.36817">
        <ele>136</ele>
        <time>2025-01-23T17:46:38Z</time>
      </trkpt>
      <trkpt lat="43.66233" lon="1.36815">
        <ele>136</ele>
        <time>2025-01-23T17:46:39Z</time>
      </trkpt>
      <trkpt lat="43.66235" lon="1.36814">
        <ele>136</ele>
        <time>2025-01-23T17:46:40Z</time>
      </trkpt>
      <trkpt lat="43.66235" lon="1.36814">
        <ele>136</ele>
        <time>2025-01-23T17:46:41Z</time>
      </trkpt>
      <trkpt lat="43.66238" lon="1.36812">
        <ele>136</ele>
        <time>2025-01-23T17:46:42Z</time>
      </trkpt>
      <trkpt lat="43.66238" lon="1.36812">
        <ele>136</ele>
        <time>2025-01-23T17:46:43Z</time>
      </trkpt>
      <trkpt lat="43.66241" lon="1.36811">
        <ele>136</ele>
        <time>2025-01-23T17:46:44Z</time>
      </trkpt>
      <trkpt lat="43.66241" lon="1.36811">
        <ele>136</ele>
        <time>2025-01-23T17:46:45Z</time>
      </trkpt>
      <trkpt lat="43.66241" lon="1.36811">
        <ele>136</ele>
        <time>2025-01-23T17:46:46Z</time>
      </trkpt>
      <trkpt lat="43.66243" lon="1.3681">
        <ele>136</ele>
        <time>2025-01-23T17:46:47Z</time>
      </trkpt>
      <trkpt lat="43.66243" lon="1.3681">
        <ele>136</ele>
        <time>2025-01-23T17:46:48Z</time>
      </trkpt>
      <trkpt lat="43.66243" lon="1.3681">
        <ele>136</ele>
        <time>2025-01-23T17:46:49Z</time>
      </trkpt>
      <trkpt lat="43.66243" lon="1.3681">
        <ele>136</ele>
        <time>2025-01-23T17:46:50Z</time>
      </trkpt>
      <trkpt lat="43.66243" lon="1.3681">
        <ele>136</ele>
        <time>2025-01-23T17:46:51Z</time>
      </trkpt>
      <trkpt lat="43.66243" lon="1.3681">
        <ele>136</ele>
        <time>2025-01-23T17:46:52Z</time>
      </trkpt>
      <trkpt lat="43.66243" lon="1.3681">
        <ele>136</ele>
        <time>2025-01-23T17:46:53Z</time>
      </trkpt>
      <trkpt lat="43.66243" lon="1.3681">
        <ele>135</ele>
        <time>2025-01-23T17:46:54Z</time>
      </trkpt>
      <trkpt lat="43.66243" lon="1.3681">
        <ele>135</ele>
        <time>2025-01-23T17:46:55Z</time>
      </trkpt>
      <trkpt lat="43.66242" lon="1.36813">
        <ele>135</ele>
        <time>2025-01-23T17:46:56Z</time>
      </trkpt>
      <trkpt lat="43.66242" lon="1.36813">
        <ele>135</ele>
        <time>2025-01-23T17:46:57Z</time>
      </trkpt>
      <trkpt lat="43.66242" lon="1.36813">
        <ele>135</ele>
        <time>2025-01-23T17:46:58Z</time>
      </trkpt>
      <trkpt lat="43.66242" lon="1.36813">
        <ele>135</ele>
        <time>2025-01-23T17:46:59Z</time>
      </trkpt>
      <trkpt lat="43.66242" lon="1.36813">
        <ele>135</ele>
        <time>2025-01-23T17:47:00Z</time>
      </trkpt>
      <trkpt lat="43.66242" lon="1.36813">
        <ele>135</ele>
        <time>2025-01-23T17:47:01Z</time>
      </trkpt>
      <trkpt lat="43.66242" lon="1.36813">
        <ele>135</ele>
        <time>2025-01-23T17:47:02Z</time>
      </trkpt>
      <trkpt lat="43.66242" lon="1.36813">
        <ele>135</ele>
        <time>2025-01-23T17:47:03Z</time>
      </trkpt>
      <trkpt lat="43.66242" lon="1.36813">
        <ele>135</ele>
        <time>2025-01-23T17:47:04Z</time>
      </trkpt>
      <trkpt lat="43.66242" lon="1.36813">
        <ele>135</ele>
        <time>2025-01-23T17:47:05Z</time>
      </trkpt>
      <trkpt lat="43.66242" lon="1.36813">
        <ele>135</ele>
        <time>2025-01-23T17:47:06Z</time>
      </trkpt>
      <trkpt lat="43.66242" lon="1.36813">
        <ele>135</ele>
        <time>2025-01-23T17:47:07Z</time>
      </trkpt>
      <trkpt lat="43.66243" lon="1.36816">
        <ele>135</ele>
        <time>2025-01-23T17:47:08Z</time>
      </trkpt>
      <trkpt lat="43.66243" lon="1.36816">
        <ele>135</ele>
        <time>2025-01-23T17:47:09Z</time>
      </trkpt>
      <trkpt lat="43.66243" lon="1.36816">
        <ele>135</ele>
        <time>2025-01-23T17:47:10Z</time>
      </trkpt>
      <trkpt lat="43.66243" lon="1.36816">
        <ele>135</ele>
        <time>2025-01-23T17:47:11Z</time>
      </trkpt>
      <trkpt lat="43.66243" lon="1.36816">
        <ele>135</ele>
        <time>2025-01-23T17:47:12Z</time>
      </trkpt>
      <trkpt lat="43.66243" lon="1.36816">
        <ele>135</ele>
        <time>2025-01-23T17:47:13Z</time>
      </trkpt>
      <trkpt lat="43.66243" lon="1.36816">
        <ele>135</ele>
        <time>2025-01-23T17:47:14Z</time>
      </trkpt>
      <trkpt lat="43.66243" lon="1.36816">
        <ele>135</ele>
        <time>2025-01-23T17:47:15Z</time>
      </trkpt>
      <trkpt lat="43.66243" lon="1.36816">
        <ele>135</ele>
        <time>2025-01-23T17:47:16Z</time>
      </trkpt>
      <trkpt lat="43.66243" lon="1.36816">
        <ele>135</ele>
        <time>2025-01-23T17:47:17Z</time>
      </trkpt>
      <trkpt lat="43.66243" lon="1.36816">
        <ele>135</ele>
        <time>2025-01-23T17:47:18Z</time>
      </trkpt>
      <trkpt lat="43.66243" lon="1.36816">
        <ele>135</ele>
        <time>2025-01-23T17:47:19Z</time>
      </trkpt>
      <trkpt lat="43.66243" lon="1.36816">
        <ele>135</ele>
        <time>2025-01-23T17:47:20Z</time>
      </trkpt>
      <trkpt lat="43.66243" lon="1.36816">
        <ele>135</ele>
        <time>2025-01-23T17:47:21Z</time>
      </trkpt>
      <trkpt lat="43.66243" lon="1.36816">
        <ele>135</ele>
        <time>2025-01-23T17:47:22Z</time>
      </trkpt>
      <trkpt lat="43.66243" lon="1.36816">
        <ele>135</ele>
        <time>2025-01-23T17:47:23Z</time>
      </trkpt>
      <trkpt lat="43.66243" lon="1.36816">
        <ele>135</ele>
        <time>2025-01-23T17:47:24Z</time>
      </trkpt>
      <trkpt lat="43.66243" lon="1.36816">
        <ele>135</ele>
        <time>2025-01-23T17:47:25Z</time>
      </trkpt>
      <trkpt lat="43.66243" lon="1.36816">
        <ele>135</ele>
        <time>2025-01-23T17:47:26Z</time>
      </trkpt>
      <trkpt lat="43.66243" lon="1.36816">
        <ele>135</ele>
        <time>2025-01-23T17:47:27Z</time>
      </trkpt>
      <trkpt lat="43.66243" lon="1.36816">
        <ele>135</ele>
        <time>2025-01-23T17:47:28Z</time>
      </trkpt>
      <trkpt lat="43.66243" lon="1.36816">
        <ele>135</ele>
        <time>2025-01-23T17:47:29Z</time>
      </trkpt>
      <trkpt lat="43.66243" lon="1.36816">
        <ele>135</ele>
        <time>2025-01-23T17:47:30Z</time>
      </trkpt>
      <trkpt lat="43.66243" lon="1.36816">
        <ele>135</ele>
        <time>2025-01-23T17:47:31Z</time>
      </trkpt>
      <trkpt lat="43.66243" lon="1.36816">
        <ele>135</ele>
        <time>2025-01-23T17:47:32Z</time>
      </trkpt>
      <trkpt lat="43.66243" lon="1.36816">
        <ele>135</ele>
        <time>2025-01-23T17:47:33Z</time>
      </trkpt>
      <trkpt lat="43.66243" lon="1.36816">
        <ele>135</ele>
        <time>2025-01-23T17:47:34Z</time>
      </trkpt>
      <trkpt lat="43.66243" lon="1.36816">
        <ele>135</ele>
        <time>2025-01-23T17:47:35Z</time>
      </trkpt>
      <trkpt lat="43.66243" lon="1.36816">
        <ele>135</ele>
        <time>2025-01-23T17:47:36Z</time>
      </trkpt>
      <trkpt lat="43.66243" lon="1.36816">
        <ele>135</ele>
        <time>2025-01-23T17:47:37Z</time>
      </trkpt>
      <trkpt lat="43.66243" lon="1.36816">
        <ele>135</ele>
        <time>2025-01-23T17:47:38Z</time>
      </trkpt>
      <trkpt lat="43.66243" lon="1.36816">
        <ele>135</ele>
        <time>2025-01-23T17:47:39Z</time>
      </trkpt>
      <trkpt lat="43.66243" lon="1.36816">
        <ele>135</ele>
        <time>2025-01-23T17:47:40Z</time>
      </trkpt>
      <trkpt lat="43.66243" lon="1.36816">
        <ele>135</ele>
        <time>2025-01-23T17:47:41Z</time>
      </trkpt>
      <trkpt lat="43.66243" lon="1.36816">
        <ele>135</ele>
        <time>2025-01-23T17:47:42Z</time>
      </trkpt>
      <trkpt lat="43.66243" lon="1.36816">
        <ele>135</ele>
        <time>2025-01-23T17:47:43Z</time>
      </trkpt>
      <trkpt lat="43.66245" lon="1.36815">
        <ele>135</ele>
        <time>2025-01-23T17:47:44Z</time>
      </trkpt>
      <trkpt lat="43.66247" lon="1.36813">
        <ele>135</ele>
        <time>2025-01-23T17:47:45Z</time>
      </trkpt>
      <trkpt lat="43.6625" lon="1.36813">
        <ele>135</ele>
        <time>2025-01-23T17:47:46Z</time>
      </trkpt>
      <trkpt lat="43.66252" lon="1.36813">
        <ele>135</ele>
        <time>2025-01-23T17:47:47Z</time>
      </trkpt>
      <trkpt lat="43.66254" lon="1.36815">
        <ele>135</ele>
        <time>2025-01-23T17:47:48Z</time>
      </trkpt>
      <trkpt lat="43.66255" lon="1.36818">
        <ele>135</ele>
        <time>2025-01-23T17:47:49Z</time>
      </trkpt>
      <trkpt lat="43.66257" lon="1.3682">
        <ele>135</ele>
        <time>2025-01-23T17:47:50Z</time>
      </trkpt>
      <trkpt lat="43.66258" lon="1.36823">
        <ele>135</ele>
        <time>2025-01-23T17:47:51Z</time>
      </trkpt>
      <trkpt lat="43.66259" lon="1.36826">
        <ele>135</ele>
        <time>2025-01-23T17:47:52Z</time>
      </trkpt>
      <trkpt lat="43.6626" lon="1.36829">
        <ele>135</ele>
        <time>2025-01-23T17:47:53Z</time>
      </trkpt>
      <trkpt lat="43.66261" lon="1.36832">
        <ele>135</ele>
        <time>2025-01-23T17:47:54Z</time>
      </trkpt>
      <trkpt lat="43.66262" lon="1.36834">
        <ele>135</ele>
        <time>2025-01-23T17:47:55Z</time>
      </trkpt>
      <trkpt lat="43.66263" lon="1.36837">
        <ele>135</ele>
        <time>2025-01-23T17:47:56Z</time>
      </trkpt>
      <trkpt lat="43.66264" lon="1.36839">
        <ele>135</ele>
        <time>2025-01-23T17:47:57Z</time>
      </trkpt>
      <trkpt lat="43.66265" lon="1.36842">
        <ele>135</ele>
        <time>2025-01-23T17:47:58Z</time>
      </trkpt>
      <trkpt lat="43.66267" lon="1.36845">
        <ele>135</ele>
        <time>2025-01-23T17:47:59Z</time>
      </trkpt>
      <trkpt lat="43.66268" lon="1.36847">
        <ele>135</ele>
        <time>2025-01-23T17:48:00Z</time>
      </trkpt>
      <trkpt lat="43.66269" lon="1.3685">
        <ele>135</ele>
        <time>2025-01-23T17:48:01Z</time>
      </trkpt>
      <trkpt lat="43.66269" lon="1.36853">
        <ele>135</ele>
        <time>2025-01-23T17:48:02Z</time>
      </trkpt>
      <trkpt lat="43.66271" lon="1.36855">
        <ele>135</ele>
        <time>2025-01-23T17:48:03Z</time>
      </trkpt>
      <trkpt lat="43.66272" lon="1.36858">
        <ele>135</ele>
        <time>2025-01-23T17:48:04Z</time>
      </trkpt>
      <trkpt lat="43.66273" lon="1.36861">
        <ele>135</ele>
        <time>2025-01-23T17:48:05Z</time>
      </trkpt>
      <trkpt lat="43.66274" lon="1.36863">
        <ele>135</ele>
        <time>2025-01-23T17:48:06Z</time>
      </trkpt>
      <trkpt lat="43.66275" lon="1.36866">
        <ele>135</ele>
        <time>2025-01-23T17:48:07Z</time>
      </trkpt>
      <trkpt lat="43.66276" lon="1.36869">
        <ele>136</ele>
        <time>2025-01-23T17:48:08Z</time>
      </trkpt>
      <trkpt lat="43.66277" lon="1.36872">
        <ele>136</ele>
        <time>2025-01-23T17:48:09Z</time>
      </trkpt>
      <trkpt lat="43.66278" lon="1.36875">
        <ele>136</ele>
        <time>2025-01-23T17:48:10Z</time>
      </trkpt>
      <trkpt lat="43.66279" lon="1.36878">
        <ele>136</ele>
        <time>2025-01-23T17:48:11Z</time>
      </trkpt>
      <trkpt lat="43.66281" lon="1.36881">
        <ele>136</ele>
        <time>2025-01-23T17:48:12Z</time>
      </trkpt>
      <trkpt lat="43.66281" lon="1.36883">
        <ele>136</ele>
        <time>2025-01-23T17:48:13Z</time>
      </trkpt>
      <trkpt lat="43.66282" lon="1.36886">
        <ele>136</ele>
        <time>2025-01-23T17:48:14Z</time>
      </trkpt>
      <trkpt lat="43.66283" lon="1.36889">
        <ele>136</ele>
        <time>2025-01-23T17:48:15Z</time>
      </trkpt>
      <trkpt lat="43.66284" lon="1.36892">
        <ele>135</ele>
        <time>2025-01-23T17:48:16Z</time>
      </trkpt>
      <trkpt lat="43.66285" lon="1.36895">
        <ele>136</ele>
        <time>2025-01-23T17:48:17Z</time>
      </trkpt>
      <trkpt lat="43.66286" lon="1.36897">
        <ele>136</ele>
        <time>2025-01-23T17:48:18Z</time>
      </trkpt>
      <trkpt lat="43.66287" lon="1.369">
        <ele>136</ele>
        <time>2025-01-23T17:48:19Z</time>
      </trkpt>
      <trkpt lat="43.66287" lon="1.36902">
        <ele>137</ele>
        <time>2025-01-23T17:48:20Z</time>
      </trkpt>
      <trkpt lat="43.66288" lon="1.36905">
        <ele>137</ele>
        <time>2025-01-23T17:48:21Z</time>
      </trkpt>
      <trkpt lat="43.66289" lon="1.36908">
        <ele>137</ele>
        <time>2025-01-23T17:48:22Z</time>
      </trkpt>
      <trkpt lat="43.6629" lon="1.36911">
        <ele>137</ele>
        <time>2025-01-23T17:48:23Z</time>
      </trkpt>
      <trkpt lat="43.66291" lon="1.36913">
        <ele>136</ele>
        <time>2025-01-23T17:48:24Z</time>
      </trkpt>
      <trkpt lat="43.66292" lon="1.36916">
        <ele>136</ele>
        <time>2025-01-23T17:48:25Z</time>
      </trkpt>
      <trkpt lat="43.66292" lon="1.36919">
        <ele>136</ele>
        <time>2025-01-23T17:48:26Z</time>
      </trkpt>
      <trkpt lat="43.66293" lon="1.36923">
        <ele>136</ele>
        <time>2025-01-23T17:48:27Z</time>
      </trkpt>
      <trkpt lat="43.66292" lon="1.36926">
        <ele>136</ele>
        <time>2025-01-23T17:48:28Z</time>
      </trkpt>
      <trkpt lat="43.6629" lon="1.36928">
        <ele>136</ele>
        <time>2025-01-23T17:48:29Z</time>
      </trkpt>
      <trkpt lat="43.66288" lon="1.3693">
        <ele>136</ele>
        <time>2025-01-23T17:48:30Z</time>
      </trkpt>
      <trkpt lat="43.66286" lon="1.36932">
        <ele>136</ele>
        <time>2025-01-23T17:48:31Z</time>
      </trkpt>
      <trkpt lat="43.66284" lon="1.36934">
        <ele>135</ele>
        <time>2025-01-23T17:48:32Z</time>
      </trkpt>
      <trkpt lat="43.66282" lon="1.36936">
        <ele>135</ele>
        <time>2025-01-23T17:48:33Z</time>
      </trkpt>
      <trkpt lat="43.6628" lon="1.36937">
        <ele>135</ele>
        <time>2025-01-23T17:48:34Z</time>
      </trkpt>
      <trkpt lat="43.66278" lon="1.36939">
        <ele>135</ele>
        <time>2025-01-23T17:48:35Z</time>
      </trkpt>
      <trkpt lat="43.66276" lon="1.36941">
        <ele>134</ele>
        <time>2025-01-23T17:48:36Z</time>
      </trkpt>
      <trkpt lat="43.66274" lon="1.36942">
        <ele>135</ele>
        <time>2025-01-23T17:48:37Z</time>
      </trkpt>
      <trkpt lat="43.66272" lon="1.36944">
        <ele>135</ele>
        <time>2025-01-23T17:48:38Z</time>
      </trkpt>
      <trkpt lat="43.6627" lon="1.36945">
        <ele>135</ele>
        <time>2025-01-23T17:48:39Z</time>
      </trkpt>
      <trkpt lat="43.66268" lon="1.36947">
        <ele>135</ele>
        <time>2025-01-23T17:48:40Z</time>
      </trkpt>
      <trkpt lat="43.66266" lon="1.36948">
        <ele>135</ele>
        <time>2025-01-23T17:48:41Z</time>
      </trkpt>
      <trkpt lat="43.66264" lon="1.3695">
        <ele>135</ele>
        <time>2025-01-23T17:48:42Z</time>
      </trkpt>
      <trkpt lat="43.66262" lon="1.36951">
        <ele>135</ele>
        <time>2025-01-23T17:48:43Z</time>
      </trkpt>
      <trkpt lat="43.6626" lon="1.36952">
        <ele>135</ele>
        <time>2025-01-23T17:48:44Z</time>
      </trkpt>
      <trkpt lat="43.66257" lon="1.36953">
        <ele>135</ele>
        <time>2025-01-23T17:48:45Z</time>
      </trkpt>
      <trkpt lat="43.66255" lon="1.36954">
        <ele>135</ele>
        <time>2025-01-23T17:48:46Z</time>
      </trkpt>
      <trkpt lat="43.66253" lon="1.36955">
        <ele>135</ele>
        <time>2025-01-23T17:48:47Z</time>
      </trkpt>
      <trkpt lat="43.66251" lon="1.36956">
        <ele>135</ele>
        <time>2025-01-23T17:48:48Z</time>
      </trkpt>
      <trkpt lat="43.66248" lon="1.36958">
        <ele>135</ele>
        <time>2025-01-23T17:48:49Z</time>
      </trkpt>
      <trkpt lat="43.66246" lon="1.36959">
        <ele>135</ele>
        <time>2025-01-23T17:48:50Z</time>
      </trkpt>
      <trkpt lat="43.66243" lon="1.3696">
        <ele>135</ele>
        <time>2025-01-23T17:48:51Z</time>
      </trkpt>
      <trkpt lat="43.6624" lon="1.36961">
        <ele>135</ele>
        <time>2025-01-23T17:48:52Z</time>
      </trkpt>
      <trkpt lat="43.66238" lon="1.36963">
        <ele>134</ele>
        <time>2025-01-23T17:48:53Z</time>
      </trkpt>
      <trkpt lat="43.66235" lon="1.36965">
        <ele>134</ele>
        <time>2025-01-23T17:48:54Z</time>
      </trkpt>
      <trkpt lat="43.66231" lon="1.36968">
        <ele>134</ele>
        <time>2025-01-23T17:48:55Z</time>
      </trkpt>
      <trkpt lat="43.66231" lon="1.36968">
        <ele>135</ele>
        <time>2025-01-23T17:48:56Z</time>
      </trkpt>
      <trkpt lat="43.66229" lon="1.36971">
        <ele>135</ele>
        <time>2025-01-23T17:48:57Z</time>
      </trkpt>
      <trkpt lat="43.66228" lon="1.36973">
        <ele>135</ele>
        <time>2025-01-23T17:48:58Z</time>
      </trkpt>
      <trkpt lat="43.66226" lon="1.36974">
        <ele>135</ele>
        <time>2025-01-23T17:48:59Z</time>
      </trkpt>
      <trkpt lat="43.66226" lon="1.36974">
        <ele>135</ele>
        <time>2025-01-23T17:49:00Z</time>
      </trkpt>
      <trkpt lat="43.66223" lon="1.36977">
        <ele>135</ele>
        <time>2025-01-23T17:49:01Z</time>
      </trkpt>
      <trkpt lat="43.66221" lon="1.36978">
        <ele>135</ele>
        <time>2025-01-23T17:49:02Z</time>
      </trkpt>
      <trkpt lat="43.66219" lon="1.3698">
        <ele>135</ele>
        <time>2025-01-23T17:49:03Z</time>
      </trkpt>
      <trkpt lat="43.66217" lon="1.3698">
        <ele>135</ele>
        <time>2025-01-23T17:49:04Z</time>
      </trkpt>
      <trkpt lat="43.66215" lon="1.36981">
        <ele>135</ele>
        <time>2025-01-23T17:49:05Z</time>
      </trkpt>
      <trkpt lat="43.66212" lon="1.36982">
        <ele>134</ele>
        <time>2025-01-23T17:49:06Z</time>
      </trkpt>
      <trkpt lat="43.66209" lon="1.36983">
        <ele>134</ele>
        <time>2025-01-23T17:49:07Z</time>
      </trkpt>
      <trkpt lat="43.66207" lon="1.36984">
        <ele>134</ele>
        <time>2025-01-23T17:49:08Z</time>
      </trkpt>
      <trkpt lat="43.66204" lon="1.36985">
        <ele>134</ele>
        <time>2025-01-23T17:49:09Z</time>
      </trkpt>
      <trkpt lat="43.66202" lon="1.36987">
        <ele>134</ele>
        <time>2025-01-23T17:49:10Z</time>
      </trkpt>
      <trkpt lat="43.662" lon="1.36989">
        <ele>134</ele>
        <time>2025-01-23T17:49:11Z</time>
      </trkpt>
      <trkpt lat="43.66198" lon="1.3699">
        <ele>134</ele>
        <time>2025-01-23T17:49:12Z</time>
      </trkpt>
      <trkpt lat="43.66196" lon="1.36992">
        <ele>134</ele>
        <time>2025-01-23T17:49:13Z</time>
      </trkpt>
      <trkpt lat="43.66194" lon="1.36994">
        <ele>134</ele>
        <time>2025-01-23T17:49:14Z</time>
      </trkpt>
      <trkpt lat="43.66192" lon="1.36995">
        <ele>134</ele>
        <time>2025-01-23T17:49:15Z</time>
      </trkpt>
      <trkpt lat="43.66191" lon="1.36997">
        <ele>134</ele>
        <time>2025-01-23T17:49:16Z</time>
      </trkpt>
      <trkpt lat="43.66189" lon="1.36999">
        <ele>134</ele>
        <time>2025-01-23T17:49:17Z</time>
      </trkpt>
      <trkpt lat="43.66187" lon="1.37001">
        <ele>134</ele>
        <time>2025-01-23T17:49:18Z</time>
      </trkpt>
      <trkpt lat="43.66185" lon="1.37003">
        <ele>134</ele>
        <time>2025-01-23T17:49:19Z</time>
      </trkpt>
      <trkpt lat="43.66183" lon="1.37005">
        <ele>134</ele>
        <time>2025-01-23T17:49:20Z</time>
      </trkpt>
      <trkpt lat="43.66181" lon="1.37006">
        <ele>134</ele>
        <time>2025-01-23T17:49:21Z</time>
      </trkpt>
      <trkpt lat="43.66179" lon="1.37007">
        <ele>134</ele>
        <time>2025-01-23T17:49:22Z</time>
      </trkpt>
      <trkpt lat="43.66177" lon="1.37009">
        <ele>134</ele>
        <time>2025-01-23T17:49:23Z</time>
      </trkpt>
      <trkpt lat="43.66175" lon="1.3701">
        <ele>134</ele>
        <time>2025-01-23T17:49:24Z</time>
      </trkpt>
      <trkpt lat="43.66173" lon="1.37012">
        <ele>134</ele>
        <time>2025-01-23T17:49:25Z</time>
      </trkpt>
      <trkpt lat="43.66171" lon="1.37013">
        <ele>134</ele>
        <time>2025-01-23T17:49:26Z</time>
      </trkpt>
      <trkpt lat="43.66169" lon="1.37015">
        <ele>134</ele>
        <time>2025-01-23T17:49:27Z</time>
      </trkpt>
      <trkpt lat="43.66167" lon="1.37017">
        <ele>134</ele>
        <time>2025-01-23T17:49:28Z</time>
      </trkpt>
      <trkpt lat="43.66165" lon="1.37019">
        <ele>134</ele>
        <time>2025-01-23T17:49:29Z</time>
      </trkpt>
      <trkpt lat="43.66163" lon="1.37021">
        <ele>134</ele>
        <time>2025-01-23T17:49:30Z</time>
      </trkpt>
      <trkpt lat="43.6616" lon="1.37022">
        <ele>134</ele>
        <time>2025-01-23T17:49:31Z</time>
      </trkpt>
      <trkpt lat="43.66158" lon="1.37024">
        <ele>134</ele>
        <time>2025-01-23T17:49:32Z</time>
      </trkpt>
      <trkpt lat="43.66156" lon="1.37026">
        <ele>134</ele>
        <time>2025-01-23T17:49:33Z</time>
      </trkpt>
      <trkpt lat="43.66154" lon="1.37028">
        <ele>134</ele>
        <time>2025-01-23T17:49:34Z</time>
      </trkpt>
      <trkpt lat="43.66152" lon="1.37029">
        <ele>134</ele>
        <time>2025-01-23T17:49:35Z</time>
      </trkpt>
      <trkpt lat="43.66149" lon="1.37031">
        <ele>134</ele>
        <time>2025-01-23T17:49:36Z</time>
      </trkpt>
      <trkpt lat="43.66147" lon="1.37032">
        <ele>134</ele>
        <time>2025-01-23T17:49:37Z</time>
      </trkpt>
      <trkpt lat="43.66145" lon="1.37033">
        <ele>134</ele>
        <time>2025-01-23T17:49:38Z</time>
      </trkpt>
      <trkpt lat="43.66143" lon="1.37035">
        <ele>134</ele>
        <time>2025-01-23T17:49:39Z</time>
      </trkpt>
      <trkpt lat="43.66141" lon="1.37035">
        <ele>135</ele>
        <time>2025-01-23T17:49:40Z</time>
      </trkpt>
      <trkpt lat="43.66139" lon="1.37037">
        <ele>135</ele>
        <time>2025-01-23T17:49:41Z</time>
      </trkpt>
      <trkpt lat="43.66136" lon="1.37038">
        <ele>135</ele>
        <time>2025-01-23T17:49:42Z</time>
      </trkpt>
      <trkpt lat="43.66133" lon="1.37039">
        <ele>135</ele>
        <time>2025-01-23T17:49:43Z</time>
      </trkpt>
      <trkpt lat="43.66131" lon="1.3704">
        <ele>135</ele>
        <time>2025-01-23T17:49:44Z</time>
      </trkpt>
      <trkpt lat="43.66129" lon="1.37041">
        <ele>134</ele>
        <time>2025-01-23T17:49:45Z</time>
      </trkpt>
      <trkpt lat="43.66126" lon="1.37043">
        <ele>135</ele>
        <time>2025-01-23T17:49:46Z</time>
      </trkpt>
      <trkpt lat="43.66125" lon="1.37046">
        <ele>135</ele>
        <time>2025-01-23T17:49:47Z</time>
      </trkpt>
      <trkpt lat="43.66122" lon="1.37048">
        <ele>135</ele>
        <time>2025-01-23T17:49:48Z</time>
      </trkpt>
      <trkpt lat="43.6612" lon="1.3705">
        <ele>135</ele>
        <time>2025-01-23T17:49:49Z</time>
      </trkpt>
      <trkpt lat="43.66118" lon="1.37052">
        <ele>135</ele>
        <time>2025-01-23T17:49:50Z</time>
      </trkpt>
      <trkpt lat="43.66116" lon="1.37054">
        <ele>135</ele>
        <time>2025-01-23T17:49:51Z</time>
      </trkpt>
      <trkpt lat="43.66114" lon="1.37056">
        <ele>135</ele>
        <time>2025-01-23T17:49:52Z</time>
      </trkpt>
      <trkpt lat="43.66112" lon="1.37058">
        <ele>135</ele>
        <time>2025-01-23T17:49:53Z</time>
      </trkpt>
      <trkpt lat="43.66109" lon="1.3706">
        <ele>135</ele>
        <time>2025-01-23T17:49:54Z</time>
      </trkpt>
      <trkpt lat="43.66107" lon="1.37062">
        <ele>135</ele>
        <time>2025-01-23T17:49:55Z</time>
      </trkpt>
      <trkpt lat="43.66105" lon="1.37063">
        <ele>135</ele>
        <time>2025-01-23T17:49:56Z</time>
      </trkpt>
      <trkpt lat="43.66103" lon="1.37065">
        <ele>135</ele>
        <time>2025-01-23T17:49:57Z</time>
      </trkpt>
      <trkpt lat="43.66101" lon="1.37066">
        <ele>135</ele>
        <time>2025-01-23T17:49:58Z</time>
      </trkpt>
      <trkpt lat="43.66099" lon="1.37068">
        <ele>135</ele>
        <time>2025-01-23T17:49:59Z</time>
      </trkpt>
      <trkpt lat="43.66097" lon="1.37069">
        <ele>135</ele>
        <time>2025-01-23T17:50:00Z</time>
      </trkpt>
      <trkpt lat="43.66094" lon="1.37071">
        <ele>135</ele>
        <time>2025-01-23T17:50:01Z</time>
      </trkpt>
      <trkpt lat="43.66092" lon="1.37073">
        <ele>135</ele>
        <time>2025-01-23T17:50:02Z</time>
      </trkpt>
      <trkpt lat="43.6609" lon="1.37075">
        <ele>135</ele>
        <time>2025-01-23T17:50:03Z</time>
      </trkpt>
      <trkpt lat="43.66088" lon="1.37077">
        <ele>135</ele>
        <time>2025-01-23T17:50:04Z</time>
      </trkpt>
      <trkpt lat="43.66085" lon="1.37079">
        <ele>135</ele>
        <time>2025-01-23T17:50:05Z</time>
      </trkpt>
      <trkpt lat="43.66083" lon="1.37081">
        <ele>135</ele>
        <time>2025-01-23T17:50:06Z</time>
      </trkpt>
      <trkpt lat="43.66081" lon="1.37082">
        <ele>135</ele>
        <time>2025-01-23T17:50:07Z</time>
      </trkpt>
      <trkpt lat="43.66079" lon="1.37084">
        <ele>135</ele>
        <time>2025-01-23T17:50:08Z</time>
      </trkpt>
      <trkpt lat="43.66077" lon="1.37086">
        <ele>135</ele>
        <time>2025-01-23T17:50:09Z</time>
      </trkpt>
      <trkpt lat="43.66075" lon="1.37087">
        <ele>135</ele>
        <time>2025-01-23T17:50:10Z</time>
      </trkpt>
      <trkpt lat="43.66073" lon="1.37089">
        <ele>135</ele>
        <time>2025-01-23T17:50:11Z</time>
      </trkpt>
      <trkpt lat="43.66071" lon="1.3709">
        <ele>135</ele>
        <time>2025-01-23T17:50:12Z</time>
      </trkpt>
      <trkpt lat="43.66069" lon="1.37092">
        <ele>135</ele>
        <time>2025-01-23T17:50:13Z</time>
      </trkpt>
      <trkpt lat="43.66066" lon="1.37094">
        <ele>134</ele>
        <time>2025-01-23T17:50:14Z</time>
      </trkpt>
      <trkpt lat="43.66064" lon="1.37095">
        <ele>134</ele>
        <time>2025-01-23T17:50:15Z</time>
      </trkpt>
      <trkpt lat="43.66062" lon="1.37097">
        <ele>134</ele>
        <time>2025-01-23T17:50:16Z</time>
      </trkpt>
      <trkpt lat="43.6606" lon="1.37098">
        <ele>134</ele>
        <time>2025-01-23T17:50:17Z</time>
      </trkpt>
      <trkpt lat="43.66058" lon="1.37099">
        <ele>134</ele>
        <time>2025-01-23T17:50:18Z</time>
      </trkpt>
      <trkpt lat="43.66056" lon="1.371">
        <ele>134</ele>
        <time>2025-01-23T17:50:19Z</time>
      </trkpt>
      <trkpt lat="43.66053" lon="1.371">
        <ele>134</ele>
        <time>2025-01-23T17:50:20Z</time>
      </trkpt>
      <trkpt lat="43.66051" lon="1.37102">
        <ele>134</ele>
        <time>2025-01-23T17:50:21Z</time>
      </trkpt>
      <trkpt lat="43.66049" lon="1.37103">
        <ele>134</ele>
        <time>2025-01-23T17:50:22Z</time>
      </trkpt>
      <trkpt lat="43.66047" lon="1.37104">
        <ele>134</ele>
        <time>2025-01-23T17:50:23Z</time>
      </trkpt>
      <trkpt lat="43.66045" lon="1.37105">
        <ele>134</ele>
        <time>2025-01-23T17:50:24Z</time>
      </trkpt>
      <trkpt lat="43.66043" lon="1.37107">
        <ele>134</ele>
        <time>2025-01-23T17:50:25Z</time>
      </trkpt>
      <trkpt lat="43.6604" lon="1.37109">
        <ele>134</ele>
        <time>2025-01-23T17:50:26Z</time>
      </trkpt>
      <trkpt lat="43.66039" lon="1.37111">
        <ele>134</ele>
        <time>2025-01-23T17:50:27Z</time>
      </trkpt>
      <trkpt lat="43.66036" lon="1.37112">
        <ele>134</ele>
        <time>2025-01-23T17:50:28Z</time>
      </trkpt>
      <trkpt lat="43.66034" lon="1.37113">
        <ele>134</ele>
        <time>2025-01-23T17:50:29Z</time>
      </trkpt>
      <trkpt lat="43.66032" lon="1.37114">
        <ele>134</ele>
        <time>2025-01-23T17:50:30Z</time>
      </trkpt>
      <trkpt lat="43.6603" lon="1.37115">
        <ele>134</ele>
        <time>2025-01-23T17:50:31Z</time>
      </trkpt>
      <trkpt lat="43.66028" lon="1.37117">
        <ele>134</ele>
        <time>2025-01-23T17:50:32Z</time>
      </trkpt>
      <trkpt lat="43.66026" lon="1.37119">
        <ele>134</ele>
        <time>2025-01-23T17:50:33Z</time>
      </trkpt>
      <trkpt lat="43.66024" lon="1.37121">
        <ele>134</ele>
        <time>2025-01-23T17:50:34Z</time>
      </trkpt>
      <trkpt lat="43.66022" lon="1.37123">
        <ele>134</ele>
        <time>2025-01-23T17:50:35Z</time>
      </trkpt>
      <trkpt lat="43.6602" lon="1.37125">
        <ele>134</ele>
        <time>2025-01-23T17:50:36Z</time>
      </trkpt>
      <trkpt lat="43.66018" lon="1.37127">
        <ele>134</ele>
        <time>2025-01-23T17:50:37Z</time>
      </trkpt>
      <trkpt lat="43.66016" lon="1.37129">
        <ele>134</ele>
        <time>2025-01-23T17:50:38Z</time>
      </trkpt>
      <trkpt lat="43.66014" lon="1.37131">
        <ele>134</ele>
        <time>2025-01-23T17:50:39Z</time>
      </trkpt>
      <trkpt lat="43.66012" lon="1.37133">
        <ele>134</ele>
        <time>2025-01-23T17:50:40Z</time>
      </trkpt>
      <trkpt lat="43.6601" lon="1.37135">
        <ele>134</ele>
        <time>2025-01-23T17:50:41Z</time>
      </trkpt>
      <trkpt lat="43.66008" lon="1.37137">
        <ele>134</ele>
        <time>2025-01-23T17:50:42Z</time>
      </trkpt>
      <trkpt lat="43.66006" lon="1.37138">
        <ele>134</ele>
        <time>2025-01-23T17:50:43Z</time>
      </trkpt>
      <trkpt lat="43.66001" lon="1.37141">
        <ele>134</ele>
        <time>2025-01-23T17:50:44Z</time>
      </trkpt>
      <trkpt lat="43.66001" lon="1.37141">
        <ele>134</ele>
        <time>2025-01-23T17:50:45Z</time>
      </trkpt>
      <trkpt lat="43.65999" lon="1.37143">
        <ele>134</ele>
        <time>2025-01-23T17:50:46Z</time>
      </trkpt>
      <trkpt lat="43.65997" lon="1.37144">
        <ele>134</ele>
        <time>2025-01-23T17:50:47Z</time>
      </trkpt>
      <trkpt lat="43.65995" lon="1.37146">
        <ele>134</ele>
        <time>2025-01-23T17:50:48Z</time>
      </trkpt>
      <trkpt lat="43.65993" lon="1.37147">
        <ele>134</ele>
        <time>2025-01-23T17:50:49Z</time>
      </trkpt>
      <trkpt lat="43.6599" lon="1.37147">
        <ele>134</ele>
        <time>2025-01-23T17:50:50Z</time>
      </trkpt>
      <trkpt lat="43.65988" lon="1.37148">
        <ele>134</ele>
        <time>2025-01-23T17:50:51Z</time>
      </trkpt>
      <trkpt lat="43.65983" lon="1.3715">
        <ele>134</ele>
        <time>2025-01-23T17:50:52Z</time>
      </trkpt>
      <trkpt lat="43.65983" lon="1.3715">
        <ele>134</ele>
        <time>2025-01-23T17:50:53Z</time>
      </trkpt>
      <trkpt lat="43.65981" lon="1.37151">
        <ele>134</ele>
        <time>2025-01-23T17:50:54Z</time>
      </trkpt>
      <trkpt lat="43.65979" lon="1.37154">
        <ele>134</ele>
        <time>2025-01-23T17:50:55Z</time>
      </trkpt>
      <trkpt lat="43.65978" lon="1.37157">
        <ele>134</ele>
        <time>2025-01-23T17:50:56Z</time>
      </trkpt>
      <trkpt lat="43.65976" lon="1.37159">
        <ele>134</ele>
        <time>2025-01-23T17:50:57Z</time>
      </trkpt>
      <trkpt lat="43.65974" lon="1.3716">
        <ele>134</ele>
        <time>2025-01-23T17:50:58Z</time>
      </trkpt>
      <trkpt lat="43.65972" lon="1.37162">
        <ele>134</ele>
        <time>2025-01-23T17:50:59Z</time>
      </trkpt>
      <trkpt lat="43.6597" lon="1.37164">
        <ele>134</ele>
        <time>2025-01-23T17:51:00Z</time>
      </trkpt>
      <trkpt lat="43.65968" lon="1.37165">
        <ele>134</ele>
        <time>2025-01-23T17:51:01Z</time>
      </trkpt>
      <trkpt lat="43.65966" lon="1.37166">
        <ele>134</ele>
        <time>2025-01-23T17:51:02Z</time>
      </trkpt>
      <trkpt lat="43.65964" lon="1.37167">
        <ele>134</ele>
        <time>2025-01-23T17:51:03Z</time>
      </trkpt>
      <trkpt lat="43.65962" lon="1.37168">
        <ele>134</ele>
        <time>2025-01-23T17:51:04Z</time>
      </trkpt>
      <trkpt lat="43.65959" lon="1.37169">
        <ele>134</ele>
        <time>2025-01-23T17:51:05Z</time>
      </trkpt>
      <trkpt lat="43.65956" lon="1.3717">
        <ele>134</ele>
        <time>2025-01-23T17:51:06Z</time>
      </trkpt>
      <trkpt lat="43.65954" lon="1.37172">
        <ele>134</ele>
        <time>2025-01-23T17:51:07Z</time>
      </trkpt>
      <trkpt lat="43.65952" lon="1.37173">
        <ele>134</ele>
        <time>2025-01-23T17:51:08Z</time>
      </trkpt>
      <trkpt lat="43.6595" lon="1.37175">
        <ele>134</ele>
        <time>2025-01-23T17:51:09Z</time>
      </trkpt>
      <trkpt lat="43.65949" lon="1.37177">
        <ele>134</ele>
        <time>2025-01-23T17:51:10Z</time>
      </trkpt>
      <trkpt lat="43.65947" lon="1.37179">
        <ele>134</ele>
        <time>2025-01-23T17:51:11Z</time>
      </trkpt>
      <trkpt lat="43.65945" lon="1.37181">
        <ele>134</ele>
        <time>2025-01-23T17:51:12Z</time>
      </trkpt>
      <trkpt lat="43.65943" lon="1.37183">
        <ele>134</ele>
        <time>2025-01-23T17:51:13Z</time>
      </trkpt>
      <trkpt lat="43.65941" lon="1.37185">
        <ele>134</ele>
        <time>2025-01-23T17:51:14Z</time>
      </trkpt>
      <trkpt lat="43.65939" lon="1.37186">
        <ele>134</ele>
        <time>2025-01-23T17:51:15Z</time>
      </trkpt>
      <trkpt lat="43.65937" lon="1.37187">
        <ele>134</ele>
        <time>2025-01-23T17:51:16Z</time>
      </trkpt>
      <trkpt lat="43.65936" lon="1.37188">
        <ele>135</ele>
        <time>2025-01-23T17:51:17Z</time>
      </trkpt>
      <trkpt lat="43.65933" lon="1.37188">
        <ele>135</ele>
        <time>2025-01-23T17:51:18Z</time>
      </trkpt>
      <trkpt lat="43.65931" lon="1.37189">
        <ele>134</ele>
        <time>2025-01-23T17:51:19Z</time>
      </trkpt>
      <trkpt lat="43.65928" lon="1.3719">
        <ele>134</ele>
        <time>2025-01-23T17:51:20Z</time>
      </trkpt>
      <trkpt lat="43.65925" lon="1.37191">
        <ele>134</ele>
        <time>2025-01-23T17:51:21Z</time>
      </trkpt>
      <trkpt lat="43.65922" lon="1.37193">
        <ele>134</ele>
        <time>2025-01-23T17:51:22Z</time>
      </trkpt>
      <trkpt lat="43.65919" lon="1.37194">
        <ele>134</ele>
        <time>2025-01-23T17:51:23Z</time>
      </trkpt>
      <trkpt lat="43.65917" lon="1.37196">
        <ele>134</ele>
        <time>2025-01-23T17:51:24Z</time>
      </trkpt>
      <trkpt lat="43.65916" lon="1.37197">
        <ele>134</ele>
        <time>2025-01-23T17:51:25Z</time>
      </trkpt>
      <trkpt lat="43.65915" lon="1.37199">
        <ele>135</ele>
        <time>2025-01-23T17:51:26Z</time>
      </trkpt>
      <trkpt lat="43.65914" lon="1.37201">
        <ele>135</ele>
        <time>2025-01-23T17:51:27Z</time>
      </trkpt>
      <trkpt lat="43.65913" lon="1.37202">
        <ele>134</ele>
        <time>2025-01-23T17:51:28Z</time>
      </trkpt>
      <trkpt lat="43.65908" lon="1.37209">
        <ele>134</ele>
        <time>2025-01-23T17:51:29Z</time>
      </trkpt>
      <trkpt lat="43.65907" lon="1.37211">
        <ele>134</ele>
        <time>2025-01-23T17:51:30Z</time>
      </trkpt>
      <trkpt lat="43.65905" lon="1.37212">
        <ele>134</ele>
        <time>2025-01-23T17:51:31Z</time>
      </trkpt>
      <trkpt lat="43.65903" lon="1.37214">
        <ele>134</ele>
        <time>2025-01-23T17:51:32Z</time>
      </trkpt>
      <trkpt lat="43.65901" lon="1.37215">
        <ele>134</ele>
        <time>2025-01-23T17:51:33Z</time>
      </trkpt>
      <trkpt lat="43.65899" lon="1.37216">
        <ele>134</ele>
        <time>2025-01-23T17:51:34Z</time>
      </trkpt>
      <trkpt lat="43.65896" lon="1.37217">
        <ele>134</ele>
        <time>2025-01-23T17:51:35Z</time>
      </trkpt>
      <trkpt lat="43.65894" lon="1.37217">
        <ele>134</ele>
        <time>2025-01-23T17:51:36Z</time>
      </trkpt>
      <trkpt lat="43.65891" lon="1.37217">
        <ele>134</ele>
        <time>2025-01-23T17:51:37Z</time>
      </trkpt>
      <trkpt lat="43.65889" lon="1.37218">
        <ele>134</ele>
        <time>2025-01-23T17:51:38Z</time>
      </trkpt>
      <trkpt lat="43.65886" lon="1.37219">
        <ele>134</ele>
        <time>2025-01-23T17:51:39Z</time>
      </trkpt>
      <trkpt lat="43.65884" lon="1.3722">
        <ele>135</ele>
        <time>2025-01-23T17:51:40Z</time>
      </trkpt>
      <trkpt lat="43.65883" lon="1.37223">
        <ele>135</ele>
        <time>2025-01-23T17:51:41Z</time>
      </trkpt>
      <trkpt lat="43.65881" lon="1.37226">
        <ele>135</ele>
        <time>2025-01-23T17:51:42Z</time>
      </trkpt>
      <trkpt lat="43.65879" lon="1.37228">
        <ele>135</ele>
        <time>2025-01-23T17:51:43Z</time>
      </trkpt>
      <trkpt lat="43.65877" lon="1.3723">
        <ele>135</ele>
        <time>2025-01-23T17:51:44Z</time>
      </trkpt>
      <trkpt lat="43.65876" lon="1.37232">
        <ele>135</ele>
        <time>2025-01-23T17:51:45Z</time>
      </trkpt>
      <trkpt lat="43.65874" lon="1.37234">
        <ele>135</ele>
        <time>2025-01-23T17:51:46Z</time>
      </trkpt>
      <trkpt lat="43.65872" lon="1.37236">
        <ele>135</ele>
        <time>2025-01-23T17:51:47Z</time>
      </trkpt>
      <trkpt lat="43.6587" lon="1.37238">
        <ele>134</ele>
        <time>2025-01-23T17:51:48Z</time>
      </trkpt>
      <trkpt lat="43.65868" lon="1.3724">
        <ele>134</ele>
        <time>2025-01-23T17:51:49Z</time>
      </trkpt>
      <trkpt lat="43.65866" lon="1.37241">
        <ele>134</ele>
        <time>2025-01-23T17:51:50Z</time>
      </trkpt>
      <trkpt lat="43.65864" lon="1.37243">
        <ele>134</ele>
        <time>2025-01-23T17:51:51Z</time>
      </trkpt>
      <trkpt lat="43.65862" lon="1.37244">
        <ele>134</ele>
        <time>2025-01-23T17:51:52Z</time>
      </trkpt>
      <trkpt lat="43.6586" lon="1.37246">
        <ele>134</ele>
        <time>2025-01-23T17:51:53Z</time>
      </trkpt>
      <trkpt lat="43.65858" lon="1.37247">
        <ele>134</ele>
        <time>2025-01-23T17:51:54Z</time>
      </trkpt>
      <trkpt lat="43.65855" lon="1.37248">
        <ele>134</ele>
        <time>2025-01-23T17:51:55Z</time>
      </trkpt>
      <trkpt lat="43.65854" lon="1.3725">
        <ele>134</ele>
        <time>2025-01-23T17:51:56Z</time>
      </trkpt>
      <trkpt lat="43.65852" lon="1.37252">
        <ele>134</ele>
        <time>2025-01-23T17:51:57Z</time>
      </trkpt>
      <trkpt lat="43.6585" lon="1.37254">
        <ele>134</ele>
        <time>2025-01-23T17:51:58Z</time>
      </trkpt>
      <trkpt lat="43.65848" lon="1.37256">
        <ele>134</ele>
        <time>2025-01-23T17:51:59Z</time>
      </trkpt>
      <trkpt lat="43.65846" lon="1.37258">
        <ele>134</ele>
        <time>2025-01-23T17:52:00Z</time>
      </trkpt>
      <trkpt lat="43.65844" lon="1.37259">
        <ele>134</ele>
        <time>2025-01-23T17:52:01Z</time>
      </trkpt>
      <trkpt lat="43.65842" lon="1.37261">
        <ele>134</ele>
        <time>2025-01-23T17:52:02Z</time>
      </trkpt>
      <trkpt lat="43.65841" lon="1.37262">
        <ele>134</ele>
        <time>2025-01-23T17:52:03Z</time>
      </trkpt>
      <trkpt lat="43.65838" lon="1.37264">
        <ele>134</ele>
        <time>2025-01-23T17:52:04Z</time>
      </trkpt>
      <trkpt lat="43.65836" lon="1.37265">
        <ele>134</ele>
        <time>2025-01-23T17:52:05Z</time>
      </trkpt>
      <trkpt lat="43.65834" lon="1.37267">
        <ele>134</ele>
        <time>2025-01-23T17:52:06Z</time>
      </trkpt>
      <trkpt lat="43.65832" lon="1.37269">
        <ele>134</ele>
        <time>2025-01-23T17:52:07Z</time>
      </trkpt>
      <trkpt lat="43.6583" lon="1.37271">
        <ele>134</ele>
        <time>2025-01-23T17:52:08Z</time>
      </trkpt>
      <trkpt lat="43.65828" lon="1.37273">
        <ele>134</ele>
        <time>2025-01-23T17:52:09Z</time>
      </trkpt>
      <trkpt lat="43.65826" lon="1.37274">
        <ele>134</ele>
        <time>2025-01-23T17:52:10Z</time>
      </trkpt>
      <trkpt lat="43.65825" lon="1.37277">
        <ele>134</ele>
        <time>2025-01-23T17:52:11Z</time>
      </trkpt>
      <trkpt lat="43.65823" lon="1.37278">
        <ele>134</ele>
        <time>2025-01-23T17:52:12Z</time>
      </trkpt>
      <trkpt lat="43.65821" lon="1.3728">
        <ele>134</ele>
        <time>2025-01-23T17:52:13Z</time>
      </trkpt>
      <trkpt lat="43.65818" lon="1.37282">
        <ele>134</ele>
        <time>2025-01-23T17:52:14Z</time>
      </trkpt>
      <trkpt lat="43.65816" lon="1.37283">
        <ele>134</ele>
        <time>2025-01-23T17:52:15Z</time>
      </trkpt>
      <trkpt lat="43.65814" lon="1.37285">
        <ele>134</ele>
        <time>2025-01-23T17:52:16Z</time>
      </trkpt>
      <trkpt lat="43.65812" lon="1.37286">
        <ele>134</ele>
        <time>2025-01-23T17:52:17Z</time>
      </trkpt>
      <trkpt lat="43.65809" lon="1.37288">
        <ele>135</ele>
        <time>2025-01-23T17:52:18Z</time>
      </trkpt>
      <trkpt lat="43.65807" lon="1.37289">
        <ele>135</ele>
        <time>2025-01-23T17:52:19Z</time>
      </trkpt>
      <trkpt lat="43.65805" lon="1.3729">
        <ele>134</ele>
        <time>2025-01-23T17:52:20Z</time>
      </trkpt>
      <trkpt lat="43.65803" lon="1.37292">
        <ele>134</ele>
        <time>2025-01-23T17:52:21Z</time>
      </trkpt>
      <trkpt lat="43.658" lon="1.37293">
        <ele>135</ele>
        <time>2025-01-23T17:52:22Z</time>
      </trkpt>
      <trkpt lat="43.65798" lon="1.37294">
        <ele>135</ele>
        <time>2025-01-23T17:52:23Z</time>
      </trkpt>
      <trkpt lat="43.65796" lon="1.37295">
        <ele>135</ele>
        <time>2025-01-23T17:52:24Z</time>
      </trkpt>
      <trkpt lat="43.65794" lon="1.37297">
        <ele>135</ele>
        <time>2025-01-23T17:52:25Z</time>
      </trkpt>
      <trkpt lat="43.65792" lon="1.37298">
        <ele>135</ele>
        <time>2025-01-23T17:52:26Z</time>
      </trkpt>
      <trkpt lat="43.6579" lon="1.373">
        <ele>135</ele>
        <time>2025-01-23T17:52:27Z</time>
      </trkpt>
      <trkpt lat="43.65788" lon="1.37301">
        <ele>135</ele>
        <time>2025-01-23T17:52:28Z</time>
      </trkpt>
      <trkpt lat="43.65784" lon="1.37305">
        <ele>134</ele>
        <time>2025-01-23T17:52:29Z</time>
      </trkpt>
      <trkpt lat="43.65784" lon="1.37305">
        <ele>134</ele>
        <time>2025-01-23T17:52:30Z</time>
      </trkpt>
      <trkpt lat="43.65782" lon="1.37306">
        <ele>134</ele>
        <time>2025-01-23T17:52:31Z</time>
      </trkpt>
      <trkpt lat="43.6578" lon="1.37307">
        <ele>135</ele>
        <time>2025-01-23T17:52:32Z</time>
      </trkpt>
      <trkpt lat="43.65778" lon="1.37309">
        <ele>135</ele>
        <time>2025-01-23T17:52:33Z</time>
      </trkpt>
      <trkpt lat="43.65776" lon="1.37311">
        <ele>135</ele>
        <time>2025-01-23T17:52:34Z</time>
      </trkpt>
      <trkpt lat="43.65774" lon="1.37312">
        <ele>135</ele>
        <time>2025-01-23T17:52:35Z</time>
      </trkpt>
      <trkpt lat="43.65772" lon="1.37314">
        <ele>135</ele>
        <time>2025-01-23T17:52:36Z</time>
      </trkpt>
      <trkpt lat="43.6577" lon="1.37315">
        <ele>134</ele>
        <time>2025-01-23T17:52:37Z</time>
      </trkpt>
      <trkpt lat="43.65766" lon="1.37318">
        <ele>134</ele>
        <time>2025-01-23T17:52:38Z</time>
      </trkpt>
      <trkpt lat="43.65766" lon="1.37318">
        <ele>134</ele>
        <time>2025-01-23T17:52:39Z</time>
      </trkpt>
      <trkpt lat="43.65764" lon="1.3732">
        <ele>134</ele>
        <time>2025-01-23T17:52:40Z</time>
      </trkpt>
      <trkpt lat="43.65762" lon="1.37321">
        <ele>135</ele>
        <time>2025-01-23T17:52:41Z</time>
      </trkpt>
      <trkpt lat="43.6576" lon="1.37322">
        <ele>135</ele>
        <time>2025-01-23T17:52:42Z</time>
      </trkpt>
      <trkpt lat="43.65758" lon="1.37324">
        <ele>135</ele>
        <time>2025-01-23T17:52:43Z</time>
      </trkpt>
      <trkpt lat="43.65755" lon="1.37325">
        <ele>135</ele>
        <time>2025-01-23T17:52:44Z</time>
      </trkpt>
      <trkpt lat="43.65753" lon="1.37326">
        <ele>135</ele>
        <time>2025-01-23T17:52:45Z</time>
      </trkpt>
      <trkpt lat="43.65751" lon="1.37328">
        <ele>135</ele>
        <time>2025-01-23T17:52:46Z</time>
      </trkpt>
      <trkpt lat="43.65749" lon="1.3733">
        <ele>135</ele>
        <time>2025-01-23T17:52:47Z</time>
      </trkpt>
      <trkpt lat="43.65747" lon="1.37331">
        <ele>135</ele>
        <time>2025-01-23T17:52:48Z</time>
      </trkpt>
      <trkpt lat="43.65745" lon="1.37333">
        <ele>135</ele>
        <time>2025-01-23T17:52:49Z</time>
      </trkpt>
      <trkpt lat="43.65743" lon="1.37334">
        <ele>135</ele>
        <time>2025-01-23T17:52:50Z</time>
      </trkpt>
      <trkpt lat="43.6574" lon="1.37336">
        <ele>135</ele>
        <time>2025-01-23T17:52:51Z</time>
      </trkpt>
      <trkpt lat="43.65738" lon="1.37337">
        <ele>135</ele>
        <time>2025-01-23T17:52:52Z</time>
      </trkpt>
      <trkpt lat="43.65736" lon="1.37338">
        <ele>135</ele>
        <time>2025-01-23T17:52:53Z</time>
      </trkpt>
      <trkpt lat="43.65734" lon="1.3734">
        <ele>135</ele>
        <time>2025-01-23T17:52:54Z</time>
      </trkpt>
      <trkpt lat="43.65732" lon="1.37342">
        <ele>135</ele>
        <time>2025-01-23T17:52:55Z</time>
      </trkpt>
      <trkpt lat="43.6573" lon="1.37344">
        <ele>135</ele>
        <time>2025-01-23T17:52:56Z</time>
      </trkpt>
      <trkpt lat="43.65728" lon="1.37346">
        <ele>135</ele>
        <time>2025-01-23T17:52:57Z</time>
      </trkpt>
      <trkpt lat="43.65726" lon="1.37348">
        <ele>135</ele>
        <time>2025-01-23T17:52:58Z</time>
      </trkpt>
      <trkpt lat="43.65724" lon="1.37349">
        <ele>135</ele>
        <time>2025-01-23T17:52:59Z</time>
      </trkpt>
      <trkpt lat="43.65722" lon="1.37351">
        <ele>135</ele>
        <time>2025-01-23T17:53:00Z</time>
      </trkpt>
      <trkpt lat="43.6572" lon="1.37353">
        <ele>135</ele>
        <time>2025-01-23T17:53:01Z</time>
      </trkpt>
      <trkpt lat="43.65718" lon="1.37355">
        <ele>135</ele>
        <time>2025-01-23T17:53:02Z</time>
      </trkpt>
      <trkpt lat="43.65716" lon="1.37356">
        <ele>134</ele>
        <time>2025-01-23T17:53:03Z</time>
      </trkpt>
      <trkpt lat="43.65714" lon="1.37358">
        <ele>134</ele>
        <time>2025-01-23T17:53:04Z</time>
      </trkpt>
      <trkpt lat="43.65712" lon="1.3736">
        <ele>134</ele>
        <time>2025-01-23T17:53:05Z</time>
      </trkpt>
      <trkpt lat="43.65709" lon="1.37362">
        <ele>134</ele>
        <time>2025-01-23T17:53:06Z</time>
      </trkpt>
      <trkpt lat="43.65707" lon="1.37363">
        <ele>134</ele>
        <time>2025-01-23T17:53:07Z</time>
      </trkpt>
      <trkpt lat="43.65705" lon="1.37364">
        <ele>134</ele>
        <time>2025-01-23T17:53:08Z</time>
      </trkpt>
      <trkpt lat="43.65703" lon="1.37366">
        <ele>134</ele>
        <time>2025-01-23T17:53:09Z</time>
      </trkpt>
      <trkpt lat="43.65701" lon="1.37368">
        <ele>134</ele>
        <time>2025-01-23T17:53:10Z</time>
      </trkpt>
      <trkpt lat="43.65699" lon="1.37369">
        <ele>134</ele>
        <time>2025-01-23T17:53:11Z</time>
      </trkpt>
      <trkpt lat="43.65697" lon="1.37371">
        <ele>134</ele>
        <time>2025-01-23T17:53:12Z</time>
      </trkpt>
      <trkpt lat="43.65695" lon="1.37373">
        <ele>134</ele>
        <time>2025-01-23T17:53:13Z</time>
      </trkpt>
      <trkpt lat="43.65693" lon="1.37375">
        <ele>134</ele>
        <time>2025-01-23T17:53:14Z</time>
      </trkpt>
      <trkpt lat="43.65691" lon="1.37376">
        <ele>133</ele>
        <time>2025-01-23T17:53:15Z</time>
      </trkpt>
      <trkpt lat="43.65687" lon="1.37379">
        <ele>133</ele>
        <time>2025-01-23T17:53:16Z</time>
      </trkpt>
      <trkpt lat="43.65687" lon="1.37379">
        <ele>133</ele>
        <time>2025-01-23T17:53:17Z</time>
      </trkpt>
      <trkpt lat="43.65685" lon="1.37381">
        <ele>133</ele>
        <time>2025-01-23T17:53:18Z</time>
      </trkpt>
      <trkpt lat="43.65683" lon="1.37382">
        <ele>133</ele>
        <time>2025-01-23T17:53:19Z</time>
      </trkpt>
      <trkpt lat="43.65681" lon="1.37384">
        <ele>133</ele>
        <time>2025-01-23T17:53:20Z</time>
      </trkpt>
      <trkpt lat="43.65679" lon="1.37386">
        <ele>133</ele>
        <time>2025-01-23T17:53:21Z</time>
      </trkpt>
      <trkpt lat="43.65676" lon="1.37388">
        <ele>133</ele>
        <time>2025-01-23T17:53:22Z</time>
      </trkpt>
      <trkpt lat="43.65674" lon="1.3739">
        <ele>133</ele>
        <time>2025-01-23T17:53:23Z</time>
      </trkpt>
      <trkpt lat="43.65672" lon="1.37391">
        <ele>133</ele>
        <time>2025-01-23T17:53:24Z</time>
      </trkpt>
      <trkpt lat="43.6567" lon="1.37393">
        <ele>133</ele>
        <time>2025-01-23T17:53:25Z</time>
      </trkpt>
      <trkpt lat="43.65668" lon="1.37394">
        <ele>133</ele>
        <time>2025-01-23T17:53:26Z</time>
      </trkpt>
      <trkpt lat="43.65666" lon="1.37396">
        <ele>134</ele>
        <time>2025-01-23T17:53:27Z</time>
      </trkpt>
      <trkpt lat="43.65664" lon="1.37398">
        <ele>134</ele>
        <time>2025-01-23T17:53:28Z</time>
      </trkpt>
      <trkpt lat="43.65659" lon="1.37401">
        <ele>134</ele>
        <time>2025-01-23T17:53:29Z</time>
      </trkpt>
      <trkpt lat="43.65659" lon="1.37401">
        <ele>134</ele>
        <time>2025-01-23T17:53:30Z</time>
      </trkpt>
      <trkpt lat="43.65657" lon="1.37403">
        <ele>134</ele>
        <time>2025-01-23T17:53:31Z</time>
      </trkpt>
      <trkpt lat="43.65655" lon="1.37404">
        <ele>134</ele>
        <time>2025-01-23T17:53:32Z</time>
      </trkpt>
      <trkpt lat="43.65653" lon="1.37406">
        <ele>134</ele>
        <time>2025-01-23T17:53:33Z</time>
      </trkpt>
      <trkpt lat="43.65651" lon="1.37407">
        <ele>134</ele>
        <time>2025-01-23T17:53:34Z</time>
      </trkpt>
      <trkpt lat="43.65647" lon="1.3741">
        <ele>134</ele>
        <time>2025-01-23T17:53:35Z</time>
      </trkpt>
      <trkpt lat="43.65647" lon="1.3741">
        <ele>134</ele>
        <time>2025-01-23T17:53:36Z</time>
      </trkpt>
      <trkpt lat="43.65645" lon="1.37412">
        <ele>134</ele>
        <time>2025-01-23T17:53:37Z</time>
      </trkpt>
      <trkpt lat="43.65643" lon="1.37413">
        <ele>134</ele>
        <time>2025-01-23T17:53:38Z</time>
      </trkpt>
      <trkpt lat="43.65641" lon="1.37414">
        <ele>134</ele>
        <time>2025-01-23T17:53:39Z</time>
      </trkpt>
      <trkpt lat="43.65639" lon="1.37416">
        <ele>134</ele>
        <time>2025-01-23T17:53:40Z</time>
      </trkpt>
      <trkpt lat="43.65637" lon="1.37417">
        <ele>134</ele>
        <time>2025-01-23T17:53:41Z</time>
      </trkpt>
      <trkpt lat="43.65634" lon="1.37419">
        <ele>134</ele>
        <time>2025-01-23T17:53:42Z</time>
      </trkpt>
      <trkpt lat="43.65632" lon="1.3742">
        <ele>134</ele>
        <time>2025-01-23T17:53:43Z</time>
      </trkpt>
      <trkpt lat="43.6563" lon="1.37422">
        <ele>135</ele>
        <time>2025-01-23T17:53:44Z</time>
      </trkpt>
      <trkpt lat="43.65628" lon="1.37423">
        <ele>135</ele>
        <time>2025-01-23T17:53:45Z</time>
      </trkpt>
      <trkpt lat="43.65626" lon="1.37425">
        <ele>135</ele>
        <time>2025-01-23T17:53:46Z</time>
      </trkpt>
      <trkpt lat="43.65624" lon="1.37426">
        <ele>135</ele>
        <time>2025-01-23T17:53:47Z</time>
      </trkpt>
      <trkpt lat="43.65622" lon="1.37428">
        <ele>135</ele>
        <time>2025-01-23T17:53:48Z</time>
      </trkpt>
      <trkpt lat="43.6562" lon="1.3743">
        <ele>135</ele>
        <time>2025-01-23T17:53:49Z</time>
      </trkpt>
      <trkpt lat="43.65618" lon="1.37432">
        <ele>135</ele>
        <time>2025-01-23T17:53:50Z</time>
      </trkpt>
      <trkpt lat="43.65616" lon="1.37433">
        <ele>135</ele>
        <time>2025-01-23T17:53:51Z</time>
      </trkpt>
      <trkpt lat="43.65614" lon="1.37435">
        <ele>135</ele>
        <time>2025-01-23T17:53:52Z</time>
      </trkpt>
      <trkpt lat="43.65612" lon="1.37436">
        <ele>135</ele>
        <time>2025-01-23T17:53:53Z</time>
      </trkpt>
      <trkpt lat="43.6561" lon="1.37438">
        <ele>135</ele>
        <time>2025-01-23T17:53:54Z</time>
      </trkpt>
      <trkpt lat="43.65608" lon="1.37439">
        <ele>135</ele>
        <time>2025-01-23T17:53:55Z</time>
      </trkpt>
      <trkpt lat="43.65606" lon="1.3744">
        <ele>135</ele>
        <time>2025-01-23T17:53:56Z</time>
      </trkpt>
      <trkpt lat="43.65604" lon="1.37442">
        <ele>135</ele>
        <time>2025-01-23T17:53:57Z</time>
      </trkpt>
      <trkpt lat="43.65601" lon="1.37443">
        <ele>135</ele>
        <time>2025-01-23T17:53:58Z</time>
      </trkpt>
      <trkpt lat="43.65599" lon="1.37445">
        <ele>135</ele>
        <time>2025-01-23T17:53:59Z</time>
      </trkpt>
      <trkpt lat="43.65597" lon="1.37447">
        <ele>135</ele>
        <time>2025-01-23T17:54:00Z</time>
      </trkpt>
      <trkpt lat="43.65595" lon="1.37448">
        <ele>135</ele>
        <time>2025-01-23T17:54:01Z</time>
      </trkpt>
      <trkpt lat="43.65593" lon="1.3745">
        <ele>135</ele>
        <time>2025-01-23T17:54:02Z</time>
      </trkpt>
      <trkpt lat="43.65591" lon="1.37451">
        <ele>135</ele>
        <time>2025-01-23T17:54:03Z</time>
      </trkpt>
      <trkpt lat="43.65589" lon="1.37453">
        <ele>135</ele>
        <time>2025-01-23T17:54:04Z</time>
      </trkpt>
      <trkpt lat="43.65586" lon="1.37454">
        <ele>135</ele>
        <time>2025-01-23T17:54:05Z</time>
      </trkpt>
      <trkpt lat="43.65584" lon="1.37456">
        <ele>135</ele>
        <time>2025-01-23T17:54:06Z</time>
      </trkpt>
      <trkpt lat="43.65582" lon="1.37458">
        <ele>135</ele>
        <time>2025-01-23T17:54:07Z</time>
      </trkpt>
      <trkpt lat="43.65581" lon="1.37459">
        <ele>135</ele>
        <time>2025-01-23T17:54:08Z</time>
      </trkpt>
      <trkpt lat="43.65579" lon="1.37461">
        <ele>135</ele>
        <time>2025-01-23T17:54:09Z</time>
      </trkpt>
      <trkpt lat="43.65577" lon="1.37462">
        <ele>135</ele>
        <time>2025-01-23T17:54:10Z</time>
      </trkpt>
      <trkpt lat="43.65574" lon="1.37464">
        <ele>135</ele>
        <time>2025-01-23T17:54:11Z</time>
      </trkpt>
      <trkpt lat="43.65572" lon="1.37465">
        <ele>135</ele>
        <time>2025-01-23T17:54:12Z</time>
      </trkpt>
      <trkpt lat="43.65568" lon="1.37468">
        <ele>135</ele>
        <time>2025-01-23T17:54:13Z</time>
      </trkpt>
      <trkpt lat="43.65568" lon="1.37468">
        <ele>135</ele>
        <time>2025-01-23T17:54:14Z</time>
      </trkpt>
      <trkpt lat="43.65566" lon="1.37469">
        <ele>135</ele>
        <time>2025-01-23T17:54:15Z</time>
      </trkpt>
      <trkpt lat="43.65564" lon="1.3747">
        <ele>135</ele>
        <time>2025-01-23T17:54:16Z</time>
      </trkpt>
      <trkpt lat="43.65561" lon="1.37472">
        <ele>135</ele>
        <time>2025-01-23T17:54:17Z</time>
      </trkpt>
      <trkpt lat="43.65559" lon="1.37474">
        <ele>135</ele>
        <time>2025-01-23T17:54:18Z</time>
      </trkpt>
      <trkpt lat="43.65557" lon="1.37475">
        <ele>135</ele>
        <time>2025-01-23T17:54:19Z</time>
      </trkpt>
      <trkpt lat="43.65554" lon="1.37477">
        <ele>135</ele>
        <time>2025-01-23T17:54:20Z</time>
      </trkpt>
      <trkpt lat="43.65552" lon="1.37478">
        <ele>135</ele>
        <time>2025-01-23T17:54:21Z</time>
      </trkpt>
      <trkpt lat="43.6555" lon="1.37479">
        <ele>135</ele>
        <time>2025-01-23T17:54:22Z</time>
      </trkpt>
      <trkpt lat="43.65548" lon="1.3748">
        <ele>135</ele>
        <time>2025-01-23T17:54:23Z</time>
      </trkpt>
      <trkpt lat="43.65545" lon="1.3748">
        <ele>135</ele>
        <time>2025-01-23T17:54:24Z</time>
      </trkpt>
      <trkpt lat="43.65543" lon="1.37479">
        <ele>135</ele>
        <time>2025-01-23T17:54:25Z</time>
      </trkpt>
      <trkpt lat="43.65541" lon="1.37477">
        <ele>135</ele>
        <time>2025-01-23T17:54:26Z</time>
      </trkpt>
      <trkpt lat="43.6554" lon="1.37474">
        <ele>135</ele>
        <time>2025-01-23T17:54:27Z</time>
      </trkpt>
      <trkpt lat="43.65538" lon="1.37472">
        <ele>135</ele>
        <time>2025-01-23T17:54:28Z</time>
      </trkpt>
      <trkpt lat="43.65537" lon="1.3747">
        <ele>135</ele>
        <time>2025-01-23T17:54:29Z</time>
      </trkpt>
      <trkpt lat="43.65536" lon="1.37467">
        <ele>135</ele>
        <time>2025-01-23T17:54:30Z</time>
      </trkpt>
      <trkpt lat="43.65535" lon="1.37464">
        <ele>135</ele>
        <time>2025-01-23T17:54:31Z</time>
      </trkpt>
      <trkpt lat="43.65534" lon="1.37462">
        <ele>135</ele>
        <time>2025-01-23T17:54:32Z</time>
      </trkpt>
      <trkpt lat="43.65533" lon="1.37459">
        <ele>135</ele>
        <time>2025-01-23T17:54:33Z</time>
      </trkpt>
      <trkpt lat="43.65531" lon="1.37457">
        <ele>135</ele>
        <time>2025-01-23T17:54:34Z</time>
      </trkpt>
      <trkpt lat="43.6553" lon="1.37455">
        <ele>135</ele>
        <time>2025-01-23T17:54:35Z</time>
      </trkpt>
      <trkpt lat="43.65529" lon="1.37452">
        <ele>135</ele>
        <time>2025-01-23T17:54:36Z</time>
      </trkpt>
      <trkpt lat="43.65527" lon="1.37449">
        <ele>135</ele>
        <time>2025-01-23T17:54:37Z</time>
      </trkpt>
      <trkpt lat="43.65526" lon="1.37447">
        <ele>135</ele>
        <time>2025-01-23T17:54:38Z</time>
      </trkpt>
      <trkpt lat="43.65524" lon="1.37444">
        <ele>135</ele>
        <time>2025-01-23T17:54:39Z</time>
      </trkpt>
      <trkpt lat="43.65523" lon="1.37441">
        <ele>135</ele>
        <time>2025-01-23T17:54:40Z</time>
      </trkpt>
      <trkpt lat="43.65522" lon="1.37439">
        <ele>135</ele>
        <time>2025-01-23T17:54:41Z</time>
      </trkpt>
      <trkpt lat="43.65521" lon="1.37436">
        <ele>135</ele>
        <time>2025-01-23T17:54:42Z</time>
      </trkpt>
      <trkpt lat="43.65521" lon="1.37436">
        <ele>135</ele>
        <time>2025-01-23T17:54:43Z</time>
      </trkpt>
      <trkpt lat="43.65519" lon="1.37432">
        <ele>135</ele>
        <time>2025-01-23T17:54:44Z</time>
      </trkpt>
      <trkpt lat="43.65518" lon="1.3743">
        <ele>136</ele>
        <time>2025-01-23T17:54:45Z</time>
      </trkpt>
      <trkpt lat="43.65516" lon="1.37427">
        <ele>136</ele>
        <time>2025-01-23T17:54:46Z</time>
      </trkpt>
      <trkpt lat="43.65515" lon="1.37424">
        <ele>136</ele>
        <time>2025-01-23T17:54:47Z</time>
      </trkpt>
      <trkpt lat="43.65514" lon="1.37421">
        <ele>136</ele>
        <time>2025-01-23T17:54:48Z</time>
      </trkpt>
      <trkpt lat="43.65512" lon="1.37419">
        <ele>136</ele>
        <time>2025-01-23T17:54:49Z</time>
      </trkpt>
      <trkpt lat="43.65511" lon="1.37415">
        <ele>136</ele>
        <time>2025-01-23T17:54:50Z</time>
      </trkpt>
      <trkpt lat="43.65509" lon="1.37411">
        <ele>136</ele>
        <time>2025-01-23T17:54:51Z</time>
      </trkpt>
      <trkpt lat="43.65509" lon="1.37409">
        <ele>136</ele>
        <time>2025-01-23T17:54:52Z</time>
      </trkpt>
      <trkpt lat="43.65508" lon="1.37406">
        <ele>136</ele>
        <time>2025-01-23T17:54:53Z</time>
      </trkpt>
      <trkpt lat="43.65507" lon="1.37404">
        <ele>136</ele>
        <time>2025-01-23T17:54:54Z</time>
      </trkpt>
      <trkpt lat="43.65505" lon="1.37401">
        <ele>136</ele>
        <time>2025-01-23T17:54:55Z</time>
      </trkpt>
      <trkpt lat="43.65504" lon="1.37398">
        <ele>136</ele>
        <time>2025-01-23T17:54:56Z</time>
      </trkpt>
      <trkpt lat="43.65502" lon="1.37395">
        <ele>136</ele>
        <time>2025-01-23T17:54:57Z</time>
      </trkpt>
      <trkpt lat="43.65501" lon="1.37392">
        <ele>136</ele>
        <time>2025-01-23T17:54:58Z</time>
      </trkpt>
      <trkpt lat="43.655" lon="1.37389">
        <ele>136</ele>
        <time>2025-01-23T17:54:59Z</time>
      </trkpt>
      <trkpt lat="43.65499" lon="1.37385">
        <ele>136</ele>
        <time>2025-01-23T17:55:00Z</time>
      </trkpt>
      <trkpt lat="43.65498" lon="1.37382">
        <ele>136</ele>
        <time>2025-01-23T17:55:01Z</time>
      </trkpt>
      <trkpt lat="43.65499" lon="1.37378">
        <ele>136</ele>
        <time>2025-01-23T17:55:02Z</time>
      </trkpt>
      <trkpt lat="43.65502" lon="1.37374">
        <ele>136</ele>
        <time>2025-01-23T17:55:03Z</time>
      </trkpt>
      <trkpt lat="43.65505" lon="1.3737">
        <ele>136</ele>
        <time>2025-01-23T17:55:04Z</time>
      </trkpt>
      <trkpt lat="43.65507" lon="1.37367">
        <ele>136</ele>
        <time>2025-01-23T17:55:05Z</time>
      </trkpt>
      <trkpt lat="43.6551" lon="1.37364">
        <ele>136</ele>
        <time>2025-01-23T17:55:06Z</time>
      </trkpt>
      <trkpt lat="43.65512" lon="1.37361">
        <ele>136</ele>
        <time>2025-01-23T17:55:07Z</time>
      </trkpt>
      <trkpt lat="43.65516" lon="1.37357">
        <ele>136</ele>
        <time>2025-01-23T17:55:08Z</time>
      </trkpt>
      <trkpt lat="43.65516" lon="1.37357">
        <ele>136</ele>
        <time>2025-01-23T17:55:09Z</time>
      </trkpt>
      <trkpt lat="43.65519" lon="1.37355">
        <ele>136</ele>
        <time>2025-01-23T17:55:10Z</time>
      </trkpt>
      <trkpt lat="43.65521" lon="1.37353">
        <ele>136</ele>
        <time>2025-01-23T17:55:11Z</time>
      </trkpt>
      <trkpt lat="43.65523" lon="1.37352">
        <ele>136</ele>
        <time>2025-01-23T17:55:12Z</time>
      </trkpt>
      <trkpt lat="43.65525" lon="1.3735">
        <ele>136</ele>
        <time>2025-01-23T17:55:13Z</time>
      </trkpt>
      <trkpt lat="43.65527" lon="1.37348">
        <ele>136</ele>
        <time>2025-01-23T17:55:14Z</time>
      </trkpt>
      <trkpt lat="43.65529" lon="1.37346">
        <ele>136</ele>
        <time>2025-01-23T17:55:15Z</time>
      </trkpt>
      <trkpt lat="43.65531" lon="1.37344">
        <ele>136</ele>
        <time>2025-01-23T17:55:16Z</time>
      </trkpt>
      <trkpt lat="43.65533" lon="1.37342">
        <ele>136</ele>
        <time>2025-01-23T17:55:17Z</time>
      </trkpt>
      <trkpt lat="43.65535" lon="1.37341">
        <ele>136</ele>
        <time>2025-01-23T17:55:18Z</time>
      </trkpt>
      <trkpt lat="43.65537" lon="1.37339">
        <ele>136</ele>
        <time>2025-01-23T17:55:19Z</time>
      </trkpt>
      <trkpt lat="43.65539" lon="1.37337">
        <ele>136</ele>
        <time>2025-01-23T17:55:20Z</time>
      </trkpt>
      <trkpt lat="43.65541" lon="1.37335">
        <ele>136</ele>
        <time>2025-01-23T17:55:21Z</time>
      </trkpt>
      <trkpt lat="43.65543" lon="1.37334">
        <ele>136</ele>
        <time>2025-01-23T17:55:22Z</time>
      </trkpt>
      <trkpt lat="43.65545" lon="1.37332">
        <ele>136</ele>
        <time>2025-01-23T17:55:23Z</time>
      </trkpt>
      <trkpt lat="43.65547" lon="1.3733">
        <ele>136</ele>
        <time>2025-01-23T17:55:24Z</time>
      </trkpt>
      <trkpt lat="43.65549" lon="1.37328">
        <ele>135</ele>
        <time>2025-01-23T17:55:25Z</time>
      </trkpt>
      <trkpt lat="43.65552" lon="1.37326">
        <ele>135</ele>
        <time>2025-01-23T17:55:26Z</time>
      </trkpt>
      <trkpt lat="43.65554" lon="1.37325">
        <ele>135</ele>
        <time>2025-01-23T17:55:27Z</time>
      </trkpt>
      <trkpt lat="43.65556" lon="1.37323">
        <ele>135</ele>
        <time>2025-01-23T17:55:28Z</time>
      </trkpt>
      <trkpt lat="43.65559" lon="1.3732">
        <ele>135</ele>
        <time>2025-01-23T17:55:29Z</time>
      </trkpt>
      <trkpt lat="43.6556" lon="1.37319">
        <ele>135</ele>
        <time>2025-01-23T17:55:30Z</time>
      </trkpt>
      <trkpt lat="43.65562" lon="1.37318">
        <ele>135</ele>
        <time>2025-01-23T17:55:31Z</time>
      </trkpt>
      <trkpt lat="43.65564" lon="1.37316">
        <ele>135</ele>
        <time>2025-01-23T17:55:32Z</time>
      </trkpt>
      <trkpt lat="43.65566" lon="1.37314">
        <ele>135</ele>
        <time>2025-01-23T17:55:33Z</time>
      </trkpt>
      <trkpt lat="43.65568" lon="1.37312">
        <ele>135</ele>
        <time>2025-01-23T17:55:34Z</time>
      </trkpt>
      <trkpt lat="43.6557" lon="1.37311">
        <ele>135</ele>
        <time>2025-01-23T17:55:35Z</time>
      </trkpt>
      <trkpt lat="43.65573" lon="1.37309">
        <ele>135</ele>
        <time>2025-01-23T17:55:36Z</time>
      </trkpt>
      <trkpt lat="43.65575" lon="1.37308">
        <ele>135</ele>
        <time>2025-01-23T17:55:37Z</time>
      </trkpt>
      <trkpt lat="43.65577" lon="1.37306">
        <ele>135</ele>
        <time>2025-01-23T17:55:38Z</time>
      </trkpt>
      <trkpt lat="43.65579" lon="1.37305">
        <ele>135</ele>
        <time>2025-01-23T17:55:39Z</time>
      </trkpt>
      <trkpt lat="43.65582" lon="1.37304">
        <ele>135</ele>
        <time>2025-01-23T17:55:40Z</time>
      </trkpt>
      <trkpt lat="43.65584" lon="1.37302">
        <ele>135</ele>
        <time>2025-01-23T17:55:41Z</time>
      </trkpt>
      <trkpt lat="43.65586" lon="1.37301">
        <ele>135</ele>
        <time>2025-01-23T17:55:42Z</time>
      </trkpt>
      <trkpt lat="43.65591" lon="1.37298">
        <ele>135</ele>
        <time>2025-01-23T17:55:43Z</time>
      </trkpt>
      <trkpt lat="43.65591" lon="1.37298">
        <ele>135</ele>
        <time>2025-01-23T17:55:44Z</time>
      </trkpt>
      <trkpt lat="43.65593" lon="1.37297">
        <ele>135</ele>
        <time>2025-01-23T17:55:45Z</time>
      </trkpt>
      <trkpt lat="43.65595" lon="1.37295">
        <ele>135</ele>
        <time>2025-01-23T17:55:46Z</time>
      </trkpt>
      <trkpt lat="43.65597" lon="1.37293">
        <ele>135</ele>
        <time>2025-01-23T17:55:47Z</time>
      </trkpt>
      <trkpt lat="43.65601" lon="1.3729">
        <ele>135</ele>
        <time>2025-01-23T17:55:48Z</time>
      </trkpt>
      <trkpt lat="43.65601" lon="1.3729">
        <ele>135</ele>
        <time>2025-01-23T17:55:49Z</time>
      </trkpt>
      <trkpt lat="43.65604" lon="1.37289">
        <ele>135</ele>
        <time>2025-01-23T17:55:50Z</time>
      </trkpt>
      <trkpt lat="43.65605" lon="1.37287">
        <ele>135</ele>
        <time>2025-01-23T17:55:51Z</time>
      </trkpt>
      <trkpt lat="43.65607" lon="1.37286">
        <ele>135</ele>
        <time>2025-01-23T17:55:52Z</time>
      </trkpt>
      <trkpt lat="43.65609" lon="1.37284">
        <ele>135</ele>
        <time>2025-01-23T17:55:53Z</time>
      </trkpt>
      <trkpt lat="43.65611" lon="1.37283">
        <ele>135</ele>
        <time>2025-01-23T17:55:54Z</time>
      </trkpt>
      <trkpt lat="43.65614" lon="1.37282">
        <ele>135</ele>
        <time>2025-01-23T17:55:55Z</time>
      </trkpt>
      <trkpt lat="43.65616" lon="1.37281">
        <ele>135</ele>
        <time>2025-01-23T17:55:56Z</time>
      </trkpt>
      <trkpt lat="43.65618" lon="1.37279">
        <ele>135</ele>
        <time>2025-01-23T17:55:57Z</time>
      </trkpt>
      <trkpt lat="43.6562" lon="1.37277">
        <ele>135</ele>
        <time>2025-01-23T17:55:58Z</time>
      </trkpt>
      <trkpt lat="43.65622" lon="1.37276">
        <ele>135</ele>
        <time>2025-01-23T17:55:59Z</time>
      </trkpt>
      <trkpt lat="43.65624" lon="1.37274">
        <ele>135</ele>
        <time>2025-01-23T17:56:00Z</time>
      </trkpt>
      <trkpt lat="43.65626" lon="1.37272">
        <ele>135</ele>
        <time>2025-01-23T17:56:01Z</time>
      </trkpt>
      <trkpt lat="43.65629" lon="1.37271">
        <ele>135</ele>
        <time>2025-01-23T17:56:02Z</time>
      </trkpt>
      <trkpt lat="43.65631" lon="1.37269">
        <ele>135</ele>
        <time>2025-01-23T17:56:03Z</time>
      </trkpt>
      <trkpt lat="43.65633" lon="1.37267">
        <ele>135</ele>
        <time>2025-01-23T17:56:04Z</time>
      </trkpt>
      <trkpt lat="43.65635" lon="1.37265">
        <ele>135</ele>
        <time>2025-01-23T17:56:05Z</time>
      </trkpt>
      <trkpt lat="43.65637" lon="1.37263">
        <ele>135</ele>
        <time>2025-01-23T17:56:06Z</time>
      </trkpt>
      <trkpt lat="43.65641" lon="1.37259">
        <ele>135</ele>
        <time>2025-01-23T17:56:07Z</time>
      </trkpt>
      <trkpt lat="43.65641" lon="1.37259">
        <ele>135</ele>
        <time>2025-01-23T17:56:08Z</time>
      </trkpt>
      <trkpt lat="43.65643" lon="1.37258">
        <ele>135</ele>
        <time>2025-01-23T17:56:09Z</time>
      </trkpt>
      <trkpt lat="43.65645" lon="1.37256">
        <ele>135</ele>
        <time>2025-01-23T17:56:10Z</time>
      </trkpt>
      <trkpt lat="43.65647" lon="1.37254">
        <ele>135</ele>
        <time>2025-01-23T17:56:11Z</time>
      </trkpt>
      <trkpt lat="43.65649" lon="1.37253">
        <ele>135</ele>
        <time>2025-01-23T17:56:12Z</time>
      </trkpt>
      <trkpt lat="43.65652" lon="1.37251">
        <ele>135</ele>
        <time>2025-01-23T17:56:13Z</time>
      </trkpt>
      <trkpt lat="43.65654" lon="1.3725">
        <ele>135</ele>
        <time>2025-01-23T17:56:14Z</time>
      </trkpt>
      <trkpt lat="43.65656" lon="1.37249">
        <ele>135</ele>
        <time>2025-01-23T17:56:15Z</time>
      </trkpt>
      <trkpt lat="43.65658" lon="1.37247">
        <ele>135</ele>
        <time>2025-01-23T17:56:16Z</time>
      </trkpt>
      <trkpt lat="43.6566" lon="1.37245">
        <ele>135</ele>
        <time>2025-01-23T17:56:17Z</time>
      </trkpt>
      <trkpt lat="43.65662" lon="1.37242">
        <ele>135</ele>
        <time>2025-01-23T17:56:18Z</time>
      </trkpt>
      <trkpt lat="43.65664" lon="1.3724">
        <ele>135</ele>
        <time>2025-01-23T17:56:19Z</time>
      </trkpt>
      <trkpt lat="43.65666" lon="1.37238">
        <ele>135</ele>
        <time>2025-01-23T17:56:20Z</time>
      </trkpt>
      <trkpt lat="43.65668" lon="1.37236">
        <ele>135</ele>
        <time>2025-01-23T17:56:21Z</time>
      </trkpt>
      <trkpt lat="43.6567" lon="1.37234">
        <ele>135</ele>
        <time>2025-01-23T17:56:22Z</time>
      </trkpt>
      <trkpt lat="43.65672" lon="1.37232">
        <ele>135</ele>
        <time>2025-01-23T17:56:23Z</time>
      </trkpt>
      <trkpt lat="43.65674" lon="1.37231">
        <ele>135</ele>
        <time>2025-01-23T17:56:24Z</time>
      </trkpt>
      <trkpt lat="43.65676" lon="1.37229">
        <ele>135</ele>
        <time>2025-01-23T17:56:25Z</time>
      </trkpt>
      <trkpt lat="43.65678" lon="1.37227">
        <ele>135</ele>
        <time>2025-01-23T17:56:26Z</time>
      </trkpt>
      <trkpt lat="43.6568" lon="1.37226">
        <ele>135</ele>
        <time>2025-01-23T17:56:27Z</time>
      </trkpt>
      <trkpt lat="43.65682" lon="1.37224">
        <ele>135</ele>
        <time>2025-01-23T17:56:28Z</time>
      </trkpt>
      <trkpt lat="43.65684" lon="1.37223">
        <ele>135</ele>
        <time>2025-01-23T17:56:29Z</time>
      </trkpt>
      <trkpt lat="43.65686" lon="1.37221">
        <ele>136</ele>
        <time>2025-01-23T17:56:30Z</time>
      </trkpt>
      <trkpt lat="43.65688" lon="1.37219">
        <ele>136</ele>
        <time>2025-01-23T17:56:31Z</time>
      </trkpt>
      <trkpt lat="43.6569" lon="1.37217">
        <ele>136</ele>
        <time>2025-01-23T17:56:32Z</time>
      </trkpt>
      <trkpt lat="43.65693" lon="1.37216">
        <ele>136</ele>
        <time>2025-01-23T17:56:33Z</time>
      </trkpt>
      <trkpt lat="43.65695" lon="1.37214">
        <ele>136</ele>
        <time>2025-01-23T17:56:34Z</time>
      </trkpt>
      <trkpt lat="43.65697" lon="1.37213">
        <ele>136</ele>
        <time>2025-01-23T17:56:35Z</time>
      </trkpt>
      <trkpt lat="43.65699" lon="1.37211">
        <ele>136</ele>
        <time>2025-01-23T17:56:36Z</time>
      </trkpt>
      <trkpt lat="43.65702" lon="1.3721">
        <ele>136</ele>
        <time>2025-01-23T17:56:37Z</time>
      </trkpt>
      <trkpt lat="43.65704" lon="1.37208">
        <ele>136</ele>
        <time>2025-01-23T17:56:38Z</time>
      </trkpt>
      <trkpt lat="43.65706" lon="1.37206">
        <ele>136</ele>
        <time>2025-01-23T17:56:39Z</time>
      </trkpt>
      <trkpt lat="43.65708" lon="1.37205">
        <ele>136</ele>
        <time>2025-01-23T17:56:40Z</time>
      </trkpt>
      <trkpt lat="43.6571" lon="1.37203">
        <ele>136</ele>
        <time>2025-01-23T17:56:41Z</time>
      </trkpt>
      <trkpt lat="43.65713" lon="1.37201">
        <ele>135</ele>
        <time>2025-01-23T17:56:42Z</time>
      </trkpt>
      <trkpt lat="43.65715" lon="1.372">
        <ele>135</ele>
        <time>2025-01-23T17:56:43Z</time>
      </trkpt>
      <trkpt lat="43.65717" lon="1.37198">
        <ele>135</ele>
        <time>2025-01-23T17:56:44Z</time>
      </trkpt>
      <trkpt lat="43.65719" lon="1.37196">
        <ele>135</ele>
        <time>2025-01-23T17:56:45Z</time>
      </trkpt>
      <trkpt lat="43.65721" lon="1.37195">
        <ele>135</ele>
        <time>2025-01-23T17:56:46Z</time>
      </trkpt>
      <trkpt lat="43.65723" lon="1.37193">
        <ele>135</ele>
        <time>2025-01-23T17:56:47Z</time>
      </trkpt>
      <trkpt lat="43.65726" lon="1.37191">
        <ele>135</ele>
        <time>2025-01-23T17:56:48Z</time>
      </trkpt>
      <trkpt lat="43.65728" lon="1.3719">
        <ele>135</ele>
        <time>2025-01-23T17:56:49Z</time>
      </trkpt>
      <trkpt lat="43.6573" lon="1.37188">
        <ele>135</ele>
        <time>2025-01-23T17:56:50Z</time>
      </trkpt>
      <trkpt lat="43.65732" lon="1.37187">
        <ele>135</ele>
        <time>2025-01-23T17:56:51Z</time>
      </trkpt>
      <trkpt lat="43.65734" lon="1.37185">
        <ele>135</ele>
        <time>2025-01-23T17:56:52Z</time>
      </trkpt>
      <trkpt lat="43.65737" lon="1.37184">
        <ele>135</ele>
        <time>2025-01-23T17:56:53Z</time>
      </trkpt>
      <trkpt lat="43.65739" lon="1.37183">
        <ele>135</ele>
        <time>2025-01-23T17:56:54Z</time>
      </trkpt>
      <trkpt lat="43.65741" lon="1.37181">
        <ele>135</ele>
        <time>2025-01-23T17:56:55Z</time>
      </trkpt>
      <trkpt lat="43.65744" lon="1.3718">
        <ele>135</ele>
        <time>2025-01-23T17:56:56Z</time>
      </trkpt>
      <trkpt lat="43.65746" lon="1.37178">
        <ele>135</ele>
        <time>2025-01-23T17:56:57Z</time>
      </trkpt>
      <trkpt lat="43.65748" lon="1.37177">
        <ele>135</ele>
        <time>2025-01-23T17:56:58Z</time>
      </trkpt>
      <trkpt lat="43.6575" lon="1.37175">
        <ele>135</ele>
        <time>2025-01-23T17:56:59Z</time>
      </trkpt>
      <trkpt lat="43.65752" lon="1.37173">
        <ele>135</ele>
        <time>2025-01-23T17:57:00Z</time>
      </trkpt>
      <trkpt lat="43.65754" lon="1.37172">
        <ele>135</ele>
        <time>2025-01-23T17:57:01Z</time>
      </trkpt>
      <trkpt lat="43.65756" lon="1.3717">
        <ele>135</ele>
        <time>2025-01-23T17:57:02Z</time>
      </trkpt>
      <trkpt lat="43.65759" lon="1.37169">
        <ele>135</ele>
        <time>2025-01-23T17:57:03Z</time>
      </trkpt>
      <trkpt lat="43.65761" lon="1.37167">
        <ele>135</ele>
        <time>2025-01-23T17:57:04Z</time>
      </trkpt>
      <trkpt lat="43.65763" lon="1.37166">
        <ele>135</ele>
        <time>2025-01-23T17:57:05Z</time>
      </trkpt>
      <trkpt lat="43.65765" lon="1.37164">
        <ele>135</ele>
        <time>2025-01-23T17:57:06Z</time>
      </trkpt>
      <trkpt lat="43.65767" lon="1.37162">
        <ele>135</ele>
        <time>2025-01-23T17:57:07Z</time>
      </trkpt>
      <trkpt lat="43.6577" lon="1.3716">
        <ele>135</ele>
        <time>2025-01-23T17:57:08Z</time>
      </trkpt>
      <trkpt lat="43.65772" lon="1.37157">
        <ele>135</ele>
        <time>2025-01-23T17:57:09Z</time>
      </trkpt>
      <trkpt lat="43.65774" lon="1.37155">
        <ele>135</ele>
        <time>2025-01-23T17:57:10Z</time>
      </trkpt>
      <trkpt lat="43.65778" lon="1.37152">
        <ele>135</ele>
        <time>2025-01-23T17:57:11Z</time>
      </trkpt>
      <trkpt lat="43.65778" lon="1.37152">
        <ele>135</ele>
        <time>2025-01-23T17:57:12Z</time>
      </trkpt>
      <trkpt lat="43.6578" lon="1.3715">
        <ele>135</ele>
        <time>2025-01-23T17:57:13Z</time>
      </trkpt>
      <trkpt lat="43.65782" lon="1.37148">
        <ele>135</ele>
        <time>2025-01-23T17:57:14Z</time>
      </trkpt>
      <trkpt lat="43.65784" lon="1.37147">
        <ele>135</ele>
        <time>2025-01-23T17:57:15Z</time>
      </trkpt>
      <trkpt lat="43.65786" lon="1.37145">
        <ele>135</ele>
        <time>2025-01-23T17:57:16Z</time>
      </trkpt>
      <trkpt lat="43.65788" lon="1.37143">
        <ele>135</ele>
        <time>2025-01-23T17:57:17Z</time>
      </trkpt>
      <trkpt lat="43.6579" lon="1.37142">
        <ele>135</ele>
        <time>2025-01-23T17:57:18Z</time>
      </trkpt>
      <trkpt lat="43.65792" lon="1.37141">
        <ele>135</ele>
        <time>2025-01-23T17:57:19Z</time>
      </trkpt>
      <trkpt lat="43.65794" lon="1.37139">
        <ele>135</ele>
        <time>2025-01-23T17:57:20Z</time>
      </trkpt>
      <trkpt lat="43.65796" lon="1.37138">
        <ele>135</ele>
        <time>2025-01-23T17:57:21Z</time>
      </trkpt>
      <trkpt lat="43.65798" lon="1.37136">
        <ele>135</ele>
        <time>2025-01-23T17:57:22Z</time>
      </trkpt>
      <trkpt lat="43.658" lon="1.37134">
        <ele>135</ele>
        <time>2025-01-23T17:57:23Z</time>
      </trkpt>
      <trkpt lat="43.65802" lon="1.37133">
        <ele>135</ele>
        <time>2025-01-23T17:57:24Z</time>
      </trkpt>
      <trkpt lat="43.65804" lon="1.37131">
        <ele>135</ele>
        <time>2025-01-23T17:57:25Z</time>
      </trkpt>
      <trkpt lat="43.65806" lon="1.3713">
        <ele>135</ele>
        <time>2025-01-23T17:57:26Z</time>
      </trkpt>
      <trkpt lat="43.65808" lon="1.37129">
        <ele>135</ele>
        <time>2025-01-23T17:57:27Z</time>
      </trkpt>
      <trkpt lat="43.6581" lon="1.37127">
        <ele>135</ele>
        <time>2025-01-23T17:57:28Z</time>
      </trkpt>
      <trkpt lat="43.65812" lon="1.37126">
        <ele>135</ele>
        <time>2025-01-23T17:57:29Z</time>
      </trkpt>
      <trkpt lat="43.65813" lon="1.37125">
        <ele>135</ele>
        <time>2025-01-23T17:57:30Z</time>
      </trkpt>
      <trkpt lat="43.65815" lon="1.37123">
        <ele>135</ele>
        <time>2025-01-23T17:57:31Z</time>
      </trkpt>
      <trkpt lat="43.65817" lon="1.37122">
        <ele>135</ele>
        <time>2025-01-23T17:57:32Z</time>
      </trkpt>
      <trkpt lat="43.65818" lon="1.37121">
        <ele>135</ele>
        <time>2025-01-23T17:57:33Z</time>
      </trkpt>
      <trkpt lat="43.65818" lon="1.37121">
        <ele>135</ele>
        <time>2025-01-23T17:57:34Z</time>
      </trkpt>
      <trkpt lat="43.6582" lon="1.37119">
        <ele>135</ele>
        <time>2025-01-23T17:57:35Z</time>
      </trkpt>
      <trkpt lat="43.6582" lon="1.37119">
        <ele>134</ele>
        <time>2025-01-23T17:57:36Z</time>
      </trkpt>
      <trkpt lat="43.6582" lon="1.37119">
        <ele>134</ele>
        <time>2025-01-23T17:57:37Z</time>
      </trkpt>
      <trkpt lat="43.6582" lon="1.37116">
        <ele>134</ele>
        <time>2025-01-23T17:57:38Z</time>
      </trkpt>
      <trkpt lat="43.6582" lon="1.37116">
        <ele>134</ele>
        <time>2025-01-23T17:57:39Z</time>
      </trkpt>
      <trkpt lat="43.65819" lon="1.37113">
        <ele>134</ele>
        <time>2025-01-23T17:57:40Z</time>
      </trkpt>
      <trkpt lat="43.65819" lon="1.37113">
        <ele>134</ele>
        <time>2025-01-23T17:57:41Z</time>
      </trkpt>
      <trkpt lat="43.65818" lon="1.37111">
        <ele>134</ele>
        <time>2025-01-23T17:57:42Z</time>
      </trkpt>
      <trkpt lat="43.65818" lon="1.37111">
        <ele>134</ele>
        <time>2025-01-23T17:57:43Z</time>
      </trkpt>
      <trkpt lat="43.65818" lon="1.37107">
        <ele>134</ele>
        <time>2025-01-23T17:57:44Z</time>
      </trkpt>
      <trkpt lat="43.65818" lon="1.37107">
        <ele>134</ele>
        <time>2025-01-23T17:57:45Z</time>
      </trkpt>
      <trkpt lat="43.65817" lon="1.37105">
        <ele>134</ele>
        <time>2025-01-23T17:57:46Z</time>
      </trkpt>
      <trkpt lat="43.65817" lon="1.37105">
        <ele>134</ele>
        <time>2025-01-23T17:57:47Z</time>
      </trkpt>
      <trkpt lat="43.65816" lon="1.37102">
        <ele>134</ele>
        <time>2025-01-23T17:57:48Z</time>
      </trkpt>
      <trkpt lat="43.65816" lon="1.37102">
        <ele>134</ele>
        <time>2025-01-23T17:57:49Z</time>
      </trkpt>
      <trkpt lat="43.65815" lon="1.37099">
        <ele>134</ele>
        <time>2025-01-23T17:57:50Z</time>
      </trkpt>
      <trkpt lat="43.65815" lon="1.37099">
        <ele>134</ele>
        <time>2025-01-23T17:57:51Z</time>
      </trkpt>
      <trkpt lat="43.65814" lon="1.37096">
        <ele>134</ele>
        <time>2025-01-23T17:57:52Z</time>
      </trkpt>
      <trkpt lat="43.65814" lon="1.37096">
        <ele>134</ele>
        <time>2025-01-23T17:57:53Z</time>
      </trkpt>
      <trkpt lat="43.65812" lon="1.37092">
        <ele>134</ele>
        <time>2025-01-23T17:57:54Z</time>
      </trkpt>
      <trkpt lat="43.65812" lon="1.37089">
        <ele>134</ele>
        <time>2025-01-23T17:57:55Z</time>
      </trkpt>
      <trkpt lat="43.65811" lon="1.37086">
        <ele>134</ele>
        <time>2025-01-23T17:57:56Z</time>
      </trkpt>
      <trkpt lat="43.65811" lon="1.37083">
        <ele>134</ele>
        <time>2025-01-23T17:57:57Z</time>
      </trkpt>
      <trkpt lat="43.6581" lon="1.37081">
        <ele>134</ele>
        <time>2025-01-23T17:57:58Z</time>
      </trkpt>
      <trkpt lat="43.65809" lon="1.37078">
        <ele>134</ele>
        <time>2025-01-23T17:57:59Z</time>
      </trkpt>
      <trkpt lat="43.65808" lon="1.37076">
        <ele>134</ele>
        <time>2025-01-23T17:58:00Z</time>
      </trkpt>
      <trkpt lat="43.65807" lon="1.37072">
        <ele>134</ele>
        <time>2025-01-23T17:58:01Z</time>
      </trkpt>
      <trkpt lat="43.65807" lon="1.37072">
        <ele>134</ele>
        <time>2025-01-23T17:58:02Z</time>
      </trkpt>
      <trkpt lat="43.65806" lon="1.37069">
        <ele>134</ele>
        <time>2025-01-23T17:58:03Z</time>
      </trkpt>
      <trkpt lat="43.65804" lon="1.37066">
        <ele>134</ele>
        <time>2025-01-23T17:58:04Z</time>
      </trkpt>
      <trkpt lat="43.65803" lon="1.37064">
        <ele>134</ele>
        <time>2025-01-23T17:58:05Z</time>
      </trkpt>
      <trkpt lat="43.65801" lon="1.37061">
        <ele>134</ele>
        <time>2025-01-23T17:58:06Z</time>
      </trkpt>
      <trkpt lat="43.658" lon="1.37058">
        <ele>135</ele>
        <time>2025-01-23T17:58:07Z</time>
      </trkpt>
      <trkpt lat="43.658" lon="1.37055">
        <ele>135</ele>
        <time>2025-01-23T17:58:08Z</time>
      </trkpt>
      <trkpt lat="43.65799" lon="1.37052">
        <ele>135</ele>
        <time>2025-01-23T17:58:09Z</time>
      </trkpt>
      <trkpt lat="43.65798" lon="1.37049">
        <ele>135</ele>
        <time>2025-01-23T17:58:10Z</time>
      </trkpt>
      <trkpt lat="43.65796" lon="1.37047">
        <ele>134</ele>
        <time>2025-01-23T17:58:11Z</time>
      </trkpt>
      <trkpt lat="43.65796" lon="1.37044">
        <ele>134</ele>
        <time>2025-01-23T17:58:12Z</time>
      </trkpt>
      <trkpt lat="43.65795" lon="1.37041">
        <ele>134</ele>
        <time>2025-01-23T17:58:13Z</time>
      </trkpt>
      <trkpt lat="43.65794" lon="1.37038">
        <ele>134</ele>
        <time>2025-01-23T17:58:14Z</time>
      </trkpt>
      <trkpt lat="43.65793" lon="1.37036">
        <ele>134</ele>
        <time>2025-01-23T17:58:15Z</time>
      </trkpt>
      <trkpt lat="43.65791" lon="1.37034">
        <ele>134</ele>
        <time>2025-01-23T17:58:16Z</time>
      </trkpt>
      <trkpt lat="43.6579" lon="1.37031">
        <ele>134</ele>
        <time>2025-01-23T17:58:17Z</time>
      </trkpt>
      <trkpt lat="43.65788" lon="1.37029">
        <ele>134</ele>
        <time>2025-01-23T17:58:18Z</time>
      </trkpt>
      <trkpt lat="43.65787" lon="1.37027">
        <ele>134</ele>
        <time>2025-01-23T17:58:19Z</time>
      </trkpt>
      <trkpt lat="43.65784" lon="1.37026">
        <ele>134</ele>
        <time>2025-01-23T17:58:20Z</time>
      </trkpt>
      <trkpt lat="43.65782" lon="1.37024">
        <ele>134</ele>
        <time>2025-01-23T17:58:21Z</time>
      </trkpt>
      <trkpt lat="43.6578" lon="1.37022">
        <ele>134</ele>
        <time>2025-01-23T17:58:22Z</time>
      </trkpt>
      <trkpt lat="43.65778" lon="1.37021">
        <ele>134</ele>
        <time>2025-01-23T17:58:23Z</time>
      </trkpt>
      <trkpt lat="43.65776" lon="1.37019">
        <ele>134</ele>
        <time>2025-01-23T17:58:24Z</time>
      </trkpt>
      <trkpt lat="43.65774" lon="1.37017">
        <ele>134</ele>
        <time>2025-01-23T17:58:25Z</time>
      </trkpt>
      <trkpt lat="43.65772" lon="1.37016">
        <ele>134</ele>
        <time>2025-01-23T17:58:26Z</time>
      </trkpt>
      <trkpt lat="43.6577" lon="1.37014">
        <ele>134</ele>
        <time>2025-01-23T17:58:27Z</time>
      </trkpt>
      <trkpt lat="43.65768" lon="1.37012">
        <ele>134</ele>
        <time>2025-01-23T17:58:28Z</time>
      </trkpt>
      <trkpt lat="43.65767" lon="1.37011">
        <ele>134</ele>
        <time>2025-01-23T17:58:29Z</time>
      </trkpt>
      <trkpt lat="43.65765" lon="1.37009">
        <ele>134</ele>
        <time>2025-01-23T17:58:30Z</time>
      </trkpt>
      <trkpt lat="43.65763" lon="1.37007">
        <ele>133</ele>
        <time>2025-01-23T17:58:31Z</time>
      </trkpt>
      <trkpt lat="43.65761" lon="1.37005">
        <ele>133</ele>
        <time>2025-01-23T17:58:32Z</time>
      </trkpt>
      <trkpt lat="43.65759" lon="1.37003">
        <ele>133</ele>
        <time>2025-01-23T17:58:33Z</time>
      </trkpt>
      <trkpt lat="43.65758" lon="1.37002">
        <ele>133</ele>
        <time>2025-01-23T17:58:34Z</time>
      </trkpt>
      <trkpt lat="43.65756" lon="1.37">
        <ele>133</ele>
        <time>2025-01-23T17:58:35Z</time>
      </trkpt>
      <trkpt lat="43.65754" lon="1.36998">
        <ele>133</ele>
        <time>2025-01-23T17:58:36Z</time>
      </trkpt>
      <trkpt lat="43.65752" lon="1.36997">
        <ele>133</ele>
        <time>2025-01-23T17:58:37Z</time>
      </trkpt>
      <trkpt lat="43.6575" lon="1.36996">
        <ele>133</ele>
        <time>2025-01-23T17:58:38Z</time>
      </trkpt>
      <trkpt lat="43.65749" lon="1.36994">
        <ele>134</ele>
        <time>2025-01-23T17:58:39Z</time>
      </trkpt>
      <trkpt lat="43.65747" lon="1.36992">
        <ele>134</ele>
        <time>2025-01-23T17:58:40Z</time>
      </trkpt>
      <trkpt lat="43.65745" lon="1.36991">
        <ele>134</ele>
        <time>2025-01-23T17:58:41Z</time>
      </trkpt>
      <trkpt lat="43.65743" lon="1.36989">
        <ele>134</ele>
        <time>2025-01-23T17:58:42Z</time>
      </trkpt>
      <trkpt lat="43.6574" lon="1.36987">
        <ele>134</ele>
        <time>2025-01-23T17:58:43Z</time>
      </trkpt>
      <trkpt lat="43.65738" lon="1.36985">
        <ele>134</ele>
        <time>2025-01-23T17:58:44Z</time>
      </trkpt>
      <trkpt lat="43.65737" lon="1.36983">
        <ele>134</ele>
        <time>2025-01-23T17:58:45Z</time>
      </trkpt>
      <trkpt lat="43.65735" lon="1.3698">
        <ele>134</ele>
        <time>2025-01-23T17:58:46Z</time>
      </trkpt>
      <trkpt lat="43.65734" lon="1.36977">
        <ele>134</ele>
        <time>2025-01-23T17:58:47Z</time>
      </trkpt>
      <trkpt lat="43.65732" lon="1.36974">
        <ele>134</ele>
        <time>2025-01-23T17:58:48Z</time>
      </trkpt>
      <trkpt lat="43.65732" lon="1.36971">
        <ele>134</ele>
        <time>2025-01-23T17:58:49Z</time>
      </trkpt>
      <trkpt lat="43.65731" lon="1.36967">
        <ele>134</ele>
        <time>2025-01-23T17:58:50Z</time>
      </trkpt>
      <trkpt lat="43.6573" lon="1.36963">
        <ele>134</ele>
        <time>2025-01-23T17:58:51Z</time>
      </trkpt>
      <trkpt lat="43.6573" lon="1.3696">
        <ele>134</ele>
        <time>2025-01-23T17:58:52Z</time>
      </trkpt>
      <trkpt lat="43.6573" lon="1.36955">
        <ele>134</ele>
        <time>2025-01-23T17:58:53Z</time>
      </trkpt>
      <trkpt lat="43.65729" lon="1.36951">
        <ele>134</ele>
        <time>2025-01-23T17:58:54Z</time>
      </trkpt>
      <trkpt lat="43.65729" lon="1.36947">
        <ele>134</ele>
        <time>2025-01-23T17:58:55Z</time>
      </trkpt>
      <trkpt lat="43.65729" lon="1.36943">
        <ele>134</ele>
        <time>2025-01-23T17:58:56Z</time>
      </trkpt>
      <trkpt lat="43.65729" lon="1.36939">
        <ele>134</ele>
        <time>2025-01-23T17:58:57Z</time>
      </trkpt>
      <trkpt lat="43.65729" lon="1.36932">
        <ele>134</ele>
        <time>2025-01-23T17:58:58Z</time>
      </trkpt>
      <trkpt lat="43.65729" lon="1.36932">
        <ele>134</ele>
        <time>2025-01-23T17:58:59Z</time>
      </trkpt>
      <trkpt lat="43.65729" lon="1.36928">
        <ele>134</ele>
        <time>2025-01-23T17:59:00Z</time>
      </trkpt>
      <trkpt lat="43.65729" lon="1.36925">
        <ele>134</ele>
        <time>2025-01-23T17:59:01Z</time>
      </trkpt>
      <trkpt lat="43.65729" lon="1.36921">
        <ele>134</ele>
        <time>2025-01-23T17:59:02Z</time>
      </trkpt>
      <trkpt lat="43.6573" lon="1.36917">
        <ele>134</ele>
        <time>2025-01-23T17:59:03Z</time>
      </trkpt>
      <trkpt lat="43.65731" lon="1.36914">
        <ele>134</ele>
        <time>2025-01-23T17:59:04Z</time>
      </trkpt>
      <trkpt lat="43.65733" lon="1.36911">
        <ele>134</ele>
        <time>2025-01-23T17:59:05Z</time>
      </trkpt>
      <trkpt lat="43.65734" lon="1.36909">
        <ele>134</ele>
        <time>2025-01-23T17:59:06Z</time>
      </trkpt>
      <trkpt lat="43.65736" lon="1.36906">
        <ele>134</ele>
        <time>2025-01-23T17:59:07Z</time>
      </trkpt>
      <trkpt lat="43.65737" lon="1.36903">
        <ele>134</ele>
        <time>2025-01-23T17:59:08Z</time>
      </trkpt>
      <trkpt lat="43.65738" lon="1.36901">
        <ele>134</ele>
        <time>2025-01-23T17:59:09Z</time>
      </trkpt>
      <trkpt lat="43.65739" lon="1.36898">
        <ele>134</ele>
        <time>2025-01-23T17:59:10Z</time>
      </trkpt>
      <trkpt lat="43.65741" lon="1.36895">
        <ele>134</ele>
        <time>2025-01-23T17:59:11Z</time>
      </trkpt>
      <trkpt lat="43.65742" lon="1.36893">
        <ele>134</ele>
        <time>2025-01-23T17:59:12Z</time>
      </trkpt>
      <trkpt lat="43.65743" lon="1.3689">
        <ele>134</ele>
        <time>2025-01-23T17:59:13Z</time>
      </trkpt>
      <trkpt lat="43.65745" lon="1.36887">
        <ele>134</ele>
        <time>2025-01-23T17:59:14Z</time>
      </trkpt>
      <trkpt lat="43.65746" lon="1.36885">
        <ele>134</ele>
        <time>2025-01-23T17:59:15Z</time>
      </trkpt>
      <trkpt lat="43.65747" lon="1.36881">
        <ele>134</ele>
        <time>2025-01-23T17:59:16Z</time>
      </trkpt>
      <trkpt lat="43.6575" lon="1.36875">
        <ele>134</ele>
        <time>2025-01-23T17:59:17Z</time>
      </trkpt>
      <trkpt lat="43.6575" lon="1.36875">
        <ele>134</ele>
        <time>2025-01-23T17:59:18Z</time>
      </trkpt>
      <trkpt lat="43.65751" lon="1.36872">
        <ele>134</ele>
        <time>2025-01-23T17:59:19Z</time>
      </trkpt>
      <trkpt lat="43.65753" lon="1.3687">
        <ele>134</ele>
        <time>2025-01-23T17:59:20Z</time>
      </trkpt>
      <trkpt lat="43.65754" lon="1.36867">
        <ele>134</ele>
        <time>2025-01-23T17:59:21Z</time>
      </trkpt>
      <trkpt lat="43.65756" lon="1.36864">
        <ele>134</ele>
        <time>2025-01-23T17:59:22Z</time>
      </trkpt>
      <trkpt lat="43.65757" lon="1.36861">
        <ele>134</ele>
        <time>2025-01-23T17:59:23Z</time>
      </trkpt>
      <trkpt lat="43.65758" lon="1.36857">
        <ele>134</ele>
        <time>2025-01-23T17:59:24Z</time>
      </trkpt>
      <trkpt lat="43.65759" lon="1.36854">
        <ele>134</ele>
        <time>2025-01-23T17:59:25Z</time>
      </trkpt>
      <trkpt lat="43.6576" lon="1.36852">
        <ele>134</ele>
        <time>2025-01-23T17:59:26Z</time>
      </trkpt>
      <trkpt lat="43.65762" lon="1.36848">
        <ele>134</ele>
        <time>2025-01-23T17:59:27Z</time>
      </trkpt>
      <trkpt lat="43.65763" lon="1.36845">
        <ele>134</ele>
        <time>2025-01-23T17:59:28Z</time>
      </trkpt>
      <trkpt lat="43.65765" lon="1.36843">
        <ele>134</ele>
        <time>2025-01-23T17:59:29Z</time>
      </trkpt>
      <trkpt lat="43.65766" lon="1.36839">
        <ele>134</ele>
        <time>2025-01-23T17:59:30Z</time>
      </trkpt>
      <trkpt lat="43.65767" lon="1.36836">
        <ele>134</ele>
        <time>2025-01-23T17:59:31Z</time>
      </trkpt>
      <trkpt lat="43.65768" lon="1.36833">
        <ele>134</ele>
        <time>2025-01-23T17:59:32Z</time>
      </trkpt>
      <trkpt lat="43.65769" lon="1.36831">
        <ele>134</ele>
        <time>2025-01-23T17:59:33Z</time>
      </trkpt>
      <trkpt lat="43.65771" lon="1.36828">
        <ele>134</ele>
        <time>2025-01-23T17:59:34Z</time>
      </trkpt>
      <trkpt lat="43.65772" lon="1.36825">
        <ele>134</ele>
        <time>2025-01-23T17:59:35Z</time>
      </trkpt>
      <trkpt lat="43.65775" lon="1.3682">
        <ele>134</ele>
        <time>2025-01-23T17:59:36Z</time>
      </trkpt>
      <trkpt lat="43.65775" lon="1.3682">
        <ele>134</ele>
        <time>2025-01-23T17:59:37Z</time>
      </trkpt>
      <trkpt lat="43.65776" lon="1.36817">
        <ele>134</ele>
        <time>2025-01-23T17:59:38Z</time>
      </trkpt>
      <trkpt lat="43.65777" lon="1.36814">
        <ele>134</ele>
        <time>2025-01-23T17:59:39Z</time>
      </trkpt>
      <trkpt lat="43.65779" lon="1.36812">
        <ele>134</ele>
        <time>2025-01-23T17:59:40Z</time>
      </trkpt>
      <trkpt lat="43.6578" lon="1.36809">
        <ele>134</ele>
        <time>2025-01-23T17:59:41Z</time>
      </trkpt>
      <trkpt lat="43.65782" lon="1.36806">
        <ele>134</ele>
        <time>2025-01-23T17:59:42Z</time>
      </trkpt>
      <trkpt lat="43.65783" lon="1.36803">
        <ele>134</ele>
        <time>2025-01-23T17:59:43Z</time>
      </trkpt>
      <trkpt lat="43.65784" lon="1.36801">
        <ele>134</ele>
        <time>2025-01-23T17:59:44Z</time>
      </trkpt>
      <trkpt lat="43.65786" lon="1.36798">
        <ele>134</ele>
        <time>2025-01-23T17:59:45Z</time>
      </trkpt>
      <trkpt lat="43.65787" lon="1.36796">
        <ele>134</ele>
        <time>2025-01-23T17:59:46Z</time>
      </trkpt>
      <trkpt lat="43.65788" lon="1.36793">
        <ele>134</ele>
        <time>2025-01-23T17:59:47Z</time>
      </trkpt>
      <trkpt lat="43.6579" lon="1.3679">
        <ele>134</ele>
        <time>2025-01-23T17:59:48Z</time>
      </trkpt>
      <trkpt lat="43.65791" lon="1.36787">
        <ele>134</ele>
        <time>2025-01-23T17:59:49Z</time>
      </trkpt>
      <trkpt lat="43.65792" lon="1.36784">
        <ele>134</ele>
        <time>2025-01-23T17:59:50Z</time>
      </trkpt>
      <trkpt lat="43.65793" lon="1.36781">
        <ele>134</ele>
        <time>2025-01-23T17:59:51Z</time>
      </trkpt>
      <trkpt lat="43.65794" lon="1.36778">
        <ele>134</ele>
        <time>2025-01-23T17:59:52Z</time>
      </trkpt>
      <trkpt lat="43.65795" lon="1.36775">
        <ele>134</ele>
        <time>2025-01-23T17:59:53Z</time>
      </trkpt>
      <trkpt lat="43.65797" lon="1.36772">
        <ele>134</ele>
        <time>2025-01-23T17:59:54Z</time>
      </trkpt>
      <trkpt lat="43.65799" lon="1.36767">
        <ele>134</ele>
        <time>2025-01-23T17:59:55Z</time>
      </trkpt>
      <trkpt lat="43.65799" lon="1.36767">
        <ele>135</ele>
        <time>2025-01-23T17:59:56Z</time>
      </trkpt>
      <trkpt lat="43.65801" lon="1.36764">
        <ele>135</ele>
        <time>2025-01-23T17:59:57Z</time>
      </trkpt>
      <trkpt lat="43.65802" lon="1.36762">
        <ele>135</ele>
        <time>2025-01-23T17:59:58Z</time>
      </trkpt>
      <trkpt lat="43.65805" lon="1.36757">
        <ele>135</ele>
        <time>2025-01-23T17:59:59Z</time>
      </trkpt>
      <trkpt lat="43.65805" lon="1.36757">
        <ele>135</ele>
        <time>2025-01-23T18:00:00Z</time>
      </trkpt>
      <trkpt lat="43.65807" lon="1.36755">
        <ele>135</ele>
        <time>2025-01-23T18:00:01Z</time>
      </trkpt>
      <trkpt lat="43.65808" lon="1.36753">
        <ele>135</ele>
        <time>2025-01-23T18:00:02Z</time>
      </trkpt>
      <trkpt lat="43.6581" lon="1.3675">
        <ele>134</ele>
        <time>2025-01-23T18:00:03Z</time>
      </trkpt>
      <trkpt lat="43.65811" lon="1.36747">
        <ele>134</ele>
        <time>2025-01-23T18:00:04Z</time>
      </trkpt>
      <trkpt lat="43.65811" lon="1.36744">
        <ele>134</ele>
        <time>2025-01-23T18:00:05Z</time>
      </trkpt>
      <trkpt lat="43.65813" lon="1.36741">
        <ele>135</ele>
        <time>2025-01-23T18:00:06Z</time>
      </trkpt>
      <trkpt lat="43.65813" lon="1.36738">
        <ele>135</ele>
        <time>2025-01-23T18:00:07Z</time>
      </trkpt>
      <trkpt lat="43.65815" lon="1.36735">
        <ele>135</ele>
        <time>2025-01-23T18:00:08Z</time>
      </trkpt>
      <trkpt lat="43.65816" lon="1.36732">
        <ele>135</ele>
        <time>2025-01-23T18:00:09Z</time>
      </trkpt>
      <trkpt lat="43.65818" lon="1.3673">
        <ele>135</ele>
        <time>2025-01-23T18:00:10Z</time>
      </trkpt>
      <trkpt lat="43.65819" lon="1.36727">
        <ele>135</ele>
        <time>2025-01-23T18:00:11Z</time>
      </trkpt>
      <trkpt lat="43.6582" lon="1.36724">
        <ele>135</ele>
        <time>2025-01-23T18:00:12Z</time>
      </trkpt>
      <trkpt lat="43.65821" lon="1.36721">
        <ele>135</ele>
        <time>2025-01-23T18:00:13Z</time>
      </trkpt>
      <trkpt lat="43.65824" lon="1.36716">
        <ele>135</ele>
        <time>2025-01-23T18:00:14Z</time>
      </trkpt>
      <trkpt lat="43.65824" lon="1.36716">
        <ele>135</ele>
        <time>2025-01-23T18:00:15Z</time>
      </trkpt>
      <trkpt lat="43.65825" lon="1.36712">
        <ele>135</ele>
        <time>2025-01-23T18:00:16Z</time>
      </trkpt>
      <trkpt lat="43.65826" lon="1.36709">
        <ele>135</ele>
        <time>2025-01-23T18:00:17Z</time>
      </trkpt>
      <trkpt lat="43.65827" lon="1.36707">
        <ele>134</ele>
        <time>2025-01-23T18:00:18Z</time>
      </trkpt>
      <trkpt lat="43.65828" lon="1.36704">
        <ele>134</ele>
        <time>2025-01-23T18:00:19Z</time>
      </trkpt>
      <trkpt lat="43.6583" lon="1.36701">
        <ele>134</ele>
        <time>2025-01-23T18:00:20Z</time>
      </trkpt>
      <trkpt lat="43.65831" lon="1.36699">
        <ele>134</ele>
        <time>2025-01-23T18:00:21Z</time>
      </trkpt>
      <trkpt lat="43.65832" lon="1.36696">
        <ele>134</ele>
        <time>2025-01-23T18:00:22Z</time>
      </trkpt>
      <trkpt lat="43.65833" lon="1.36694">
        <ele>134</ele>
        <time>2025-01-23T18:00:23Z</time>
      </trkpt>
      <trkpt lat="43.65835" lon="1.36691">
        <ele>134</ele>
        <time>2025-01-23T18:00:24Z</time>
      </trkpt>
      <trkpt lat="43.65836" lon="1.36688">
        <ele>135</ele>
        <time>2025-01-23T18:00:25Z</time>
      </trkpt>
      <trkpt lat="43.65837" lon="1.36685">
        <ele>135</ele>
        <time>2025-01-23T18:00:26Z</time>
      </trkpt>
      <trkpt lat="43.65839" lon="1.36683">
        <ele>135</ele>
        <time>2025-01-23T18:00:27Z</time>
      </trkpt>
      <trkpt lat="43.65841" lon="1.3668">
        <ele>135</ele>
        <time>2025-01-23T18:00:28Z</time>
      </trkpt>
      <trkpt lat="43.65842" lon="1.36678">
        <ele>135</ele>
        <time>2025-01-23T18:00:29Z</time>
      </trkpt>
      <trkpt lat="43.65844" lon="1.36676">
        <ele>135</ele>
        <time>2025-01-23T18:00:30Z</time>
      </trkpt>
      <trkpt lat="43.65846" lon="1.36674">
        <ele>135</ele>
        <time>2025-01-23T18:00:31Z</time>
      </trkpt>
      <trkpt lat="43.65848" lon="1.36672">
        <ele>135</ele>
        <time>2025-01-23T18:00:32Z</time>
      </trkpt>
      <trkpt lat="43.65851" lon="1.36667">
        <ele>135</ele>
        <time>2025-01-23T18:00:33Z</time>
      </trkpt>
      <trkpt lat="43.65851" lon="1.36667">
        <ele>135</ele>
        <time>2025-01-23T18:00:34Z</time>
      </trkpt>
      <trkpt lat="43.65853" lon="1.36666">
        <ele>135</ele>
        <time>2025-01-23T18:00:35Z</time>
      </trkpt>
      <trkpt lat="43.65858" lon="1.36663">
        <ele>135</ele>
        <time>2025-01-23T18:00:36Z</time>
      </trkpt>
      <trkpt lat="43.65858" lon="1.36663">
        <ele>135</ele>
        <time>2025-01-23T18:00:37Z</time>
      </trkpt>
      <trkpt lat="43.6586" lon="1.36662">
        <ele>135</ele>
        <time>2025-01-23T18:00:38Z</time>
      </trkpt>
      <trkpt lat="43.65862" lon="1.3666">
        <ele>135</ele>
        <time>2025-01-23T18:00:39Z</time>
      </trkpt>
      <trkpt lat="43.65864" lon="1.36659">
        <ele>135</ele>
        <time>2025-01-23T18:00:40Z</time>
      </trkpt>
      <trkpt lat="43.65867" lon="1.36657">
        <ele>134</ele>
        <time>2025-01-23T18:00:41Z</time>
      </trkpt>
      <trkpt lat="43.65869" lon="1.36656">
        <ele>134</ele>
        <time>2025-01-23T18:00:42Z</time>
      </trkpt>
      <trkpt lat="43.65871" lon="1.36654">
        <ele>134</ele>
        <time>2025-01-23T18:00:43Z</time>
      </trkpt>
      <trkpt lat="43.65873" lon="1.36653">
        <ele>134</ele>
        <time>2025-01-23T18:00:44Z</time>
      </trkpt>
      <trkpt lat="43.65876" lon="1.36651">
        <ele>134</ele>
        <time>2025-01-23T18:00:45Z</time>
      </trkpt>
      <trkpt lat="43.65878" lon="1.3665">
        <ele>134</ele>
        <time>2025-01-23T18:00:46Z</time>
      </trkpt>
      <trkpt lat="43.6588" lon="1.36648">
        <ele>134</ele>
        <time>2025-01-23T18:00:47Z</time>
      </trkpt>
      <trkpt lat="43.65882" lon="1.36647">
        <ele>134</ele>
        <time>2025-01-23T18:00:48Z</time>
      </trkpt>
      <trkpt lat="43.65884" lon="1.36645">
        <ele>135</ele>
        <time>2025-01-23T18:00:49Z</time>
      </trkpt>
      <trkpt lat="43.65884" lon="1.36645">
        <ele>135</ele>
        <time>2025-01-23T18:00:50Z</time>
      </trkpt>
      <trkpt lat="43.65887" lon="1.36643">
        <ele>135</ele>
        <time>2025-01-23T18:00:51Z</time>
      </trkpt>
      <trkpt lat="43.65889" lon="1.36639">
        <ele>135</ele>
        <time>2025-01-23T18:00:52Z</time>
      </trkpt>
      <trkpt lat="43.65889" lon="1.36639">
        <ele>135</ele>
        <time>2025-01-23T18:00:53Z</time>
      </trkpt>
      <trkpt lat="43.65888" lon="1.36636">
        <ele>135</ele>
        <time>2025-01-23T18:00:54Z</time>
      </trkpt>
      <trkpt lat="43.65887" lon="1.36633">
        <ele>134</ele>
        <time>2025-01-23T18:00:55Z</time>
      </trkpt>
      <trkpt lat="43.65886" lon="1.3663">
        <ele>134</ele>
        <time>2025-01-23T18:00:56Z</time>
      </trkpt>
      <trkpt lat="43.65885" lon="1.36628">
        <ele>134</ele>
        <time>2025-01-23T18:00:57Z</time>
      </trkpt>
      <trkpt lat="43.65884" lon="1.36625">
        <ele>134</ele>
        <time>2025-01-23T18:00:58Z</time>
      </trkpt>
      <trkpt lat="43.65883" lon="1.36622">
        <ele>134</ele>
        <time>2025-01-23T18:00:59Z</time>
      </trkpt>
      <trkpt lat="43.65882" lon="1.36619">
        <ele>134</ele>
        <time>2025-01-23T18:01:00Z</time>
      </trkpt>
      <trkpt lat="43.65881" lon="1.36616">
        <ele>134</ele>
        <time>2025-01-23T18:01:01Z</time>
      </trkpt>
      <trkpt lat="43.6588" lon="1.36612">
        <ele>134</ele>
        <time>2025-01-23T18:01:02Z</time>
      </trkpt>
      <trkpt lat="43.65879" lon="1.36609">
        <ele>133</ele>
        <time>2025-01-23T18:01:03Z</time>
      </trkpt>
      <trkpt lat="43.65878" lon="1.36606">
        <ele>134</ele>
        <time>2025-01-23T18:01:04Z</time>
      </trkpt>
      <trkpt lat="43.65877" lon="1.36603">
        <ele>134</ele>
        <time>2025-01-23T18:01:05Z</time>
      </trkpt>
      <trkpt lat="43.65876" lon="1.366">
        <ele>134</ele>
        <time>2025-01-23T18:01:06Z</time>
      </trkpt>
      <trkpt lat="43.65876" lon="1.36597">
        <ele>134</ele>
        <time>2025-01-23T18:01:07Z</time>
      </trkpt>
      <trkpt lat="43.65875" lon="1.36594">
        <ele>135</ele>
        <time>2025-01-23T18:01:08Z</time>
      </trkpt>
      <trkpt lat="43.65874" lon="1.36591">
        <ele>135</ele>
        <time>2025-01-23T18:01:09Z</time>
      </trkpt>
      <trkpt lat="43.65873" lon="1.36588">
        <ele>135</ele>
        <time>2025-01-23T18:01:10Z</time>
      </trkpt>
      <trkpt lat="43.65872" lon="1.36585">
        <ele>135</ele>
        <time>2025-01-23T18:01:11Z</time>
      </trkpt>
      <trkpt lat="43.65871" lon="1.36582">
        <ele>135</ele>
        <time>2025-01-23T18:01:12Z</time>
      </trkpt>
      <trkpt lat="43.65871" lon="1.36579">
        <ele>135</ele>
        <time>2025-01-23T18:01:13Z</time>
      </trkpt>
      <trkpt lat="43.65869" lon="1.36576">
        <ele>135</ele>
        <time>2025-01-23T18:01:14Z</time>
      </trkpt>
      <trkpt lat="43.65869" lon="1.36573">
        <ele>135</ele>
        <time>2025-01-23T18:01:15Z</time>
      </trkpt>
      <trkpt lat="43.65868" lon="1.36571">
        <ele>135</ele>
        <time>2025-01-23T18:01:16Z</time>
      </trkpt>
      <trkpt lat="43.65868" lon="1.36571">
        <ele>135</ele>
        <time>2025-01-23T18:01:17Z</time>
      </trkpt>
      <trkpt lat="43.65867" lon="1.36567">
        <ele>135</ele>
        <time>2025-01-23T18:01:18Z</time>
      </trkpt>
      <trkpt lat="43.65867" lon="1.36567">
        <ele>135</ele>
        <time>2025-01-23T18:01:19Z</time>
      </trkpt>
      <trkpt lat="43.65866" lon="1.36563">
        <ele>135</ele>
        <time>2025-01-23T18:01:20Z</time>
      </trkpt>
      <trkpt lat="43.65866" lon="1.36563">
        <ele>135</ele>
        <time>2025-01-23T18:01:21Z</time>
      </trkpt>
      <trkpt lat="43.65864" lon="1.36561">
        <ele>135</ele>
        <time>2025-01-23T18:01:22Z</time>
      </trkpt>
      <trkpt lat="43.65863" lon="1.36559">
        <ele>136</ele>
        <time>2025-01-23T18:01:23Z</time>
      </trkpt>
      <trkpt lat="43.65862" lon="1.36556">
        <ele>136</ele>
        <time>2025-01-23T18:01:24Z</time>
      </trkpt>
      <trkpt lat="43.65861" lon="1.36553">
        <ele>135</ele>
        <time>2025-01-23T18:01:25Z</time>
      </trkpt>
      <trkpt lat="43.65861" lon="1.3655">
        <ele>135</ele>
        <time>2025-01-23T18:01:26Z</time>
      </trkpt>
      <trkpt lat="43.65861" lon="1.36547">
        <ele>135</ele>
        <time>2025-01-23T18:01:27Z</time>
      </trkpt>
      <trkpt lat="43.6586" lon="1.36544">
        <ele>135</ele>
        <time>2025-01-23T18:01:28Z</time>
      </trkpt>
      <trkpt lat="43.65859" lon="1.36542">
        <ele>135</ele>
        <time>2025-01-23T18:01:29Z</time>
      </trkpt>
      <trkpt lat="43.65857" lon="1.36536">
        <ele>135</ele>
        <time>2025-01-23T18:01:30Z</time>
      </trkpt>
      <trkpt lat="43.65857" lon="1.36536">
        <ele>135</ele>
        <time>2025-01-23T18:01:31Z</time>
      </trkpt>
      <trkpt lat="43.65856" lon="1.36533">
        <ele>135</ele>
        <time>2025-01-23T18:01:32Z</time>
      </trkpt>
      <trkpt lat="43.65855" lon="1.3653">
        <ele>135</ele>
        <time>2025-01-23T18:01:33Z</time>
      </trkpt>
      <trkpt lat="43.65854" lon="1.36527">
        <ele>135</ele>
        <time>2025-01-23T18:01:34Z</time>
      </trkpt>
      <trkpt lat="43.65854" lon="1.36524">
        <ele>135</ele>
        <time>2025-01-23T18:01:35Z</time>
      </trkpt>
      <trkpt lat="43.65853" lon="1.36521">
        <ele>135</ele>
        <time>2025-01-23T18:01:36Z</time>
      </trkpt>
      <trkpt lat="43.65852" lon="1.36518">
        <ele>135</ele>
        <time>2025-01-23T18:01:37Z</time>
      </trkpt>
      <trkpt lat="43.65851" lon="1.36514">
        <ele>135</ele>
        <time>2025-01-23T18:01:38Z</time>
      </trkpt>
      <trkpt lat="43.65849" lon="1.36508">
        <ele>135</ele>
        <time>2025-01-23T18:01:39Z</time>
      </trkpt>
      <trkpt lat="43.65849" lon="1.36508">
        <ele>135</ele>
        <time>2025-01-23T18:01:40Z</time>
      </trkpt>
      <trkpt lat="43.65848" lon="1.36505">
        <ele>135</ele>
        <time>2025-01-23T18:01:41Z</time>
      </trkpt>
      <trkpt lat="43.65847" lon="1.36502">
        <ele>135</ele>
        <time>2025-01-23T18:01:42Z</time>
      </trkpt>
      <trkpt lat="43.65847" lon="1.36499">
        <ele>136</ele>
        <time>2025-01-23T18:01:43Z</time>
      </trkpt>
      <trkpt lat="43.65846" lon="1.36496">
        <ele>136</ele>
        <time>2025-01-23T18:01:44Z</time>
      </trkpt>
      <trkpt lat="43.65845" lon="1.36492">
        <ele>136</ele>
        <time>2025-01-23T18:01:45Z</time>
      </trkpt>
      <trkpt lat="43.65844" lon="1.36489">
        <ele>136</ele>
        <time>2025-01-23T18:01:46Z</time>
      </trkpt>
      <trkpt lat="43.65843" lon="1.36486">
        <ele>136</ele>
        <time>2025-01-23T18:01:47Z</time>
      </trkpt>
      <trkpt lat="43.65842" lon="1.36483">
        <ele>137</ele>
        <time>2025-01-23T18:01:48Z</time>
      </trkpt>
      <trkpt lat="43.6584" lon="1.36477">
        <ele>137</ele>
        <time>2025-01-23T18:01:49Z</time>
      </trkpt>
      <trkpt lat="43.6584" lon="1.36477">
        <ele>137</ele>
        <time>2025-01-23T18:01:50Z</time>
      </trkpt>
      <trkpt lat="43.65839" lon="1.36474">
        <ele>137</ele>
        <time>2025-01-23T18:01:51Z</time>
      </trkpt>
      <trkpt lat="43.65838" lon="1.3647">
        <ele>137</ele>
        <time>2025-01-23T18:01:52Z</time>
      </trkpt>
      <trkpt lat="43.65838" lon="1.36467">
        <ele>137</ele>
        <time>2025-01-23T18:01:53Z</time>
      </trkpt>
      <trkpt lat="43.65837" lon="1.36464">
        <ele>137</ele>
        <time>2025-01-23T18:01:54Z</time>
      </trkpt>
      <trkpt lat="43.65836" lon="1.36461">
        <ele>137</ele>
        <time>2025-01-23T18:01:55Z</time>
      </trkpt>
      <trkpt lat="43.65836" lon="1.36458">
        <ele>137</ele>
        <time>2025-01-23T18:01:56Z</time>
      </trkpt>
      <trkpt lat="43.65835" lon="1.36455">
        <ele>137</ele>
        <time>2025-01-23T18:01:57Z</time>
      </trkpt>
      <trkpt lat="43.65834" lon="1.36452">
        <ele>137</ele>
        <time>2025-01-23T18:01:58Z</time>
      </trkpt>
      <trkpt lat="43.65833" lon="1.36449">
        <ele>137</ele>
        <time>2025-01-23T18:01:59Z</time>
      </trkpt>
      <trkpt lat="43.65832" lon="1.36446">
        <ele>138</ele>
        <time>2025-01-23T18:02:00Z</time>
      </trkpt>
      <trkpt lat="43.65831" lon="1.36443">
        <ele>138</ele>
        <time>2025-01-23T18:02:01Z</time>
      </trkpt>
      <trkpt lat="43.6583" lon="1.3644">
        <ele>138</ele>
        <time>2025-01-23T18:02:02Z</time>
      </trkpt>
      <trkpt lat="43.6583" lon="1.36438">
        <ele>138</ele>
        <time>2025-01-23T18:02:03Z</time>
      </trkpt>
      <trkpt lat="43.65829" lon="1.36435">
        <ele>138</ele>
        <time>2025-01-23T18:02:04Z</time>
      </trkpt>
      <trkpt lat="43.65828" lon="1.36432">
        <ele>139</ele>
        <time>2025-01-23T18:02:05Z</time>
      </trkpt>
      <trkpt lat="43.65827" lon="1.36429">
        <ele>139</ele>
        <time>2025-01-23T18:02:06Z</time>
      </trkpt>
      <trkpt lat="43.65826" lon="1.36426">
        <ele>140</ele>
        <time>2025-01-23T18:02:07Z</time>
      </trkpt>
      <trkpt lat="43.65826" lon="1.36423">
        <ele>140</ele>
        <time>2025-01-23T18:02:08Z</time>
      </trkpt>
      <trkpt lat="43.65825" lon="1.36421">
        <ele>140</ele>
        <time>2025-01-23T18:02:09Z</time>
      </trkpt>
      <trkpt lat="43.65824" lon="1.36418">
        <ele>140</ele>
        <time>2025-01-23T18:02:10Z</time>
      </trkpt>
      <trkpt lat="43.65823" lon="1.36415">
        <ele>141</ele>
        <time>2025-01-23T18:02:11Z</time>
      </trkpt>
      <trkpt lat="43.65823" lon="1.36412">
        <ele>141</ele>
        <time>2025-01-23T18:02:12Z</time>
      </trkpt>
      <trkpt lat="43.65821" lon="1.36406">
        <ele>141</ele>
        <time>2025-01-23T18:02:13Z</time>
      </trkpt>
      <trkpt lat="43.65821" lon="1.36406">
        <ele>141</ele>
        <time>2025-01-23T18:02:14Z</time>
      </trkpt>
      <trkpt lat="43.65821" lon="1.36403">
        <ele>141</ele>
        <time>2025-01-23T18:02:15Z</time>
      </trkpt>
      <trkpt lat="43.6582" lon="1.364">
        <ele>141</ele>
        <time>2025-01-23T18:02:16Z</time>
      </trkpt>
      <trkpt lat="43.65819" lon="1.36397">
        <ele>141</ele>
        <time>2025-01-23T18:02:17Z</time>
      </trkpt>
      <trkpt lat="43.65818" lon="1.36394">
        <ele>142</ele>
        <time>2025-01-23T18:02:18Z</time>
      </trkpt>
      <trkpt lat="43.65817" lon="1.36392">
        <ele>142</ele>
        <time>2025-01-23T18:02:19Z</time>
      </trkpt>
      <trkpt lat="43.65817" lon="1.36389">
        <ele>142</ele>
        <time>2025-01-23T18:02:20Z</time>
      </trkpt>
      <trkpt lat="43.65816" lon="1.36387">
        <ele>142</ele>
        <time>2025-01-23T18:02:21Z</time>
      </trkpt>
      <trkpt lat="43.65815" lon="1.36384">
        <ele>142</ele>
        <time>2025-01-23T18:02:22Z</time>
      </trkpt>
      <trkpt lat="43.65815" lon="1.36382">
        <ele>142</ele>
        <time>2025-01-23T18:02:23Z</time>
      </trkpt>
      <trkpt lat="43.65814" lon="1.36379">
        <ele>142</ele>
        <time>2025-01-23T18:02:24Z</time>
      </trkpt>
      <trkpt lat="43.65813" lon="1.36376">
        <ele>142</ele>
        <time>2025-01-23T18:02:25Z</time>
      </trkpt>
      <trkpt lat="43.65812" lon="1.36373">
        <ele>142</ele>
        <time>2025-01-23T18:02:26Z</time>
      </trkpt>
      <trkpt lat="43.65811" lon="1.36371">
        <ele>142</ele>
        <time>2025-01-23T18:02:27Z</time>
      </trkpt>
      <trkpt lat="43.6581" lon="1.36368">
        <ele>142</ele>
        <time>2025-01-23T18:02:28Z</time>
      </trkpt>
      <trkpt lat="43.6581" lon="1.36366">
        <ele>142</ele>
        <time>2025-01-23T18:02:29Z</time>
      </trkpt>
      <trkpt lat="43.65809" lon="1.36363">
        <ele>142</ele>
        <time>2025-01-23T18:02:30Z</time>
      </trkpt>
      <trkpt lat="43.65808" lon="1.3636">
        <ele>142</ele>
        <time>2025-01-23T18:02:31Z</time>
      </trkpt>
      <trkpt lat="43.65808" lon="1.36357">
        <ele>142</ele>
        <time>2025-01-23T18:02:32Z</time>
      </trkpt>
      <trkpt lat="43.65807" lon="1.36354">
        <ele>142</ele>
        <time>2025-01-23T18:02:33Z</time>
      </trkpt>
      <trkpt lat="43.65806" lon="1.36351">
        <ele>142</ele>
        <time>2025-01-23T18:02:34Z</time>
      </trkpt>
      <trkpt lat="43.65806" lon="1.36348">
        <ele>142</ele>
        <time>2025-01-23T18:02:35Z</time>
      </trkpt>
      <trkpt lat="43.65805" lon="1.36346">
        <ele>142</ele>
        <time>2025-01-23T18:02:36Z</time>
      </trkpt>
      <trkpt lat="43.65805" lon="1.36346">
        <ele>141</ele>
        <time>2025-01-23T18:02:37Z</time>
      </trkpt>
      <trkpt lat="43.65803" lon="1.36342">
        <ele>141</ele>
        <time>2025-01-23T18:02:38Z</time>
      </trkpt>
      <trkpt lat="43.65803" lon="1.36342">
        <ele>141</ele>
        <time>2025-01-23T18:02:39Z</time>
      </trkpt>
      <trkpt lat="43.65802" lon="1.36339">
        <ele>141</ele>
        <time>2025-01-23T18:02:40Z</time>
      </trkpt>
      <trkpt lat="43.65802" lon="1.36339">
        <ele>141</ele>
        <time>2025-01-23T18:02:41Z</time>
      </trkpt>
      <trkpt lat="43.65801" lon="1.36335">
        <ele>141</ele>
        <time>2025-01-23T18:02:42Z</time>
      </trkpt>
      <trkpt lat="43.65801" lon="1.36335">
        <ele>141</ele>
        <time>2025-01-23T18:02:43Z</time>
      </trkpt>
      <trkpt lat="43.65799" lon="1.36331">
        <ele>141</ele>
        <time>2025-01-23T18:02:44Z</time>
      </trkpt>
      <trkpt lat="43.65799" lon="1.36331">
        <ele>141</ele>
        <time>2025-01-23T18:02:45Z</time>
      </trkpt>
      <trkpt lat="43.65798" lon="1.36326">
        <ele>141</ele>
        <time>2025-01-23T18:02:46Z</time>
      </trkpt>
      <trkpt lat="43.65798" lon="1.36323">
        <ele>141</ele>
        <time>2025-01-23T18:02:47Z</time>
      </trkpt>
      <trkpt lat="43.65797" lon="1.36321">
        <ele>141</ele>
        <time>2025-01-23T18:02:48Z</time>
      </trkpt>
      <trkpt lat="43.65796" lon="1.36318">
        <ele>141</ele>
        <time>2025-01-23T18:02:49Z</time>
      </trkpt>
      <trkpt lat="43.65795" lon="1.36316">
        <ele>141</ele>
        <time>2025-01-23T18:02:50Z</time>
      </trkpt>
      <trkpt lat="43.65794" lon="1.36313">
        <ele>140</ele>
        <time>2025-01-23T18:02:51Z</time>
      </trkpt>
      <trkpt lat="43.65794" lon="1.3631">
        <ele>140</ele>
        <time>2025-01-23T18:02:52Z</time>
      </trkpt>
      <trkpt lat="43.65793" lon="1.36307">
        <ele>140</ele>
        <time>2025-01-23T18:02:53Z</time>
      </trkpt>
      <trkpt lat="43.65793" lon="1.36304">
        <ele>140</ele>
        <time>2025-01-23T18:02:54Z</time>
      </trkpt>
      <trkpt lat="43.65793" lon="1.36301">
        <ele>140</ele>
        <time>2025-01-23T18:02:55Z</time>
      </trkpt>
      <trkpt lat="43.65793" lon="1.36298">
        <ele>140</ele>
        <time>2025-01-23T18:02:56Z</time>
      </trkpt>
      <trkpt lat="43.65793" lon="1.36295">
        <ele>139</ele>
        <time>2025-01-23T18:02:57Z</time>
      </trkpt>
      <trkpt lat="43.65793" lon="1.36292">
        <ele>139</ele>
        <time>2025-01-23T18:02:58Z</time>
      </trkpt>
      <trkpt lat="43.65793" lon="1.36289">
        <ele>139</ele>
        <time>2025-01-23T18:02:59Z</time>
      </trkpt>
      <trkpt lat="43.65793" lon="1.36286">
        <ele>139</ele>
        <time>2025-01-23T18:03:00Z</time>
      </trkpt>
      <trkpt lat="43.65793" lon="1.36283">
        <ele>139</ele>
        <time>2025-01-23T18:03:01Z</time>
      </trkpt>
      <trkpt lat="43.65793" lon="1.3628">
        <ele>139</ele>
        <time>2025-01-23T18:03:02Z</time>
      </trkpt>
      <trkpt lat="43.65793" lon="1.36277">
        <ele>139</ele>
        <time>2025-01-23T18:03:03Z</time>
      </trkpt>
      <trkpt lat="43.65792" lon="1.36274">
        <ele>139</ele>
        <time>2025-01-23T18:03:04Z</time>
      </trkpt>
      <trkpt lat="43.65792" lon="1.36271">
        <ele>139</ele>
        <time>2025-01-23T18:03:05Z</time>
      </trkpt>
      <trkpt lat="43.65792" lon="1.36267">
        <ele>139</ele>
        <time>2025-01-23T18:03:06Z</time>
      </trkpt>
      <trkpt lat="43.65792" lon="1.36264">
        <ele>139</ele>
        <time>2025-01-23T18:03:07Z</time>
      </trkpt>
      <trkpt lat="43.65792" lon="1.36261">
        <ele>138</ele>
        <time>2025-01-23T18:03:08Z</time>
      </trkpt>
      <trkpt lat="43.65792" lon="1.36258">
        <ele>138</ele>
        <time>2025-01-23T18:03:09Z</time>
      </trkpt>
      <trkpt lat="43.65792" lon="1.36255">
        <ele>138</ele>
        <time>2025-01-23T18:03:10Z</time>
      </trkpt>
      <trkpt lat="43.65792" lon="1.36251">
        <ele>138</ele>
        <time>2025-01-23T18:03:11Z</time>
      </trkpt>
      <trkpt lat="43.65792" lon="1.36248">
        <ele>138</ele>
        <time>2025-01-23T18:03:12Z</time>
      </trkpt>
      <trkpt lat="43.65792" lon="1.36244">
        <ele>138</ele>
        <time>2025-01-23T18:03:13Z</time>
      </trkpt>
      <trkpt lat="43.65792" lon="1.36241">
        <ele>138</ele>
        <time>2025-01-23T18:03:14Z</time>
      </trkpt>
      <trkpt lat="43.65792" lon="1.36238">
        <ele>138</ele>
        <time>2025-01-23T18:03:15Z</time>
      </trkpt>
      <trkpt lat="43.65792" lon="1.36235">
        <ele>138</ele>
        <time>2025-01-23T18:03:16Z</time>
      </trkpt>
      <trkpt lat="43.65792" lon="1.36232">
        <ele>138</ele>
        <time>2025-01-23T18:03:17Z</time>
      </trkpt>
      <trkpt lat="43.65792" lon="1.36228">
        <ele>137</ele>
        <time>2025-01-23T18:03:18Z</time>
      </trkpt>
      <trkpt lat="43.65792" lon="1.36225">
        <ele>137</ele>
        <time>2025-01-23T18:03:19Z</time>
      </trkpt>
      <trkpt lat="43.65792" lon="1.36222">
        <ele>137</ele>
        <time>2025-01-23T18:03:20Z</time>
      </trkpt>
      <trkpt lat="43.65792" lon="1.36218">
        <ele>137</ele>
        <time>2025-01-23T18:03:21Z</time>
      </trkpt>
      <trkpt lat="43.65792" lon="1.36215">
        <ele>137</ele>
        <time>2025-01-23T18:03:22Z</time>
      </trkpt>
      <trkpt lat="43.65792" lon="1.36211">
        <ele>137</ele>
        <time>2025-01-23T18:03:23Z</time>
      </trkpt>
      <trkpt lat="43.65792" lon="1.36204">
        <ele>137</ele>
        <time>2025-01-23T18:03:24Z</time>
      </trkpt>
      <trkpt lat="43.65792" lon="1.36204">
        <ele>137</ele>
        <time>2025-01-23T18:03:25Z</time>
      </trkpt>
      <trkpt lat="43.65792" lon="1.36201">
        <ele>137</ele>
        <time>2025-01-23T18:03:26Z</time>
      </trkpt>
      <trkpt lat="43.65792" lon="1.36197">
        <ele>137</ele>
        <time>2025-01-23T18:03:27Z</time>
      </trkpt>
      <trkpt lat="43.65792" lon="1.36194">
        <ele>137</ele>
        <time>2025-01-23T18:03:28Z</time>
      </trkpt>
      <trkpt lat="43.65791" lon="1.3619">
        <ele>137</ele>
        <time>2025-01-23T18:03:29Z</time>
      </trkpt>
      <trkpt lat="43.65791" lon="1.36187">
        <ele>137</ele>
        <time>2025-01-23T18:03:30Z</time>
      </trkpt>
      <trkpt lat="43.65791" lon="1.36184">
        <ele>136</ele>
        <time>2025-01-23T18:03:31Z</time>
      </trkpt>
      <trkpt lat="43.65791" lon="1.3618">
        <ele>136</ele>
        <time>2025-01-23T18:03:32Z</time>
      </trkpt>
      <trkpt lat="43.65791" lon="1.36177">
        <ele>136</ele>
        <time>2025-01-23T18:03:33Z</time>
      </trkpt>
      <trkpt lat="43.65791" lon="1.36173">
        <ele>136</ele>
        <time>2025-01-23T18:03:34Z</time>
      </trkpt>
      <trkpt lat="43.65791" lon="1.3617">
        <ele>136</ele>
        <time>2025-01-23T18:03:35Z</time>
      </trkpt>
      <trkpt lat="43.65791" lon="1.36167">
        <ele>136</ele>
        <time>2025-01-23T18:03:36Z</time>
      </trkpt>
      <trkpt lat="43.65791" lon="1.36163">
        <ele>136</ele>
        <time>2025-01-23T18:03:37Z</time>
      </trkpt>
      <trkpt lat="43.65791" lon="1.3616">
        <ele>136</ele>
        <time>2025-01-23T18:03:38Z</time>
      </trkpt>
      <trkpt lat="43.6579" lon="1.36157">
        <ele>136</ele>
        <time>2025-01-23T18:03:39Z</time>
      </trkpt>
      <trkpt lat="43.6579" lon="1.36154">
        <ele>136</ele>
        <time>2025-01-23T18:03:40Z</time>
      </trkpt>
      <trkpt lat="43.6579" lon="1.36151">
        <ele>136</ele>
        <time>2025-01-23T18:03:41Z</time>
      </trkpt>
      <trkpt lat="43.6579" lon="1.36147">
        <ele>136</ele>
        <time>2025-01-23T18:03:42Z</time>
      </trkpt>
      <trkpt lat="43.6579" lon="1.36144">
        <ele>136</ele>
        <time>2025-01-23T18:03:43Z</time>
      </trkpt>
      <trkpt lat="43.6579" lon="1.36141">
        <ele>136</ele>
        <time>2025-01-23T18:03:44Z</time>
      </trkpt>
      <trkpt lat="43.6579" lon="1.36138">
        <ele>136</ele>
        <time>2025-01-23T18:03:45Z</time>
      </trkpt>
      <trkpt lat="43.65791" lon="1.36135">
        <ele>136</ele>
        <time>2025-01-23T18:03:46Z</time>
      </trkpt>
      <trkpt lat="43.65791" lon="1.36131">
        <ele>136</ele>
        <time>2025-01-23T18:03:47Z</time>
      </trkpt>
      <trkpt lat="43.65792" lon="1.36129">
        <ele>136</ele>
        <time>2025-01-23T18:03:48Z</time>
      </trkpt>
      <trkpt lat="43.65792" lon="1.36129">
        <ele>136</ele>
        <time>2025-01-23T18:03:49Z</time>
      </trkpt>
      <trkpt lat="43.65802" lon="1.36113">
        <ele>134</ele>
        <time>2025-01-23T18:13:25Z</time>
      </trkpt>
      <trkpt lat="43.65802" lon="1.36113">
        <ele>134</ele>
        <time>2025-01-23T18:13:26Z</time>
      </trkpt>
      <trkpt lat="43.658" lon="1.36116">
        <ele>134</ele>
        <time>2025-01-23T18:13:27Z</time>
      </trkpt>
      <trkpt lat="43.65798" lon="1.36118">
        <ele>134</ele>
        <time>2025-01-23T18:13:28Z</time>
      </trkpt>
      <trkpt lat="43.65796" lon="1.36121">
        <ele>134</ele>
        <time>2025-01-23T18:13:29Z</time>
      </trkpt>
      <trkpt lat="43.65794" lon="1.36125">
        <ele>134</ele>
        <time>2025-01-23T18:13:30Z</time>
      </trkpt>
      <trkpt lat="43.65792" lon="1.36129">
        <ele>134</ele>
        <time>2025-01-23T18:13:31Z</time>
      </trkpt>
      <trkpt lat="43.6579" lon="1.36134">
        <ele>134</ele>
        <time>2025-01-23T18:13:32Z</time>
      </trkpt>
      <trkpt lat="43.65789" lon="1.36139">
        <ele>134</ele>
        <time>2025-01-23T18:13:33Z</time>
      </trkpt>
      <trkpt lat="43.65789" lon="1.36144">
        <ele>134</ele>
        <time>2025-01-23T18:13:34Z</time>
      </trkpt>
      <trkpt lat="43.6579" lon="1.3615">
        <ele>134</ele>
        <time>2025-01-23T18:13:35Z</time>
      </trkpt>
      <trkpt lat="43.6579" lon="1.36155">
        <ele>134</ele>
        <time>2025-01-23T18:13:36Z</time>
      </trkpt>
      <trkpt lat="43.65789" lon="1.36161">
        <ele>134</ele>
        <time>2025-01-23T18:13:37Z</time>
      </trkpt>
      <trkpt lat="43.6579" lon="1.36166">
        <ele>134</ele>
        <time>2025-01-23T18:13:38Z</time>
      </trkpt>
      <trkpt lat="43.6579" lon="1.36172">
        <ele>134</ele>
        <time>2025-01-23T18:13:39Z</time>
      </trkpt>
      <trkpt lat="43.6579" lon="1.36177">
        <ele>134</ele>
        <time>2025-01-23T18:13:40Z</time>
      </trkpt>
      <trkpt lat="43.65791" lon="1.36183">
        <ele>135</ele>
        <time>2025-01-23T18:13:41Z</time>
      </trkpt>
      <trkpt lat="43.65791" lon="1.36188">
        <ele>135</ele>
        <time>2025-01-23T18:13:42Z</time>
      </trkpt>
      <trkpt lat="43.65792" lon="1.36193">
        <ele>135</ele>
        <time>2025-01-23T18:13:43Z</time>
      </trkpt>
      <trkpt lat="43.65793" lon="1.36204">
        <ele>135</ele>
        <time>2025-01-23T18:13:44Z</time>
      </trkpt>
      <trkpt lat="43.65793" lon="1.36204">
        <ele>135</ele>
        <time>2025-01-23T18:13:45Z</time>
      </trkpt>
      <trkpt lat="43.65794" lon="1.36209">
        <ele>135</ele>
        <time>2025-01-23T18:13:46Z</time>
      </trkpt>
      <trkpt lat="43.65794" lon="1.36214">
        <ele>135</ele>
        <time>2025-01-23T18:13:47Z</time>
      </trkpt>
      <trkpt lat="43.65795" lon="1.3622">
        <ele>135</ele>
        <time>2025-01-23T18:13:48Z</time>
      </trkpt>
      <trkpt lat="43.65795" lon="1.36225">
        <ele>135</ele>
        <time>2025-01-23T18:13:49Z</time>
      </trkpt>
      <trkpt lat="43.65795" lon="1.3623">
        <ele>136</ele>
        <time>2025-01-23T18:13:50Z</time>
      </trkpt>
      <trkpt lat="43.65795" lon="1.36235">
        <ele>136</ele>
        <time>2025-01-23T18:13:51Z</time>
      </trkpt>
      <trkpt lat="43.65794" lon="1.36241">
        <ele>136</ele>
        <time>2025-01-23T18:13:52Z</time>
      </trkpt>
      <trkpt lat="43.65794" lon="1.36245">
        <ele>137</ele>
        <time>2025-01-23T18:13:53Z</time>
      </trkpt>
      <trkpt lat="43.65794" lon="1.36251">
        <ele>137</ele>
        <time>2025-01-23T18:13:54Z</time>
      </trkpt>
      <trkpt lat="43.65794" lon="1.36255">
        <ele>137</ele>
        <time>2025-01-23T18:13:55Z</time>
      </trkpt>
      <trkpt lat="43.65794" lon="1.36261">
        <ele>138</ele>
        <time>2025-01-23T18:13:56Z</time>
      </trkpt>
      <trkpt lat="43.65795" lon="1.36266">
        <ele>138</ele>
        <time>2025-01-23T18:13:57Z</time>
      </trkpt>
      <trkpt lat="43.65795" lon="1.36271">
        <ele>138</ele>
        <time>2025-01-23T18:13:58Z</time>
      </trkpt>
      <trkpt lat="43.65795" lon="1.36276">
        <ele>139</ele>
        <time>2025-01-23T18:13:59Z</time>
      </trkpt>
      <trkpt lat="43.65795" lon="1.36281">
        <ele>139</ele>
        <time>2025-01-23T18:14:00Z</time>
      </trkpt>
      <trkpt lat="43.65795" lon="1.36285">
        <ele>139</ele>
        <time>2025-01-23T18:14:01Z</time>
      </trkpt>
      <trkpt lat="43.65796" lon="1.3629">
        <ele>139</ele>
        <time>2025-01-23T18:14:02Z</time>
      </trkpt>
      <trkpt lat="43.65796" lon="1.36295">
        <ele>139</ele>
        <time>2025-01-23T18:14:03Z</time>
      </trkpt>
      <trkpt lat="43.65795" lon="1.36299">
        <ele>139</ele>
        <time>2025-01-23T18:14:04Z</time>
      </trkpt>
      <trkpt lat="43.65795" lon="1.36303">
        <ele>139</ele>
        <time>2025-01-23T18:14:05Z</time>
      </trkpt>
      <trkpt lat="43.65796" lon="1.36308">
        <ele>139</ele>
        <time>2025-01-23T18:14:06Z</time>
      </trkpt>
      <trkpt lat="43.65797" lon="1.36312">
        <ele>139</ele>
        <time>2025-01-23T18:14:07Z</time>
      </trkpt>
      <trkpt lat="43.65798" lon="1.36317">
        <ele>139</ele>
        <time>2025-01-23T18:14:08Z</time>
      </trkpt>
      <trkpt lat="43.65798" lon="1.36321">
        <ele>139</ele>
        <time>2025-01-23T18:14:09Z</time>
      </trkpt>
      <trkpt lat="43.65799" lon="1.36326">
        <ele>139</ele>
        <time>2025-01-23T18:14:10Z</time>
      </trkpt>
      <trkpt lat="43.658" lon="1.3633">
        <ele>139</ele>
        <time>2025-01-23T18:14:11Z</time>
      </trkpt>
      <trkpt lat="43.65801" lon="1.36335">
        <ele>139</ele>
        <time>2025-01-23T18:14:12Z</time>
      </trkpt>
      <trkpt lat="43.65803" lon="1.36339">
        <ele>140</ele>
        <time>2025-01-23T18:14:13Z</time>
      </trkpt>
      <trkpt lat="43.65804" lon="1.36344">
        <ele>140</ele>
        <time>2025-01-23T18:14:14Z</time>
      </trkpt>
      <trkpt lat="43.65806" lon="1.36348">
        <ele>140</ele>
        <time>2025-01-23T18:14:15Z</time>
      </trkpt>
      <trkpt lat="43.65807" lon="1.36353">
        <ele>141</ele>
        <time>2025-01-23T18:14:16Z</time>
      </trkpt>
      <trkpt lat="43.65809" lon="1.36358">
        <ele>141</ele>
        <time>2025-01-23T18:14:17Z</time>
      </trkpt>
      <trkpt lat="43.6581" lon="1.36362">
        <ele>141</ele>
        <time>2025-01-23T18:14:18Z</time>
      </trkpt>
      <trkpt lat="43.65811" lon="1.36367">
        <ele>141</ele>
        <time>2025-01-23T18:14:19Z</time>
      </trkpt>
      <trkpt lat="43.65813" lon="1.36371">
        <ele>142</ele>
        <time>2025-01-23T18:14:20Z</time>
      </trkpt>
      <trkpt lat="43.65814" lon="1.36376">
        <ele>142</ele>
        <time>2025-01-23T18:14:21Z</time>
      </trkpt>
      <trkpt lat="43.65815" lon="1.3638">
        <ele>142</ele>
        <time>2025-01-23T18:14:22Z</time>
      </trkpt>
      <trkpt lat="43.65817" lon="1.36385">
        <ele>142</ele>
        <time>2025-01-23T18:14:23Z</time>
      </trkpt>
      <trkpt lat="43.65818" lon="1.3639">
        <ele>142</ele>
        <time>2025-01-23T18:14:24Z</time>
      </trkpt>
      <trkpt lat="43.6582" lon="1.36395">
        <ele>142</ele>
        <time>2025-01-23T18:14:25Z</time>
      </trkpt>
      <trkpt lat="43.65822" lon="1.364">
        <ele>142</ele>
        <time>2025-01-23T18:14:26Z</time>
      </trkpt>
      <trkpt lat="43.65824" lon="1.36405">
        <ele>142</ele>
        <time>2025-01-23T18:14:27Z</time>
      </trkpt>
      <trkpt lat="43.65825" lon="1.3641">
        <ele>142</ele>
        <time>2025-01-23T18:14:28Z</time>
      </trkpt>
      <trkpt lat="43.65827" lon="1.36414">
        <ele>141</ele>
        <time>2025-01-23T18:14:29Z</time>
      </trkpt>
      <trkpt lat="43.65828" lon="1.36419">
        <ele>141</ele>
        <time>2025-01-23T18:14:30Z</time>
      </trkpt>
      <trkpt lat="43.65829" lon="1.36423">
        <ele>141</ele>
        <time>2025-01-23T18:14:31Z</time>
      </trkpt>
      <trkpt lat="43.65831" lon="1.36427">
        <ele>141</ele>
        <time>2025-01-23T18:14:32Z</time>
      </trkpt>
      <trkpt lat="43.65833" lon="1.36431">
        <ele>141</ele>
        <time>2025-01-23T18:14:33Z</time>
      </trkpt>
      <trkpt lat="43.65834" lon="1.36436">
        <ele>140</ele>
        <time>2025-01-23T18:14:34Z</time>
      </trkpt>
      <trkpt lat="43.65835" lon="1.3644">
        <ele>139</ele>
        <time>2025-01-23T18:14:35Z</time>
      </trkpt>
      <trkpt lat="43.65834" lon="1.36443">
        <ele>139</ele>
        <time>2025-01-23T18:14:36Z</time>
      </trkpt>
      <trkpt lat="43.65832" lon="1.36447">
        <ele>139</ele>
        <time>2025-01-23T18:14:37Z</time>
      </trkpt>
      <trkpt lat="43.65829" lon="1.3645">
        <ele>138</ele>
        <time>2025-01-23T18:14:38Z</time>
      </trkpt>
      <trkpt lat="43.65825" lon="1.36451">
        <ele>137</ele>
        <time>2025-01-23T18:14:39Z</time>
      </trkpt>
      <trkpt lat="43.65822" lon="1.36453">
        <ele>137</ele>
        <time>2025-01-23T18:14:40Z</time>
      </trkpt>
      <trkpt lat="43.65818" lon="1.36454">
        <ele>137</ele>
        <time>2025-01-23T18:14:41Z</time>
      </trkpt>
      <trkpt lat="43.65815" lon="1.36456">
        <ele>137</ele>
        <time>2025-01-23T18:14:42Z</time>
      </trkpt>
      <trkpt lat="43.65811" lon="1.36456">
        <ele>137</ele>
        <time>2025-01-23T18:14:43Z</time>
      </trkpt>
      <trkpt lat="43.65807" lon="1.36457">
        <ele>138</ele>
        <time>2025-01-23T18:14:44Z</time>
      </trkpt>
      <trkpt lat="43.65803" lon="1.36457">
        <ele>138</ele>
        <time>2025-01-23T18:14:45Z</time>
      </trkpt>
      <trkpt lat="43.658" lon="1.36455">
        <ele>138</ele>
        <time>2025-01-23T18:14:46Z</time>
      </trkpt>
      <trkpt lat="43.65798" lon="1.36451">
        <ele>139</ele>
        <time>2025-01-23T18:14:47Z</time>
      </trkpt>
      <trkpt lat="43.65798" lon="1.36445">
        <ele>139</ele>
        <time>2025-01-23T18:14:48Z</time>
      </trkpt>
      <trkpt lat="43.65799" lon="1.3644">
        <ele>139</ele>
        <time>2025-01-23T18:14:49Z</time>
      </trkpt>
      <trkpt lat="43.65802" lon="1.36435">
        <ele>139</ele>
        <time>2025-01-23T18:14:50Z</time>
      </trkpt>
      <trkpt lat="43.65805" lon="1.36431">
        <ele>139</ele>
        <time>2025-01-23T18:14:51Z</time>
      </trkpt>
      <trkpt lat="43.65808" lon="1.36428">
        <ele>139</ele>
        <time>2025-01-23T18:14:52Z</time>
      </trkpt>
      <trkpt lat="43.65811" lon="1.36426">
        <ele>139</ele>
        <time>2025-01-23T18:14:53Z</time>
      </trkpt>
      <trkpt lat="43.65814" lon="1.36424">
        <ele>139</ele>
        <time>2025-01-23T18:14:54Z</time>
      </trkpt>
      <trkpt lat="43.65818" lon="1.36422">
        <ele>139</ele>
        <time>2025-01-23T18:14:55Z</time>
      </trkpt>
      <trkpt lat="43.65821" lon="1.36419">
        <ele>139</ele>
        <time>2025-01-23T18:14:56Z</time>
      </trkpt>
      <trkpt lat="43.65823" lon="1.36416">
        <ele>140</ele>
        <time>2025-01-23T18:14:57Z</time>
      </trkpt>
      <trkpt lat="43.65824" lon="1.36413">
        <ele>140</ele>
        <time>2025-01-23T18:14:58Z</time>
      </trkpt>
      <trkpt lat="43.65824" lon="1.36411">
        <ele>140</ele>
        <time>2025-01-23T18:14:59Z</time>
      </trkpt>
      <trkpt lat="43.65823" lon="1.36409">
        <ele>140</ele>
        <time>2025-01-23T18:15:00Z</time>
      </trkpt>
      <trkpt lat="43.65823" lon="1.36407">
        <ele>140</ele>
        <time>2025-01-23T18:15:01Z</time>
      </trkpt>
      <trkpt lat="43.65822" lon="1.36405">
        <ele>140</ele>
        <time>2025-01-23T18:15:02Z</time>
      </trkpt>
      <trkpt lat="43.6582" lon="1.36396">
        <ele>140</ele>
        <time>2025-01-23T18:15:03Z</time>
      </trkpt>
      <trkpt lat="43.6582" lon="1.36396">
        <ele>140</ele>
        <time>2025-01-23T18:15:04Z</time>
      </trkpt>
      <trkpt lat="43.6582" lon="1.36393">
        <ele>140</ele>
        <time>2025-01-23T18:15:05Z</time>
      </trkpt>
      <trkpt lat="43.6582" lon="1.36393">
        <ele>140</ele>
        <time>2025-01-23T18:15:06Z</time>
      </trkpt>
      <trkpt lat="43.65819" lon="1.3639">
        <ele>140</ele>
        <time>2025-01-23T18:15:07Z</time>
      </trkpt>
      <trkpt lat="43.65819" lon="1.3639">
        <ele>140</ele>
        <time>2025-01-23T18:15:08Z</time>
      </trkpt>
      <trkpt lat="43.65818" lon="1.36387">
        <ele>140</ele>
        <time>2025-01-23T18:15:09Z</time>
      </trkpt>
      <trkpt lat="43.65818" lon="1.36387">
        <ele>140</ele>
        <time>2025-01-23T18:15:10Z</time>
      </trkpt>
      <trkpt lat="43.65817" lon="1.36384">
        <ele>140</ele>
        <time>2025-01-23T18:15:11Z</time>
      </trkpt>
      <trkpt lat="43.65817" lon="1.36384">
        <ele>140</ele>
        <time>2025-01-23T18:15:12Z</time>
      </trkpt>
      <trkpt lat="43.65816" lon="1.36381">
        <ele>140</ele>
        <time>2025-01-23T18:15:13Z</time>
      </trkpt>
      <trkpt lat="43.65816" lon="1.36381">
        <ele>140</ele>
        <time>2025-01-23T18:15:14Z</time>
      </trkpt>
      <trkpt lat="43.65815" lon="1.36378">
        <ele>141</ele>
        <time>2025-01-23T18:15:15Z</time>
      </trkpt>
      <trkpt lat="43.65815" lon="1.36378">
        <ele>141</ele>
        <time>2025-01-23T18:15:16Z</time>
      </trkpt>
      <trkpt lat="43.65814" lon="1.36374">
        <ele>141</ele>
        <time>2025-01-23T18:15:17Z</time>
      </trkpt>
      <trkpt lat="43.65814" lon="1.36374">
        <ele>141</ele>
        <time>2025-01-23T18:15:18Z</time>
      </trkpt>
      <trkpt lat="43.65813" lon="1.3637">
        <ele>141</ele>
        <time>2025-01-23T18:15:19Z</time>
      </trkpt>
      <trkpt lat="43.65813" lon="1.3637">
        <ele>141</ele>
        <time>2025-01-23T18:15:20Z</time>
      </trkpt>
      <trkpt lat="43.65812" lon="1.36367">
        <ele>141</ele>
        <time>2025-01-23T18:15:21Z</time>
      </trkpt>
      <trkpt lat="43.65812" lon="1.36367">
        <ele>141</ele>
        <time>2025-01-23T18:15:22Z</time>
      </trkpt>
      <trkpt lat="43.65811" lon="1.36364">
        <ele>141</ele>
        <time>2025-01-23T18:15:23Z</time>
      </trkpt>
      <trkpt lat="43.65811" lon="1.36364">
        <ele>141</ele>
        <time>2025-01-23T18:15:24Z</time>
      </trkpt>
      <trkpt lat="43.6581" lon="1.3636">
        <ele>141</ele>
        <time>2025-01-23T18:15:25Z</time>
      </trkpt>
      <trkpt lat="43.6581" lon="1.3636">
        <ele>141</ele>
        <time>2025-01-23T18:15:26Z</time>
      </trkpt>
      <trkpt lat="43.65809" lon="1.36357">
        <ele>141</ele>
        <time>2025-01-23T18:15:27Z</time>
      </trkpt>
      <trkpt lat="43.65809" lon="1.36357">
        <ele>141</ele>
        <time>2025-01-23T18:15:28Z</time>
      </trkpt>
      <trkpt lat="43.65808" lon="1.36353">
        <ele>141</ele>
        <time>2025-01-23T18:15:29Z</time>
      </trkpt>
      <trkpt lat="43.65808" lon="1.36353">
        <ele>141</ele>
        <time>2025-01-23T18:15:30Z</time>
      </trkpt>
      <trkpt lat="43.65806" lon="1.36349">
        <ele>141</ele>
        <time>2025-01-23T18:15:31Z</time>
      </trkpt>
      <trkpt lat="43.65806" lon="1.36349">
        <ele>141</ele>
        <time>2025-01-23T18:15:32Z</time>
      </trkpt>
      <trkpt lat="43.65805" lon="1.36345">
        <ele>141</ele>
        <time>2025-01-23T18:15:33Z</time>
      </trkpt>
      <trkpt lat="43.65804" lon="1.36343">
        <ele>140</ele>
        <time>2025-01-23T18:15:34Z</time>
      </trkpt>
      <trkpt lat="43.65802" lon="1.3634">
        <ele>140</ele>
        <time>2025-01-23T18:15:35Z</time>
      </trkpt>
      <trkpt lat="43.65802" lon="1.36337">
        <ele>140</ele>
        <time>2025-01-23T18:15:36Z</time>
      </trkpt>
      <trkpt lat="43.65801" lon="1.36334">
        <ele>140</ele>
        <time>2025-01-23T18:15:37Z</time>
      </trkpt>
      <trkpt lat="43.658" lon="1.36328">
        <ele>140</ele>
        <time>2025-01-23T18:15:38Z</time>
      </trkpt>
      <trkpt lat="43.658" lon="1.36328">
        <ele>140</ele>
        <time>2025-01-23T18:15:39Z</time>
      </trkpt>
      <trkpt lat="43.65799" lon="1.36325">
        <ele>140</ele>
        <time>2025-01-23T18:15:40Z</time>
      </trkpt>
      <trkpt lat="43.65797" lon="1.36322">
        <ele>140</ele>
        <time>2025-01-23T18:15:41Z</time>
      </trkpt>
      <trkpt lat="43.65796" lon="1.36319">
        <ele>139</ele>
        <time>2025-01-23T18:15:42Z</time>
      </trkpt>
      <trkpt lat="43.65796" lon="1.36316">
        <ele>139</ele>
        <time>2025-01-23T18:15:43Z</time>
      </trkpt>
      <trkpt lat="43.65795" lon="1.36313">
        <ele>139</ele>
        <time>2025-01-23T18:15:44Z</time>
      </trkpt>
      <trkpt lat="43.65794" lon="1.36311">
        <ele>139</ele>
        <time>2025-01-23T18:15:45Z</time>
      </trkpt>
      <trkpt lat="43.65793" lon="1.36308">
        <ele>139</ele>
        <time>2025-01-23T18:15:46Z</time>
      </trkpt>
      <trkpt lat="43.65793" lon="1.36306">
        <ele>139</ele>
        <time>2025-01-23T18:15:47Z</time>
      </trkpt>
      <trkpt lat="43.65792" lon="1.36303">
        <ele>139</ele>
        <time>2025-01-23T18:15:48Z</time>
      </trkpt>
      <trkpt lat="43.65792" lon="1.363">
        <ele>139</ele>
        <time>2025-01-23T18:15:49Z</time>
      </trkpt>
      <trkpt lat="43.65792" lon="1.36297">
        <ele>139</ele>
        <time>2025-01-23T18:15:50Z</time>
      </trkpt>
      <trkpt lat="43.65791" lon="1.36294">
        <ele>139</ele>
        <time>2025-01-23T18:15:51Z</time>
      </trkpt>
      <trkpt lat="43.65791" lon="1.36291">
        <ele>139</ele>
        <time>2025-01-23T18:15:52Z</time>
      </trkpt>
      <trkpt lat="43.65791" lon="1.36288">
        <ele>139</ele>
        <time>2025-01-23T18:15:53Z</time>
      </trkpt>
      <trkpt lat="43.65791" lon="1.36285">
        <ele>139</ele>
        <time>2025-01-23T18:15:54Z</time>
      </trkpt>
      <trkpt lat="43.65791" lon="1.36282">
        <ele>139</ele>
        <time>2025-01-23T18:15:55Z</time>
      </trkpt>
      <trkpt lat="43.65791" lon="1.36279">
        <ele>139</ele>
        <time>2025-01-23T18:15:56Z</time>
      </trkpt>
      <trkpt lat="43.6579" lon="1.36276">
        <ele>139</ele>
        <time>2025-01-23T18:15:57Z</time>
      </trkpt>
      <trkpt lat="43.6579" lon="1.36272">
        <ele>139</ele>
        <time>2025-01-23T18:15:58Z</time>
      </trkpt>
      <trkpt lat="43.6579" lon="1.36269">
        <ele>139</ele>
        <time>2025-01-23T18:15:59Z</time>
      </trkpt>
      <trkpt lat="43.6579" lon="1.36266">
        <ele>139</ele>
        <time>2025-01-23T18:16:00Z</time>
      </trkpt>
      <trkpt lat="43.6579" lon="1.36263">
        <ele>139</ele>
        <time>2025-01-23T18:16:01Z</time>
      </trkpt>
      <trkpt lat="43.6579" lon="1.3626">
        <ele>139</ele>
        <time>2025-01-23T18:16:02Z</time>
      </trkpt>
      <trkpt lat="43.65791" lon="1.36257">
        <ele>138</ele>
        <time>2025-01-23T18:16:03Z</time>
      </trkpt>
      <trkpt lat="43.65791" lon="1.36255">
        <ele>138</ele>
        <time>2025-01-23T18:16:04Z</time>
      </trkpt>
      <trkpt lat="43.65791" lon="1.36251">
        <ele>138</ele>
        <time>2025-01-23T18:16:05Z</time>
      </trkpt>
      <trkpt lat="43.65791" lon="1.36248">
        <ele>138</ele>
        <time>2025-01-23T18:16:06Z</time>
      </trkpt>
      <trkpt lat="43.65791" lon="1.36245">
        <ele>138</ele>
        <time>2025-01-23T18:16:07Z</time>
      </trkpt>
      <trkpt lat="43.65791" lon="1.36242">
        <ele>138</ele>
        <time>2025-01-23T18:16:08Z</time>
      </trkpt>
      <trkpt lat="43.6579" lon="1.36239">
        <ele>138</ele>
        <time>2025-01-23T18:16:09Z</time>
      </trkpt>
      <trkpt lat="43.6579" lon="1.36236">
        <ele>138</ele>
        <time>2025-01-23T18:16:10Z</time>
      </trkpt>
      <trkpt lat="43.6579" lon="1.36233">
        <ele>137</ele>
        <time>2025-01-23T18:16:11Z</time>
      </trkpt>
      <trkpt lat="43.6579" lon="1.3623">
        <ele>137</ele>
        <time>2025-01-23T18:16:12Z</time>
      </trkpt>
      <trkpt lat="43.6579" lon="1.36228">
        <ele>137</ele>
        <time>2025-01-23T18:16:13Z</time>
      </trkpt>
      <trkpt lat="43.6579" lon="1.36225">
        <ele>137</ele>
        <time>2025-01-23T18:16:14Z</time>
      </trkpt>
      <trkpt lat="43.6579" lon="1.36221">
        <ele>137</ele>
        <time>2025-01-23T18:16:15Z</time>
      </trkpt>
      <trkpt lat="43.65789" lon="1.36216">
        <ele>137</ele>
        <time>2025-01-23T18:16:16Z</time>
      </trkpt>
      <trkpt lat="43.65789" lon="1.36216">
        <ele>136</ele>
        <time>2025-01-23T18:16:17Z</time>
      </trkpt>
      <trkpt lat="43.65789" lon="1.36212">
        <ele>136</ele>
        <time>2025-01-23T18:16:18Z</time>
      </trkpt>
      <trkpt lat="43.65789" lon="1.36209">
        <ele>136</ele>
        <time>2025-01-23T18:16:19Z</time>
      </trkpt>
      <trkpt lat="43.65789" lon="1.36206">
        <ele>135</ele>
        <time>2025-01-23T18:16:20Z</time>
      </trkpt>
      <trkpt lat="43.65789" lon="1.36203">
        <ele>136</ele>
        <time>2025-01-23T18:16:21Z</time>
      </trkpt>
      <trkpt lat="43.6579" lon="1.362">
        <ele>136</ele>
        <time>2025-01-23T18:16:22Z</time>
      </trkpt>
      <trkpt lat="43.6579" lon="1.36196">
        <ele>136</ele>
        <time>2025-01-23T18:16:23Z</time>
      </trkpt>
      <trkpt lat="43.65789" lon="1.36193">
        <ele>136</ele>
        <time>2025-01-23T18:16:24Z</time>
      </trkpt>
      <trkpt lat="43.65789" lon="1.3619">
        <ele>136</ele>
        <time>2025-01-23T18:16:25Z</time>
      </trkpt>
      <trkpt lat="43.65789" lon="1.36187">
        <ele>135</ele>
        <time>2025-01-23T18:16:26Z</time>
      </trkpt>
      <trkpt lat="43.65789" lon="1.36185">
        <ele>135</ele>
        <time>2025-01-23T18:16:27Z</time>
      </trkpt>
      <trkpt lat="43.65789" lon="1.36182">
        <ele>135</ele>
        <time>2025-01-23T18:16:28Z</time>
      </trkpt>
      <trkpt lat="43.65789" lon="1.36179">
        <ele>135</ele>
        <time>2025-01-23T18:16:29Z</time>
      </trkpt>
      <trkpt lat="43.65789" lon="1.36176">
        <ele>135</ele>
        <time>2025-01-23T18:16:30Z</time>
      </trkpt>
      <trkpt lat="43.65789" lon="1.36172">
        <ele>136</ele>
        <time>2025-01-23T18:16:31Z</time>
      </trkpt>
      <trkpt lat="43.65789" lon="1.36169">
        <ele>136</ele>
        <time>2025-01-23T18:16:32Z</time>
      </trkpt>
      <trkpt lat="43.65789" lon="1.36166">
        <ele>135</ele>
        <time>2025-01-23T18:16:33Z</time>
      </trkpt>
      <trkpt lat="43.65789" lon="1.36164">
        <ele>135</ele>
        <time>2025-01-23T18:16:34Z</time>
      </trkpt>
      <trkpt lat="43.65789" lon="1.36161">
        <ele>135</ele>
        <time>2025-01-23T18:16:35Z</time>
      </trkpt>
      <trkpt lat="43.65789" lon="1.36158">
        <ele>135</ele>
        <time>2025-01-23T18:16:36Z</time>
      </trkpt>
      <trkpt lat="43.65789" lon="1.36155">
        <ele>135</ele>
        <time>2025-01-23T18:16:37Z</time>
      </trkpt>
      <trkpt lat="43.65788" lon="1.36152">
        <ele>135</ele>
        <time>2025-01-23T18:16:38Z</time>
      </trkpt>
      <trkpt lat="43.65788" lon="1.36148">
        <ele>135</ele>
        <time>2025-01-23T18:16:39Z</time>
      </trkpt>
      <trkpt lat="43.65788" lon="1.36145">
        <ele>135</ele>
        <time>2025-01-23T18:16:40Z</time>
      </trkpt>
      <trkpt lat="43.65788" lon="1.36141">
        <ele>135</ele>
        <time>2025-01-23T18:16:41Z</time>
      </trkpt>
      <trkpt lat="43.65788" lon="1.36138">
        <ele>134</ele>
        <time>2025-01-23T18:16:42Z</time>
      </trkpt>
      <trkpt lat="43.65789" lon="1.36132">
        <ele>134</ele>
        <time>2025-01-23T18:16:43Z</time>
      </trkpt>
      <trkpt lat="43.65789" lon="1.36132">
        <ele>134</ele>
        <time>2025-01-23T18:16:44Z</time>
      </trkpt>
      <trkpt lat="43.6579" lon="1.36129">
        <ele>134</ele>
        <time>2025-01-23T18:16:45Z</time>
      </trkpt>
      <trkpt lat="43.65791" lon="1.36126">
        <ele>134</ele>
        <time>2025-01-23T18:16:46Z</time>
      </trkpt>
      <trkpt lat="43.65792" lon="1.36124">
        <ele>134</ele>
        <time>2025-01-23T18:16:47Z</time>
      </trkpt>
      <trkpt lat="43.65793" lon="1.36122">
        <ele>134</ele>
        <time>2025-01-23T18:16:48Z</time>
      </trkpt>
      <trkpt lat="43.65793" lon="1.36122">
        <ele>134</ele>
        <time>2025-01-23T18:16:49Z</time>
      </trkpt>
      <trkpt lat="43.65795" lon="1.36118">
        <ele>134</ele>
        <time>2025-01-23T18:16:50Z</time>
      </trkpt>
      <trkpt lat="43.65795" lon="1.36118">
        <ele>134</ele>
        <time>2025-01-23T18:16:51Z</time>
      </trkpt>
      <trkpt lat="43.65795" lon="1.36118">
        <ele>134</ele>
        <time>2025-01-23T18:16:52Z</time>
      </trkpt>
      <trkpt lat="43.65794" lon="1.36123">
        <ele>134</ele>
        <time>2025-01-23T18:16:53Z</time>
      </trkpt>
      <trkpt lat="43.65793" lon="1.36126">
        <ele>134</ele>
        <time>2025-01-23T18:16:54Z</time>
      </trkpt>
      <trkpt lat="43.65792" lon="1.3613">
        <ele>134</ele>
        <time>2025-01-23T18:16:55Z</time>
      </trkpt>
      <trkpt lat="43.65791" lon="1.36135">
        <ele>134</ele>
        <time>2025-01-23T18:16:56Z</time>
      </trkpt>
      <trkpt lat="43.6579" lon="1.3614">
        <ele>134</ele>
        <time>2025-01-23T18:16:57Z</time>
      </trkpt>
      <trkpt lat="43.65789" lon="1.36145">
        <ele>134</ele>
        <time>2025-01-23T18:16:58Z</time>
      </trkpt>
      <trkpt lat="43.65789" lon="1.3615">
        <ele>135</ele>
        <time>2025-01-23T18:16:59Z</time>
      </trkpt>
      <trkpt lat="43.6579" lon="1.36155">
        <ele>134</ele>
        <time>2025-01-23T18:17:00Z</time>
      </trkpt>
      <trkpt lat="43.6579" lon="1.3616">
        <ele>134</ele>
        <time>2025-01-23T18:17:01Z</time>
      </trkpt>
      <trkpt lat="43.6579" lon="1.36165">
        <ele>135</ele>
        <time>2025-01-23T18:17:02Z</time>
      </trkpt>
      <trkpt lat="43.65791" lon="1.3617">
        <ele>135</ele>
        <time>2025-01-23T18:17:03Z</time>
      </trkpt>
      <trkpt lat="43.65792" lon="1.36175">
        <ele>135</ele>
        <time>2025-01-23T18:17:04Z</time>
      </trkpt>
      <trkpt lat="43.65792" lon="1.3618">
        <ele>135</ele>
        <time>2025-01-23T18:17:05Z</time>
      </trkpt>
      <trkpt lat="43.65792" lon="1.36185">
        <ele>135</ele>
        <time>2025-01-23T18:17:06Z</time>
      </trkpt>
      <trkpt lat="43.65792" lon="1.3619">
        <ele>136</ele>
        <time>2025-01-23T18:17:07Z</time>
      </trkpt>
      <trkpt lat="43.65793" lon="1.36195">
        <ele>136</ele>
        <time>2025-01-23T18:17:08Z</time>
      </trkpt>
      <trkpt lat="43.65793" lon="1.362">
        <ele>136</ele>
        <time>2025-01-23T18:17:09Z</time>
      </trkpt>
      <trkpt lat="43.65793" lon="1.36206">
        <ele>136</ele>
        <time>2025-01-23T18:17:10Z</time>
      </trkpt>
      <trkpt lat="43.65794" lon="1.36211">
        <ele>136</ele>
        <time>2025-01-23T18:17:11Z</time>
      </trkpt>
      <trkpt lat="43.65794" lon="1.36216">
        <ele>136</ele>
        <time>2025-01-23T18:17:12Z</time>
      </trkpt>
      <trkpt lat="43.65794" lon="1.36221">
        <ele>136</ele>
        <time>2025-01-23T18:17:13Z</time>
      </trkpt>
      <trkpt lat="43.65795" lon="1.36227">
        <ele>137</ele>
        <time>2025-01-23T18:17:14Z</time>
      </trkpt>
      <trkpt lat="43.65795" lon="1.36232">
        <ele>137</ele>
        <time>2025-01-23T18:17:15Z</time>
      </trkpt>
      <trkpt lat="43.65795" lon="1.36237">
        <ele>137</ele>
        <time>2025-01-23T18:17:16Z</time>
      </trkpt>
      <trkpt lat="43.65795" lon="1.36243">
        <ele>137</ele>
        <time>2025-01-23T18:17:17Z</time>
      </trkpt>
      <trkpt lat="43.65795" lon="1.36248">
        <ele>137</ele>
        <time>2025-01-23T18:17:18Z</time>
      </trkpt>
      <trkpt lat="43.65795" lon="1.36253">
        <ele>138</ele>
        <time>2025-01-23T18:17:19Z</time>
      </trkpt>
      <trkpt lat="43.65795" lon="1.36259">
        <ele>138</ele>
        <time>2025-01-23T18:17:20Z</time>
      </trkpt>
      <trkpt lat="43.65795" lon="1.36264">
        <ele>138</ele>
        <time>2025-01-23T18:17:21Z</time>
      </trkpt>
      <trkpt lat="43.65795" lon="1.3627">
        <ele>138</ele>
        <time>2025-01-23T18:17:22Z</time>
      </trkpt>
      <trkpt lat="43.65795" lon="1.36275">
        <ele>139</ele>
        <time>2025-01-23T18:17:23Z</time>
      </trkpt>
      <trkpt lat="43.65795" lon="1.36281">
        <ele>139</ele>
        <time>2025-01-23T18:17:24Z</time>
      </trkpt>
      <trkpt lat="43.65795" lon="1.36286">
        <ele>139</ele>
        <time>2025-01-23T18:17:25Z</time>
      </trkpt>
      <trkpt lat="43.65794" lon="1.36291">
        <ele>139</ele>
        <time>2025-01-23T18:17:26Z</time>
      </trkpt>
      <trkpt lat="43.65794" lon="1.36296">
        <ele>139</ele>
        <time>2025-01-23T18:17:27Z</time>
      </trkpt>
      <trkpt lat="43.65794" lon="1.36301">
        <ele>139</ele>
        <time>2025-01-23T18:17:28Z</time>
      </trkpt>
      <trkpt lat="43.65795" lon="1.36306">
        <ele>139</ele>
        <time>2025-01-23T18:17:29Z</time>
      </trkpt>
      <trkpt lat="43.65796" lon="1.36312">
        <ele>139</ele>
        <time>2025-01-23T18:17:30Z</time>
      </trkpt>
      <trkpt lat="43.65797" lon="1.36317">
        <ele>139</ele>
        <time>2025-01-23T18:17:31Z</time>
      </trkpt>
      <trkpt lat="43.658" lon="1.36327">
        <ele>139</ele>
        <time>2025-01-23T18:17:32Z</time>
      </trkpt>
      <trkpt lat="43.658" lon="1.36327">
        <ele>140</ele>
        <time>2025-01-23T18:17:33Z</time>
      </trkpt>
      <trkpt lat="43.65802" lon="1.36331">
        <ele>140</ele>
        <time>2025-01-23T18:17:34Z</time>
      </trkpt>
      <trkpt lat="43.65804" lon="1.36336">
        <ele>140</ele>
        <time>2025-01-23T18:17:35Z</time>
      </trkpt>
      <trkpt lat="43.65805" lon="1.36341">
        <ele>140</ele>
        <time>2025-01-23T18:17:36Z</time>
      </trkpt>
      <trkpt lat="43.65807" lon="1.36345">
        <ele>141</ele>
        <time>2025-01-23T18:17:37Z</time>
      </trkpt>
      <trkpt lat="43.65808" lon="1.3635">
        <ele>141</ele>
        <time>2025-01-23T18:17:38Z</time>
      </trkpt>
      <trkpt lat="43.65809" lon="1.36352">
        <ele>141</ele>
        <time>2025-01-23T18:17:39Z</time>
      </trkpt>
      <trkpt lat="43.65809" lon="1.36355">
        <ele>141</ele>
        <time>2025-01-23T18:17:40Z</time>
      </trkpt>
      <trkpt lat="43.6581" lon="1.36357">
        <ele>141</ele>
        <time>2025-01-23T18:17:41Z</time>
      </trkpt>
      <trkpt lat="43.65812" lon="1.36366">
        <ele>141</ele>
        <time>2025-01-23T18:17:42Z</time>
      </trkpt>
      <trkpt lat="43.65813" lon="1.36369">
        <ele>141</ele>
        <time>2025-01-23T18:17:43Z</time>
      </trkpt>
      <trkpt lat="43.65814" lon="1.36371">
        <ele>141</ele>
        <time>2025-01-23T18:17:44Z</time>
      </trkpt>
      <trkpt lat="43.65817" lon="1.36383">
        <ele>141</ele>
        <time>2025-01-23T18:17:45Z</time>
      </trkpt>
      <trkpt lat="43.65819" lon="1.36387">
        <ele>142</ele>
        <time>2025-01-23T18:17:46Z</time>
      </trkpt>
      <trkpt lat="43.6582" lon="1.36392">
        <ele>142</ele>
        <time>2025-01-23T18:17:47Z</time>
      </trkpt>
      <trkpt lat="43.65822" lon="1.36396">
        <ele>141</ele>
        <time>2025-01-23T18:17:48Z</time>
      </trkpt>
      <trkpt lat="43.65824" lon="1.364">
        <ele>141</ele>
        <time>2025-01-23T18:17:49Z</time>
      </trkpt>
      <trkpt lat="43.65825" lon="1.36405">
        <ele>141</ele>
        <time>2025-01-23T18:17:50Z</time>
      </trkpt>
      <trkpt lat="43.65827" lon="1.36414">
        <ele>141</ele>
        <time>2025-01-23T18:17:51Z</time>
      </trkpt>
      <trkpt lat="43.65827" lon="1.36414">
        <ele>141</ele>
        <time>2025-01-23T18:17:52Z</time>
      </trkpt>
      <trkpt lat="43.65828" lon="1.36419">
        <ele>141</ele>
        <time>2025-01-23T18:17:53Z</time>
      </trkpt>
      <trkpt lat="43.65829" lon="1.36423">
        <ele>140</ele>
        <time>2025-01-23T18:17:54Z</time>
      </trkpt>
      <trkpt lat="43.6583" lon="1.36427">
        <ele>140</ele>
        <time>2025-01-23T18:17:55Z</time>
      </trkpt>
      <trkpt lat="43.65832" lon="1.36432">
        <ele>140</ele>
        <time>2025-01-23T18:17:56Z</time>
      </trkpt>
      <trkpt lat="43.65833" lon="1.36436">
        <ele>140</ele>
        <time>2025-01-23T18:17:57Z</time>
      </trkpt>
      <trkpt lat="43.65834" lon="1.3644">
        <ele>140</ele>
        <time>2025-01-23T18:17:58Z</time>
      </trkpt>
      <trkpt lat="43.65833" lon="1.36444">
        <ele>139</ele>
        <time>2025-01-23T18:17:59Z</time>
      </trkpt>
      <trkpt lat="43.65832" lon="1.36447">
        <ele>138</ele>
        <time>2025-01-23T18:18:00Z</time>
      </trkpt>
      <trkpt lat="43.65828" lon="1.36449">
        <ele>138</ele>
        <time>2025-01-23T18:18:01Z</time>
      </trkpt>
      <trkpt lat="43.65825" lon="1.3645">
        <ele>138</ele>
        <time>2025-01-23T18:18:02Z</time>
      </trkpt>
      <trkpt lat="43.65822" lon="1.36451">
        <ele>137</ele>
        <time>2025-01-23T18:18:03Z</time>
      </trkpt>
      <trkpt lat="43.65818" lon="1.36453">
        <ele>137</ele>
        <time>2025-01-23T18:18:04Z</time>
      </trkpt>
      <trkpt lat="43.65815" lon="1.36453">
        <ele>137</ele>
        <time>2025-01-23T18:18:05Z</time>
      </trkpt>
      <trkpt lat="43.65811" lon="1.36454">
        <ele>138</ele>
        <time>2025-01-23T18:18:06Z</time>
      </trkpt>
      <trkpt lat="43.65807" lon="1.36454">
        <ele>139</ele>
        <time>2025-01-23T18:18:07Z</time>
      </trkpt>
      <trkpt lat="43.65803" lon="1.36454">
        <ele>139</ele>
        <time>2025-01-23T18:18:08Z</time>
      </trkpt>
      <trkpt lat="43.658" lon="1.36452">
        <ele>139</ele>
        <time>2025-01-23T18:18:09Z</time>
      </trkpt>
      <trkpt lat="43.65798" lon="1.36447">
        <ele>139</ele>
        <time>2025-01-23T18:18:10Z</time>
      </trkpt>
      <trkpt lat="43.65797" lon="1.36442">
        <ele>139</ele>
        <time>2025-01-23T18:18:11Z</time>
      </trkpt>
      <trkpt lat="43.65799" lon="1.36438">
        <ele>139</ele>
        <time>2025-01-23T18:18:12Z</time>
      </trkpt>
      <trkpt lat="43.65801" lon="1.36433">
        <ele>139</ele>
        <time>2025-01-23T18:18:13Z</time>
      </trkpt>
      <trkpt lat="43.65804" lon="1.3643">
        <ele>139</ele>
        <time>2025-01-23T18:18:14Z</time>
      </trkpt>
      <trkpt lat="43.65807" lon="1.36427">
        <ele>139</ele>
        <time>2025-01-23T18:18:15Z</time>
      </trkpt>
      <trkpt lat="43.6581" lon="1.36425">
        <ele>139</ele>
        <time>2025-01-23T18:18:16Z</time>
      </trkpt>
      <trkpt lat="43.65813" lon="1.36423">
        <ele>139</ele>
        <time>2025-01-23T18:18:17Z</time>
      </trkpt>
      <trkpt lat="43.65817" lon="1.36421">
        <ele>139</ele>
        <time>2025-01-23T18:18:18Z</time>
      </trkpt>
      <trkpt lat="43.6582" lon="1.36418">
        <ele>140</ele>
        <time>2025-01-23T18:18:19Z</time>
      </trkpt>
      <trkpt lat="43.65823" lon="1.36415">
        <ele>140</ele>
        <time>2025-01-23T18:18:20Z</time>
      </trkpt>
      <trkpt lat="43.65825" lon="1.36412">
        <ele>140</ele>
        <time>2025-01-23T18:18:21Z</time>
      </trkpt>
      <trkpt lat="43.65824" lon="1.36404">
        <ele>140</ele>
        <time>2025-01-23T18:18:22Z</time>
      </trkpt>
      <trkpt lat="43.65824" lon="1.36404">
        <ele>140</ele>
        <time>2025-01-23T18:18:23Z</time>
      </trkpt>
      <trkpt lat="43.65822" lon="1.364">
        <ele>140</ele>
        <time>2025-01-23T18:18:24Z</time>
      </trkpt>
      <trkpt lat="43.65821" lon="1.36397">
        <ele>140</ele>
        <time>2025-01-23T18:18:25Z</time>
      </trkpt>
      <trkpt lat="43.6582" lon="1.36394">
        <ele>140</ele>
        <time>2025-01-23T18:18:26Z</time>
      </trkpt>
      <trkpt lat="43.6582" lon="1.36394">
        <ele>140</ele>
        <time>2025-01-23T18:18:27Z</time>
      </trkpt>
      <trkpt lat="43.65819" lon="1.3639">
        <ele>141</ele>
        <time>2025-01-23T18:18:28Z</time>
      </trkpt>
      <trkpt lat="43.65819" lon="1.3639">
        <ele>141</ele>
        <time>2025-01-23T18:18:29Z</time>
      </trkpt>
      <trkpt lat="43.65818" lon="1.36386">
        <ele>141</ele>
        <time>2025-01-23T18:18:30Z</time>
      </trkpt>
      <trkpt lat="43.65818" lon="1.36386">
        <ele>141</ele>
        <time>2025-01-23T18:18:31Z</time>
      </trkpt>
      <trkpt lat="43.65817" lon="1.36383">
        <ele>141</ele>
        <time>2025-01-23T18:18:32Z</time>
      </trkpt>
      <trkpt lat="43.65817" lon="1.36383">
        <ele>141</ele>
        <time>2025-01-23T18:18:33Z</time>
      </trkpt>
      <trkpt lat="43.65816" lon="1.3638">
        <ele>141</ele>
        <time>2025-01-23T18:18:34Z</time>
      </trkpt>
      <trkpt lat="43.65816" lon="1.3638">
        <ele>141</ele>
        <time>2025-01-23T18:18:35Z</time>
      </trkpt>
      <trkpt lat="43.65815" lon="1.36376">
        <ele>141</ele>
        <time>2025-01-23T18:18:36Z</time>
      </trkpt>
      <trkpt lat="43.65815" lon="1.36376">
        <ele>141</ele>
        <time>2025-01-23T18:18:37Z</time>
      </trkpt>
      <trkpt lat="43.65815" lon="1.36373">
        <ele>141</ele>
        <time>2025-01-23T18:18:38Z</time>
      </trkpt>
      <trkpt lat="43.65815" lon="1.36373">
        <ele>141</ele>
        <time>2025-01-23T18:18:39Z</time>
      </trkpt>
      <trkpt lat="43.65814" lon="1.3637">
        <ele>141</ele>
        <time>2025-01-23T18:18:40Z</time>
      </trkpt>
      <trkpt lat="43.65814" lon="1.3637">
        <ele>141</ele>
        <time>2025-01-23T18:18:41Z</time>
      </trkpt>
      <trkpt lat="43.65813" lon="1.36366">
        <ele>142</ele>
        <time>2025-01-23T18:18:42Z</time>
      </trkpt>
      <trkpt lat="43.65813" lon="1.36366">
        <ele>142</ele>
        <time>2025-01-23T18:18:43Z</time>
      </trkpt>
      <trkpt lat="43.65812" lon="1.36363">
        <ele>142</ele>
        <time>2025-01-23T18:18:44Z</time>
      </trkpt>
      <trkpt lat="43.65812" lon="1.36363">
        <ele>141</ele>
        <time>2025-01-23T18:18:45Z</time>
      </trkpt>
      <trkpt lat="43.65811" lon="1.3636">
        <ele>141</ele>
        <time>2025-01-23T18:18:46Z</time>
      </trkpt>
      <trkpt lat="43.65811" lon="1.3636">
        <ele>141</ele>
        <time>2025-01-23T18:18:47Z</time>
      </trkpt>
      <trkpt lat="43.65809" lon="1.36357">
        <ele>141</ele>
        <time>2025-01-23T18:18:48Z</time>
      </trkpt>
      <trkpt lat="43.65809" lon="1.36357">
        <ele>141</ele>
        <time>2025-01-23T18:18:49Z</time>
      </trkpt>
      <trkpt lat="43.65808" lon="1.36353">
        <ele>141</ele>
        <time>2025-01-23T18:18:50Z</time>
      </trkpt>
      <trkpt lat="43.65808" lon="1.36353">
        <ele>141</ele>
        <time>2025-01-23T18:18:51Z</time>
      </trkpt>
      <trkpt lat="43.65807" lon="1.3635">
        <ele>141</ele>
        <time>2025-01-23T18:18:52Z</time>
      </trkpt>
      <trkpt lat="43.65807" lon="1.3635">
        <ele>141</ele>
        <time>2025-01-23T18:18:53Z</time>
      </trkpt>
      <trkpt lat="43.65806" lon="1.36346">
        <ele>141</ele>
        <time>2025-01-23T18:18:54Z</time>
      </trkpt>
      <trkpt lat="43.65806" lon="1.36346">
        <ele>141</ele>
        <time>2025-01-23T18:18:55Z</time>
      </trkpt>
      <trkpt lat="43.65805" lon="1.36342">
        <ele>141</ele>
        <time>2025-01-23T18:18:56Z</time>
      </trkpt>
      <trkpt lat="43.65805" lon="1.36342">
        <ele>141</ele>
        <time>2025-01-23T18:18:57Z</time>
      </trkpt>
      <trkpt lat="43.65804" lon="1.36339">
        <ele>141</ele>
        <time>2025-01-23T18:18:58Z</time>
      </trkpt>
      <trkpt lat="43.65804" lon="1.36339">
        <ele>141</ele>
        <time>2025-01-23T18:18:59Z</time>
      </trkpt>
      <trkpt lat="43.65803" lon="1.36335">
        <ele>141</ele>
        <time>2025-01-23T18:19:00Z</time>
      </trkpt>
      <trkpt lat="43.65803" lon="1.36335">
        <ele>141</ele>
        <time>2025-01-23T18:19:01Z</time>
      </trkpt>
      <trkpt lat="43.65802" lon="1.36332">
        <ele>141</ele>
        <time>2025-01-23T18:19:02Z</time>
      </trkpt>
      <trkpt lat="43.65802" lon="1.36332">
        <ele>141</ele>
        <time>2025-01-23T18:19:03Z</time>
      </trkpt>
      <trkpt lat="43.658" lon="1.36327">
        <ele>141</ele>
        <time>2025-01-23T18:19:04Z</time>
      </trkpt>
      <trkpt lat="43.65799" lon="1.36325">
        <ele>141</ele>
        <time>2025-01-23T18:19:05Z</time>
      </trkpt>
      <trkpt lat="43.65799" lon="1.36322">
        <ele>140</ele>
        <time>2025-01-23T18:19:06Z</time>
      </trkpt>
      <trkpt lat="43.65797" lon="1.36316">
        <ele>140</ele>
        <time>2025-01-23T18:19:07Z</time>
      </trkpt>
      <trkpt lat="43.65797" lon="1.36316">
        <ele>140</ele>
        <time>2025-01-23T18:19:08Z</time>
      </trkpt>
      <trkpt lat="43.65797" lon="1.36314">
        <ele>140</ele>
        <time>2025-01-23T18:19:09Z</time>
      </trkpt>
      <trkpt lat="43.65797" lon="1.36314">
        <ele>140</ele>
        <time>2025-01-23T18:19:10Z</time>
      </trkpt>
      <trkpt lat="43.65795" lon="1.3631">
        <ele>140</ele>
        <time>2025-01-23T18:19:11Z</time>
      </trkpt>
      <trkpt lat="43.65795" lon="1.3631">
        <ele>140</ele>
        <time>2025-01-23T18:19:12Z</time>
      </trkpt>
      <trkpt lat="43.65794" lon="1.36306">
        <ele>140</ele>
        <time>2025-01-23T18:19:13Z</time>
      </trkpt>
      <trkpt lat="43.65793" lon="1.36303">
        <ele>140</ele>
        <time>2025-01-23T18:19:14Z</time>
      </trkpt>
      <trkpt lat="43.65793" lon="1.36303">
        <ele>140</ele>
        <time>2025-01-23T18:19:15Z</time>
      </trkpt>
      <trkpt lat="43.65793" lon="1.36298">
        <ele>140</ele>
        <time>2025-01-23T18:19:16Z</time>
      </trkpt>
      <trkpt lat="43.65793" lon="1.36296">
        <ele>140</ele>
        <time>2025-01-23T18:19:17Z</time>
      </trkpt>
      <trkpt lat="43.65793" lon="1.36292">
        <ele>140</ele>
        <time>2025-01-23T18:19:18Z</time>
      </trkpt>
      <trkpt lat="43.65793" lon="1.36289">
        <ele>140</ele>
        <time>2025-01-23T18:19:19Z</time>
      </trkpt>
      <trkpt lat="43.65793" lon="1.36286">
        <ele>140</ele>
        <time>2025-01-23T18:19:20Z</time>
      </trkpt>
      <trkpt lat="43.65793" lon="1.36283">
        <ele>139</ele>
        <time>2025-01-23T18:19:21Z</time>
      </trkpt>
      <trkpt lat="43.65793" lon="1.3628">
        <ele>139</ele>
        <time>2025-01-23T18:19:22Z</time>
      </trkpt>
      <trkpt lat="43.65793" lon="1.36277">
        <ele>139</ele>
        <time>2025-01-23T18:19:23Z</time>
      </trkpt>
      <trkpt lat="43.65793" lon="1.36274">
        <ele>139</ele>
        <time>2025-01-23T18:19:24Z</time>
      </trkpt>
      <trkpt lat="43.65794" lon="1.36271">
        <ele>139</ele>
        <time>2025-01-23T18:19:25Z</time>
      </trkpt>
      <trkpt lat="43.65793" lon="1.36265">
        <ele>139</ele>
        <time>2025-01-23T18:19:26Z</time>
      </trkpt>
      <trkpt lat="43.65793" lon="1.36265">
        <ele>139</ele>
        <time>2025-01-23T18:19:27Z</time>
      </trkpt>
      <trkpt lat="43.65793" lon="1.36262">
        <ele>139</ele>
        <time>2025-01-23T18:19:28Z</time>
      </trkpt>
      <trkpt lat="43.65793" lon="1.36259">
        <ele>139</ele>
        <time>2025-01-23T18:19:29Z</time>
      </trkpt>
      <trkpt lat="43.65793" lon="1.36256">
        <ele>139</ele>
        <time>2025-01-23T18:19:30Z</time>
      </trkpt>
      <trkpt lat="43.65793" lon="1.36254">
        <ele>139</ele>
        <time>2025-01-23T18:19:31Z</time>
      </trkpt>
      <trkpt lat="43.65793" lon="1.36251">
        <ele>139</ele>
        <time>2025-01-23T18:19:32Z</time>
      </trkpt>
      <trkpt lat="43.65792" lon="1.36248">
        <ele>139</ele>
        <time>2025-01-23T18:19:33Z</time>
      </trkpt>
      <trkpt lat="43.65793" lon="1.36245">
        <ele>138</ele>
        <time>2025-01-23T18:19:34Z</time>
      </trkpt>
      <trkpt lat="43.65792" lon="1.36242">
        <ele>138</ele>
        <time>2025-01-23T18:19:35Z</time>
      </trkpt>
      <trkpt lat="43.65792" lon="1.36242">
        <ele>138</ele>
        <time>2025-01-23T18:19:36Z</time>
      </trkpt>
      <trkpt lat="43.65792" lon="1.36237">
        <ele>138</ele>
        <time>2025-01-23T18:19:37Z</time>
      </trkpt>
      <trkpt lat="43.65792" lon="1.36234">
        <ele>138</ele>
        <time>2025-01-23T18:19:38Z</time>
      </trkpt>
      <trkpt lat="43.65792" lon="1.36231">
        <ele>137</ele>
        <time>2025-01-23T18:19:39Z</time>
      </trkpt>
      <trkpt lat="43.65792" lon="1.36228">
        <ele>137</ele>
        <time>2025-01-23T18:19:40Z</time>
      </trkpt>
      <trkpt lat="43.65792" lon="1.36228">
        <ele>137</ele>
        <time>2025-01-23T18:19:41Z</time>
      </trkpt>
      <trkpt lat="43.65792" lon="1.36223">
        <ele>137</ele>
        <time>2025-01-23T18:19:42Z</time>
      </trkpt>
      <trkpt lat="43.65792" lon="1.36219">
        <ele>137</ele>
        <time>2025-01-23T18:19:43Z</time>
      </trkpt>
      <trkpt lat="43.65792" lon="1.36217">
        <ele>137</ele>
        <time>2025-01-23T18:19:44Z</time>
      </trkpt>
      <trkpt lat="43.65792" lon="1.36214">
        <ele>137</ele>
        <time>2025-01-23T18:19:45Z</time>
      </trkpt>
      <trkpt lat="43.65791" lon="1.36212">
        <ele>137</ele>
        <time>2025-01-23T18:19:46Z</time>
      </trkpt>
      <trkpt lat="43.65791" lon="1.36209">
        <ele>137</ele>
        <time>2025-01-23T18:19:47Z</time>
      </trkpt>
      <trkpt lat="43.65791" lon="1.36207">
        <ele>136</ele>
        <time>2025-01-23T18:19:48Z</time>
      </trkpt>
      <trkpt lat="43.65791" lon="1.36204">
        <ele>136</ele>
        <time>2025-01-23T18:19:49Z</time>
      </trkpt>
      <trkpt lat="43.65791" lon="1.36201">
        <ele>136</ele>
        <time>2025-01-23T18:19:50Z</time>
      </trkpt>
      <trkpt lat="43.65792" lon="1.36198">
        <ele>136</ele>
        <time>2025-01-23T18:19:51Z</time>
      </trkpt>
      <trkpt lat="43.65792" lon="1.36195">
        <ele>136</ele>
        <time>2025-01-23T18:19:52Z</time>
      </trkpt>
      <trkpt lat="43.65792" lon="1.36192">
        <ele>136</ele>
        <time>2025-01-23T18:19:53Z</time>
      </trkpt>
      <trkpt lat="43.65792" lon="1.3619">
        <ele>136</ele>
        <time>2025-01-23T18:19:54Z</time>
      </trkpt>
      <trkpt lat="43.65792" lon="1.36187">
        <ele>136</ele>
        <time>2025-01-23T18:19:55Z</time>
      </trkpt>
      <trkpt lat="43.65791" lon="1.36184">
        <ele>136</ele>
        <time>2025-01-23T18:19:56Z</time>
      </trkpt>
      <trkpt lat="43.65791" lon="1.36182">
        <ele>136</ele>
        <time>2025-01-23T18:19:57Z</time>
      </trkpt>
      <trkpt lat="43.6579" lon="1.36179">
        <ele>136</ele>
        <time>2025-01-23T18:19:58Z</time>
      </trkpt>
      <trkpt lat="43.6579" lon="1.36176">
        <ele>136</ele>
        <time>2025-01-23T18:19:59Z</time>
      </trkpt>
      <trkpt lat="43.6579" lon="1.36173">
        <ele>136</ele>
        <time>2025-01-23T18:20:00Z</time>
      </trkpt>
      <trkpt lat="43.6579" lon="1.3617">
        <ele>136</ele>
        <time>2025-01-23T18:20:01Z</time>
      </trkpt>
      <trkpt lat="43.6579" lon="1.36167">
        <ele>136</ele>
        <time>2025-01-23T18:20:02Z</time>
      </trkpt>
      <trkpt lat="43.6579" lon="1.36164">
        <ele>136</ele>
        <time>2025-01-23T18:20:03Z</time>
      </trkpt>
      <trkpt lat="43.65789" lon="1.36161">
        <ele>136</ele>
        <time>2025-01-23T18:20:04Z</time>
      </trkpt>
      <trkpt lat="43.65789" lon="1.36158">
        <ele>136</ele>
        <time>2025-01-23T18:20:05Z</time>
      </trkpt>
      <trkpt lat="43.65789" lon="1.36155">
        <ele>136</ele>
        <time>2025-01-23T18:20:06Z</time>
      </trkpt>
      <trkpt lat="43.65789" lon="1.36152">
        <ele>135</ele>
        <time>2025-01-23T18:20:07Z</time>
      </trkpt>
      <trkpt lat="43.6579" lon="1.36149">
        <ele>135</ele>
        <time>2025-01-23T18:20:08Z</time>
      </trkpt>
      <trkpt lat="43.65789" lon="1.36147">
        <ele>135</ele>
        <time>2025-01-23T18:20:09Z</time>
      </trkpt>
      <trkpt lat="43.65789" lon="1.3614">
        <ele>135</ele>
        <time>2025-01-23T18:20:10Z</time>
      </trkpt>
      <trkpt lat="43.65789" lon="1.3614">
        <ele>135</ele>
        <time>2025-01-23T18:20:11Z</time>
      </trkpt>
      <trkpt lat="43.65789" lon="1.36137">
        <ele>135</ele>
        <time>2025-01-23T18:20:12Z</time>
      </trkpt>
      <trkpt lat="43.65789" lon="1.36134">
        <ele>135</ele>
        <time>2025-01-23T18:20:13Z</time>
      </trkpt>
      <trkpt lat="43.65789" lon="1.36131">
        <ele>136</ele>
        <time>2025-01-23T18:20:14Z</time>
      </trkpt>
      <trkpt lat="43.6579" lon="1.36128">
        <ele>136</ele>
        <time>2025-01-23T18:20:15Z</time>
      </trkpt>
      <trkpt lat="43.65792" lon="1.36125">
        <ele>136</ele>
        <time>2025-01-23T18:20:16Z</time>
      </trkpt>
      <trkpt lat="43.65793" lon="1.36123">
        <ele>136</ele>
        <time>2025-01-23T18:20:17Z</time>
      </trkpt>
      <trkpt lat="43.65795" lon="1.36121">
        <ele>136</ele>
        <time>2025-01-23T18:20:18Z</time>
      </trkpt>
      <trkpt lat="43.65796" lon="1.36119">
        <ele>136</ele>
        <time>2025-01-23T18:20:19Z</time>
      </trkpt>
      <trkpt lat="43.65796" lon="1.36119">
        <ele>136</ele>
        <time>2025-01-23T18:20:20Z</time>
      </trkpt>
      <trkpt lat="43.65796" lon="1.36119">
        <ele>135</ele>
        <time>2025-01-23T18:20:21Z</time>
      </trkpt>
      <trkpt lat="43.65794" lon="1.36123">
        <ele>135</ele>
        <time>2025-01-23T18:20:22Z</time>
      </trkpt>
      <trkpt lat="43.65793" lon="1.36127">
        <ele>135</ele>
        <time>2025-01-23T18:20:23Z</time>
      </trkpt>
      <trkpt lat="43.65791" lon="1.36133">
        <ele>136</ele>
        <time>2025-01-23T18:20:24Z</time>
      </trkpt>
      <trkpt lat="43.6579" lon="1.36138">
        <ele>136</ele>
        <time>2025-01-23T18:20:25Z</time>
      </trkpt>
      <trkpt lat="43.6579" lon="1.36143">
        <ele>136</ele>
        <time>2025-01-23T18:20:26Z</time>
      </trkpt>
      <trkpt lat="43.65789" lon="1.36148">
        <ele>136</ele>
        <time>2025-01-23T18:20:27Z</time>
      </trkpt>
      <trkpt lat="43.65789" lon="1.36153">
        <ele>136</ele>
        <time>2025-01-23T18:20:28Z</time>
      </trkpt>
      <trkpt lat="43.6579" lon="1.36158">
        <ele>136</ele>
        <time>2025-01-23T18:20:29Z</time>
      </trkpt>
      <trkpt lat="43.6579" lon="1.36163">
        <ele>136</ele>
        <time>2025-01-23T18:20:30Z</time>
      </trkpt>
      <trkpt lat="43.65791" lon="1.36168">
        <ele>136</ele>
        <time>2025-01-23T18:20:31Z</time>
      </trkpt>
      <trkpt lat="43.65791" lon="1.36173">
        <ele>136</ele>
        <time>2025-01-23T18:20:32Z</time>
      </trkpt>
      <trkpt lat="43.65792" lon="1.36179">
        <ele>136</ele>
        <time>2025-01-23T18:20:33Z</time>
      </trkpt>
      <trkpt lat="43.65792" lon="1.36183">
        <ele>136</ele>
        <time>2025-01-23T18:20:34Z</time>
      </trkpt>
      <trkpt lat="43.65792" lon="1.36189">
        <ele>136</ele>
        <time>2025-01-23T18:20:35Z</time>
      </trkpt>
      <trkpt lat="43.65792" lon="1.36193">
        <ele>136</ele>
        <time>2025-01-23T18:20:36Z</time>
      </trkpt>
      <trkpt lat="43.65793" lon="1.36199">
        <ele>137</ele>
        <time>2025-01-23T18:20:37Z</time>
      </trkpt>
      <trkpt lat="43.65793" lon="1.36205">
        <ele>137</ele>
        <time>2025-01-23T18:20:38Z</time>
      </trkpt>
      <trkpt lat="43.65794" lon="1.3621">
        <ele>137</ele>
        <time>2025-01-23T18:20:39Z</time>
      </trkpt>
      <trkpt lat="43.65794" lon="1.36215">
        <ele>137</ele>
        <time>2025-01-23T18:20:40Z</time>
      </trkpt>
      <trkpt lat="43.65794" lon="1.3622">
        <ele>137</ele>
        <time>2025-01-23T18:20:41Z</time>
      </trkpt>
      <trkpt lat="43.65794" lon="1.36225">
        <ele>137</ele>
        <time>2025-01-23T18:20:42Z</time>
      </trkpt>
      <trkpt lat="43.65794" lon="1.36231">
        <ele>137</ele>
        <time>2025-01-23T18:20:43Z</time>
      </trkpt>
      <trkpt lat="43.65794" lon="1.36236">
        <ele>137</ele>
        <time>2025-01-23T18:20:44Z</time>
      </trkpt>
      <trkpt lat="43.65794" lon="1.36242">
        <ele>137</ele>
        <time>2025-01-23T18:20:45Z</time>
      </trkpt>
      <trkpt lat="43.65794" lon="1.36247">
        <ele>138</ele>
        <time>2025-01-23T18:20:46Z</time>
      </trkpt>
      <trkpt lat="43.65793" lon="1.36252">
        <ele>138</ele>
        <time>2025-01-23T18:20:47Z</time>
      </trkpt>
      <trkpt lat="43.65793" lon="1.36257">
        <ele>138</ele>
        <time>2025-01-23T18:20:48Z</time>
      </trkpt>
      <trkpt lat="43.65793" lon="1.36263">
        <ele>138</ele>
        <time>2025-01-23T18:20:49Z</time>
      </trkpt>
      <trkpt lat="43.65794" lon="1.36268">
        <ele>138</ele>
        <time>2025-01-23T18:20:50Z</time>
      </trkpt>
      <trkpt lat="43.65794" lon="1.36274">
        <ele>138</ele>
        <time>2025-01-23T18:20:51Z</time>
      </trkpt>
      <trkpt lat="43.65794" lon="1.36279">
        <ele>139</ele>
        <time>2025-01-23T18:20:52Z</time>
      </trkpt>
      <trkpt lat="43.65794" lon="1.36284">
        <ele>139</ele>
        <time>2025-01-23T18:20:53Z</time>
      </trkpt>
      <trkpt lat="43.65794" lon="1.36289">
        <ele>139</ele>
        <time>2025-01-23T18:20:54Z</time>
      </trkpt>
      <trkpt lat="43.65794" lon="1.36294">
        <ele>140</ele>
        <time>2025-01-23T18:20:55Z</time>
      </trkpt>
      <trkpt lat="43.65794" lon="1.36299">
        <ele>140</ele>
        <time>2025-01-23T18:20:56Z</time>
      </trkpt>
      <trkpt lat="43.65794" lon="1.36304">
        <ele>140</ele>
        <time>2025-01-23T18:20:57Z</time>
      </trkpt>
      <trkpt lat="43.65795" lon="1.36309">
        <ele>140</ele>
        <time>2025-01-23T18:20:58Z</time>
      </trkpt>
      <trkpt lat="43.65796" lon="1.36314">
        <ele>140</ele>
        <time>2025-01-23T18:20:59Z</time>
      </trkpt>
      <trkpt lat="43.65797" lon="1.36319">
        <ele>140</ele>
        <time>2025-01-23T18:21:00Z</time>
      </trkpt>
      <trkpt lat="43.65798" lon="1.36324">
        <ele>140</ele>
        <time>2025-01-23T18:21:01Z</time>
      </trkpt>
      <trkpt lat="43.658" lon="1.36329">
        <ele>141</ele>
        <time>2025-01-23T18:21:02Z</time>
      </trkpt>
      <trkpt lat="43.65801" lon="1.36333">
        <ele>141</ele>
        <time>2025-01-23T18:21:03Z</time>
      </trkpt>
      <trkpt lat="43.65803" lon="1.36338">
        <ele>141</ele>
        <time>2025-01-23T18:21:04Z</time>
      </trkpt>
      <trkpt lat="43.65805" lon="1.36343">
        <ele>141</ele>
        <time>2025-01-23T18:21:05Z</time>
      </trkpt>
      <trkpt lat="43.65807" lon="1.36348">
        <ele>141</ele>
        <time>2025-01-23T18:21:06Z</time>
      </trkpt>
      <trkpt lat="43.65808" lon="1.36352">
        <ele>141</ele>
        <time>2025-01-23T18:21:07Z</time>
      </trkpt>
      <trkpt lat="43.6581" lon="1.36357">
        <ele>141</ele>
        <time>2025-01-23T18:21:08Z</time>
      </trkpt>
      <trkpt lat="43.65812" lon="1.36361">
        <ele>142</ele>
        <time>2025-01-23T18:21:09Z</time>
      </trkpt>
      <trkpt lat="43.65813" lon="1.36365">
        <ele>142</ele>
        <time>2025-01-23T18:21:10Z</time>
      </trkpt>
      <trkpt lat="43.65815" lon="1.36369">
        <ele>142</ele>
        <time>2025-01-23T18:21:11Z</time>
      </trkpt>
      <trkpt lat="43.65816" lon="1.36374">
        <ele>142</ele>
        <time>2025-01-23T18:21:12Z</time>
      </trkpt>
      <trkpt lat="43.65817" lon="1.36377">
        <ele>142</ele>
        <time>2025-01-23T18:21:13Z</time>
      </trkpt>
      <trkpt lat="43.65818" lon="1.3638">
        <ele>142</ele>
        <time>2025-01-23T18:21:14Z</time>
      </trkpt>
      <trkpt lat="43.65819" lon="1.36383">
        <ele>142</ele>
        <time>2025-01-23T18:21:15Z</time>
      </trkpt>
      <trkpt lat="43.65821" lon="1.36392">
        <ele>142</ele>
        <time>2025-01-23T18:21:16Z</time>
      </trkpt>
      <trkpt lat="43.65822" lon="1.36397">
        <ele>142</ele>
        <time>2025-01-23T18:21:17Z</time>
      </trkpt>
      <trkpt lat="43.65824" lon="1.36401">
        <ele>142</ele>
        <time>2025-01-23T18:21:18Z</time>
      </trkpt>
      <trkpt lat="43.65826" lon="1.36405">
        <ele>142</ele>
        <time>2025-01-23T18:21:19Z</time>
      </trkpt>
      <trkpt lat="43.65828" lon="1.3641">
        <ele>142</ele>
        <time>2025-01-23T18:21:20Z</time>
      </trkpt>
      <trkpt lat="43.65829" lon="1.36415">
        <ele>142</ele>
        <time>2025-01-23T18:21:21Z</time>
      </trkpt>
      <trkpt lat="43.6583" lon="1.3642">
        <ele>142</ele>
        <time>2025-01-23T18:21:22Z</time>
      </trkpt>
      <trkpt lat="43.65831" lon="1.36425">
        <ele>142</ele>
        <time>2025-01-23T18:21:23Z</time>
      </trkpt>
      <trkpt lat="43.65832" lon="1.36429">
        <ele>142</ele>
        <time>2025-01-23T18:21:24Z</time>
      </trkpt>
      <trkpt lat="43.65834" lon="1.36435">
        <ele>141</ele>
        <time>2025-01-23T18:21:25Z</time>
      </trkpt>
      <trkpt lat="43.65835" lon="1.36439">
        <ele>141</ele>
        <time>2025-01-23T18:21:26Z</time>
      </trkpt>
      <trkpt lat="43.65834" lon="1.36444">
        <ele>140</ele>
        <time>2025-01-23T18:21:27Z</time>
      </trkpt>
      <trkpt lat="43.65832" lon="1.36448">
        <ele>139</ele>
        <time>2025-01-23T18:21:28Z</time>
      </trkpt>
      <trkpt lat="43.65829" lon="1.3645">
        <ele>138</ele>
        <time>2025-01-23T18:21:29Z</time>
      </trkpt>
      <trkpt lat="43.65825" lon="1.36452">
        <ele>138</ele>
        <time>2025-01-23T18:21:30Z</time>
      </trkpt>
      <trkpt lat="43.65822" lon="1.36453">
        <ele>138</ele>
        <time>2025-01-23T18:21:31Z</time>
      </trkpt>
      <trkpt lat="43.65818" lon="1.36455">
        <ele>138</ele>
        <time>2025-01-23T18:21:32Z</time>
      </trkpt>
      <trkpt lat="43.65815" lon="1.36455">
        <ele>139</ele>
        <time>2025-01-23T18:21:33Z</time>
      </trkpt>
      <trkpt lat="43.65811" lon="1.36456">
        <ele>139</ele>
        <time>2025-01-23T18:21:34Z</time>
      </trkpt>
      <trkpt lat="43.65807" lon="1.36456">
        <ele>138</ele>
        <time>2025-01-23T18:21:35Z</time>
      </trkpt>
      <trkpt lat="43.65803" lon="1.36455">
        <ele>138</ele>
        <time>2025-01-23T18:21:36Z</time>
      </trkpt>
      <trkpt lat="43.658" lon="1.36451">
        <ele>138</ele>
        <time>2025-01-23T18:21:37Z</time>
      </trkpt>
      <trkpt lat="43.65798" lon="1.36447">
        <ele>139</ele>
        <time>2025-01-23T18:21:38Z</time>
      </trkpt>
      <trkpt lat="43.65798" lon="1.36442">
        <ele>139</ele>
        <time>2025-01-23T18:21:39Z</time>
      </trkpt>
      <trkpt lat="43.658" lon="1.36437">
        <ele>139</ele>
        <time>2025-01-23T18:21:40Z</time>
      </trkpt>
      <trkpt lat="43.65803" lon="1.36432">
        <ele>139</ele>
        <time>2025-01-23T18:21:41Z</time>
      </trkpt>
      <trkpt lat="43.65806" lon="1.36429">
        <ele>140</ele>
        <time>2025-01-23T18:21:42Z</time>
      </trkpt>
      <trkpt lat="43.6581" lon="1.36426">
        <ele>140</ele>
        <time>2025-01-23T18:21:43Z</time>
      </trkpt>
      <trkpt lat="43.65813" lon="1.36424">
        <ele>140</ele>
        <time>2025-01-23T18:21:44Z</time>
      </trkpt>
      <trkpt lat="43.65817" lon="1.36422">
        <ele>140</ele>
        <time>2025-01-23T18:21:45Z</time>
      </trkpt>
      <trkpt lat="43.6582" lon="1.3642">
        <ele>140</ele>
        <time>2025-01-23T18:21:46Z</time>
      </trkpt>
      <trkpt lat="43.65823" lon="1.36417">
        <ele>140</ele>
        <time>2025-01-23T18:21:47Z</time>
      </trkpt>
      <trkpt lat="43.65825" lon="1.36415">
        <ele>140</ele>
        <time>2025-01-23T18:21:48Z</time>
      </trkpt>
      <trkpt lat="43.65826" lon="1.3641">
        <ele>141</ele>
        <time>2025-01-23T18:21:49Z</time>
      </trkpt>
      <trkpt lat="43.65825" lon="1.36407">
        <ele>141</ele>
        <time>2025-01-23T18:21:50Z</time>
      </trkpt>
      <trkpt lat="43.65825" lon="1.36404">
        <ele>141</ele>
        <time>2025-01-23T18:21:51Z</time>
      </trkpt>
      <trkpt lat="43.65824" lon="1.36401">
        <ele>141</ele>
        <time>2025-01-23T18:21:52Z</time>
      </trkpt>
      <trkpt lat="43.65824" lon="1.36401">
        <ele>141</ele>
        <time>2025-01-23T18:21:53Z</time>
      </trkpt>
      <trkpt lat="43.65823" lon="1.36398">
        <ele>141</ele>
        <time>2025-01-23T18:21:54Z</time>
      </trkpt>
      <trkpt lat="43.65823" lon="1.36398">
        <ele>141</ele>
        <time>2025-01-23T18:21:55Z</time>
      </trkpt>
      <trkpt lat="43.65822" lon="1.36395">
        <ele>141</ele>
        <time>2025-01-23T18:21:56Z</time>
      </trkpt>
      <trkpt lat="43.65822" lon="1.36395">
        <ele>141</ele>
        <time>2025-01-23T18:21:57Z</time>
      </trkpt>
      <trkpt lat="43.65821" lon="1.36392">
        <ele>141</ele>
        <time>2025-01-23T18:21:58Z</time>
      </trkpt>
      <trkpt lat="43.65821" lon="1.36392">
        <ele>141</ele>
        <time>2025-01-23T18:21:59Z</time>
      </trkpt>
      <trkpt lat="43.65821" lon="1.3639">
        <ele>141</ele>
        <time>2025-01-23T18:22:00Z</time>
      </trkpt>
      <trkpt lat="43.65821" lon="1.3639">
        <ele>141</ele>
        <time>2025-01-23T18:22:01Z</time>
      </trkpt>
      <trkpt lat="43.6582" lon="1.36387">
        <ele>141</ele>
        <time>2025-01-23T18:22:02Z</time>
      </trkpt>
      <trkpt lat="43.6582" lon="1.36387">
        <ele>141</ele>
        <time>2025-01-23T18:22:03Z</time>
      </trkpt>
      <trkpt lat="43.65819" lon="1.36384">
        <ele>141</ele>
        <time>2025-01-23T18:22:04Z</time>
      </trkpt>
      <trkpt lat="43.65819" lon="1.36384">
        <ele>141</ele>
        <time>2025-01-23T18:22:05Z</time>
      </trkpt>
      <trkpt lat="43.65817" lon="1.36381">
        <ele>141</ele>
        <time>2025-01-23T18:22:06Z</time>
      </trkpt>
      <trkpt lat="43.65817" lon="1.36381">
        <ele>141</ele>
        <time>2025-01-23T18:22:07Z</time>
      </trkpt>
      <trkpt lat="43.65816" lon="1.36379">
        <ele>141</ele>
        <time>2025-01-23T18:22:08Z</time>
      </trkpt>
      <trkpt lat="43.65816" lon="1.36379">
        <ele>141</ele>
        <time>2025-01-23T18:22:09Z</time>
      </trkpt>
      <trkpt lat="43.65816" lon="1.36379">
        <ele>141</ele>
        <time>2025-01-23T18:22:10Z</time>
      </trkpt>
      <trkpt lat="43.65816" lon="1.36379">
        <ele>142</ele>
        <time>2025-01-23T18:22:11Z</time>
      </trkpt>
      <trkpt lat="43.65815" lon="1.36376">
        <ele>142</ele>
        <time>2025-01-23T18:22:12Z</time>
      </trkpt>
      <trkpt lat="43.65815" lon="1.36376">
        <ele>142</ele>
        <time>2025-01-23T18:22:13Z</time>
      </trkpt>
      <trkpt lat="43.65814" lon="1.36373">
        <ele>142</ele>
        <time>2025-01-23T18:22:14Z</time>
      </trkpt>
      <trkpt lat="43.65814" lon="1.36373">
        <ele>142</ele>
        <time>2025-01-23T18:22:15Z</time>
      </trkpt>
      <trkpt lat="43.65813" lon="1.36369">
        <ele>142</ele>
        <time>2025-01-23T18:22:16Z</time>
      </trkpt>
      <trkpt lat="43.65812" lon="1.36366">
        <ele>142</ele>
        <time>2025-01-23T18:22:17Z</time>
      </trkpt>
      <trkpt lat="43.65812" lon="1.36366">
        <ele>142</ele>
        <time>2025-01-23T18:22:18Z</time>
      </trkpt>
      <trkpt lat="43.65812" lon="1.36366">
        <ele>142</ele>
        <time>2025-01-23T18:22:19Z</time>
      </trkpt>
      <trkpt lat="43.65811" lon="1.36362">
        <ele>142</ele>
        <time>2025-01-23T18:22:20Z</time>
      </trkpt>
      <trkpt lat="43.65811" lon="1.36362">
        <ele>142</ele>
        <time>2025-01-23T18:22:21Z</time>
      </trkpt>
      <trkpt lat="43.6581" lon="1.36359">
        <ele>142</ele>
        <time>2025-01-23T18:22:22Z</time>
      </trkpt>
      <trkpt lat="43.6581" lon="1.36359">
        <ele>142</ele>
        <time>2025-01-23T18:22:23Z</time>
      </trkpt>
      <trkpt lat="43.65809" lon="1.36354">
        <ele>142</ele>
        <time>2025-01-23T18:22:24Z</time>
      </trkpt>
      <trkpt lat="43.65809" lon="1.36354">
        <ele>142</ele>
        <time>2025-01-23T18:22:25Z</time>
      </trkpt>
      <trkpt lat="43.65808" lon="1.36351">
        <ele>142</ele>
        <time>2025-01-23T18:22:26Z</time>
      </trkpt>
      <trkpt lat="43.65808" lon="1.36351">
        <ele>141</ele>
        <time>2025-01-23T18:22:27Z</time>
      </trkpt>
      <trkpt lat="43.65806" lon="1.36348">
        <ele>141</ele>
        <time>2025-01-23T18:22:28Z</time>
      </trkpt>
      <trkpt lat="43.65806" lon="1.36348">
        <ele>141</ele>
        <time>2025-01-23T18:22:29Z</time>
      </trkpt>
      <trkpt lat="43.65805" lon="1.36345">
        <ele>141</ele>
        <time>2025-01-23T18:22:30Z</time>
      </trkpt>
      <trkpt lat="43.65805" lon="1.36345">
        <ele>141</ele>
        <time>2025-01-23T18:22:31Z</time>
      </trkpt>
      <trkpt lat="43.65804" lon="1.36341">
        <ele>141</ele>
        <time>2025-01-23T18:22:32Z</time>
      </trkpt>
      <trkpt lat="43.65804" lon="1.36341">
        <ele>141</ele>
        <time>2025-01-23T18:22:33Z</time>
      </trkpt>
      <trkpt lat="43.65804" lon="1.36338">
        <ele>141</ele>
        <time>2025-01-23T18:22:34Z</time>
      </trkpt>
      <trkpt lat="43.65804" lon="1.36338">
        <ele>141</ele>
        <time>2025-01-23T18:22:35Z</time>
      </trkpt>
      <trkpt lat="43.65803" lon="1.36334">
        <ele>141</ele>
        <time>2025-01-23T18:22:36Z</time>
      </trkpt>
      <trkpt lat="43.65803" lon="1.36334">
        <ele>141</ele>
        <time>2025-01-23T18:22:37Z</time>
      </trkpt>
      <trkpt lat="43.65802" lon="1.36331">
        <ele>141</ele>
        <time>2025-01-23T18:22:38Z</time>
      </trkpt>
      <trkpt lat="43.65802" lon="1.36331">
        <ele>141</ele>
        <time>2025-01-23T18:22:39Z</time>
      </trkpt>
      <trkpt lat="43.65801" lon="1.36326">
        <ele>140</ele>
        <time>2025-01-23T18:22:40Z</time>
      </trkpt>
      <trkpt lat="43.65801" lon="1.36326">
        <ele>140</ele>
        <time>2025-01-23T18:22:41Z</time>
      </trkpt>
      <trkpt lat="43.65799" lon="1.36322">
        <ele>140</ele>
        <time>2025-01-23T18:22:42Z</time>
      </trkpt>
      <trkpt lat="43.65799" lon="1.36319">
        <ele>140</ele>
        <time>2025-01-23T18:22:43Z</time>
      </trkpt>
      <trkpt lat="43.65798" lon="1.36316">
        <ele>140</ele>
        <time>2025-01-23T18:22:44Z</time>
      </trkpt>
      <trkpt lat="43.65797" lon="1.36314">
        <ele>140</ele>
        <time>2025-01-23T18:22:45Z</time>
      </trkpt>
      <trkpt lat="43.65797" lon="1.36311">
        <ele>140</ele>
        <time>2025-01-23T18:22:46Z</time>
      </trkpt>
      <trkpt lat="43.65795" lon="1.36306">
        <ele>140</ele>
        <time>2025-01-23T18:22:47Z</time>
      </trkpt>
      <trkpt lat="43.65795" lon="1.36306">
        <ele>140</ele>
        <time>2025-01-23T18:22:48Z</time>
      </trkpt>
      <trkpt lat="43.65794" lon="1.36304">
        <ele>140</ele>
        <time>2025-01-23T18:22:49Z</time>
      </trkpt>
      <trkpt lat="43.65793" lon="1.36301">
        <ele>140</ele>
        <time>2025-01-23T18:22:50Z</time>
      </trkpt>
      <trkpt lat="43.65793" lon="1.36299">
        <ele>140</ele>
        <time>2025-01-23T18:22:51Z</time>
      </trkpt>
      <trkpt lat="43.65793" lon="1.36296">
        <ele>140</ele>
        <time>2025-01-23T18:22:52Z</time>
      </trkpt>
      <trkpt lat="43.65793" lon="1.36296">
        <ele>140</ele>
        <time>2025-01-23T18:22:53Z</time>
      </trkpt>
      <trkpt lat="43.65793" lon="1.36291">
        <ele>140</ele>
        <time>2025-01-23T18:22:54Z</time>
      </trkpt>
      <trkpt lat="43.65793" lon="1.36285">
        <ele>140</ele>
        <time>2025-01-23T18:22:55Z</time>
      </trkpt>
      <trkpt lat="43.65793" lon="1.36285">
        <ele>140</ele>
        <time>2025-01-23T18:22:56Z</time>
      </trkpt>
      <trkpt lat="43.65793" lon="1.36282">
        <ele>140</ele>
        <time>2025-01-23T18:22:57Z</time>
      </trkpt>
      <trkpt lat="43.65793" lon="1.3628">
        <ele>140</ele>
        <time>2025-01-23T18:22:58Z</time>
      </trkpt>
      <trkpt lat="43.65793" lon="1.36277">
        <ele>139</ele>
        <time>2025-01-23T18:22:59Z</time>
      </trkpt>
      <trkpt lat="43.65793" lon="1.36274">
        <ele>139</ele>
        <time>2025-01-23T18:23:00Z</time>
      </trkpt>
      <trkpt lat="43.65793" lon="1.36272">
        <ele>139</ele>
        <time>2025-01-23T18:23:01Z</time>
      </trkpt>
      <trkpt lat="43.65793" lon="1.36269">
        <ele>139</ele>
        <time>2025-01-23T18:23:02Z</time>
      </trkpt>
      <trkpt lat="43.65793" lon="1.36266">
        <ele>139</ele>
        <time>2025-01-23T18:23:03Z</time>
      </trkpt>
      <trkpt lat="43.65793" lon="1.36266">
        <ele>139</ele>
        <time>2025-01-23T18:23:04Z</time>
      </trkpt>
      <trkpt lat="43.65793" lon="1.36261">
        <ele>138</ele>
        <time>2025-01-23T18:23:05Z</time>
      </trkpt>
      <trkpt lat="43.65793" lon="1.36258">
        <ele>138</ele>
        <time>2025-01-23T18:23:06Z</time>
      </trkpt>
      <trkpt lat="43.65793" lon="1.36256">
        <ele>138</ele>
        <time>2025-01-23T18:23:07Z</time>
      </trkpt>
      <trkpt lat="43.65793" lon="1.36256">
        <ele>138</ele>
        <time>2025-01-23T18:23:08Z</time>
      </trkpt>
      <trkpt lat="43.65793" lon="1.36251">
        <ele>138</ele>
        <time>2025-01-23T18:23:09Z</time>
      </trkpt>
      <trkpt lat="43.65793" lon="1.36248">
        <ele>138</ele>
        <time>2025-01-23T18:23:10Z</time>
      </trkpt>
      <trkpt lat="43.65793" lon="1.36245">
        <ele>138</ele>
        <time>2025-01-23T18:23:11Z</time>
      </trkpt>
      <trkpt lat="43.65792" lon="1.36242">
        <ele>138</ele>
        <time>2025-01-23T18:23:12Z</time>
      </trkpt>
      <trkpt lat="43.65792" lon="1.36239">
        <ele>138</ele>
        <time>2025-01-23T18:23:13Z</time>
      </trkpt>
      <trkpt lat="43.65792" lon="1.36233">
        <ele>138</ele>
        <time>2025-01-23T18:23:14Z</time>
      </trkpt>
      <trkpt lat="43.65792" lon="1.36233">
        <ele>138</ele>
        <time>2025-01-23T18:23:15Z</time>
      </trkpt>
      <trkpt lat="43.65792" lon="1.36231">
        <ele>138</ele>
        <time>2025-01-23T18:23:16Z</time>
      </trkpt>
      <trkpt lat="43.65792" lon="1.36228">
        <ele>138</ele>
        <time>2025-01-23T18:23:17Z</time>
      </trkpt>
      <trkpt lat="43.65792" lon="1.36228">
        <ele>138</ele>
        <time>2025-01-23T18:23:18Z</time>
      </trkpt>
      <trkpt lat="43.65792" lon="1.36223">
        <ele>137</ele>
        <time>2025-01-23T18:23:19Z</time>
      </trkpt>
      <trkpt lat="43.65792" lon="1.36219">
        <ele>137</ele>
        <time>2025-01-23T18:23:20Z</time>
      </trkpt>
      <trkpt lat="43.65792" lon="1.36216">
        <ele>137</ele>
        <time>2025-01-23T18:23:21Z</time>
      </trkpt>
      <trkpt lat="43.65792" lon="1.36213">
        <ele>138</ele>
        <time>2025-01-23T18:23:22Z</time>
      </trkpt>
      <trkpt lat="43.65792" lon="1.3621">
        <ele>138</ele>
        <time>2025-01-23T18:23:23Z</time>
      </trkpt>
      <trkpt lat="43.65792" lon="1.36207">
        <ele>138</ele>
        <time>2025-01-23T18:23:24Z</time>
      </trkpt>
      <trkpt lat="43.65792" lon="1.36204">
        <ele>138</ele>
        <time>2025-01-23T18:23:25Z</time>
      </trkpt>
      <trkpt lat="43.65792" lon="1.36204">
        <ele>138</ele>
        <time>2025-01-23T18:23:26Z</time>
      </trkpt>
      <trkpt lat="43.65792" lon="1.36199">
        <ele>137</ele>
        <time>2025-01-23T18:23:27Z</time>
      </trkpt>
      <trkpt lat="43.65792" lon="1.36199">
        <ele>137</ele>
        <time>2025-01-23T18:23:28Z</time>
      </trkpt>
      <trkpt lat="43.65791" lon="1.36194">
        <ele>137</ele>
        <time>2025-01-23T18:23:29Z</time>
      </trkpt>
      <trkpt lat="43.65791" lon="1.36191">
        <ele>137</ele>
        <time>2025-01-23T18:23:30Z</time>
      </trkpt>
      <trkpt lat="43.65791" lon="1.36188">
        <ele>137</ele>
        <time>2025-01-23T18:23:31Z</time>
      </trkpt>
      <trkpt lat="43.65791" lon="1.36186">
        <ele>137</ele>
        <time>2025-01-23T18:23:32Z</time>
      </trkpt>
      <trkpt lat="43.65791" lon="1.36183">
        <ele>136</ele>
        <time>2025-01-23T18:23:33Z</time>
      </trkpt>
      <trkpt lat="43.65791" lon="1.36181">
        <ele>136</ele>
        <time>2025-01-23T18:23:34Z</time>
      </trkpt>
      <trkpt lat="43.65791" lon="1.36178">
        <ele>136</ele>
        <time>2025-01-23T18:23:35Z</time>
      </trkpt>
      <trkpt lat="43.65791" lon="1.36175">
        <ele>136</ele>
        <time>2025-01-23T18:23:36Z</time>
      </trkpt>
      <trkpt lat="43.6579" lon="1.36173">
        <ele>136</ele>
        <time>2025-01-23T18:23:37Z</time>
      </trkpt>
      <trkpt lat="43.6579" lon="1.36173">
        <ele>136</ele>
        <time>2025-01-23T18:23:38Z</time>
      </trkpt>
      <trkpt lat="43.6579" lon="1.36167">
        <ele>136</ele>
        <time>2025-01-23T18:23:39Z</time>
      </trkpt>
      <trkpt lat="43.6579" lon="1.36164">
        <ele>135</ele>
        <time>2025-01-23T18:23:40Z</time>
      </trkpt>
      <trkpt lat="43.6579" lon="1.36161">
        <ele>136</ele>
        <time>2025-01-23T18:23:41Z</time>
      </trkpt>
      <trkpt lat="43.6579" lon="1.36158">
        <ele>136</ele>
        <time>2025-01-23T18:23:42Z</time>
      </trkpt>
      <trkpt lat="43.6579" lon="1.36155">
        <ele>135</ele>
        <time>2025-01-23T18:23:43Z</time>
      </trkpt>
      <trkpt lat="43.6579" lon="1.36155">
        <ele>136</ele>
        <time>2025-01-23T18:23:44Z</time>
      </trkpt>
      <trkpt lat="43.65789" lon="1.3615">
        <ele>136</ele>
        <time>2025-01-23T18:23:45Z</time>
      </trkpt>
      <trkpt lat="43.65789" lon="1.3615">
        <ele>136</ele>
        <time>2025-01-23T18:23:46Z</time>
      </trkpt>
      <trkpt lat="43.65789" lon="1.36145">
        <ele>136</ele>
        <time>2025-01-23T18:23:47Z</time>
      </trkpt>
      <trkpt lat="43.65789" lon="1.36142">
        <ele>136</ele>
        <time>2025-01-23T18:23:48Z</time>
      </trkpt>
      <trkpt lat="43.65789" lon="1.36139">
        <ele>136</ele>
        <time>2025-01-23T18:23:49Z</time>
      </trkpt>
      <trkpt lat="43.65789" lon="1.36137">
        <ele>136</ele>
        <time>2025-01-23T18:23:50Z</time>
      </trkpt>
      <trkpt lat="43.65789" lon="1.36134">
        <ele>136</ele>
        <time>2025-01-23T18:23:51Z</time>
      </trkpt>
      <trkpt lat="43.65789" lon="1.36131">
        <ele>136</ele>
        <time>2025-01-23T18:23:52Z</time>
      </trkpt>
      <trkpt lat="43.6579" lon="1.36129">
        <ele>136</ele>
        <time>2025-01-23T18:23:53Z</time>
      </trkpt>
      <trkpt lat="43.65791" lon="1.36126">
        <ele>136</ele>
        <time>2025-01-23T18:23:54Z</time>
      </trkpt>
      <trkpt lat="43.65792" lon="1.36124">
        <ele>136</ele>
        <time>2025-01-23T18:23:55Z</time>
      </trkpt>
      <trkpt lat="43.65794" lon="1.36121">
        <ele>136</ele>
        <time>2025-01-23T18:23:56Z</time>
      </trkpt>
      <trkpt lat="43.65795" lon="1.36119">
        <ele>136</ele>
        <time>2025-01-23T18:23:57Z</time>
      </trkpt>
      <trkpt lat="43.65794" lon="1.3612">
        <ele>136</ele>
        <time>2025-01-23T18:23:58Z</time>
      </trkpt>
      <trkpt lat="43.65794" lon="1.36122">
        <ele>136</ele>
        <time>2025-01-23T18:23:59Z</time>
      </trkpt>
      <trkpt lat="43.65793" lon="1.36123">
        <ele>136</ele>
        <time>2025-01-23T18:24:00Z</time>
      </trkpt>
      <trkpt lat="43.65792" lon="1.36124">
        <ele>136</ele>
        <time>2025-01-23T18:24:01Z</time>
      </trkpt>
      <trkpt lat="43.65791" lon="1.36127">
        <ele>136</ele>
        <time>2025-01-23T18:24:02Z</time>
      </trkpt>
      <trkpt lat="43.65789" lon="1.36132">
        <ele>136</ele>
        <time>2025-01-23T18:24:03Z</time>
      </trkpt>
      <trkpt lat="43.65789" lon="1.36137">
        <ele>136</ele>
        <time>2025-01-23T18:24:04Z</time>
      </trkpt>
      <trkpt lat="43.65788" lon="1.36142">
        <ele>136</ele>
        <time>2025-01-23T18:24:05Z</time>
      </trkpt>
      <trkpt lat="43.65789" lon="1.36147">
        <ele>136</ele>
        <time>2025-01-23T18:24:06Z</time>
      </trkpt>
      <trkpt lat="43.65789" lon="1.36152">
        <ele>136</ele>
        <time>2025-01-23T18:24:07Z</time>
      </trkpt>
      <trkpt lat="43.65789" lon="1.36157">
        <ele>136</ele>
        <time>2025-01-23T18:24:08Z</time>
      </trkpt>
      <trkpt lat="43.65789" lon="1.36162">
        <ele>136</ele>
        <time>2025-01-23T18:24:09Z</time>
      </trkpt>
      <trkpt lat="43.6579" lon="1.36167">
        <ele>137</ele>
        <time>2025-01-23T18:24:10Z</time>
      </trkpt>
      <trkpt lat="43.65791" lon="1.36172">
        <ele>137</ele>
        <time>2025-01-23T18:24:11Z</time>
      </trkpt>
      <trkpt lat="43.65791" lon="1.36176">
        <ele>137</ele>
        <time>2025-01-23T18:24:12Z</time>
      </trkpt>
      <trkpt lat="43.65791" lon="1.36181">
        <ele>137</ele>
        <time>2025-01-23T18:24:13Z</time>
      </trkpt>
      <trkpt lat="43.65791" lon="1.36185">
        <ele>137</ele>
        <time>2025-01-23T18:24:14Z</time>
      </trkpt>
      <trkpt lat="43.65791" lon="1.3619">
        <ele>138</ele>
        <time>2025-01-23T18:24:15Z</time>
      </trkpt>
      <trkpt lat="43.65792" lon="1.36195">
        <ele>138</ele>
        <time>2025-01-23T18:24:16Z</time>
      </trkpt>
      <trkpt lat="43.65791" lon="1.362">
        <ele>138</ele>
        <time>2025-01-23T18:24:17Z</time>
      </trkpt>
      <trkpt lat="43.65791" lon="1.36206">
        <ele>138</ele>
        <time>2025-01-23T18:24:18Z</time>
      </trkpt>
      <trkpt lat="43.65792" lon="1.36211">
        <ele>138</ele>
        <time>2025-01-23T18:24:19Z</time>
      </trkpt>
      <trkpt lat="43.65792" lon="1.36216">
        <ele>138</ele>
        <time>2025-01-23T18:24:20Z</time>
      </trkpt>
      <trkpt lat="43.65793" lon="1.36221">
        <ele>138</ele>
        <time>2025-01-23T18:24:21Z</time>
      </trkpt>
      <trkpt lat="43.65793" lon="1.36227">
        <ele>138</ele>
        <time>2025-01-23T18:24:22Z</time>
      </trkpt>
      <trkpt lat="43.65794" lon="1.36232">
        <ele>138</ele>
        <time>2025-01-23T18:24:23Z</time>
      </trkpt>
      <trkpt lat="43.65794" lon="1.36238">
        <ele>138</ele>
        <time>2025-01-23T18:24:24Z</time>
      </trkpt>
      <trkpt lat="43.65793" lon="1.36243">
        <ele>138</ele>
        <time>2025-01-23T18:24:25Z</time>
      </trkpt>
      <trkpt lat="43.65793" lon="1.36248">
        <ele>139</ele>
        <time>2025-01-23T18:24:26Z</time>
      </trkpt>
      <trkpt lat="43.65793" lon="1.36254">
        <ele>139</ele>
        <time>2025-01-23T18:24:27Z</time>
      </trkpt>
      <trkpt lat="43.65793" lon="1.3626">
        <ele>139</ele>
        <time>2025-01-23T18:24:28Z</time>
      </trkpt>
      <trkpt lat="43.65794" lon="1.36265">
        <ele>139</ele>
        <time>2025-01-23T18:24:29Z</time>
      </trkpt>
      <trkpt lat="43.65794" lon="1.3627">
        <ele>139</ele>
        <time>2025-01-23T18:24:30Z</time>
      </trkpt>
      <trkpt lat="43.65794" lon="1.36276">
        <ele>140</ele>
        <time>2025-01-23T18:24:31Z</time>
      </trkpt>
      <trkpt lat="43.65794" lon="1.36281">
        <ele>140</ele>
        <time>2025-01-23T18:24:32Z</time>
      </trkpt>
      <trkpt lat="43.65794" lon="1.36286">
        <ele>140</ele>
        <time>2025-01-23T18:24:33Z</time>
      </trkpt>
      <trkpt lat="43.65794" lon="1.36292">
        <ele>141</ele>
        <time>2025-01-23T18:24:34Z</time>
      </trkpt>
      <trkpt lat="43.65795" lon="1.36297">
        <ele>142</ele>
        <time>2025-01-23T18:24:35Z</time>
      </trkpt>
      <trkpt lat="43.65795" lon="1.36303">
        <ele>142</ele>
        <time>2025-01-23T18:24:36Z</time>
      </trkpt>
      <trkpt lat="43.65796" lon="1.36308">
        <ele>142</ele>
        <time>2025-01-23T18:24:37Z</time>
      </trkpt>
      <trkpt lat="43.65797" lon="1.36313">
        <ele>142</ele>
        <time>2025-01-23T18:24:38Z</time>
      </trkpt>
      <trkpt lat="43.65799" lon="1.36319">
        <ele>142</ele>
        <time>2025-01-23T18:24:39Z</time>
      </trkpt>
      <trkpt lat="43.658" lon="1.36324">
        <ele>142</ele>
        <time>2025-01-23T18:24:40Z</time>
      </trkpt>
      <trkpt lat="43.65801" lon="1.36329">
        <ele>142</ele>
        <time>2025-01-23T18:24:41Z</time>
      </trkpt>
      <trkpt lat="43.65803" lon="1.36334">
        <ele>142</ele>
        <time>2025-01-23T18:24:42Z</time>
      </trkpt>
      <trkpt lat="43.65804" lon="1.36338">
        <ele>142</ele>
        <time>2025-01-23T18:24:43Z</time>
      </trkpt>
      <trkpt lat="43.65806" lon="1.36343">
        <ele>142</ele>
        <time>2025-01-23T18:24:44Z</time>
      </trkpt>
      <trkpt lat="43.65808" lon="1.36348">
        <ele>142</ele>
        <time>2025-01-23T18:24:45Z</time>
      </trkpt>
      <trkpt lat="43.65809" lon="1.36354">
        <ele>142</ele>
        <time>2025-01-23T18:24:46Z</time>
      </trkpt>
      <trkpt lat="43.6581" lon="1.36356">
        <ele>142</ele>
        <time>2025-01-23T18:24:47Z</time>
      </trkpt>
      <trkpt lat="43.65811" lon="1.36358">
        <ele>142</ele>
        <time>2025-01-23T18:24:48Z</time>
      </trkpt>
      <trkpt lat="43.65812" lon="1.36361">
        <ele>142</ele>
        <time>2025-01-23T18:24:49Z</time>
      </trkpt>
      <trkpt lat="43.65816" lon="1.36373">
        <ele>143</ele>
        <time>2025-01-23T18:24:50Z</time>
      </trkpt>
      <trkpt lat="43.65817" lon="1.36378">
        <ele>143</ele>
        <time>2025-01-23T18:24:51Z</time>
      </trkpt>
      <trkpt lat="43.65818" lon="1.36381">
        <ele>143</ele>
        <time>2025-01-23T18:24:52Z</time>
      </trkpt>
      <trkpt lat="43.65819" lon="1.36384">
        <ele>143</ele>
        <time>2025-01-23T18:24:53Z</time>
      </trkpt>
      <trkpt lat="43.6582" lon="1.36387">
        <ele>143</ele>
        <time>2025-01-23T18:24:54Z</time>
      </trkpt>
      <trkpt lat="43.65822" lon="1.36396">
        <ele>143</ele>
        <time>2025-01-23T18:24:55Z</time>
      </trkpt>
      <trkpt lat="43.65823" lon="1.36401">
        <ele>143</ele>
        <time>2025-01-23T18:24:56Z</time>
      </trkpt>
      <trkpt lat="43.65825" lon="1.36406">
        <ele>143</ele>
        <time>2025-01-23T18:24:57Z</time>
      </trkpt>
      <trkpt lat="43.65826" lon="1.36411">
        <ele>143</ele>
        <time>2025-01-23T18:24:58Z</time>
      </trkpt>
      <trkpt lat="43.65827" lon="1.36416">
        <ele>143</ele>
        <time>2025-01-23T18:24:59Z</time>
      </trkpt>
      <trkpt lat="43.65829" lon="1.36421">
        <ele>142</ele>
        <time>2025-01-23T18:25:00Z</time>
      </trkpt>
      <trkpt lat="43.6583" lon="1.36426">
        <ele>142</ele>
        <time>2025-01-23T18:25:01Z</time>
      </trkpt>
      <trkpt lat="43.65831" lon="1.36431">
        <ele>142</ele>
        <time>2025-01-23T18:25:02Z</time>
      </trkpt>
      <trkpt lat="43.65833" lon="1.36435">
        <ele>142</ele>
        <time>2025-01-23T18:25:03Z</time>
      </trkpt>
      <trkpt lat="43.65834" lon="1.36439">
        <ele>142</ele>
        <time>2025-01-23T18:25:04Z</time>
      </trkpt>
      <trkpt lat="43.65833" lon="1.36444">
        <ele>141</ele>
        <time>2025-01-23T18:25:05Z</time>
      </trkpt>
      <trkpt lat="43.65831" lon="1.36448">
        <ele>141</ele>
        <time>2025-01-23T18:25:06Z</time>
      </trkpt>
      <trkpt lat="43.65829" lon="1.36451">
        <ele>140</ele>
        <time>2025-01-23T18:25:07Z</time>
      </trkpt>
      <trkpt lat="43.65825" lon="1.36452">
        <ele>140</ele>
        <time>2025-01-23T18:25:08Z</time>
      </trkpt>
      <trkpt lat="43.65822" lon="1.36452">
        <ele>139</ele>
        <time>2025-01-23T18:25:09Z</time>
      </trkpt>
      <trkpt lat="43.65818" lon="1.36454">
        <ele>139</ele>
        <time>2025-01-23T18:25:10Z</time>
      </trkpt>
      <trkpt lat="43.65814" lon="1.36455">
        <ele>139</ele>
        <time>2025-01-23T18:25:11Z</time>
      </trkpt>
      <trkpt lat="43.65811" lon="1.36456">
        <ele>139</ele>
        <time>2025-01-23T18:25:12Z</time>
      </trkpt>
      <trkpt lat="43.65807" lon="1.36456">
        <ele>140</ele>
        <time>2025-01-23T18:25:13Z</time>
      </trkpt>
      <trkpt lat="43.65803" lon="1.36455">
        <ele>140</ele>
        <time>2025-01-23T18:25:14Z</time>
      </trkpt>
      <trkpt lat="43.658" lon="1.36452">
        <ele>140</ele>
        <time>2025-01-23T18:25:15Z</time>
      </trkpt>
      <trkpt lat="43.65799" lon="1.36447">
        <ele>140</ele>
        <time>2025-01-23T18:25:16Z</time>
      </trkpt>
      <trkpt lat="43.65798" lon="1.36441">
        <ele>141</ele>
        <time>2025-01-23T18:25:17Z</time>
      </trkpt>
      <trkpt lat="43.658" lon="1.36436">
        <ele>141</ele>
        <time>2025-01-23T18:25:18Z</time>
      </trkpt>
      <trkpt lat="43.65803" lon="1.36432">
        <ele>141</ele>
        <time>2025-01-23T18:25:19Z</time>
      </trkpt>
      <trkpt lat="43.65807" lon="1.3643">
        <ele>142</ele>
        <time>2025-01-23T18:25:20Z</time>
      </trkpt>
      <trkpt lat="43.6581" lon="1.36427">
        <ele>142</ele>
        <time>2025-01-23T18:25:21Z</time>
      </trkpt>
      <trkpt lat="43.65814" lon="1.36425">
        <ele>142</ele>
        <time>2025-01-23T18:25:22Z</time>
      </trkpt>
      <trkpt lat="43.65817" lon="1.36423">
        <ele>142</ele>
        <time>2025-01-23T18:25:23Z</time>
      </trkpt>
      <trkpt lat="43.65821" lon="1.3642">
        <ele>142</ele>
        <time>2025-01-23T18:25:24Z</time>
      </trkpt>
      <trkpt lat="43.65824" lon="1.36417">
        <ele>142</ele>
        <time>2025-01-23T18:25:25Z</time>
      </trkpt>
      <trkpt lat="43.65826" lon="1.36413">
        <ele>142</ele>
        <time>2025-01-23T18:25:26Z</time>
      </trkpt>
      <trkpt lat="43.65825" lon="1.36407">
        <ele>142</ele>
        <time>2025-01-23T18:25:27Z</time>
      </trkpt>
      <trkpt lat="43.65825" lon="1.36407">
        <ele>142</ele>
        <time>2025-01-23T18:25:28Z</time>
      </trkpt>
      <trkpt lat="43.65825" lon="1.36404">
        <ele>142</ele>
        <time>2025-01-23T18:25:29Z</time>
      </trkpt>
      <trkpt lat="43.65825" lon="1.36404">
        <ele>142</ele>
        <time>2025-01-23T18:25:30Z</time>
      </trkpt>
      <trkpt lat="43.65823" lon="1.364">
        <ele>142</ele>
        <time>2025-01-23T18:25:31Z</time>
      </trkpt>
      <trkpt lat="43.65823" lon="1.364">
        <ele>142</ele>
        <time>2025-01-23T18:25:32Z</time>
      </trkpt>
      <trkpt lat="43.65822" lon="1.36396">
        <ele>142</ele>
        <time>2025-01-23T18:25:33Z</time>
      </trkpt>
      <trkpt lat="43.65822" lon="1.36396">
        <ele>142</ele>
        <time>2025-01-23T18:25:34Z</time>
      </trkpt>
      <trkpt lat="43.65821" lon="1.36393">
        <ele>142</ele>
        <time>2025-01-23T18:25:35Z</time>
      </trkpt>
      <trkpt lat="43.65821" lon="1.36393">
        <ele>142</ele>
        <time>2025-01-23T18:25:36Z</time>
      </trkpt>
      <trkpt lat="43.6582" lon="1.3639">
        <ele>142</ele>
        <time>2025-01-23T18:25:37Z</time>
      </trkpt>
      <trkpt lat="43.6582" lon="1.3639">
        <ele>142</ele>
        <time>2025-01-23T18:25:38Z</time>
      </trkpt>
      <trkpt lat="43.65819" lon="1.36387">
        <ele>142</ele>
        <time>2025-01-23T18:25:39Z</time>
      </trkpt>
      <trkpt lat="43.65819" lon="1.36387">
        <ele>142</ele>
        <time>2025-01-23T18:25:40Z</time>
      </trkpt>
      <trkpt lat="43.65818" lon="1.36385">
        <ele>142</ele>
        <time>2025-01-23T18:25:41Z</time>
      </trkpt>
      <trkpt lat="43.65818" lon="1.36385">
        <ele>142</ele>
        <time>2025-01-23T18:25:42Z</time>
      </trkpt>
      <trkpt lat="43.65818" lon="1.36382">
        <ele>142</ele>
        <time>2025-01-23T18:25:43Z</time>
      </trkpt>
      <trkpt lat="43.65818" lon="1.36382">
        <ele>142</ele>
        <time>2025-01-23T18:25:44Z</time>
      </trkpt>
      <trkpt lat="43.65817" lon="1.3638">
        <ele>142</ele>
        <time>2025-01-23T18:25:45Z</time>
      </trkpt>
      <trkpt lat="43.65817" lon="1.3638">
        <ele>142</ele>
        <time>2025-01-23T18:25:46Z</time>
      </trkpt>
      <trkpt lat="43.65816" lon="1.36377">
        <ele>142</ele>
        <time>2025-01-23T18:25:47Z</time>
      </trkpt>
      <trkpt lat="43.65816" lon="1.36377">
        <ele>142</ele>
        <time>2025-01-23T18:25:48Z</time>
      </trkpt>
      <trkpt lat="43.65815" lon="1.36374">
        <ele>142</ele>
        <time>2025-01-23T18:25:49Z</time>
      </trkpt>
      <trkpt lat="43.65815" lon="1.36374">
        <ele>142</ele>
        <time>2025-01-23T18:25:50Z</time>
      </trkpt>
      <trkpt lat="43.65814" lon="1.36371">
        <ele>142</ele>
        <time>2025-01-23T18:25:51Z</time>
      </trkpt>
      <trkpt lat="43.65814" lon="1.36371">
        <ele>142</ele>
        <time>2025-01-23T18:25:52Z</time>
      </trkpt>
      <trkpt lat="43.65813" lon="1.36368">
        <ele>142</ele>
        <time>2025-01-23T18:25:53Z</time>
      </trkpt>
      <trkpt lat="43.65813" lon="1.36368">
        <ele>142</ele>
        <time>2025-01-23T18:25:54Z</time>
      </trkpt>
      <trkpt lat="43.65812" lon="1.36365">
        <ele>142</ele>
        <time>2025-01-23T18:25:55Z</time>
      </trkpt>
      <trkpt lat="43.65812" lon="1.36365">
        <ele>142</ele>
        <time>2025-01-23T18:25:56Z</time>
      </trkpt>
      <trkpt lat="43.65811" lon="1.36362">
        <ele>142</ele>
        <time>2025-01-23T18:25:57Z</time>
      </trkpt>
      <trkpt lat="43.65811" lon="1.36362">
        <ele>142</ele>
        <time>2025-01-23T18:25:58Z</time>
      </trkpt>
      <trkpt lat="43.6581" lon="1.36358">
        <ele>142</ele>
        <time>2025-01-23T18:25:59Z</time>
      </trkpt>
      <trkpt lat="43.6581" lon="1.36358">
        <ele>142</ele>
        <time>2025-01-23T18:26:00Z</time>
      </trkpt>
      <trkpt lat="43.65809" lon="1.36355">
        <ele>142</ele>
        <time>2025-01-23T18:26:01Z</time>
      </trkpt>
      <trkpt lat="43.65809" lon="1.36355">
        <ele>142</ele>
        <time>2025-01-23T18:26:02Z</time>
      </trkpt>
      <trkpt lat="43.65808" lon="1.36352">
        <ele>142</ele>
        <time>2025-01-23T18:26:03Z</time>
      </trkpt>
      <trkpt lat="43.65808" lon="1.36352">
        <ele>142</ele>
        <time>2025-01-23T18:26:04Z</time>
      </trkpt>
      <trkpt lat="43.65808" lon="1.36349">
        <ele>142</ele>
        <time>2025-01-23T18:26:05Z</time>
      </trkpt>
      <trkpt lat="43.65808" lon="1.36349">
        <ele>142</ele>
        <time>2025-01-23T18:26:06Z</time>
      </trkpt>
      <trkpt lat="43.65807" lon="1.36346">
        <ele>142</ele>
        <time>2025-01-23T18:26:07Z</time>
      </trkpt>
      <trkpt lat="43.65807" lon="1.36346">
        <ele>142</ele>
        <time>2025-01-23T18:26:08Z</time>
      </trkpt>
      <trkpt lat="43.65805" lon="1.36343">
        <ele>142</ele>
        <time>2025-01-23T18:26:09Z</time>
      </trkpt>
      <trkpt lat="43.65805" lon="1.36343">
        <ele>142</ele>
        <time>2025-01-23T18:26:10Z</time>
      </trkpt>
      <trkpt lat="43.65804" lon="1.3634">
        <ele>142</ele>
        <time>2025-01-23T18:26:11Z</time>
      </trkpt>
      <trkpt lat="43.65804" lon="1.3634">
        <ele>142</ele>
        <time>2025-01-23T18:26:12Z</time>
      </trkpt>
      <trkpt lat="43.65803" lon="1.36337">
        <ele>142</ele>
        <time>2025-01-23T18:26:13Z</time>
      </trkpt>
      <trkpt lat="43.65803" lon="1.36337">
        <ele>142</ele>
        <time>2025-01-23T18:26:14Z</time>
      </trkpt>
      <trkpt lat="43.65802" lon="1.36334">
        <ele>142</ele>
        <time>2025-01-23T18:26:15Z</time>
      </trkpt>
      <trkpt lat="43.65802" lon="1.36334">
        <ele>142</ele>
        <time>2025-01-23T18:26:16Z</time>
      </trkpt>
      <trkpt lat="43.65801" lon="1.3633">
        <ele>142</ele>
        <time>2025-01-23T18:26:17Z</time>
      </trkpt>
      <trkpt lat="43.65801" lon="1.3633">
        <ele>142</ele>
        <time>2025-01-23T18:26:18Z</time>
      </trkpt>
      <trkpt lat="43.658" lon="1.36327">
        <ele>142</ele>
        <time>2025-01-23T18:26:19Z</time>
      </trkpt>
      <trkpt lat="43.658" lon="1.36327">
        <ele>142</ele>
        <time>2025-01-23T18:26:20Z</time>
      </trkpt>
      <trkpt lat="43.65799" lon="1.36322">
        <ele>142</ele>
        <time>2025-01-23T18:26:21Z</time>
      </trkpt>
      <trkpt lat="43.65799" lon="1.36322">
        <ele>142</ele>
        <time>2025-01-23T18:26:22Z</time>
      </trkpt>
      <trkpt lat="43.65797" lon="1.36318">
        <ele>142</ele>
        <time>2025-01-23T18:26:23Z</time>
      </trkpt>
      <trkpt lat="43.65796" lon="1.36315">
        <ele>142</ele>
        <time>2025-01-23T18:26:24Z</time>
      </trkpt>
      <trkpt lat="43.65795" lon="1.36312">
        <ele>142</ele>
        <time>2025-01-23T18:26:25Z</time>
      </trkpt>
      <trkpt lat="43.65795" lon="1.36308">
        <ele>142</ele>
        <time>2025-01-23T18:26:26Z</time>
      </trkpt>
      <trkpt lat="43.65795" lon="1.36306">
        <ele>142</ele>
        <time>2025-01-23T18:26:27Z</time>
      </trkpt>
      <trkpt lat="43.65794" lon="1.36303">
        <ele>142</ele>
        <time>2025-01-23T18:26:28Z</time>
      </trkpt>
      <trkpt lat="43.65794" lon="1.36299">
        <ele>141</ele>
        <time>2025-01-23T18:26:29Z</time>
      </trkpt>
      <trkpt lat="43.65793" lon="1.36296">
        <ele>141</ele>
        <time>2025-01-23T18:26:30Z</time>
      </trkpt>
      <trkpt lat="43.65793" lon="1.36293">
        <ele>141</ele>
        <time>2025-01-23T18:26:31Z</time>
      </trkpt>
      <trkpt lat="43.65793" lon="1.36293">
        <ele>141</ele>
        <time>2025-01-23T18:26:32Z</time>
      </trkpt>
      <trkpt lat="43.65793" lon="1.36289">
        <ele>141</ele>
        <time>2025-01-23T18:26:33Z</time>
      </trkpt>
      <trkpt lat="43.65793" lon="1.36289">
        <ele>141</ele>
        <time>2025-01-23T18:26:34Z</time>
      </trkpt>
      <trkpt lat="43.65793" lon="1.36284">
        <ele>141</ele>
        <time>2025-01-23T18:26:35Z</time>
      </trkpt>
      <trkpt lat="43.65793" lon="1.36281">
        <ele>141</ele>
        <time>2025-01-23T18:26:36Z</time>
      </trkpt>
      <trkpt lat="43.65793" lon="1.36279">
        <ele>141</ele>
        <time>2025-01-23T18:26:37Z</time>
      </trkpt>
      <trkpt lat="43.65793" lon="1.36279">
        <ele>141</ele>
        <time>2025-01-23T18:26:38Z</time>
      </trkpt>
      <trkpt lat="43.65793" lon="1.36274">
        <ele>141</ele>
        <time>2025-01-23T18:26:39Z</time>
      </trkpt>
      <trkpt lat="43.65793" lon="1.36271">
        <ele>141</ele>
        <time>2025-01-23T18:26:40Z</time>
      </trkpt>
      <trkpt lat="43.65793" lon="1.36271">
        <ele>141</ele>
        <time>2025-01-23T18:26:41Z</time>
      </trkpt>
      <trkpt lat="43.65792" lon="1.36266">
        <ele>141</ele>
        <time>2025-01-23T18:26:42Z</time>
      </trkpt>
      <trkpt lat="43.65792" lon="1.36263">
        <ele>141</ele>
        <time>2025-01-23T18:26:43Z</time>
      </trkpt>
      <trkpt lat="43.65792" lon="1.3626">
        <ele>140</ele>
        <time>2025-01-23T18:26:44Z</time>
      </trkpt>
      <trkpt lat="43.65792" lon="1.3626">
        <ele>140</ele>
        <time>2025-01-23T18:26:45Z</time>
      </trkpt>
      <trkpt lat="43.65792" lon="1.36255">
        <ele>140</ele>
        <time>2025-01-23T18:26:46Z</time>
      </trkpt>
      <trkpt lat="43.65792" lon="1.36253">
        <ele>140</ele>
        <time>2025-01-23T18:26:47Z</time>
      </trkpt>
      <trkpt lat="43.65791" lon="1.3625">
        <ele>140</ele>
        <time>2025-01-23T18:26:48Z</time>
      </trkpt>
      <trkpt lat="43.65791" lon="1.36247">
        <ele>139</ele>
        <time>2025-01-23T18:26:49Z</time>
      </trkpt>
      <trkpt lat="43.65791" lon="1.36244">
        <ele>139</ele>
        <time>2025-01-23T18:26:50Z</time>
      </trkpt>
      <trkpt lat="43.65791" lon="1.36241">
        <ele>139</ele>
        <time>2025-01-23T18:26:51Z</time>
      </trkpt>
      <trkpt lat="43.65791" lon="1.36238">
        <ele>139</ele>
        <time>2025-01-23T18:26:52Z</time>
      </trkpt>
      <trkpt lat="43.65791" lon="1.36235">
        <ele>139</ele>
        <time>2025-01-23T18:26:53Z</time>
      </trkpt>
      <trkpt lat="43.65792" lon="1.36232">
        <ele>139</ele>
        <time>2025-01-23T18:26:54Z</time>
      </trkpt>
      <trkpt lat="43.65792" lon="1.36229">
        <ele>139</ele>
        <time>2025-01-23T18:26:55Z</time>
      </trkpt>
      <trkpt lat="43.65792" lon="1.36227">
        <ele>139</ele>
        <time>2025-01-23T18:26:56Z</time>
      </trkpt>
      <trkpt lat="43.65791" lon="1.36224">
        <ele>138</ele>
        <time>2025-01-23T18:26:57Z</time>
      </trkpt>
      <trkpt lat="43.65791" lon="1.36221">
        <ele>138</ele>
        <time>2025-01-23T18:26:58Z</time>
      </trkpt>
      <trkpt lat="43.65791" lon="1.36219">
        <ele>138</ele>
        <time>2025-01-23T18:26:59Z</time>
      </trkpt>
      <trkpt lat="43.6579" lon="1.36216">
        <ele>138</ele>
        <time>2025-01-23T18:27:00Z</time>
      </trkpt>
      <trkpt lat="43.6579" lon="1.36212">
        <ele>138</ele>
        <time>2025-01-23T18:27:01Z</time>
      </trkpt>
      <trkpt lat="43.6579" lon="1.36208">
        <ele>137</ele>
        <time>2025-01-23T18:27:02Z</time>
      </trkpt>
      <trkpt lat="43.6579" lon="1.36208">
        <ele>137</ele>
        <time>2025-01-23T18:27:03Z</time>
      </trkpt>
      <trkpt lat="43.6579" lon="1.36208">
        <ele>137</ele>
        <time>2025-01-23T18:27:04Z</time>
      </trkpt>
      <trkpt lat="43.65789" lon="1.36202">
        <ele>137</ele>
        <time>2025-01-23T18:27:05Z</time>
      </trkpt>
      <trkpt lat="43.65789" lon="1.362">
        <ele>137</ele>
        <time>2025-01-23T18:27:06Z</time>
      </trkpt>
      <trkpt lat="43.65789" lon="1.36197">
        <ele>137</ele>
        <time>2025-01-23T18:27:07Z</time>
      </trkpt>
      <trkpt lat="43.65789" lon="1.36194">
        <ele>137</ele>
        <time>2025-01-23T18:27:08Z</time>
      </trkpt>
      <trkpt lat="43.65789" lon="1.36191">
        <ele>137</ele>
        <time>2025-01-23T18:27:09Z</time>
      </trkpt>
      <trkpt lat="43.65789" lon="1.36189">
        <ele>137</ele>
        <time>2025-01-23T18:27:10Z</time>
      </trkpt>
      <trkpt lat="43.65789" lon="1.36185">
        <ele>137</ele>
        <time>2025-01-23T18:27:11Z</time>
      </trkpt>
      <trkpt lat="43.65789" lon="1.36183">
        <ele>137</ele>
        <time>2025-01-23T18:27:12Z</time>
      </trkpt>
      <trkpt lat="43.65789" lon="1.3618">
        <ele>137</ele>
        <time>2025-01-23T18:27:13Z</time>
      </trkpt>
      <trkpt lat="43.65789" lon="1.36177">
        <ele>137</ele>
        <time>2025-01-23T18:27:14Z</time>
      </trkpt>
      <trkpt lat="43.65789" lon="1.36177">
        <ele>137</ele>
        <time>2025-01-23T18:27:15Z</time>
      </trkpt>
      <trkpt lat="43.65789" lon="1.36171">
        <ele>137</ele>
        <time>2025-01-23T18:27:16Z</time>
      </trkpt>
      <trkpt lat="43.65789" lon="1.36168">
        <ele>137</ele>
        <time>2025-01-23T18:27:17Z</time>
      </trkpt>
      <trkpt lat="43.65789" lon="1.36165">
        <ele>137</ele>
        <time>2025-01-23T18:27:18Z</time>
      </trkpt>
      <trkpt lat="43.65789" lon="1.36163">
        <ele>137</ele>
        <time>2025-01-23T18:27:19Z</time>
      </trkpt>
      <trkpt lat="43.65789" lon="1.3616">
        <ele>137</ele>
        <time>2025-01-23T18:27:20Z</time>
      </trkpt>
      <trkpt lat="43.65789" lon="1.36157">
        <ele>137</ele>
        <time>2025-01-23T18:27:21Z</time>
      </trkpt>
      <trkpt lat="43.65789" lon="1.36154">
        <ele>137</ele>
        <time>2025-01-23T18:27:22Z</time>
      </trkpt>
      <trkpt lat="43.65789" lon="1.36152">
        <ele>137</ele>
        <time>2025-01-23T18:27:23Z</time>
      </trkpt>
      <trkpt lat="43.65789" lon="1.36152">
        <ele>137</ele>
        <time>2025-01-23T18:27:24Z</time>
      </trkpt>
      <trkpt lat="43.65789" lon="1.36147">
        <ele>137</ele>
        <time>2025-01-23T18:27:25Z</time>
      </trkpt>
      <trkpt lat="43.65789" lon="1.36144">
        <ele>137</ele>
        <time>2025-01-23T18:27:26Z</time>
      </trkpt>
      <trkpt lat="43.65789" lon="1.36141">
        <ele>136</ele>
        <time>2025-01-23T18:27:27Z</time>
      </trkpt>
      <trkpt lat="43.65789" lon="1.36138">
        <ele>136</ele>
        <time>2025-01-23T18:27:28Z</time>
      </trkpt>
      <trkpt lat="43.65789" lon="1.36135">
        <ele>136</ele>
        <time>2025-01-23T18:27:29Z</time>
      </trkpt>
      <trkpt lat="43.65789" lon="1.36131">
        <ele>136</ele>
        <time>2025-01-23T18:27:30Z</time>
      </trkpt>
      <trkpt lat="43.6579" lon="1.36129">
        <ele>136</ele>
        <time>2025-01-23T18:27:31Z</time>
      </trkpt>
      <trkpt lat="43.65791" lon="1.36126">
        <ele>136</ele>
        <time>2025-01-23T18:27:32Z</time>
      </trkpt>
      <trkpt lat="43.65792" lon="1.36123">
        <ele>136</ele>
        <time>2025-01-23T18:27:33Z</time>
      </trkpt>
      <trkpt lat="43.65793" lon="1.3612">
        <ele>136</ele>
        <time>2025-01-23T18:27:34Z</time>
      </trkpt>
      <trkpt lat="43.65794" lon="1.36118">
        <ele>136</ele>
        <time>2025-01-23T18:27:35Z</time>
      </trkpt>
      <trkpt lat="43.65794" lon="1.36118">
        <ele>136</ele>
        <time>2025-01-23T18:27:36Z</time>
      </trkpt>
      <trkpt lat="43.65796" lon="1.36116">
        <ele>136</ele>
        <time>2025-01-23T18:27:37Z</time>
      </trkpt>
      <trkpt lat="43.65795" lon="1.36118">
        <ele>136</ele>
        <time>2025-01-23T18:27:38Z</time>
      </trkpt>
      <trkpt lat="43.65793" lon="1.36121">
        <ele>136</ele>
        <time>2025-01-23T18:27:39Z</time>
      </trkpt>
      <trkpt lat="43.65792" lon="1.36125">
        <ele>136</ele>
        <time>2025-01-23T18:27:40Z</time>
      </trkpt>
      <trkpt lat="43.6579" lon="1.36129">
        <ele>136</ele>
        <time>2025-01-23T18:27:41Z</time>
      </trkpt>
      <trkpt lat="43.65789" lon="1.36135">
        <ele>136</ele>
        <time>2025-01-23T18:27:42Z</time>
      </trkpt>
      <trkpt lat="43.65789" lon="1.36141">
        <ele>137</ele>
        <time>2025-01-23T18:27:43Z</time>
      </trkpt>
      <trkpt lat="43.65789" lon="1.36146">
        <ele>137</ele>
        <time>2025-01-23T18:27:44Z</time>
      </trkpt>
      <trkpt lat="43.65789" lon="1.36151">
        <ele>137</ele>
        <time>2025-01-23T18:27:45Z</time>
      </trkpt>
      <trkpt lat="43.65789" lon="1.36157">
        <ele>137</ele>
        <time>2025-01-23T18:27:46Z</time>
      </trkpt>
      <trkpt lat="43.65789" lon="1.36162">
        <ele>137</ele>
        <time>2025-01-23T18:27:47Z</time>
      </trkpt>
      <trkpt lat="43.6579" lon="1.36167">
        <ele>137</ele>
        <time>2025-01-23T18:27:48Z</time>
      </trkpt>
      <trkpt lat="43.6579" lon="1.36172">
        <ele>137</ele>
        <time>2025-01-23T18:27:49Z</time>
      </trkpt>
      <trkpt lat="43.6579" lon="1.36176">
        <ele>137</ele>
        <time>2025-01-23T18:27:50Z</time>
      </trkpt>
      <trkpt lat="43.6579" lon="1.36181">
        <ele>137</ele>
        <time>2025-01-23T18:27:51Z</time>
      </trkpt>
      <trkpt lat="43.6579" lon="1.36186">
        <ele>137</ele>
        <time>2025-01-23T18:27:52Z</time>
      </trkpt>
      <trkpt lat="43.6579" lon="1.36191">
        <ele>137</ele>
        <time>2025-01-23T18:27:53Z</time>
      </trkpt>
      <trkpt lat="43.6579" lon="1.36196">
        <ele>137</ele>
        <time>2025-01-23T18:27:54Z</time>
      </trkpt>
      <trkpt lat="43.65791" lon="1.36201">
        <ele>138</ele>
        <time>2025-01-23T18:27:55Z</time>
      </trkpt>
      <trkpt lat="43.65792" lon="1.36206">
        <ele>138</ele>
        <time>2025-01-23T18:27:56Z</time>
      </trkpt>
      <trkpt lat="43.65792" lon="1.36211">
        <ele>138</ele>
        <time>2025-01-23T18:27:57Z</time>
      </trkpt>
      <trkpt lat="43.65792" lon="1.36217">
        <ele>138</ele>
        <time>2025-01-23T18:27:58Z</time>
      </trkpt>
      <trkpt lat="43.65792" lon="1.36228">
        <ele>138</ele>
        <time>2025-01-23T18:27:59Z</time>
      </trkpt>
      <trkpt lat="43.65792" lon="1.36228">
        <ele>138</ele>
        <time>2025-01-23T18:28:00Z</time>
      </trkpt>
      <trkpt lat="43.65792" lon="1.36233">
        <ele>138</ele>
        <time>2025-01-23T18:28:01Z</time>
      </trkpt>
      <trkpt lat="43.65792" lon="1.36239">
        <ele>138</ele>
        <time>2025-01-23T18:28:02Z</time>
      </trkpt>
      <trkpt lat="43.65792" lon="1.36245">
        <ele>139</ele>
        <time>2025-01-23T18:28:03Z</time>
      </trkpt>
      <trkpt lat="43.65793" lon="1.36251">
        <ele>139</ele>
        <time>2025-01-23T18:28:04Z</time>
      </trkpt>
      <trkpt lat="43.65792" lon="1.36256">
        <ele>139</ele>
        <time>2025-01-23T18:28:05Z</time>
      </trkpt>
      <trkpt lat="43.65792" lon="1.36262">
        <ele>139</ele>
        <time>2025-01-23T18:28:06Z</time>
      </trkpt>
      <trkpt lat="43.65792" lon="1.36268">
        <ele>139</ele>
        <time>2025-01-23T18:28:07Z</time>
      </trkpt>
      <trkpt lat="43.65792" lon="1.36273">
        <ele>139</ele>
        <time>2025-01-23T18:28:08Z</time>
      </trkpt>
      <trkpt lat="43.65793" lon="1.36278">
        <ele>140</ele>
        <time>2025-01-23T18:28:09Z</time>
      </trkpt>
      <trkpt lat="43.65793" lon="1.36283">
        <ele>140</ele>
        <time>2025-01-23T18:28:10Z</time>
      </trkpt>
      <trkpt lat="43.65794" lon="1.36289">
        <ele>140</ele>
        <time>2025-01-23T18:28:11Z</time>
      </trkpt>
      <trkpt lat="43.65795" lon="1.36295">
        <ele>141</ele>
        <time>2025-01-23T18:28:12Z</time>
      </trkpt>
      <trkpt lat="43.65796" lon="1.36301">
        <ele>141</ele>
        <time>2025-01-23T18:28:13Z</time>
      </trkpt>
      <trkpt lat="43.65796" lon="1.36306">
        <ele>141</ele>
        <time>2025-01-23T18:28:14Z</time>
      </trkpt>
      <trkpt lat="43.65797" lon="1.36311">
        <ele>142</ele>
        <time>2025-01-23T18:28:15Z</time>
      </trkpt>
      <trkpt lat="43.65799" lon="1.36316">
        <ele>142</ele>
        <time>2025-01-23T18:28:16Z</time>
      </trkpt>
      <trkpt lat="43.65801" lon="1.36322">
        <ele>142</ele>
        <time>2025-01-23T18:28:17Z</time>
      </trkpt>
      <trkpt lat="43.65803" lon="1.36333">
        <ele>142</ele>
        <time>2025-01-23T18:28:18Z</time>
      </trkpt>
      <trkpt lat="43.65803" lon="1.36333">
        <ele>142</ele>
        <time>2025-01-23T18:28:19Z</time>
      </trkpt>
      <trkpt lat="43.65804" lon="1.36338">
        <ele>142</ele>
        <time>2025-01-23T18:28:20Z</time>
      </trkpt>
      <trkpt lat="43.65806" lon="1.36343">
        <ele>142</ele>
        <time>2025-01-23T18:28:21Z</time>
      </trkpt>
      <trkpt lat="43.65807" lon="1.36348">
        <ele>142</ele>
        <time>2025-01-23T18:28:22Z</time>
      </trkpt>
      <trkpt lat="43.65809" lon="1.36353">
        <ele>142</ele>
        <time>2025-01-23T18:28:23Z</time>
      </trkpt>
      <trkpt lat="43.6581" lon="1.36356">
        <ele>143</ele>
        <time>2025-01-23T18:28:24Z</time>
      </trkpt>
      <trkpt lat="43.65811" lon="1.36359">
        <ele>143</ele>
        <time>2025-01-23T18:28:25Z</time>
      </trkpt>
      <trkpt lat="43.65812" lon="1.36362">
        <ele>143</ele>
        <time>2025-01-23T18:28:26Z</time>
      </trkpt>
      <trkpt lat="43.65815" lon="1.36372">
        <ele>143</ele>
        <time>2025-01-23T18:28:27Z</time>
      </trkpt>
      <trkpt lat="43.65816" lon="1.36376">
        <ele>143</ele>
        <time>2025-01-23T18:28:28Z</time>
      </trkpt>
      <trkpt lat="43.65818" lon="1.36381">
        <ele>143</ele>
        <time>2025-01-23T18:28:29Z</time>
      </trkpt>
      <trkpt lat="43.65819" lon="1.36385">
        <ele>143</ele>
        <time>2025-01-23T18:28:30Z</time>
      </trkpt>
      <trkpt lat="43.6582" lon="1.36389">
        <ele>143</ele>
        <time>2025-01-23T18:28:31Z</time>
      </trkpt>
      <trkpt lat="43.65821" lon="1.36392">
        <ele>143</ele>
        <time>2025-01-23T18:28:32Z</time>
      </trkpt>
      <trkpt lat="43.65825" lon="1.36403">
        <ele>143</ele>
        <time>2025-01-23T18:28:33Z</time>
      </trkpt>
      <trkpt lat="43.65825" lon="1.36403">
        <ele>143</ele>
        <time>2025-01-23T18:28:34Z</time>
      </trkpt>
      <trkpt lat="43.65826" lon="1.36408">
        <ele>143</ele>
        <time>2025-01-23T18:28:35Z</time>
      </trkpt>
      <trkpt lat="43.65828" lon="1.36413">
        <ele>143</ele>
        <time>2025-01-23T18:28:36Z</time>
      </trkpt>
      <trkpt lat="43.65829" lon="1.36416">
        <ele>143</ele>
        <time>2025-01-23T18:28:37Z</time>
      </trkpt>
      <trkpt lat="43.6583" lon="1.36419">
        <ele>143</ele>
        <time>2025-01-23T18:28:38Z</time>
      </trkpt>
      <trkpt lat="43.65831" lon="1.36422">
        <ele>143</ele>
        <time>2025-01-23T18:28:39Z</time>
      </trkpt>
      <trkpt lat="43.65833" lon="1.36432">
        <ele>143</ele>
        <time>2025-01-23T18:28:40Z</time>
      </trkpt>
      <trkpt lat="43.65834" lon="1.36437">
        <ele>142</ele>
        <time>2025-01-23T18:28:41Z</time>
      </trkpt>
      <trkpt lat="43.65835" lon="1.36441">
        <ele>141</ele>
        <time>2025-01-23T18:28:42Z</time>
      </trkpt>
      <trkpt lat="43.65834" lon="1.36446">
        <ele>140</ele>
        <time>2025-01-23T18:28:43Z</time>
      </trkpt>
      <trkpt lat="43.65831" lon="1.3645">
        <ele>139</ele>
        <time>2025-01-23T18:28:44Z</time>
      </trkpt>
      <trkpt lat="43.65828" lon="1.36452">
        <ele>139</ele>
        <time>2025-01-23T18:28:45Z</time>
      </trkpt>
      <trkpt lat="43.65824" lon="1.36452">
        <ele>139</ele>
        <time>2025-01-23T18:28:46Z</time>
      </trkpt>
      <trkpt lat="43.6582" lon="1.36454">
        <ele>139</ele>
        <time>2025-01-23T18:28:47Z</time>
      </trkpt>
      <trkpt lat="43.65816" lon="1.36455">
        <ele>139</ele>
        <time>2025-01-23T18:28:48Z</time>
      </trkpt>
      <trkpt lat="43.65812" lon="1.36457">
        <ele>139</ele>
        <time>2025-01-23T18:28:49Z</time>
      </trkpt>
      <trkpt lat="43.65808" lon="1.36458">
        <ele>139</ele>
        <time>2025-01-23T18:28:50Z</time>
      </trkpt>
      <trkpt lat="43.658" lon="1.36455">
        <ele>139</ele>
        <time>2025-01-23T18:28:51Z</time>
      </trkpt>
      <trkpt lat="43.658" lon="1.36455">
        <ele>139</ele>
        <time>2025-01-23T18:28:52Z</time>
      </trkpt>
      <trkpt lat="43.65798" lon="1.36451">
        <ele>140</ele>
        <time>2025-01-23T18:28:53Z</time>
      </trkpt>
      <trkpt lat="43.65797" lon="1.36444">
        <ele>140</ele>
        <time>2025-01-23T18:28:54Z</time>
      </trkpt>
      <trkpt lat="43.65799" lon="1.36438">
        <ele>140</ele>
        <time>2025-01-23T18:28:55Z</time>
      </trkpt>
      <trkpt lat="43.65805" lon="1.3643">
        <ele>140</ele>
        <time>2025-01-23T18:28:56Z</time>
      </trkpt>
      <trkpt lat="43.65805" lon="1.3643">
        <ele>140</ele>
        <time>2025-01-23T18:28:57Z</time>
      </trkpt>
      <trkpt lat="43.65809" lon="1.36428">
        <ele>140</ele>
        <time>2025-01-23T18:28:58Z</time>
      </trkpt>
      <trkpt lat="43.65812" lon="1.36426">
        <ele>140</ele>
        <time>2025-01-23T18:28:59Z</time>
      </trkpt>
      <trkpt lat="43.65816" lon="1.36424">
        <ele>141</ele>
        <time>2025-01-23T18:29:00Z</time>
      </trkpt>
      <trkpt lat="43.65819" lon="1.36421">
        <ele>141</ele>
        <time>2025-01-23T18:29:01Z</time>
      </trkpt>
      <trkpt lat="43.65822" lon="1.36418">
        <ele>141</ele>
        <time>2025-01-23T18:29:02Z</time>
      </trkpt>
      <trkpt lat="43.65824" lon="1.36414">
        <ele>142</ele>
        <time>2025-01-23T18:29:03Z</time>
      </trkpt>
      <trkpt lat="43.65825" lon="1.3641">
        <ele>142</ele>
        <time>2025-01-23T18:29:04Z</time>
      </trkpt>
      <trkpt lat="43.65824" lon="1.36407">
        <ele>142</ele>
        <time>2025-01-23T18:29:05Z</time>
      </trkpt>
      <trkpt lat="43.65824" lon="1.36404">
        <ele>142</ele>
        <time>2025-01-23T18:29:06Z</time>
      </trkpt>
      <trkpt lat="43.65824" lon="1.36401">
        <ele>142</ele>
        <time>2025-01-23T18:29:07Z</time>
      </trkpt>
      <trkpt lat="43.65824" lon="1.36401">
        <ele>142</ele>
        <time>2025-01-23T18:29:08Z</time>
      </trkpt>
      <trkpt lat="43.65823" lon="1.36398">
        <ele>142</ele>
        <time>2025-01-23T18:29:09Z</time>
      </trkpt>
      <trkpt lat="43.65823" lon="1.36398">
        <ele>142</ele>
        <time>2025-01-23T18:29:10Z</time>
      </trkpt>
      <trkpt lat="43.65822" lon="1.36395">
        <ele>142</ele>
        <time>2025-01-23T18:29:11Z</time>
      </trkpt>
      <trkpt lat="43.65822" lon="1.36395">
        <ele>142</ele>
        <time>2025-01-23T18:29:12Z</time>
      </trkpt>
      <trkpt lat="43.65821" lon="1.36392">
        <ele>142</ele>
        <time>2025-01-23T18:29:13Z</time>
      </trkpt>
      <trkpt lat="43.65821" lon="1.36392">
        <ele>142</ele>
        <time>2025-01-23T18:29:14Z</time>
      </trkpt>
      <trkpt lat="43.6582" lon="1.36389">
        <ele>142</ele>
        <time>2025-01-23T18:29:15Z</time>
      </trkpt>
      <trkpt lat="43.6582" lon="1.36389">
        <ele>142</ele>
        <time>2025-01-23T18:29:16Z</time>
      </trkpt>
      <trkpt lat="43.65819" lon="1.36386">
        <ele>142</ele>
        <time>2025-01-23T18:29:17Z</time>
      </trkpt>
      <trkpt lat="43.65819" lon="1.36386">
        <ele>142</ele>
        <time>2025-01-23T18:29:18Z</time>
      </trkpt>
      <trkpt lat="43.65818" lon="1.36384">
        <ele>142</ele>
        <time>2025-01-23T18:29:19Z</time>
      </trkpt>
      <trkpt lat="43.65818" lon="1.36384">
        <ele>143</ele>
        <time>2025-01-23T18:29:20Z</time>
      </trkpt>
      <trkpt lat="43.65817" lon="1.36381">
        <ele>143</ele>
        <time>2025-01-23T18:29:21Z</time>
      </trkpt>
      <trkpt lat="43.65817" lon="1.36381">
        <ele>143</ele>
        <time>2025-01-23T18:29:22Z</time>
      </trkpt>
      <trkpt lat="43.65816" lon="1.36378">
        <ele>143</ele>
        <time>2025-01-23T18:29:23Z</time>
      </trkpt>
      <trkpt lat="43.65816" lon="1.36378">
        <ele>143</ele>
        <time>2025-01-23T18:29:24Z</time>
      </trkpt>
      <trkpt lat="43.65815" lon="1.36375">
        <ele>143</ele>
        <time>2025-01-23T18:29:25Z</time>
      </trkpt>
      <trkpt lat="43.65815" lon="1.36375">
        <ele>143</ele>
        <time>2025-01-23T18:29:26Z</time>
      </trkpt>
      <trkpt lat="43.65814" lon="1.36372">
        <ele>143</ele>
        <time>2025-01-23T18:29:27Z</time>
      </trkpt>
      <trkpt lat="43.65814" lon="1.36372">
        <ele>143</ele>
        <time>2025-01-23T18:29:28Z</time>
      </trkpt>
      <trkpt lat="43.65813" lon="1.36368">
        <ele>143</ele>
        <time>2025-01-23T18:29:29Z</time>
      </trkpt>
      <trkpt lat="43.65813" lon="1.36368">
        <ele>143</ele>
        <time>2025-01-23T18:29:30Z</time>
      </trkpt>
      <trkpt lat="43.65812" lon="1.36365">
        <ele>143</ele>
        <time>2025-01-23T18:29:31Z</time>
      </trkpt>
      <trkpt lat="43.65812" lon="1.36365">
        <ele>143</ele>
        <time>2025-01-23T18:29:32Z</time>
      </trkpt>
      <trkpt lat="43.65811" lon="1.36362">
        <ele>143</ele>
        <time>2025-01-23T18:29:33Z</time>
      </trkpt>
      <trkpt lat="43.65811" lon="1.36362">
        <ele>143</ele>
        <time>2025-01-23T18:29:34Z</time>
      </trkpt>
      <trkpt lat="43.6581" lon="1.36359">
        <ele>143</ele>
        <time>2025-01-23T18:29:35Z</time>
      </trkpt>
      <trkpt lat="43.6581" lon="1.36359">
        <ele>143</ele>
        <time>2025-01-23T18:29:36Z</time>
      </trkpt>
      <trkpt lat="43.65809" lon="1.36356">
        <ele>143</ele>
        <time>2025-01-23T18:29:37Z</time>
      </trkpt>
      <trkpt lat="43.65809" lon="1.36356">
        <ele>143</ele>
        <time>2025-01-23T18:29:38Z</time>
      </trkpt>
      <trkpt lat="43.65808" lon="1.36353">
        <ele>143</ele>
        <time>2025-01-23T18:29:39Z</time>
      </trkpt>
      <trkpt lat="43.65808" lon="1.36353">
        <ele>143</ele>
        <time>2025-01-23T18:29:40Z</time>
      </trkpt>
      <trkpt lat="43.65807" lon="1.36349">
        <ele>143</ele>
        <time>2025-01-23T18:29:41Z</time>
      </trkpt>
      <trkpt lat="43.65807" lon="1.36349">
        <ele>143</ele>
        <time>2025-01-23T18:29:42Z</time>
      </trkpt>
      <trkpt lat="43.65806" lon="1.36346">
        <ele>143</ele>
        <time>2025-01-23T18:29:43Z</time>
      </trkpt>
      <trkpt lat="43.65806" lon="1.36346">
        <ele>142</ele>
        <time>2025-01-23T18:29:44Z</time>
      </trkpt>
      <trkpt lat="43.65805" lon="1.36344">
        <ele>142</ele>
        <time>2025-01-23T18:29:45Z</time>
      </trkpt>
      <trkpt lat="43.65805" lon="1.36344">
        <ele>142</ele>
        <time>2025-01-23T18:29:46Z</time>
      </trkpt>
      <trkpt lat="43.65804" lon="1.36341">
        <ele>142</ele>
        <time>2025-01-23T18:29:47Z</time>
      </trkpt>
      <trkpt lat="43.65804" lon="1.36341">
        <ele>142</ele>
        <time>2025-01-23T18:29:48Z</time>
      </trkpt>
      <trkpt lat="43.65803" lon="1.36338">
        <ele>142</ele>
        <time>2025-01-23T18:29:49Z</time>
      </trkpt>
      <trkpt lat="43.65803" lon="1.36338">
        <ele>142</ele>
        <time>2025-01-23T18:29:50Z</time>
      </trkpt>
      <trkpt lat="43.65802" lon="1.36335">
        <ele>142</ele>
        <time>2025-01-23T18:29:51Z</time>
      </trkpt>
      <trkpt lat="43.65802" lon="1.36335">
        <ele>142</ele>
        <time>2025-01-23T18:29:52Z</time>
      </trkpt>
      <trkpt lat="43.65801" lon="1.36332">
        <ele>142</ele>
        <time>2025-01-23T18:29:53Z</time>
      </trkpt>
      <trkpt lat="43.65801" lon="1.36332">
        <ele>142</ele>
        <time>2025-01-23T18:29:54Z</time>
      </trkpt>
      <trkpt lat="43.658" lon="1.36328">
        <ele>142</ele>
        <time>2025-01-23T18:29:55Z</time>
      </trkpt>
      <trkpt lat="43.658" lon="1.36328">
        <ele>142</ele>
        <time>2025-01-23T18:29:56Z</time>
      </trkpt>
      <trkpt lat="43.658" lon="1.36325">
        <ele>142</ele>
        <time>2025-01-23T18:29:57Z</time>
      </trkpt>
      <trkpt lat="43.658" lon="1.36325">
        <ele>142</ele>
        <time>2025-01-23T18:29:58Z</time>
      </trkpt>
      <trkpt lat="43.65798" lon="1.36321">
        <ele>142</ele>
        <time>2025-01-23T18:29:59Z</time>
      </trkpt>
      <trkpt lat="43.65798" lon="1.36319">
        <ele>142</ele>
        <time>2025-01-23T18:30:00Z</time>
      </trkpt>
      <trkpt lat="43.65797" lon="1.36316">
        <ele>142</ele>
        <time>2025-01-23T18:30:01Z</time>
      </trkpt>
      <trkpt lat="43.65796" lon="1.36314">
        <ele>141</ele>
        <time>2025-01-23T18:30:02Z</time>
      </trkpt>
      <trkpt lat="43.65795" lon="1.36311">
        <ele>141</ele>
        <time>2025-01-23T18:30:03Z</time>
      </trkpt>
      <trkpt lat="43.65794" lon="1.36308">
        <ele>141</ele>
        <time>2025-01-23T18:30:04Z</time>
      </trkpt>
      <trkpt lat="43.65793" lon="1.36305">
        <ele>141</ele>
        <time>2025-01-23T18:30:05Z</time>
      </trkpt>
      <trkpt lat="43.65793" lon="1.36302">
        <ele>141</ele>
        <time>2025-01-23T18:30:06Z</time>
      </trkpt>
      <trkpt lat="43.65793" lon="1.36299">
        <ele>141</ele>
        <time>2025-01-23T18:30:07Z</time>
      </trkpt>
      <trkpt lat="43.65793" lon="1.36296">
        <ele>141</ele>
        <time>2025-01-23T18:30:08Z</time>
      </trkpt>
      <trkpt lat="43.65793" lon="1.36293">
        <ele>141</ele>
        <time>2025-01-23T18:30:09Z</time>
      </trkpt>
      <trkpt lat="43.65793" lon="1.3629">
        <ele>141</ele>
        <time>2025-01-23T18:30:10Z</time>
      </trkpt>
      <trkpt lat="43.65792" lon="1.36287">
        <ele>141</ele>
        <time>2025-01-23T18:30:11Z</time>
      </trkpt>
      <trkpt lat="43.65792" lon="1.36284">
        <ele>141</ele>
        <time>2025-01-23T18:30:12Z</time>
      </trkpt>
      <trkpt lat="43.65792" lon="1.36282">
        <ele>141</ele>
        <time>2025-01-23T18:30:13Z</time>
      </trkpt>
      <trkpt lat="43.65792" lon="1.36282">
        <ele>141</ele>
        <time>2025-01-23T18:30:14Z</time>
      </trkpt>
      <trkpt lat="43.65792" lon="1.36277">
        <ele>141</ele>
        <time>2025-01-23T18:30:15Z</time>
      </trkpt>
      <trkpt lat="43.65792" lon="1.36275">
        <ele>140</ele>
        <time>2025-01-23T18:30:16Z</time>
      </trkpt>
      <trkpt lat="43.65792" lon="1.36272">
        <ele>140</ele>
        <time>2025-01-23T18:30:17Z</time>
      </trkpt>
      <trkpt lat="43.65792" lon="1.36269">
        <ele>140</ele>
        <time>2025-01-23T18:30:18Z</time>
      </trkpt>
      <trkpt lat="43.65791" lon="1.36267">
        <ele>140</ele>
        <time>2025-01-23T18:30:19Z</time>
      </trkpt>
      <trkpt lat="43.65791" lon="1.36263">
        <ele>140</ele>
        <time>2025-01-23T18:30:20Z</time>
      </trkpt>
      <trkpt lat="43.65791" lon="1.3626">
        <ele>139</ele>
        <time>2025-01-23T18:30:21Z</time>
      </trkpt>
      <trkpt lat="43.65791" lon="1.36257">
        <ele>139</ele>
        <time>2025-01-23T18:30:22Z</time>
      </trkpt>
      <trkpt lat="43.65791" lon="1.36254">
        <ele>139</ele>
        <time>2025-01-23T18:30:23Z</time>
      </trkpt>
      <trkpt lat="43.65791" lon="1.36251">
        <ele>139</ele>
        <time>2025-01-23T18:30:24Z</time>
      </trkpt>
      <trkpt lat="43.65791" lon="1.36248">
        <ele>139</ele>
        <time>2025-01-23T18:30:25Z</time>
      </trkpt>
      <trkpt lat="43.65791" lon="1.36245">
        <ele>139</ele>
        <time>2025-01-23T18:30:26Z</time>
      </trkpt>
      <trkpt lat="43.65792" lon="1.36242">
        <ele>139</ele>
        <time>2025-01-23T18:30:27Z</time>
      </trkpt>
      <trkpt lat="43.65791" lon="1.36238">
        <ele>139</ele>
        <time>2025-01-23T18:30:28Z</time>
      </trkpt>
      <trkpt lat="43.65791" lon="1.36235">
        <ele>139</ele>
        <time>2025-01-23T18:30:29Z</time>
      </trkpt>
      <trkpt lat="43.65791" lon="1.36232">
        <ele>139</ele>
        <time>2025-01-23T18:30:30Z</time>
      </trkpt>
      <trkpt lat="43.65792" lon="1.36229">
        <ele>139</ele>
        <time>2025-01-23T18:30:31Z</time>
      </trkpt>
      <trkpt lat="43.65792" lon="1.36229">
        <ele>139</ele>
        <time>2025-01-23T18:30:32Z</time>
      </trkpt>
      <trkpt lat="43.65792" lon="1.36224">
        <ele>139</ele>
        <time>2025-01-23T18:30:33Z</time>
      </trkpt>
      <trkpt lat="43.65791" lon="1.36222">
        <ele>139</ele>
        <time>2025-01-23T18:30:34Z</time>
      </trkpt>
      <trkpt lat="43.65791" lon="1.36218">
        <ele>138</ele>
        <time>2025-01-23T18:30:35Z</time>
      </trkpt>
      <trkpt lat="43.65791" lon="1.36216">
        <ele>138</ele>
        <time>2025-01-23T18:30:36Z</time>
      </trkpt>
      <trkpt lat="43.65791" lon="1.36213">
        <ele>138</ele>
        <time>2025-01-23T18:30:37Z</time>
      </trkpt>
      <trkpt lat="43.65791" lon="1.3621">
        <ele>138</ele>
        <time>2025-01-23T18:30:38Z</time>
      </trkpt>
      <trkpt lat="43.65791" lon="1.36207">
        <ele>138</ele>
        <time>2025-01-23T18:30:39Z</time>
      </trkpt>
      <trkpt lat="43.65791" lon="1.36204">
        <ele>138</ele>
        <time>2025-01-23T18:30:40Z</time>
      </trkpt>
      <trkpt lat="43.65791" lon="1.36202">
        <ele>137</ele>
        <time>2025-01-23T18:30:41Z</time>
      </trkpt>
      <trkpt lat="43.65792" lon="1.36199">
        <ele>138</ele>
        <time>2025-01-23T18:30:42Z</time>
      </trkpt>
      <trkpt lat="43.65792" lon="1.36196">
        <ele>138</ele>
        <time>2025-01-23T18:30:43Z</time>
      </trkpt>
      <trkpt lat="43.65792" lon="1.36193">
        <ele>138</ele>
        <time>2025-01-23T18:30:44Z</time>
      </trkpt>
      <trkpt lat="43.65792" lon="1.36193">
        <ele>138</ele>
        <time>2025-01-23T18:30:45Z</time>
      </trkpt>
      <trkpt lat="43.65791" lon="1.36188">
        <ele>138</ele>
        <time>2025-01-23T18:30:46Z</time>
      </trkpt>
      <trkpt lat="43.65791" lon="1.36185">
        <ele>137</ele>
        <time>2025-01-23T18:30:47Z</time>
      </trkpt>
      <trkpt lat="43.65791" lon="1.36183">
        <ele>137</ele>
        <time>2025-01-23T18:30:48Z</time>
      </trkpt>
      <trkpt lat="43.65791" lon="1.36183">
        <ele>137</ele>
        <time>2025-01-23T18:30:49Z</time>
      </trkpt>
      <trkpt lat="43.6579" lon="1.36175">
        <ele>137</ele>
        <time>2025-01-23T18:30:50Z</time>
      </trkpt>
      <trkpt lat="43.6579" lon="1.36175">
        <ele>137</ele>
        <time>2025-01-23T18:30:51Z</time>
      </trkpt>
      <trkpt lat="43.6579" lon="1.36172">
        <ele>137</ele>
        <time>2025-01-23T18:30:52Z</time>
      </trkpt>
      <trkpt lat="43.6579" lon="1.36169">
        <ele>136</ele>
        <time>2025-01-23T18:30:53Z</time>
      </trkpt>
      <trkpt lat="43.6579" lon="1.36166">
        <ele>136</ele>
        <time>2025-01-23T18:30:54Z</time>
      </trkpt>
      <trkpt lat="43.65789" lon="1.36163">
        <ele>136</ele>
        <time>2025-01-23T18:30:55Z</time>
      </trkpt>
      <trkpt lat="43.65789" lon="1.3616">
        <ele>136</ele>
        <time>2025-01-23T18:30:56Z</time>
      </trkpt>
      <trkpt lat="43.65789" lon="1.36157">
        <ele>136</ele>
        <time>2025-01-23T18:30:57Z</time>
      </trkpt>
      <trkpt lat="43.65789" lon="1.36155">
        <ele>136</ele>
        <time>2025-01-23T18:30:58Z</time>
      </trkpt>
      <trkpt lat="43.65789" lon="1.36155">
        <ele>136</ele>
        <time>2025-01-23T18:30:59Z</time>
      </trkpt>
      <trkpt lat="43.65789" lon="1.3615">
        <ele>136</ele>
        <time>2025-01-23T18:31:00Z</time>
      </trkpt>
      <trkpt lat="43.65789" lon="1.36147">
        <ele>136</ele>
        <time>2025-01-23T18:31:01Z</time>
      </trkpt>
      <trkpt lat="43.65789" lon="1.36145">
        <ele>136</ele>
        <time>2025-01-23T18:31:02Z</time>
      </trkpt>
      <trkpt lat="43.65789" lon="1.36142">
        <ele>135</ele>
        <time>2025-01-23T18:31:03Z</time>
      </trkpt>
      <trkpt lat="43.65789" lon="1.36139">
        <ele>135</ele>
        <time>2025-01-23T18:31:04Z</time>
      </trkpt>
      <trkpt lat="43.6579" lon="1.36136">
        <ele>135</ele>
        <time>2025-01-23T18:31:05Z</time>
      </trkpt>
      <trkpt lat="43.6579" lon="1.36133">
        <ele>135</ele>
        <time>2025-01-23T18:31:06Z</time>
      </trkpt>
      <trkpt lat="43.65791" lon="1.3613">
        <ele>135</ele>
        <time>2025-01-23T18:31:07Z</time>
      </trkpt>
      <trkpt lat="43.65791" lon="1.36127">
        <ele>135</ele>
        <time>2025-01-23T18:31:08Z</time>
      </trkpt>
      <trkpt lat="43.65794" lon="1.36122">
        <ele>135</ele>
        <time>2025-01-23T18:31:09Z</time>
      </trkpt>
      <trkpt lat="43.65794" lon="1.36122">
        <ele>135</ele>
        <time>2025-01-23T18:31:10Z</time>
      </trkpt>
      <trkpt lat="43.65795" lon="1.36119">
        <ele>135</ele>
        <time>2025-01-23T18:31:11Z</time>
      </trkpt>
      <trkpt lat="43.65796" lon="1.36116">
        <ele>135</ele>
        <time>2025-01-23T18:31:12Z</time>
      </trkpt>
      <trkpt lat="43.65798" lon="1.36114">
        <ele>135</ele>
        <time>2025-01-23T18:31:13Z</time>
      </trkpt>
      <trkpt lat="43.65798" lon="1.36114">
        <ele>135</ele>
        <time>2025-01-23T18:31:14Z</time>
      </trkpt>
      <trkpt lat="43.65799" lon="1.36111">
        <ele>135</ele>
        <time>2025-01-23T18:31:15Z</time>
      </trkpt>
      <trkpt lat="43.65799" lon="1.36111">
        <ele>135</ele>
        <time>2025-01-23T18:31:16Z</time>
      </trkpt>
      <trkpt lat="43.65797" lon="1.36116">
        <ele>135</ele>
        <time>2025-01-23T18:31:17Z</time>
      </trkpt>
      <trkpt lat="43.65796" lon="1.3612">
        <ele>135</ele>
        <time>2025-01-23T18:31:18Z</time>
      </trkpt>
      <trkpt lat="43.65794" lon="1.36124">
        <ele>135</ele>
        <time>2025-01-23T18:31:19Z</time>
      </trkpt>
      <trkpt lat="43.65792" lon="1.36129">
        <ele>135</ele>
        <time>2025-01-23T18:31:20Z</time>
      </trkpt>
      <trkpt lat="43.65791" lon="1.36134">
        <ele>135</ele>
        <time>2025-01-23T18:31:21Z</time>
      </trkpt>
      <trkpt lat="43.6579" lon="1.36138">
        <ele>135</ele>
        <time>2025-01-23T18:31:22Z</time>
      </trkpt>
      <trkpt lat="43.65789" lon="1.36143">
        <ele>135</ele>
        <time>2025-01-23T18:31:23Z</time>
      </trkpt>
      <trkpt lat="43.65789" lon="1.36149">
        <ele>135</ele>
        <time>2025-01-23T18:31:24Z</time>
      </trkpt>
      <trkpt lat="43.65789" lon="1.36153">
        <ele>136</ele>
        <time>2025-01-23T18:31:25Z</time>
      </trkpt>
      <trkpt lat="43.65789" lon="1.36158">
        <ele>136</ele>
        <time>2025-01-23T18:31:26Z</time>
      </trkpt>
      <trkpt lat="43.6579" lon="1.36162">
        <ele>136</ele>
        <time>2025-01-23T18:31:27Z</time>
      </trkpt>
      <trkpt lat="43.6579" lon="1.36172">
        <ele>136</ele>
        <time>2025-01-23T18:31:28Z</time>
      </trkpt>
      <trkpt lat="43.6579" lon="1.36172">
        <ele>136</ele>
        <time>2025-01-23T18:31:29Z</time>
      </trkpt>
      <trkpt lat="43.6579" lon="1.36176">
        <ele>136</ele>
        <time>2025-01-23T18:31:30Z</time>
      </trkpt>
      <trkpt lat="43.65789" lon="1.36181">
        <ele>136</ele>
        <time>2025-01-23T18:31:31Z</time>
      </trkpt>
      <trkpt lat="43.6579" lon="1.36186">
        <ele>136</ele>
        <time>2025-01-23T18:31:32Z</time>
      </trkpt>
      <trkpt lat="43.6579" lon="1.36191">
        <ele>136</ele>
        <time>2025-01-23T18:31:33Z</time>
      </trkpt>
      <trkpt lat="43.6579" lon="1.36196">
        <ele>137</ele>
        <time>2025-01-23T18:31:34Z</time>
      </trkpt>
      <trkpt lat="43.65791" lon="1.362">
        <ele>137</ele>
        <time>2025-01-23T18:31:35Z</time>
      </trkpt>
      <trkpt lat="43.65792" lon="1.36205">
        <ele>137</ele>
        <time>2025-01-23T18:31:36Z</time>
      </trkpt>
      <trkpt lat="43.65792" lon="1.36209">
        <ele>137</ele>
        <time>2025-01-23T18:31:37Z</time>
      </trkpt>
      <trkpt lat="43.65792" lon="1.36214">
        <ele>137</ele>
        <time>2025-01-23T18:31:38Z</time>
      </trkpt>
      <trkpt lat="43.65792" lon="1.36219">
        <ele>137</ele>
        <time>2025-01-23T18:31:39Z</time>
      </trkpt>
      <trkpt lat="43.65792" lon="1.36224">
        <ele>137</ele>
        <time>2025-01-23T18:31:40Z</time>
      </trkpt>
      <trkpt lat="43.65793" lon="1.36229">
        <ele>138</ele>
        <time>2025-01-23T18:31:41Z</time>
      </trkpt>
      <trkpt lat="43.65793" lon="1.36234">
        <ele>138</ele>
        <time>2025-01-23T18:31:42Z</time>
      </trkpt>
      <trkpt lat="43.65793" lon="1.36239">
        <ele>138</ele>
        <time>2025-01-23T18:31:43Z</time>
      </trkpt>
      <trkpt lat="43.65793" lon="1.36245">
        <ele>138</ele>
        <time>2025-01-23T18:31:44Z</time>
      </trkpt>
      <trkpt lat="43.65793" lon="1.3625">
        <ele>139</ele>
        <time>2025-01-23T18:31:45Z</time>
      </trkpt>
      <trkpt lat="43.65793" lon="1.36255">
        <ele>139</ele>
        <time>2025-01-23T18:31:46Z</time>
      </trkpt>
      <trkpt lat="43.65794" lon="1.3626">
        <ele>139</ele>
        <time>2025-01-23T18:31:47Z</time>
      </trkpt>
      <trkpt lat="43.65794" lon="1.36266">
        <ele>139</ele>
        <time>2025-01-23T18:31:48Z</time>
      </trkpt>
      <trkpt lat="43.65794" lon="1.36271">
        <ele>139</ele>
        <time>2025-01-23T18:31:49Z</time>
      </trkpt>
      <trkpt lat="43.65794" lon="1.36276">
        <ele>139</ele>
        <time>2025-01-23T18:31:50Z</time>
      </trkpt>
      <trkpt lat="43.65795" lon="1.36281">
        <ele>139</ele>
        <time>2025-01-23T18:31:51Z</time>
      </trkpt>
      <trkpt lat="43.65795" lon="1.36287">
        <ele>140</ele>
        <time>2025-01-23T18:31:52Z</time>
      </trkpt>
      <trkpt lat="43.65795" lon="1.36292">
        <ele>140</ele>
        <time>2025-01-23T18:31:53Z</time>
      </trkpt>
      <trkpt lat="43.65796" lon="1.36297">
        <ele>140</ele>
        <time>2025-01-23T18:31:54Z</time>
      </trkpt>
      <trkpt lat="43.65796" lon="1.36303">
        <ele>141</ele>
        <time>2025-01-23T18:31:55Z</time>
      </trkpt>
      <trkpt lat="43.65797" lon="1.36308">
        <ele>141</ele>
        <time>2025-01-23T18:31:56Z</time>
      </trkpt>
      <trkpt lat="43.65797" lon="1.36313">
        <ele>142</ele>
        <time>2025-01-23T18:31:57Z</time>
      </trkpt>
      <trkpt lat="43.65799" lon="1.36318">
        <ele>142</ele>
        <time>2025-01-23T18:31:58Z</time>
      </trkpt>
      <trkpt lat="43.658" lon="1.36323">
        <ele>142</ele>
        <time>2025-01-23T18:31:59Z</time>
      </trkpt>
      <trkpt lat="43.65801" lon="1.36327">
        <ele>142</ele>
        <time>2025-01-23T18:32:00Z</time>
      </trkpt>
      <trkpt lat="43.65803" lon="1.36332">
        <ele>142</ele>
        <time>2025-01-23T18:32:01Z</time>
      </trkpt>
      <trkpt lat="43.65804" lon="1.36337">
        <ele>142</ele>
        <time>2025-01-23T18:32:02Z</time>
      </trkpt>
      <trkpt lat="43.65806" lon="1.36342">
        <ele>142</ele>
        <time>2025-01-23T18:32:03Z</time>
      </trkpt>
      <trkpt lat="43.65807" lon="1.36347">
        <ele>142</ele>
        <time>2025-01-23T18:32:04Z</time>
      </trkpt>
      <trkpt lat="43.65808" lon="1.36352">
        <ele>142</ele>
        <time>2025-01-23T18:32:05Z</time>
      </trkpt>
      <trkpt lat="43.65809" lon="1.36354">
        <ele>142</ele>
        <time>2025-01-23T18:32:06Z</time>
      </trkpt>
      <trkpt lat="43.6581" lon="1.36357">
        <ele>142</ele>
        <time>2025-01-23T18:32:07Z</time>
      </trkpt>
      <trkpt lat="43.65811" lon="1.36359">
        <ele>142</ele>
        <time>2025-01-23T18:32:08Z</time>
      </trkpt>
      <trkpt lat="43.65814" lon="1.36368">
        <ele>142</ele>
        <time>2025-01-23T18:32:09Z</time>
      </trkpt>
      <trkpt lat="43.65815" lon="1.3637">
        <ele>142</ele>
        <time>2025-01-23T18:32:10Z</time>
      </trkpt>
      <trkpt lat="43.65816" lon="1.36373">
        <ele>142</ele>
        <time>2025-01-23T18:32:11Z</time>
      </trkpt>
      <trkpt lat="43.65819" lon="1.36384">
        <ele>142</ele>
        <time>2025-01-23T18:32:12Z</time>
      </trkpt>
      <trkpt lat="43.6582" lon="1.36387">
        <ele>142</ele>
        <time>2025-01-23T18:32:13Z</time>
      </trkpt>
      <trkpt lat="43.65821" lon="1.36391">
        <ele>142</ele>
        <time>2025-01-23T18:32:14Z</time>
      </trkpt>
      <trkpt lat="43.65824" lon="1.36401">
        <ele>142</ele>
        <time>2025-01-23T18:32:15Z</time>
      </trkpt>
      <trkpt lat="43.65825" lon="1.36404">
        <ele>142</ele>
        <time>2025-01-23T18:32:16Z</time>
      </trkpt>
      <trkpt lat="43.65826" lon="1.36406">
        <ele>142</ele>
        <time>2025-01-23T18:32:17Z</time>
      </trkpt>
      <trkpt lat="43.65827" lon="1.36409">
        <ele>142</ele>
        <time>2025-01-23T18:32:18Z</time>
      </trkpt>
      <trkpt lat="43.6583" lon="1.36419">
        <ele>142</ele>
        <time>2025-01-23T18:32:19Z</time>
      </trkpt>
      <trkpt lat="43.65831" lon="1.36423">
        <ele>142</ele>
        <time>2025-01-23T18:32:20Z</time>
      </trkpt>
      <trkpt lat="43.65832" lon="1.36426">
        <ele>142</ele>
        <time>2025-01-23T18:32:21Z</time>
      </trkpt>
      <trkpt lat="43.65835" lon="1.36435">
        <ele>142</ele>
        <time>2025-01-23T18:32:22Z</time>
      </trkpt>
      <trkpt lat="43.65835" lon="1.3644">
        <ele>141</ele>
        <time>2025-01-23T18:32:23Z</time>
      </trkpt>
      <trkpt lat="43.65834" lon="1.36444">
        <ele>141</ele>
        <time>2025-01-23T18:32:24Z</time>
      </trkpt>
      <trkpt lat="43.65832" lon="1.36448">
        <ele>140</ele>
        <time>2025-01-23T18:32:25Z</time>
      </trkpt>
      <trkpt lat="43.65829" lon="1.36449">
        <ele>139</ele>
        <time>2025-01-23T18:32:26Z</time>
      </trkpt>
      <trkpt lat="43.65825" lon="1.3645">
        <ele>139</ele>
        <time>2025-01-23T18:32:27Z</time>
      </trkpt>
      <trkpt lat="43.65823" lon="1.36451">
        <ele>139</ele>
        <time>2025-01-23T18:32:28Z</time>
      </trkpt>
      <trkpt lat="43.65819" lon="1.36452">
        <ele>139</ele>
        <time>2025-01-23T18:32:29Z</time>
      </trkpt>
      <trkpt lat="43.65815" lon="1.36453">
        <ele>139</ele>
        <time>2025-01-23T18:32:30Z</time>
      </trkpt>
      <trkpt lat="43.65811" lon="1.36453">
        <ele>139</ele>
        <time>2025-01-23T18:32:31Z</time>
      </trkpt>
      <trkpt lat="43.65807" lon="1.36453">
        <ele>139</ele>
        <time>2025-01-23T18:32:32Z</time>
      </trkpt>
      <trkpt lat="43.65803" lon="1.36452">
        <ele>139</ele>
        <time>2025-01-23T18:32:33Z</time>
      </trkpt>
      <trkpt lat="43.658" lon="1.36448">
        <ele>139</ele>
        <time>2025-01-23T18:32:34Z</time>
      </trkpt>
      <trkpt lat="43.65799" lon="1.36443">
        <ele>140</ele>
        <time>2025-01-23T18:32:35Z</time>
      </trkpt>
      <trkpt lat="43.658" lon="1.36437">
        <ele>140</ele>
        <time>2025-01-23T18:32:36Z</time>
      </trkpt>
      <trkpt lat="43.65803" lon="1.36433">
        <ele>140</ele>
        <time>2025-01-23T18:32:37Z</time>
      </trkpt>
      <trkpt lat="43.65806" lon="1.3643">
        <ele>140</ele>
        <time>2025-01-23T18:32:38Z</time>
      </trkpt>
      <trkpt lat="43.65809" lon="1.36427">
        <ele>141</ele>
        <time>2025-01-23T18:32:39Z</time>
      </trkpt>
      <trkpt lat="43.65812" lon="1.36425">
        <ele>141</ele>
        <time>2025-01-23T18:32:40Z</time>
      </trkpt>
      <trkpt lat="43.65816" lon="1.36422">
        <ele>141</ele>
        <time>2025-01-23T18:32:41Z</time>
      </trkpt>
      <trkpt lat="43.65819" lon="1.3642">
        <ele>142</ele>
        <time>2025-01-23T18:32:42Z</time>
      </trkpt>
      <trkpt lat="43.65822" lon="1.36417">
        <ele>142</ele>
        <time>2025-01-23T18:32:43Z</time>
      </trkpt>
      <trkpt lat="43.65825" lon="1.3641">
        <ele>142</ele>
        <time>2025-01-23T18:32:44Z</time>
      </trkpt>
      <trkpt lat="43.65825" lon="1.3641">
        <ele>142</ele>
        <time>2025-01-23T18:32:45Z</time>
      </trkpt>
      <trkpt lat="43.65825" lon="1.36407">
        <ele>142</ele>
        <time>2025-01-23T18:32:46Z</time>
      </trkpt>
      <trkpt lat="43.65825" lon="1.36405">
        <ele>142</ele>
        <time>2025-01-23T18:32:47Z</time>
      </trkpt>
      <trkpt lat="43.65825" lon="1.36405">
        <ele>142</ele>
        <time>2025-01-23T18:32:48Z</time>
      </trkpt>
      <trkpt lat="43.65823" lon="1.36401">
        <ele>142</ele>
        <time>2025-01-23T18:32:49Z</time>
      </trkpt>
      <trkpt lat="43.65823" lon="1.36401">
        <ele>142</ele>
        <time>2025-01-23T18:32:50Z</time>
      </trkpt>
      <trkpt lat="43.65822" lon="1.36397">
        <ele>142</ele>
        <time>2025-01-23T18:32:51Z</time>
      </trkpt>
      <trkpt lat="43.65822" lon="1.36397">
        <ele>142</ele>
        <time>2025-01-23T18:32:52Z</time>
      </trkpt>
      <trkpt lat="43.65821" lon="1.36394">
        <ele>142</ele>
        <time>2025-01-23T18:32:53Z</time>
      </trkpt>
      <trkpt lat="43.65821" lon="1.36394">
        <ele>142</ele>
        <time>2025-01-23T18:32:54Z</time>
      </trkpt>
      <trkpt lat="43.6582" lon="1.36391">
        <ele>142</ele>
        <time>2025-01-23T18:32:55Z</time>
      </trkpt>
      <trkpt lat="43.6582" lon="1.36391">
        <ele>142</ele>
        <time>2025-01-23T18:32:56Z</time>
      </trkpt>
      <trkpt lat="43.65819" lon="1.36388">
        <ele>142</ele>
        <time>2025-01-23T18:32:57Z</time>
      </trkpt>
      <trkpt lat="43.65819" lon="1.36388">
        <ele>142</ele>
        <time>2025-01-23T18:32:58Z</time>
      </trkpt>
      <trkpt lat="43.65819" lon="1.36385">
        <ele>142</ele>
        <time>2025-01-23T18:32:59Z</time>
      </trkpt>
      <trkpt lat="43.65819" lon="1.36385">
        <ele>142</ele>
        <time>2025-01-23T18:33:00Z</time>
      </trkpt>
      <trkpt lat="43.65818" lon="1.36382">
        <ele>142</ele>
        <time>2025-01-23T18:33:01Z</time>
      </trkpt>
      <trkpt lat="43.65818" lon="1.36382">
        <ele>142</ele>
        <time>2025-01-23T18:33:02Z</time>
      </trkpt>
      <trkpt lat="43.65817" lon="1.36379">
        <ele>142</ele>
        <time>2025-01-23T18:33:03Z</time>
      </trkpt>
      <trkpt lat="43.65817" lon="1.36379">
        <ele>142</ele>
        <time>2025-01-23T18:33:04Z</time>
      </trkpt>
      <trkpt lat="43.65816" lon="1.36376">
        <ele>142</ele>
        <time>2025-01-23T18:33:05Z</time>
      </trkpt>
      <trkpt lat="43.65816" lon="1.36376">
        <ele>142</ele>
        <time>2025-01-23T18:33:06Z</time>
      </trkpt>
      <trkpt lat="43.65816" lon="1.36373">
        <ele>142</ele>
        <time>2025-01-23T18:33:07Z</time>
      </trkpt>
      <trkpt lat="43.65816" lon="1.36373">
        <ele>142</ele>
        <time>2025-01-23T18:33:08Z</time>
      </trkpt>
      <trkpt lat="43.65815" lon="1.3637">
        <ele>142</ele>
        <time>2025-01-23T18:33:09Z</time>
      </trkpt>
      <trkpt lat="43.65815" lon="1.3637">
        <ele>142</ele>
        <time>2025-01-23T18:33:10Z</time>
      </trkpt>
      <trkpt lat="43.65814" lon="1.36367">
        <ele>142</ele>
        <time>2025-01-23T18:33:11Z</time>
      </trkpt>
      <trkpt lat="43.65814" lon="1.36367">
        <ele>142</ele>
        <time>2025-01-23T18:33:12Z</time>
      </trkpt>
      <trkpt lat="43.65813" lon="1.36364">
        <ele>142</ele>
        <time>2025-01-23T18:33:13Z</time>
      </trkpt>
      <trkpt lat="43.65813" lon="1.36364">
        <ele>142</ele>
        <time>2025-01-23T18:33:14Z</time>
      </trkpt>
      <trkpt lat="43.65812" lon="1.36361">
        <ele>142</ele>
        <time>2025-01-23T18:33:15Z</time>
      </trkpt>
      <trkpt lat="43.65812" lon="1.36361">
        <ele>142</ele>
        <time>2025-01-23T18:33:16Z</time>
      </trkpt>
      <trkpt lat="43.65811" lon="1.36359">
        <ele>142</ele>
        <time>2025-01-23T18:33:17Z</time>
      </trkpt>
      <trkpt lat="43.65811" lon="1.36359">
        <ele>142</ele>
        <time>2025-01-23T18:33:18Z</time>
      </trkpt>
      <trkpt lat="43.6581" lon="1.36356">
        <ele>142</ele>
        <time>2025-01-23T18:33:19Z</time>
      </trkpt>
      <trkpt lat="43.6581" lon="1.36356">
        <ele>142</ele>
        <time>2025-01-23T18:33:20Z</time>
      </trkpt>
      <trkpt lat="43.65809" lon="1.36352">
        <ele>142</ele>
        <time>2025-01-23T18:33:21Z</time>
      </trkpt>
      <trkpt lat="43.65809" lon="1.36352">
        <ele>142</ele>
        <time>2025-01-23T18:33:22Z</time>
      </trkpt>
      <trkpt lat="43.65808" lon="1.36348">
        <ele>142</ele>
        <time>2025-01-23T18:33:23Z</time>
      </trkpt>
      <trkpt lat="43.65808" lon="1.36348">
        <ele>142</ele>
        <time>2025-01-23T18:33:24Z</time>
      </trkpt>
      <trkpt lat="43.65806" lon="1.36345">
        <ele>142</ele>
        <time>2025-01-23T18:33:25Z</time>
      </trkpt>
      <trkpt lat="43.65806" lon="1.36345">
        <ele>142</ele>
        <time>2025-01-23T18:33:26Z</time>
      </trkpt>
      <trkpt lat="43.65805" lon="1.36342">
        <ele>142</ele>
        <time>2025-01-23T18:33:27Z</time>
      </trkpt>
      <trkpt lat="43.65805" lon="1.36342">
        <ele>142</ele>
        <time>2025-01-23T18:33:28Z</time>
      </trkpt>
      <trkpt lat="43.65804" lon="1.36339">
        <ele>142</ele>
        <time>2025-01-23T18:33:29Z</time>
      </trkpt>
      <trkpt lat="43.65804" lon="1.36339">
        <ele>142</ele>
        <time>2025-01-23T18:33:30Z</time>
      </trkpt>
      <trkpt lat="43.65803" lon="1.36335">
        <ele>142</ele>
        <time>2025-01-23T18:33:31Z</time>
      </trkpt>
      <trkpt lat="43.65803" lon="1.36335">
        <ele>142</ele>
        <time>2025-01-23T18:33:32Z</time>
      </trkpt>
      <trkpt lat="43.65802" lon="1.36332">
        <ele>142</ele>
        <time>2025-01-23T18:33:33Z</time>
      </trkpt>
      <trkpt lat="43.65802" lon="1.36332">
        <ele>142</ele>
        <time>2025-01-23T18:33:34Z</time>
      </trkpt>
      <trkpt lat="43.65802" lon="1.36328">
        <ele>142</ele>
        <time>2025-01-23T18:33:35Z</time>
      </trkpt>
      <trkpt lat="43.65802" lon="1.36328">
        <ele>142</ele>
        <time>2025-01-23T18:33:36Z</time>
      </trkpt>
      <trkpt lat="43.65801" lon="1.36325">
        <ele>142</ele>
        <time>2025-01-23T18:33:37Z</time>
      </trkpt>
      <trkpt lat="43.65801" lon="1.36325">
        <ele>142</ele>
        <time>2025-01-23T18:33:38Z</time>
      </trkpt>
      <trkpt lat="43.658" lon="1.36321">
        <ele>142</ele>
        <time>2025-01-23T18:33:39Z</time>
      </trkpt>
      <trkpt lat="43.658" lon="1.36321">
        <ele>142</ele>
        <time>2025-01-23T18:33:40Z</time>
      </trkpt>
      <trkpt lat="43.65798" lon="1.36318">
        <ele>142</ele>
        <time>2025-01-23T18:33:41Z</time>
      </trkpt>
      <trkpt lat="43.65798" lon="1.36318">
        <ele>142</ele>
        <time>2025-01-23T18:33:42Z</time>
      </trkpt>
      <trkpt lat="43.65797" lon="1.36315">
        <ele>142</ele>
        <time>2025-01-23T18:33:43Z</time>
      </trkpt>
      <trkpt lat="43.65797" lon="1.36315">
        <ele>142</ele>
        <time>2025-01-23T18:33:44Z</time>
      </trkpt>
      <trkpt lat="43.65796" lon="1.36312">
        <ele>141</ele>
        <time>2025-01-23T18:33:45Z</time>
      </trkpt>
      <trkpt lat="43.65796" lon="1.36312">
        <ele>141</ele>
        <time>2025-01-23T18:33:46Z</time>
      </trkpt>
      <trkpt lat="43.65795" lon="1.36308">
        <ele>141</ele>
        <time>2025-01-23T18:33:47Z</time>
      </trkpt>
      <trkpt lat="43.65795" lon="1.36308">
        <ele>141</ele>
        <time>2025-01-23T18:33:48Z</time>
      </trkpt>
      <trkpt lat="43.65794" lon="1.36304">
        <ele>141</ele>
        <time>2025-01-23T18:33:49Z</time>
      </trkpt>
      <trkpt lat="43.65794" lon="1.36304">
        <ele>141</ele>
        <time>2025-01-23T18:33:50Z</time>
      </trkpt>
      <trkpt lat="43.65793" lon="1.36299">
        <ele>141</ele>
        <time>2025-01-23T18:33:51Z</time>
      </trkpt>
      <trkpt lat="43.65793" lon="1.36296">
        <ele>141</ele>
        <time>2025-01-23T18:33:52Z</time>
      </trkpt>
      <trkpt lat="43.65793" lon="1.36293">
        <ele>141</ele>
        <time>2025-01-23T18:33:53Z</time>
      </trkpt>
      <trkpt lat="43.65793" lon="1.3629">
        <ele>141</ele>
        <time>2025-01-23T18:33:54Z</time>
      </trkpt>
      <trkpt lat="43.65793" lon="1.36287">
        <ele>141</ele>
        <time>2025-01-23T18:33:55Z</time>
      </trkpt>
      <trkpt lat="43.65793" lon="1.36284">
        <ele>141</ele>
        <time>2025-01-23T18:33:56Z</time>
      </trkpt>
      <trkpt lat="43.65793" lon="1.36284">
        <ele>141</ele>
        <time>2025-01-23T18:33:57Z</time>
      </trkpt>
      <trkpt lat="43.65793" lon="1.3628">
        <ele>141</ele>
        <time>2025-01-23T18:33:58Z</time>
      </trkpt>
      <trkpt lat="43.65793" lon="1.3628">
        <ele>140</ele>
        <time>2025-01-23T18:33:59Z</time>
      </trkpt>
      <trkpt lat="43.65792" lon="1.36273">
        <ele>139</ele>
        <time>2025-01-23T18:34:00Z</time>
      </trkpt>
      <trkpt lat="43.65792" lon="1.36273">
        <ele>139</ele>
        <time>2025-01-23T18:34:01Z</time>
      </trkpt>
      <trkpt lat="43.65793" lon="1.3627">
        <ele>139</ele>
        <time>2025-01-23T18:34:02Z</time>
      </trkpt>
      <trkpt lat="43.65793" lon="1.36267">
        <ele>139</ele>
        <time>2025-01-23T18:34:03Z</time>
      </trkpt>
      <trkpt lat="43.65792" lon="1.36265">
        <ele>139</ele>
        <time>2025-01-23T18:34:04Z</time>
      </trkpt>
      <trkpt lat="43.65792" lon="1.36262">
        <ele>139</ele>
        <time>2025-01-23T18:34:05Z</time>
      </trkpt>
      <trkpt lat="43.65792" lon="1.36259">
        <ele>139</ele>
        <time>2025-01-23T18:34:06Z</time>
      </trkpt>
      <trkpt lat="43.65792" lon="1.36256">
        <ele>139</ele>
        <time>2025-01-23T18:34:07Z</time>
      </trkpt>
      <trkpt lat="43.65791" lon="1.3625">
        <ele>139</ele>
        <time>2025-01-23T18:34:08Z</time>
      </trkpt>
      <trkpt lat="43.65791" lon="1.3625">
        <ele>139</ele>
        <time>2025-01-23T18:34:09Z</time>
      </trkpt>
      <trkpt lat="43.65791" lon="1.36247">
        <ele>139</ele>
        <time>2025-01-23T18:34:10Z</time>
      </trkpt>
      <trkpt lat="43.65791" lon="1.36244">
        <ele>139</ele>
        <time>2025-01-23T18:34:11Z</time>
      </trkpt>
      <trkpt lat="43.65791" lon="1.36242">
        <ele>139</ele>
        <time>2025-01-23T18:34:12Z</time>
      </trkpt>
      <trkpt lat="43.65791" lon="1.36239">
        <ele>139</ele>
        <time>2025-01-23T18:34:13Z</time>
      </trkpt>
      <trkpt lat="43.65791" lon="1.36236">
        <ele>139</ele>
        <time>2025-01-23T18:34:14Z</time>
      </trkpt>
      <trkpt lat="43.65791" lon="1.36232">
        <ele>138</ele>
        <time>2025-01-23T18:34:15Z</time>
      </trkpt>
      <trkpt lat="43.65791" lon="1.36229">
        <ele>138</ele>
        <time>2025-01-23T18:34:16Z</time>
      </trkpt>
      <trkpt lat="43.65791" lon="1.36226">
        <ele>138</ele>
        <time>2025-01-23T18:34:17Z</time>
      </trkpt>
      <trkpt lat="43.65791" lon="1.36223">
        <ele>137</ele>
        <time>2025-01-23T18:34:18Z</time>
      </trkpt>
      <trkpt lat="43.6579" lon="1.36221">
        <ele>137</ele>
        <time>2025-01-23T18:34:19Z</time>
      </trkpt>
      <trkpt lat="43.6579" lon="1.36218">
        <ele>137</ele>
        <time>2025-01-23T18:34:20Z</time>
      </trkpt>
      <trkpt lat="43.6579" lon="1.36215">
        <ele>137</ele>
        <time>2025-01-23T18:34:21Z</time>
      </trkpt>
      <trkpt lat="43.6579" lon="1.36212">
        <ele>137</ele>
        <time>2025-01-23T18:34:22Z</time>
      </trkpt>
      <trkpt lat="43.6579" lon="1.36209">
        <ele>137</ele>
        <time>2025-01-23T18:34:23Z</time>
      </trkpt>
      <trkpt lat="43.6579" lon="1.36206">
        <ele>137</ele>
        <time>2025-01-23T18:34:24Z</time>
      </trkpt>
      <trkpt lat="43.6579" lon="1.36204">
        <ele>138</ele>
        <time>2025-01-23T18:34:25Z</time>
      </trkpt>
      <trkpt lat="43.6579" lon="1.36201">
        <ele>138</ele>
        <time>2025-01-23T18:34:26Z</time>
      </trkpt>
      <trkpt lat="43.6579" lon="1.36198">
        <ele>138</ele>
        <time>2025-01-23T18:34:27Z</time>
      </trkpt>
      <trkpt lat="43.6579" lon="1.36195">
        <ele>138</ele>
        <time>2025-01-23T18:34:28Z</time>
      </trkpt>
      <trkpt lat="43.6579" lon="1.36192">
        <ele>138</ele>
        <time>2025-01-23T18:34:29Z</time>
      </trkpt>
      <trkpt lat="43.6579" lon="1.36189">
        <ele>138</ele>
        <time>2025-01-23T18:34:30Z</time>
      </trkpt>
      <trkpt lat="43.6579" lon="1.36187">
        <ele>138</ele>
        <time>2025-01-23T18:34:31Z</time>
      </trkpt>
      <trkpt lat="43.6579" lon="1.36187">
        <ele>138</ele>
        <time>2025-01-23T18:34:32Z</time>
      </trkpt>
      <trkpt lat="43.6579" lon="1.36181">
        <ele>137</ele>
        <time>2025-01-23T18:34:33Z</time>
      </trkpt>
      <trkpt lat="43.6579" lon="1.36178">
        <ele>138</ele>
        <time>2025-01-23T18:34:34Z</time>
      </trkpt>
      <trkpt lat="43.6579" lon="1.36176">
        <ele>138</ele>
        <time>2025-01-23T18:34:35Z</time>
      </trkpt>
      <trkpt lat="43.6579" lon="1.36173">
        <ele>138</ele>
        <time>2025-01-23T18:34:36Z</time>
      </trkpt>
      <trkpt lat="43.6579" lon="1.3617">
        <ele>138</ele>
        <time>2025-01-23T18:34:37Z</time>
      </trkpt>
      <trkpt lat="43.6579" lon="1.36165">
        <ele>137</ele>
        <time>2025-01-23T18:34:38Z</time>
      </trkpt>
      <trkpt lat="43.6579" lon="1.36165">
        <ele>137</ele>
        <time>2025-01-23T18:34:39Z</time>
      </trkpt>
      <trkpt lat="43.6579" lon="1.36162">
        <ele>137</ele>
        <time>2025-01-23T18:34:40Z</time>
      </trkpt>
      <trkpt lat="43.65789" lon="1.36159">
        <ele>137</ele>
        <time>2025-01-23T18:34:41Z</time>
      </trkpt>
      <trkpt lat="43.65789" lon="1.36157">
        <ele>136</ele>
        <time>2025-01-23T18:34:42Z</time>
      </trkpt>
      <trkpt lat="43.65789" lon="1.36154">
        <ele>136</ele>
        <time>2025-01-23T18:34:43Z</time>
      </trkpt>
      <trkpt lat="43.65789" lon="1.36151">
        <ele>136</ele>
        <time>2025-01-23T18:34:44Z</time>
      </trkpt>
      <trkpt lat="43.65789" lon="1.36148">
        <ele>136</ele>
        <time>2025-01-23T18:34:45Z</time>
      </trkpt>
      <trkpt lat="43.65789" lon="1.36145">
        <ele>136</ele>
        <time>2025-01-23T18:34:46Z</time>
      </trkpt>
      <trkpt lat="43.65789" lon="1.36143">
        <ele>136</ele>
        <time>2025-01-23T18:34:47Z</time>
      </trkpt>
      <trkpt lat="43.65789" lon="1.36143">
        <ele>136</ele>
        <time>2025-01-23T18:34:48Z</time>
      </trkpt>
      <trkpt lat="43.65789" lon="1.36137">
        <ele>136</ele>
        <time>2025-01-23T18:34:49Z</time>
      </trkpt>
      <trkpt lat="43.65789" lon="1.36134">
        <ele>136</ele>
        <time>2025-01-23T18:34:50Z</time>
      </trkpt>
      <trkpt lat="43.65789" lon="1.36131">
        <ele>136</ele>
        <time>2025-01-23T18:34:51Z</time>
      </trkpt>
      <trkpt lat="43.6579" lon="1.36128">
        <ele>136</ele>
        <time>2025-01-23T18:34:52Z</time>
      </trkpt>
      <trkpt lat="43.65791" lon="1.36126">
        <ele>136</ele>
        <time>2025-01-23T18:34:53Z</time>
      </trkpt>
      <trkpt lat="43.65792" lon="1.36122">
        <ele>136</ele>
        <time>2025-01-23T18:34:54Z</time>
      </trkpt>
      <trkpt lat="43.65794" lon="1.3612">
        <ele>136</ele>
        <time>2025-01-23T18:34:55Z</time>
      </trkpt>
      <trkpt lat="43.65795" lon="1.36118">
        <ele>136</ele>
        <time>2025-01-23T18:34:56Z</time>
      </trkpt>
      <trkpt lat="43.65795" lon="1.36118">
        <ele>136</ele>
        <time>2025-01-23T18:34:57Z</time>
      </trkpt>
      <trkpt lat="43.65795" lon="1.36118">
        <ele>136</ele>
        <time>2025-01-23T18:34:58Z</time>
      </trkpt>
      <trkpt lat="43.65795" lon="1.36121">
        <ele>136</ele>
        <time>2025-01-23T18:34:59Z</time>
      </trkpt>
      <trkpt lat="43.65793" lon="1.36125">
        <ele>136</ele>
        <time>2025-01-23T18:35:00Z</time>
      </trkpt>
      <trkpt lat="43.65792" lon="1.3613">
        <ele>136</ele>
        <time>2025-01-23T18:35:01Z</time>
      </trkpt>
      <trkpt lat="43.65791" lon="1.36134">
        <ele>136</ele>
        <time>2025-01-23T18:35:02Z</time>
      </trkpt>
      <trkpt lat="43.6579" lon="1.36139">
        <ele>136</ele>
        <time>2025-01-23T18:35:03Z</time>
      </trkpt>
      <trkpt lat="43.65789" lon="1.36145">
        <ele>136</ele>
        <time>2025-01-23T18:35:04Z</time>
      </trkpt>
      <trkpt lat="43.65789" lon="1.3615">
        <ele>136</ele>
        <time>2025-01-23T18:35:05Z</time>
      </trkpt>
      <trkpt lat="43.6579" lon="1.36155">
        <ele>136</ele>
        <time>2025-01-23T18:35:06Z</time>
      </trkpt>
      <trkpt lat="43.6579" lon="1.3616">
        <ele>136</ele>
        <time>2025-01-23T18:35:07Z</time>
      </trkpt>
      <trkpt lat="43.6579" lon="1.36165">
        <ele>136</ele>
        <time>2025-01-23T18:35:08Z</time>
      </trkpt>
      <trkpt lat="43.6579" lon="1.3617">
        <ele>136</ele>
        <time>2025-01-23T18:35:09Z</time>
      </trkpt>
      <trkpt lat="43.65791" lon="1.36175">
        <ele>136</ele>
        <time>2025-01-23T18:35:10Z</time>
      </trkpt>
      <trkpt lat="43.65791" lon="1.36179">
        <ele>137</ele>
        <time>2025-01-23T18:35:11Z</time>
      </trkpt>
      <trkpt lat="43.65791" lon="1.36184">
        <ele>137</ele>
        <time>2025-01-23T18:35:12Z</time>
      </trkpt>
      <trkpt lat="43.65792" lon="1.36189">
        <ele>137</ele>
        <time>2025-01-23T18:35:13Z</time>
      </trkpt>
      <trkpt lat="43.65792" lon="1.36194">
        <ele>137</ele>
        <time>2025-01-23T18:35:14Z</time>
      </trkpt>
      <trkpt lat="43.65792" lon="1.36199">
        <ele>137</ele>
        <time>2025-01-23T18:35:15Z</time>
      </trkpt>
      <trkpt lat="43.65793" lon="1.36208">
        <ele>137</ele>
        <time>2025-01-23T18:35:16Z</time>
      </trkpt>
      <trkpt lat="43.65793" lon="1.36208">
        <ele>137</ele>
        <time>2025-01-23T18:35:17Z</time>
      </trkpt>
      <trkpt lat="43.65794" lon="1.36213">
        <ele>137</ele>
        <time>2025-01-23T18:35:18Z</time>
      </trkpt>
      <trkpt lat="43.65794" lon="1.36218">
        <ele>137</ele>
        <time>2025-01-23T18:35:19Z</time>
      </trkpt>
      <trkpt lat="43.65795" lon="1.36223">
        <ele>137</ele>
        <time>2025-01-23T18:35:20Z</time>
      </trkpt>
      <trkpt lat="43.65794" lon="1.36227">
        <ele>137</ele>
        <time>2025-01-23T18:35:21Z</time>
      </trkpt>
      <trkpt lat="43.65794" lon="1.36232">
        <ele>138</ele>
        <time>2025-01-23T18:35:22Z</time>
      </trkpt>
      <trkpt lat="43.65795" lon="1.36237">
        <ele>138</ele>
        <time>2025-01-23T18:35:23Z</time>
      </trkpt>
      <trkpt lat="43.65795" lon="1.36242">
        <ele>139</ele>
        <time>2025-01-23T18:35:24Z</time>
      </trkpt>
      <trkpt lat="43.65795" lon="1.36248">
        <ele>139</ele>
        <time>2025-01-23T18:35:25Z</time>
      </trkpt>
      <trkpt lat="43.65795" lon="1.36254">
        <ele>140</ele>
        <time>2025-01-23T18:35:26Z</time>
      </trkpt>
      <trkpt lat="43.65795" lon="1.36259">
        <ele>140</ele>
        <time>2025-01-23T18:35:27Z</time>
      </trkpt>
      <trkpt lat="43.65795" lon="1.36265">
        <ele>139</ele>
        <time>2025-01-23T18:35:28Z</time>
      </trkpt>
      <trkpt lat="43.65795" lon="1.3627">
        <ele>139</ele>
        <time>2025-01-23T18:35:29Z</time>
      </trkpt>
      <trkpt lat="43.65795" lon="1.36276">
        <ele>140</ele>
        <time>2025-01-23T18:35:30Z</time>
      </trkpt>
      <trkpt lat="43.65796" lon="1.36281">
        <ele>141</ele>
        <time>2025-01-23T18:35:31Z</time>
      </trkpt>
      <trkpt lat="43.65796" lon="1.36287">
        <ele>141</ele>
        <time>2025-01-23T18:35:32Z</time>
      </trkpt>
      <trkpt lat="43.65796" lon="1.36292">
        <ele>141</ele>
        <time>2025-01-23T18:35:33Z</time>
      </trkpt>
      <trkpt lat="43.65796" lon="1.36298">
        <ele>141</ele>
        <time>2025-01-23T18:35:34Z</time>
      </trkpt>
      <trkpt lat="43.65797" lon="1.36308">
        <ele>141</ele>
        <time>2025-01-23T18:35:35Z</time>
      </trkpt>
      <trkpt lat="43.65797" lon="1.36308">
        <ele>141</ele>
        <time>2025-01-23T18:35:36Z</time>
      </trkpt>
      <trkpt lat="43.65798" lon="1.36314">
        <ele>141</ele>
        <time>2025-01-23T18:35:37Z</time>
      </trkpt>
      <trkpt lat="43.65799" lon="1.3632">
        <ele>141</ele>
        <time>2025-01-23T18:35:38Z</time>
      </trkpt>
      <trkpt lat="43.658" lon="1.36325">
        <ele>141</ele>
        <time>2025-01-23T18:35:39Z</time>
      </trkpt>
      <trkpt lat="43.65802" lon="1.3633">
        <ele>141</ele>
        <time>2025-01-23T18:35:40Z</time>
      </trkpt>
      <trkpt lat="43.65804" lon="1.36335">
        <ele>141</ele>
        <time>2025-01-23T18:35:41Z</time>
      </trkpt>
      <trkpt lat="43.65805" lon="1.3634">
        <ele>141</ele>
        <time>2025-01-23T18:35:42Z</time>
      </trkpt>
      <trkpt lat="43.65807" lon="1.36346">
        <ele>141</ele>
        <time>2025-01-23T18:35:43Z</time>
      </trkpt>
      <trkpt lat="43.65809" lon="1.36351">
        <ele>142</ele>
        <time>2025-01-23T18:35:44Z</time>
      </trkpt>
      <trkpt lat="43.65809" lon="1.36354">
        <ele>142</ele>
        <time>2025-01-23T18:35:45Z</time>
      </trkpt>
      <trkpt lat="43.6581" lon="1.36356">
        <ele>143</ele>
        <time>2025-01-23T18:35:46Z</time>
      </trkpt>
      <trkpt lat="43.65811" lon="1.36359">
        <ele>143</ele>
        <time>2025-01-23T18:35:47Z</time>
      </trkpt>
      <trkpt lat="43.65815" lon="1.36371">
        <ele>143</ele>
        <time>2025-01-23T18:35:48Z</time>
      </trkpt>
      <trkpt lat="43.65816" lon="1.36376">
        <ele>143</ele>
        <time>2025-01-23T18:35:49Z</time>
      </trkpt>
      <trkpt lat="43.65817" lon="1.3638">
        <ele>143</ele>
        <time>2025-01-23T18:35:50Z</time>
      </trkpt>
      <trkpt lat="43.65818" lon="1.36383">
        <ele>143</ele>
        <time>2025-01-23T18:35:51Z</time>
      </trkpt>
      <trkpt lat="43.65819" lon="1.36387">
        <ele>143</ele>
        <time>2025-01-23T18:35:52Z</time>
      </trkpt>
      <trkpt lat="43.65822" lon="1.36397">
        <ele>143</ele>
        <time>2025-01-23T18:35:53Z</time>
      </trkpt>
      <trkpt lat="43.65823" lon="1.364">
        <ele>143</ele>
        <time>2025-01-23T18:35:54Z</time>
      </trkpt>
      <trkpt lat="43.65824" lon="1.36402">
        <ele>143</ele>
        <time>2025-01-23T18:35:55Z</time>
      </trkpt>
      <trkpt lat="43.65824" lon="1.36405">
        <ele>143</ele>
        <time>2025-01-23T18:35:56Z</time>
      </trkpt>
      <trkpt lat="43.65828" lon="1.36417">
        <ele>143</ele>
        <time>2025-01-23T18:35:57Z</time>
      </trkpt>
      <trkpt lat="43.65829" lon="1.36422">
        <ele>142</ele>
        <time>2025-01-23T18:35:58Z</time>
      </trkpt>
      <trkpt lat="43.6583" lon="1.36425">
        <ele>142</ele>
        <time>2025-01-23T18:35:59Z</time>
      </trkpt>
      <trkpt lat="43.65831" lon="1.36428">
        <ele>141</ele>
        <time>2025-01-23T18:36:00Z</time>
      </trkpt>
      <trkpt lat="43.65832" lon="1.36431">
        <ele>141</ele>
        <time>2025-01-23T18:36:01Z</time>
      </trkpt>
      <trkpt lat="43.65834" lon="1.3644">
        <ele>141</ele>
        <time>2025-01-23T18:36:02Z</time>
      </trkpt>
      <trkpt lat="43.65833" lon="1.36445">
        <ele>141</ele>
        <time>2025-01-23T18:36:03Z</time>
      </trkpt>
      <trkpt lat="43.65831" lon="1.36448">
        <ele>140</ele>
        <time>2025-01-23T18:36:04Z</time>
      </trkpt>
      <trkpt lat="43.65828" lon="1.3645">
        <ele>140</ele>
        <time>2025-01-23T18:36:05Z</time>
      </trkpt>
      <trkpt lat="43.65824" lon="1.36452">
        <ele>139</ele>
        <time>2025-01-23T18:36:06Z</time>
      </trkpt>
      <trkpt lat="43.6582" lon="1.36453">
        <ele>139</ele>
        <time>2025-01-23T18:36:07Z</time>
      </trkpt>
      <trkpt lat="43.65816" lon="1.36454">
        <ele>140</ele>
        <time>2025-01-23T18:36:08Z</time>
      </trkpt>
      <trkpt lat="43.65812" lon="1.36455">
        <ele>140</ele>
        <time>2025-01-23T18:36:09Z</time>
      </trkpt>
      <trkpt lat="43.65808" lon="1.36455">
        <ele>140</ele>
        <time>2025-01-23T18:36:10Z</time>
      </trkpt>
      <trkpt lat="43.65804" lon="1.36455">
        <ele>140</ele>
        <time>2025-01-23T18:36:11Z</time>
      </trkpt>
      <trkpt lat="43.658" lon="1.36453">
        <ele>140</ele>
        <time>2025-01-23T18:36:12Z</time>
      </trkpt>
      <trkpt lat="43.65798" lon="1.36442">
        <ele>140</ele>
        <time>2025-01-23T18:36:13Z</time>
      </trkpt>
      <trkpt lat="43.65798" lon="1.36442">
        <ele>140</ele>
        <time>2025-01-23T18:36:14Z</time>
      </trkpt>
      <trkpt lat="43.658" lon="1.36436">
        <ele>140</ele>
        <time>2025-01-23T18:36:15Z</time>
      </trkpt>
      <trkpt lat="43.65803" lon="1.36432">
        <ele>141</ele>
        <time>2025-01-23T18:36:16Z</time>
      </trkpt>
      <trkpt lat="43.65806" lon="1.36428">
        <ele>141</ele>
        <time>2025-01-23T18:36:17Z</time>
      </trkpt>
      <trkpt lat="43.65809" lon="1.36426">
        <ele>141</ele>
        <time>2025-01-23T18:36:18Z</time>
      </trkpt>
      <trkpt lat="43.65813" lon="1.36423">
        <ele>141</ele>
        <time>2025-01-23T18:36:19Z</time>
      </trkpt>
      <trkpt lat="43.65817" lon="1.36421">
        <ele>141</ele>
        <time>2025-01-23T18:36:20Z</time>
      </trkpt>
      <trkpt lat="43.65821" lon="1.36419">
        <ele>141</ele>
        <time>2025-01-23T18:36:21Z</time>
      </trkpt>
      <trkpt lat="43.65824" lon="1.36415">
        <ele>141</ele>
        <time>2025-01-23T18:36:22Z</time>
      </trkpt>
      <trkpt lat="43.65824" lon="1.36412">
        <ele>141</ele>
        <time>2025-01-23T18:36:23Z</time>
      </trkpt>
      <trkpt lat="43.65824" lon="1.36409">
        <ele>141</ele>
        <time>2025-01-23T18:36:24Z</time>
      </trkpt>
      <trkpt lat="43.65824" lon="1.36406">
        <ele>142</ele>
        <time>2025-01-23T18:36:25Z</time>
      </trkpt>
      <trkpt lat="43.65824" lon="1.36406">
        <ele>142</ele>
        <time>2025-01-23T18:36:26Z</time>
      </trkpt>
      <trkpt lat="43.65823" lon="1.36402">
        <ele>142</ele>
        <time>2025-01-23T18:36:27Z</time>
      </trkpt>
      <trkpt lat="43.65823" lon="1.36402">
        <ele>142</ele>
        <time>2025-01-23T18:36:28Z</time>
      </trkpt>
      <trkpt lat="43.65822" lon="1.36399">
        <ele>142</ele>
        <time>2025-01-23T18:36:29Z</time>
      </trkpt>
      <trkpt lat="43.65822" lon="1.36399">
        <ele>142</ele>
        <time>2025-01-23T18:36:30Z</time>
      </trkpt>
      <trkpt lat="43.65821" lon="1.36396">
        <ele>142</ele>
        <time>2025-01-23T18:36:31Z</time>
      </trkpt>
      <trkpt lat="43.65821" lon="1.36396">
        <ele>142</ele>
        <time>2025-01-23T18:36:32Z</time>
      </trkpt>
      <trkpt lat="43.6582" lon="1.36393">
        <ele>142</ele>
        <time>2025-01-23T18:36:33Z</time>
      </trkpt>
      <trkpt lat="43.6582" lon="1.36393">
        <ele>142</ele>
        <time>2025-01-23T18:36:34Z</time>
      </trkpt>
      <trkpt lat="43.65819" lon="1.3639">
        <ele>142</ele>
        <time>2025-01-23T18:36:35Z</time>
      </trkpt>
      <trkpt lat="43.65819" lon="1.3639">
        <ele>142</ele>
        <time>2025-01-23T18:36:36Z</time>
      </trkpt>
      <trkpt lat="43.65818" lon="1.36386">
        <ele>142</ele>
        <time>2025-01-23T18:36:37Z</time>
      </trkpt>
      <trkpt lat="43.65818" lon="1.36386">
        <ele>142</ele>
        <time>2025-01-23T18:36:38Z</time>
      </trkpt>
      <trkpt lat="43.65817" lon="1.36383">
        <ele>142</ele>
        <time>2025-01-23T18:36:39Z</time>
      </trkpt>
      <trkpt lat="43.65817" lon="1.36383">
        <ele>142</ele>
        <time>2025-01-23T18:36:40Z</time>
      </trkpt>
      <trkpt lat="43.65817" lon="1.36381">
        <ele>142</ele>
        <time>2025-01-23T18:36:41Z</time>
      </trkpt>
      <trkpt lat="43.65817" lon="1.36381">
        <ele>142</ele>
        <time>2025-01-23T18:36:42Z</time>
      </trkpt>
      <trkpt lat="43.65816" lon="1.36378">
        <ele>142</ele>
        <time>2025-01-23T18:36:43Z</time>
      </trkpt>
      <trkpt lat="43.65816" lon="1.36378">
        <ele>143</ele>
        <time>2025-01-23T18:36:44Z</time>
      </trkpt>
      <trkpt lat="43.65815" lon="1.36375">
        <ele>143</ele>
        <time>2025-01-23T18:36:45Z</time>
      </trkpt>
      <trkpt lat="43.65815" lon="1.36375">
        <ele>143</ele>
        <time>2025-01-23T18:36:46Z</time>
      </trkpt>
      <trkpt lat="43.65814" lon="1.36371">
        <ele>143</ele>
        <time>2025-01-23T18:36:47Z</time>
      </trkpt>
      <trkpt lat="43.65814" lon="1.36371">
        <ele>143</ele>
        <time>2025-01-23T18:36:48Z</time>
      </trkpt>
      <trkpt lat="43.65813" lon="1.36368">
        <ele>143</ele>
        <time>2025-01-23T18:36:49Z</time>
      </trkpt>
      <trkpt lat="43.65813" lon="1.36368">
        <ele>143</ele>
        <time>2025-01-23T18:36:50Z</time>
      </trkpt>
      <trkpt lat="43.65812" lon="1.36365">
        <ele>143</ele>
        <time>2025-01-23T18:36:51Z</time>
      </trkpt>
      <trkpt lat="43.65812" lon="1.36365">
        <ele>143</ele>
        <time>2025-01-23T18:36:52Z</time>
      </trkpt>
      <trkpt lat="43.65812" lon="1.36362">
        <ele>143</ele>
        <time>2025-01-23T18:36:53Z</time>
      </trkpt>
      <trkpt lat="43.65812" lon="1.36362">
        <ele>143</ele>
        <time>2025-01-23T18:36:54Z</time>
      </trkpt>
      <trkpt lat="43.6581" lon="1.36358">
        <ele>143</ele>
        <time>2025-01-23T18:36:55Z</time>
      </trkpt>
      <trkpt lat="43.6581" lon="1.36358">
        <ele>143</ele>
        <time>2025-01-23T18:36:56Z</time>
      </trkpt>
      <trkpt lat="43.65809" lon="1.36354">
        <ele>143</ele>
        <time>2025-01-23T18:36:57Z</time>
      </trkpt>
      <trkpt lat="43.65809" lon="1.36354">
        <ele>143</ele>
        <time>2025-01-23T18:36:58Z</time>
      </trkpt>
      <trkpt lat="43.65808" lon="1.3635">
        <ele>143</ele>
        <time>2025-01-23T18:36:59Z</time>
      </trkpt>
      <trkpt lat="43.65808" lon="1.3635">
        <ele>142</ele>
        <time>2025-01-23T18:37:00Z</time>
      </trkpt>
      <trkpt lat="43.65807" lon="1.36347">
        <ele>142</ele>
        <time>2025-01-23T18:37:01Z</time>
      </trkpt>
      <trkpt lat="43.65807" lon="1.36347">
        <ele>142</ele>
        <time>2025-01-23T18:37:02Z</time>
      </trkpt>
      <trkpt lat="43.65805" lon="1.36343">
        <ele>142</ele>
        <time>2025-01-23T18:37:03Z</time>
      </trkpt>
      <trkpt lat="43.65805" lon="1.36343">
        <ele>142</ele>
        <time>2025-01-23T18:37:04Z</time>
      </trkpt>
      <trkpt lat="43.65804" lon="1.36339">
        <ele>142</ele>
        <time>2025-01-23T18:37:05Z</time>
      </trkpt>
      <trkpt lat="43.65804" lon="1.36339">
        <ele>142</ele>
        <time>2025-01-23T18:37:06Z</time>
      </trkpt>
      <trkpt lat="43.65803" lon="1.36335">
        <ele>142</ele>
        <time>2025-01-23T18:37:07Z</time>
      </trkpt>
      <trkpt lat="43.65803" lon="1.36335">
        <ele>142</ele>
        <time>2025-01-23T18:37:08Z</time>
      </trkpt>
      <trkpt lat="43.65802" lon="1.36331">
        <ele>142</ele>
        <time>2025-01-23T18:37:09Z</time>
      </trkpt>
      <trkpt lat="43.65802" lon="1.36331">
        <ele>142</ele>
        <time>2025-01-23T18:37:10Z</time>
      </trkpt>
      <trkpt lat="43.65801" lon="1.36328">
        <ele>142</ele>
        <time>2025-01-23T18:37:11Z</time>
      </trkpt>
      <trkpt lat="43.65801" lon="1.36328">
        <ele>142</ele>
        <time>2025-01-23T18:37:12Z</time>
      </trkpt>
      <trkpt lat="43.658" lon="1.36324">
        <ele>142</ele>
        <time>2025-01-23T18:37:13Z</time>
      </trkpt>
      <trkpt lat="43.658" lon="1.36324">
        <ele>142</ele>
        <time>2025-01-23T18:37:14Z</time>
      </trkpt>
      <trkpt lat="43.65799" lon="1.36319">
        <ele>142</ele>
        <time>2025-01-23T18:37:15Z</time>
      </trkpt>
      <trkpt lat="43.65799" lon="1.36319">
        <ele>141</ele>
        <time>2025-01-23T18:37:16Z</time>
      </trkpt>
      <trkpt lat="43.65798" lon="1.36315">
        <ele>141</ele>
        <time>2025-01-23T18:37:17Z</time>
      </trkpt>
      <trkpt lat="43.65798" lon="1.36315">
        <ele>141</ele>
        <time>2025-01-23T18:37:18Z</time>
      </trkpt>
      <trkpt lat="43.65797" lon="1.3631">
        <ele>141</ele>
        <time>2025-01-23T18:37:19Z</time>
      </trkpt>
      <trkpt lat="43.65796" lon="1.36308">
        <ele>141</ele>
        <time>2025-01-23T18:37:20Z</time>
      </trkpt>
      <trkpt lat="43.65795" lon="1.36305">
        <ele>141</ele>
        <time>2025-01-23T18:37:21Z</time>
      </trkpt>
      <trkpt lat="43.65795" lon="1.36305">
        <ele>141</ele>
        <time>2025-01-23T18:37:22Z</time>
      </trkpt>
      <trkpt lat="43.65794" lon="1.363">
        <ele>141</ele>
        <time>2025-01-23T18:37:23Z</time>
      </trkpt>
      <trkpt lat="43.65794" lon="1.36298">
        <ele>141</ele>
        <time>2025-01-23T18:37:24Z</time>
      </trkpt>
      <trkpt lat="43.65794" lon="1.36295">
        <ele>141</ele>
        <time>2025-01-23T18:37:25Z</time>
      </trkpt>
      <trkpt lat="43.65793" lon="1.36292">
        <ele>141</ele>
        <time>2025-01-23T18:37:26Z</time>
      </trkpt>
      <trkpt lat="43.65793" lon="1.36292">
        <ele>141</ele>
        <time>2025-01-23T18:37:27Z</time>
      </trkpt>
      <trkpt lat="43.65793" lon="1.36287">
        <ele>141</ele>
        <time>2025-01-23T18:37:28Z</time>
      </trkpt>
      <trkpt lat="43.65793" lon="1.36282">
        <ele>141</ele>
        <time>2025-01-23T18:37:29Z</time>
      </trkpt>
      <trkpt lat="43.65793" lon="1.36282">
        <ele>141</ele>
        <time>2025-01-23T18:37:30Z</time>
      </trkpt>
      <trkpt lat="43.65793" lon="1.36279">
        <ele>141</ele>
        <time>2025-01-23T18:37:31Z</time>
      </trkpt>
      <trkpt lat="43.65793" lon="1.36276">
        <ele>141</ele>
        <time>2025-01-23T18:37:32Z</time>
      </trkpt>
      <trkpt lat="43.65793" lon="1.36273">
        <ele>141</ele>
        <time>2025-01-23T18:37:33Z</time>
      </trkpt>
      <trkpt lat="43.65792" lon="1.3627">
        <ele>141</ele>
        <time>2025-01-23T18:37:34Z</time>
      </trkpt>
      <trkpt lat="43.65792" lon="1.36267">
        <ele>141</ele>
        <time>2025-01-23T18:37:35Z</time>
      </trkpt>
      <trkpt lat="43.65792" lon="1.36265">
        <ele>140</ele>
        <time>2025-01-23T18:37:36Z</time>
      </trkpt>
      <trkpt lat="43.65792" lon="1.36262">
        <ele>140</ele>
        <time>2025-01-23T18:37:37Z</time>
      </trkpt>
      <trkpt lat="43.65792" lon="1.3626">
        <ele>140</ele>
        <time>2025-01-23T18:37:38Z</time>
      </trkpt>
      <trkpt lat="43.65791" lon="1.36254">
        <ele>140</ele>
        <time>2025-01-23T18:37:39Z</time>
      </trkpt>
      <trkpt lat="43.65791" lon="1.36254">
        <ele>140</ele>
        <time>2025-01-23T18:37:40Z</time>
      </trkpt>
      <trkpt lat="43.65791" lon="1.36252">
        <ele>140</ele>
        <time>2025-01-23T18:37:41Z</time>
      </trkpt>
      <trkpt lat="43.65792" lon="1.36249">
        <ele>140</ele>
        <time>2025-01-23T18:37:42Z</time>
      </trkpt>
      <trkpt lat="43.65792" lon="1.36246">
        <ele>140</ele>
        <time>2025-01-23T18:37:43Z</time>
      </trkpt>
      <trkpt lat="43.65791" lon="1.36244">
        <ele>140</ele>
        <time>2025-01-23T18:37:44Z</time>
      </trkpt>
      <trkpt lat="43.65791" lon="1.36244">
        <ele>139</ele>
        <time>2025-01-23T18:37:45Z</time>
      </trkpt>
      <trkpt lat="43.65792" lon="1.36238">
        <ele>139</ele>
        <time>2025-01-23T18:37:46Z</time>
      </trkpt>
      <trkpt lat="43.65791" lon="1.36235">
        <ele>139</ele>
        <time>2025-01-23T18:37:47Z</time>
      </trkpt>
      <trkpt lat="43.65791" lon="1.36232">
        <ele>139</ele>
        <time>2025-01-23T18:37:48Z</time>
      </trkpt>
      <trkpt lat="43.65791" lon="1.36229">
        <ele>139</ele>
        <time>2025-01-23T18:37:49Z</time>
      </trkpt>
      <trkpt lat="43.65792" lon="1.36226">
        <ele>139</ele>
        <time>2025-01-23T18:37:50Z</time>
      </trkpt>
      <trkpt lat="43.65792" lon="1.36223">
        <ele>139</ele>
        <time>2025-01-23T18:37:51Z</time>
      </trkpt>
      <trkpt lat="43.65791" lon="1.3622">
        <ele>138</ele>
        <time>2025-01-23T18:37:52Z</time>
      </trkpt>
      <trkpt lat="43.65791" lon="1.36217">
        <ele>138</ele>
        <time>2025-01-23T18:37:53Z</time>
      </trkpt>
      <trkpt lat="43.65791" lon="1.36215">
        <ele>138</ele>
        <time>2025-01-23T18:37:54Z</time>
      </trkpt>
      <trkpt lat="43.65791" lon="1.36215">
        <ele>138</ele>
        <time>2025-01-23T18:37:55Z</time>
      </trkpt>
      <trkpt lat="43.65791" lon="1.3621">
        <ele>138</ele>
        <time>2025-01-23T18:37:56Z</time>
      </trkpt>
      <trkpt lat="43.65791" lon="1.36208">
        <ele>138</ele>
        <time>2025-01-23T18:37:57Z</time>
      </trkpt>
      <trkpt lat="43.65791" lon="1.36208">
        <ele>138</ele>
        <time>2025-01-23T18:37:58Z</time>
      </trkpt>
      <trkpt lat="43.65791" lon="1.36204">
        <ele>138</ele>
        <time>2025-01-23T18:37:59Z</time>
      </trkpt>
      <trkpt lat="43.65791" lon="1.36204">
        <ele>137</ele>
        <time>2025-01-23T18:38:00Z</time>
      </trkpt>
      <trkpt lat="43.65791" lon="1.36204">
        <ele>137</ele>
        <time>2025-01-23T18:38:01Z</time>
      </trkpt>
      <trkpt lat="43.65791" lon="1.36199">
        <ele>137</ele>
        <time>2025-01-23T18:38:02Z</time>
      </trkpt>
      <trkpt lat="43.65791" lon="1.36199">
        <ele>137</ele>
        <time>2025-01-23T18:38:03Z</time>
      </trkpt>
      <trkpt lat="43.6579" lon="1.36194">
        <ele>137</ele>
        <time>2025-01-23T18:38:04Z</time>
      </trkpt>
      <trkpt lat="43.6579" lon="1.36191">
        <ele>137</ele>
        <time>2025-01-23T18:38:05Z</time>
      </trkpt>
      <trkpt lat="43.6579" lon="1.36188">
        <ele>137</ele>
        <time>2025-01-23T18:38:06Z</time>
      </trkpt>
      <trkpt lat="43.6579" lon="1.36185">
        <ele>137</ele>
        <time>2025-01-23T18:38:07Z</time>
      </trkpt>
      <trkpt lat="43.6579" lon="1.36182">
        <ele>137</ele>
        <time>2025-01-23T18:38:08Z</time>
      </trkpt>
      <trkpt lat="43.6579" lon="1.36179">
        <ele>137</ele>
        <time>2025-01-23T18:38:09Z</time>
      </trkpt>
      <trkpt lat="43.65791" lon="1.36176">
        <ele>136</ele>
        <time>2025-01-23T18:38:10Z</time>
      </trkpt>
      <trkpt lat="43.6579" lon="1.36173">
        <ele>136</ele>
        <time>2025-01-23T18:38:11Z</time>
      </trkpt>
      <trkpt lat="43.6579" lon="1.3617">
        <ele>136</ele>
        <time>2025-01-23T18:38:12Z</time>
      </trkpt>
      <trkpt lat="43.6579" lon="1.36167">
        <ele>136</ele>
        <time>2025-01-23T18:38:13Z</time>
      </trkpt>
      <trkpt lat="43.6579" lon="1.36164">
        <ele>136</ele>
        <time>2025-01-23T18:38:14Z</time>
      </trkpt>
      <trkpt lat="43.6579" lon="1.36161">
        <ele>136</ele>
        <time>2025-01-23T18:38:15Z</time>
      </trkpt>
      <trkpt lat="43.6579" lon="1.36158">
        <ele>136</ele>
        <time>2025-01-23T18:38:16Z</time>
      </trkpt>
      <trkpt lat="43.6579" lon="1.36156">
        <ele>136</ele>
        <time>2025-01-23T18:38:17Z</time>
      </trkpt>
      <trkpt lat="43.6579" lon="1.36153">
        <ele>136</ele>
        <time>2025-01-23T18:38:18Z</time>
      </trkpt>
      <trkpt lat="43.6579" lon="1.3615">
        <ele>136</ele>
        <time>2025-01-23T18:38:19Z</time>
      </trkpt>
      <trkpt lat="43.6579" lon="1.36147">
        <ele>136</ele>
        <time>2025-01-23T18:38:20Z</time>
      </trkpt>
      <trkpt lat="43.65789" lon="1.36143">
        <ele>136</ele>
        <time>2025-01-23T18:38:21Z</time>
      </trkpt>
      <trkpt lat="43.65789" lon="1.36141">
        <ele>136</ele>
        <time>2025-01-23T18:38:22Z</time>
      </trkpt>
      <trkpt lat="43.65789" lon="1.36138">
        <ele>136</ele>
        <time>2025-01-23T18:38:23Z</time>
      </trkpt>
      <trkpt lat="43.6579" lon="1.36135">
        <ele>136</ele>
        <time>2025-01-23T18:38:24Z</time>
      </trkpt>
      <trkpt lat="43.6579" lon="1.36132">
        <ele>136</ele>
        <time>2025-01-23T18:38:25Z</time>
      </trkpt>
      <trkpt lat="43.65792" lon="1.36127">
        <ele>136</ele>
        <time>2025-01-23T18:38:26Z</time>
      </trkpt>
      <trkpt lat="43.65792" lon="1.36127">
        <ele>136</ele>
        <time>2025-01-23T18:38:27Z</time>
      </trkpt>
      <trkpt lat="43.65793" lon="1.36125">
        <ele>136</ele>
        <time>2025-01-23T18:38:28Z</time>
      </trkpt>
      <trkpt lat="43.65795" lon="1.36119">
        <ele>136</ele>
        <time>2025-01-23T18:38:29Z</time>
      </trkpt>
      <trkpt lat="43.65795" lon="1.36119">
        <ele>136</ele>
        <time>2025-01-23T18:38:30Z</time>
      </trkpt>
      <trkpt lat="43.65795" lon="1.36119">
        <ele>136</ele>
        <time>2025-01-23T18:38:31Z</time>
      </trkpt>
      <trkpt lat="43.65795" lon="1.36119">
        <ele>136</ele>
        <time>2025-01-23T18:38:32Z</time>
      </trkpt>
      <trkpt lat="43.65793" lon="1.36123">
        <ele>136</ele>
        <time>2025-01-23T18:38:33Z</time>
      </trkpt>
      <trkpt lat="43.65792" lon="1.36127">
        <ele>136</ele>
        <time>2025-01-23T18:38:34Z</time>
      </trkpt>
      <trkpt lat="43.65791" lon="1.36132">
        <ele>136</ele>
        <time>2025-01-23T18:38:35Z</time>
      </trkpt>
      <trkpt lat="43.6579" lon="1.36136">
        <ele>136</ele>
        <time>2025-01-23T18:38:36Z</time>
      </trkpt>
      <trkpt lat="43.6579" lon="1.36141">
        <ele>136</ele>
        <time>2025-01-23T18:38:37Z</time>
      </trkpt>
      <trkpt lat="43.6579" lon="1.36147">
        <ele>136</ele>
        <time>2025-01-23T18:38:38Z</time>
      </trkpt>
      <trkpt lat="43.6579" lon="1.36152">
        <ele>137</ele>
        <time>2025-01-23T18:38:39Z</time>
      </trkpt>
      <trkpt lat="43.6579" lon="1.36158">
        <ele>137</ele>
        <time>2025-01-23T18:38:40Z</time>
      </trkpt>
      <trkpt lat="43.65791" lon="1.36163">
        <ele>136</ele>
        <time>2025-01-23T18:38:41Z</time>
      </trkpt>
      <trkpt lat="43.65791" lon="1.36168">
        <ele>136</ele>
        <time>2025-01-23T18:38:42Z</time>
      </trkpt>
      <trkpt lat="43.65791" lon="1.36173">
        <ele>137</ele>
        <time>2025-01-23T18:38:43Z</time>
      </trkpt>
      <trkpt lat="43.65791" lon="1.36178">
        <ele>137</ele>
        <time>2025-01-23T18:38:44Z</time>
      </trkpt>
      <trkpt lat="43.65791" lon="1.36183">
        <ele>138</ele>
        <time>2025-01-23T18:38:45Z</time>
      </trkpt>
      <trkpt lat="43.65792" lon="1.36187">
        <ele>138</ele>
        <time>2025-01-23T18:38:46Z</time>
      </trkpt>
      <trkpt lat="43.65792" lon="1.36192">
        <ele>138</ele>
        <time>2025-01-23T18:38:47Z</time>
      </trkpt>
      <trkpt lat="43.65792" lon="1.36197">
        <ele>138</ele>
        <time>2025-01-23T18:38:48Z</time>
      </trkpt>
      <trkpt lat="43.65791" lon="1.36202">
        <ele>138</ele>
        <time>2025-01-23T18:38:49Z</time>
      </trkpt>
      <trkpt lat="43.65791" lon="1.36207">
        <ele>138</ele>
        <time>2025-01-23T18:38:50Z</time>
      </trkpt>
      <trkpt lat="43.65791" lon="1.36213">
        <ele>138</ele>
        <time>2025-01-23T18:38:51Z</time>
      </trkpt>
      <trkpt lat="43.65793" lon="1.36218">
        <ele>138</ele>
        <time>2025-01-23T18:38:52Z</time>
      </trkpt>
      <trkpt lat="43.65793" lon="1.36224">
        <ele>138</ele>
        <time>2025-01-23T18:38:53Z</time>
      </trkpt>
      <trkpt lat="43.65793" lon="1.3623">
        <ele>138</ele>
        <time>2025-01-23T18:38:54Z</time>
      </trkpt>
      <trkpt lat="43.65794" lon="1.36236">
        <ele>138</ele>
        <time>2025-01-23T18:38:55Z</time>
      </trkpt>
      <trkpt lat="43.65794" lon="1.36242">
        <ele>138</ele>
        <time>2025-01-23T18:38:56Z</time>
      </trkpt>
      <trkpt lat="43.65794" lon="1.36247">
        <ele>139</ele>
        <time>2025-01-23T18:38:57Z</time>
      </trkpt>
      <trkpt lat="43.65794" lon="1.36253">
        <ele>139</ele>
        <time>2025-01-23T18:38:58Z</time>
      </trkpt>
      <trkpt lat="43.65794" lon="1.36258">
        <ele>139</ele>
        <time>2025-01-23T18:38:59Z</time>
      </trkpt>
      <trkpt lat="43.65794" lon="1.36263">
        <ele>139</ele>
        <time>2025-01-23T18:39:00Z</time>
      </trkpt>
      <trkpt lat="43.65793" lon="1.36268">
        <ele>139</ele>
        <time>2025-01-23T18:39:01Z</time>
      </trkpt>
      <trkpt lat="43.65793" lon="1.36273">
        <ele>140</ele>
        <time>2025-01-23T18:39:02Z</time>
      </trkpt>
      <trkpt lat="43.65793" lon="1.36279">
        <ele>140</ele>
        <time>2025-01-23T18:39:03Z</time>
      </trkpt>
      <trkpt lat="43.65794" lon="1.3629">
        <ele>140</ele>
        <time>2025-01-23T18:39:04Z</time>
      </trkpt>
      <trkpt lat="43.65794" lon="1.3629">
        <ele>141</ele>
        <time>2025-01-23T18:39:05Z</time>
      </trkpt>
      <trkpt lat="43.65794" lon="1.36296">
        <ele>141</ele>
        <time>2025-01-23T18:39:06Z</time>
      </trkpt>
      <trkpt lat="43.65795" lon="1.36301">
        <ele>141</ele>
        <time>2025-01-23T18:39:07Z</time>
      </trkpt>
      <trkpt lat="43.65795" lon="1.36307">
        <ele>140</ele>
        <time>2025-01-23T18:39:08Z</time>
      </trkpt>
      <trkpt lat="43.65796" lon="1.36312">
        <ele>141</ele>
        <time>2025-01-23T18:39:09Z</time>
      </trkpt>
      <trkpt lat="43.65797" lon="1.36317">
        <ele>141</ele>
        <time>2025-01-23T18:39:10Z</time>
      </trkpt>
      <trkpt lat="43.65798" lon="1.36322">
        <ele>141</ele>
        <time>2025-01-23T18:39:11Z</time>
      </trkpt>
      <trkpt lat="43.658" lon="1.36327">
        <ele>141</ele>
        <time>2025-01-23T18:39:12Z</time>
      </trkpt>
      <trkpt lat="43.65802" lon="1.36332">
        <ele>141</ele>
        <time>2025-01-23T18:39:13Z</time>
      </trkpt>
      <trkpt lat="43.65803" lon="1.36336">
        <ele>142</ele>
        <time>2025-01-23T18:39:14Z</time>
      </trkpt>
      <trkpt lat="43.65805" lon="1.36341">
        <ele>142</ele>
        <time>2025-01-23T18:39:15Z</time>
      </trkpt>
      <trkpt lat="43.65807" lon="1.36346">
        <ele>142</ele>
        <time>2025-01-23T18:39:16Z</time>
      </trkpt>
      <trkpt lat="43.65809" lon="1.36351">
        <ele>142</ele>
        <time>2025-01-23T18:39:17Z</time>
      </trkpt>
      <trkpt lat="43.6581" lon="1.36356">
        <ele>142</ele>
        <time>2025-01-23T18:39:18Z</time>
      </trkpt>
      <trkpt lat="43.65812" lon="1.36361">
        <ele>142</ele>
        <time>2025-01-23T18:39:19Z</time>
      </trkpt>
      <trkpt lat="43.65813" lon="1.36365">
        <ele>143</ele>
        <time>2025-01-23T18:39:20Z</time>
      </trkpt>
      <trkpt lat="43.65814" lon="1.36369">
        <ele>143</ele>
        <time>2025-01-23T18:39:21Z</time>
      </trkpt>
      <trkpt lat="43.65815" lon="1.36373">
        <ele>143</ele>
        <time>2025-01-23T18:39:22Z</time>
      </trkpt>
      <trkpt lat="43.65819" lon="1.36385">
        <ele>144</ele>
        <time>2025-01-23T18:39:23Z</time>
      </trkpt>
      <trkpt lat="43.65819" lon="1.36385">
        <ele>144</ele>
        <time>2025-01-23T18:39:24Z</time>
      </trkpt>
      <trkpt lat="43.6582" lon="1.36389">
        <ele>144</ele>
        <time>2025-01-23T18:39:25Z</time>
      </trkpt>
      <trkpt lat="43.65822" lon="1.36394">
        <ele>144</ele>
        <time>2025-01-23T18:39:26Z</time>
      </trkpt>
      <trkpt lat="43.65823" lon="1.36399">
        <ele>144</ele>
        <time>2025-01-23T18:39:27Z</time>
      </trkpt>
      <trkpt lat="43.65825" lon="1.36403">
        <ele>144</ele>
        <time>2025-01-23T18:39:28Z</time>
      </trkpt>
      <trkpt lat="43.65826" lon="1.36408">
        <ele>143</ele>
        <time>2025-01-23T18:39:29Z</time>
      </trkpt>
      <trkpt lat="43.65827" lon="1.36413">
        <ele>142</ele>
        <time>2025-01-23T18:39:30Z</time>
      </trkpt>
      <trkpt lat="43.65829" lon="1.36417">
        <ele>143</ele>
        <time>2025-01-23T18:39:31Z</time>
      </trkpt>
      <trkpt lat="43.6583" lon="1.36422">
        <ele>143</ele>
        <time>2025-01-23T18:39:32Z</time>
      </trkpt>
      <trkpt lat="43.65831" lon="1.36426">
        <ele>143</ele>
        <time>2025-01-23T18:39:33Z</time>
      </trkpt>
      <trkpt lat="43.65832" lon="1.36431">
        <ele>142</ele>
        <time>2025-01-23T18:39:34Z</time>
      </trkpt>
      <trkpt lat="43.65834" lon="1.36436">
        <ele>141</ele>
        <time>2025-01-23T18:39:35Z</time>
      </trkpt>
      <trkpt lat="43.65835" lon="1.3644">
        <ele>141</ele>
        <time>2025-01-23T18:39:36Z</time>
      </trkpt>
      <trkpt lat="43.65834" lon="1.36444">
        <ele>140</ele>
        <time>2025-01-23T18:39:37Z</time>
      </trkpt>
      <trkpt lat="43.65831" lon="1.36449">
        <ele>140</ele>
        <time>2025-01-23T18:39:38Z</time>
      </trkpt>
      <trkpt lat="43.65827" lon="1.36451">
        <ele>139</ele>
        <time>2025-01-23T18:39:39Z</time>
      </trkpt>
      <trkpt lat="43.65824" lon="1.36453">
        <ele>139</ele>
        <time>2025-01-23T18:39:40Z</time>
      </trkpt>
      <trkpt lat="43.6582" lon="1.36455">
        <ele>139</ele>
        <time>2025-01-23T18:39:41Z</time>
      </trkpt>
      <trkpt lat="43.65816" lon="1.36456">
        <ele>139</ele>
        <time>2025-01-23T18:39:42Z</time>
      </trkpt>
      <trkpt lat="43.65813" lon="1.36458">
        <ele>139</ele>
        <time>2025-01-23T18:39:43Z</time>
      </trkpt>
      <trkpt lat="43.65809" lon="1.36459">
        <ele>139</ele>
        <time>2025-01-23T18:39:44Z</time>
      </trkpt>
      <trkpt lat="43.65805" lon="1.36458">
        <ele>139</ele>
        <time>2025-01-23T18:39:45Z</time>
      </trkpt>
      <trkpt lat="43.65801" lon="1.36455">
        <ele>139</ele>
        <time>2025-01-23T18:39:46Z</time>
      </trkpt>
      <trkpt lat="43.65799" lon="1.3645">
        <ele>139</ele>
        <time>2025-01-23T18:39:47Z</time>
      </trkpt>
      <trkpt lat="43.65799" lon="1.36444">
        <ele>139</ele>
        <time>2025-01-23T18:39:48Z</time>
      </trkpt>
      <trkpt lat="43.658" lon="1.36438">
        <ele>140</ele>
        <time>2025-01-23T18:39:49Z</time>
      </trkpt>
      <trkpt lat="43.65803" lon="1.36434">
        <ele>140</ele>
        <time>2025-01-23T18:39:50Z</time>
      </trkpt>
      <trkpt lat="43.65807" lon="1.3643">
        <ele>140</ele>
        <time>2025-01-23T18:39:51Z</time>
      </trkpt>
      <trkpt lat="43.6581" lon="1.36427">
        <ele>140</ele>
        <time>2025-01-23T18:39:52Z</time>
      </trkpt>
      <trkpt lat="43.65813" lon="1.36425">
        <ele>140</ele>
        <time>2025-01-23T18:39:53Z</time>
      </trkpt>
      <trkpt lat="43.65817" lon="1.36423">
        <ele>141</ele>
        <time>2025-01-23T18:39:54Z</time>
      </trkpt>
      <trkpt lat="43.6582" lon="1.3642">
        <ele>141</ele>
        <time>2025-01-23T18:39:55Z</time>
      </trkpt>
      <trkpt lat="43.65823" lon="1.36416">
        <ele>142</ele>
        <time>2025-01-23T18:39:56Z</time>
      </trkpt>
      <trkpt lat="43.65825" lon="1.36413">
        <ele>142</ele>
        <time>2025-01-23T18:39:57Z</time>
      </trkpt>
      <trkpt lat="43.65827" lon="1.36409">
        <ele>142</ele>
        <time>2025-01-23T18:39:58Z</time>
      </trkpt>
      <trkpt lat="43.65827" lon="1.36406">
        <ele>142</ele>
        <time>2025-01-23T18:39:59Z</time>
      </trkpt>
      <trkpt lat="43.65826" lon="1.36403">
        <ele>142</ele>
        <time>2025-01-23T18:40:00Z</time>
      </trkpt>
      <trkpt lat="43.65825" lon="1.36401">
        <ele>142</ele>
        <time>2025-01-23T18:40:01Z</time>
      </trkpt>
      <trkpt lat="43.65825" lon="1.36401">
        <ele>142</ele>
        <time>2025-01-23T18:40:02Z</time>
      </trkpt>
      <trkpt lat="43.65823" lon="1.36398">
        <ele>142</ele>
        <time>2025-01-23T18:40:03Z</time>
      </trkpt>
      <trkpt lat="43.65823" lon="1.36398">
        <ele>142</ele>
        <time>2025-01-23T18:40:04Z</time>
      </trkpt>
      <trkpt lat="43.65822" lon="1.36394">
        <ele>142</ele>
        <time>2025-01-23T18:40:05Z</time>
      </trkpt>
      <trkpt lat="43.65822" lon="1.36394">
        <ele>142</ele>
        <time>2025-01-23T18:40:06Z</time>
      </trkpt>
      <trkpt lat="43.65821" lon="1.36391">
        <ele>142</ele>
        <time>2025-01-23T18:40:07Z</time>
      </trkpt>
      <trkpt lat="43.65821" lon="1.36391">
        <ele>142</ele>
        <time>2025-01-23T18:40:08Z</time>
      </trkpt>
      <trkpt lat="43.6582" lon="1.36387">
        <ele>142</ele>
        <time>2025-01-23T18:40:09Z</time>
      </trkpt>
      <trkpt lat="43.6582" lon="1.36387">
        <ele>142</ele>
        <time>2025-01-23T18:40:10Z</time>
      </trkpt>
      <trkpt lat="43.65819" lon="1.36384">
        <ele>142</ele>
        <time>2025-01-23T18:40:11Z</time>
      </trkpt>
      <trkpt lat="43.65819" lon="1.36384">
        <ele>142</ele>
        <time>2025-01-23T18:40:12Z</time>
      </trkpt>
      <trkpt lat="43.65818" lon="1.36381">
        <ele>143</ele>
        <time>2025-01-23T18:40:13Z</time>
      </trkpt>
      <trkpt lat="43.65818" lon="1.36381">
        <ele>143</ele>
        <time>2025-01-23T18:40:14Z</time>
      </trkpt>
      <trkpt lat="43.65817" lon="1.36378">
        <ele>143</ele>
        <time>2025-01-23T18:40:15Z</time>
      </trkpt>
      <trkpt lat="43.65817" lon="1.36378">
        <ele>143</ele>
        <time>2025-01-23T18:40:16Z</time>
      </trkpt>
      <trkpt lat="43.65816" lon="1.36375">
        <ele>143</ele>
        <time>2025-01-23T18:40:17Z</time>
      </trkpt>
      <trkpt lat="43.65816" lon="1.36375">
        <ele>143</ele>
        <time>2025-01-23T18:40:18Z</time>
      </trkpt>
      <trkpt lat="43.65816" lon="1.36375">
        <ele>143</ele>
        <time>2025-01-23T18:40:19Z</time>
      </trkpt>
      <trkpt lat="43.65816" lon="1.36375">
        <ele>143</ele>
        <time>2025-01-23T18:40:20Z</time>
      </trkpt>
      <trkpt lat="43.65816" lon="1.36375">
        <ele>143</ele>
        <time>2025-01-23T18:40:21Z</time>
      </trkpt>
      <trkpt lat="43.65815" lon="1.36371">
        <ele>143</ele>
        <time>2025-01-23T18:40:22Z</time>
      </trkpt>
      <trkpt lat="43.65815" lon="1.36371">
        <ele>143</ele>
        <time>2025-01-23T18:40:23Z</time>
      </trkpt>
      <trkpt lat="43.65814" lon="1.36368">
        <ele>143</ele>
        <time>2025-01-23T18:40:24Z</time>
      </trkpt>
      <trkpt lat="43.65814" lon="1.36368">
        <ele>143</ele>
        <time>2025-01-23T18:40:25Z</time>
      </trkpt>
      <trkpt lat="43.65813" lon="1.36364">
        <ele>143</ele>
        <time>2025-01-23T18:40:26Z</time>
      </trkpt>
      <trkpt lat="43.65813" lon="1.36364">
        <ele>143</ele>
        <time>2025-01-23T18:40:27Z</time>
      </trkpt>
      <trkpt lat="43.65811" lon="1.3636">
        <ele>143</ele>
        <time>2025-01-23T18:40:28Z</time>
      </trkpt>
      <trkpt lat="43.65811" lon="1.3636">
        <ele>143</ele>
        <time>2025-01-23T18:40:29Z</time>
      </trkpt>
      <trkpt lat="43.6581" lon="1.36356">
        <ele>143</ele>
        <time>2025-01-23T18:40:30Z</time>
      </trkpt>
      <trkpt lat="43.6581" lon="1.36356">
        <ele>143</ele>
        <time>2025-01-23T18:40:31Z</time>
      </trkpt>
      <trkpt lat="43.65809" lon="1.36352">
        <ele>143</ele>
        <time>2025-01-23T18:40:32Z</time>
      </trkpt>
      <trkpt lat="43.65809" lon="1.36352">
        <ele>143</ele>
        <time>2025-01-23T18:40:33Z</time>
      </trkpt>
      <trkpt lat="43.65808" lon="1.36349">
        <ele>142</ele>
        <time>2025-01-23T18:40:34Z</time>
      </trkpt>
      <trkpt lat="43.65808" lon="1.36349">
        <ele>142</ele>
        <time>2025-01-23T18:40:35Z</time>
      </trkpt>
      <trkpt lat="43.65807" lon="1.36345">
        <ele>142</ele>
        <time>2025-01-23T18:40:36Z</time>
      </trkpt>
      <trkpt lat="43.65807" lon="1.36345">
        <ele>142</ele>
        <time>2025-01-23T18:40:37Z</time>
      </trkpt>
      <trkpt lat="43.65806" lon="1.36342">
        <ele>142</ele>
        <time>2025-01-23T18:40:38Z</time>
      </trkpt>
      <trkpt lat="43.65805" lon="1.36338">
        <ele>142</ele>
        <time>2025-01-23T18:40:39Z</time>
      </trkpt>
      <trkpt lat="43.65805" lon="1.36338">
        <ele>142</ele>
        <time>2025-01-23T18:40:40Z</time>
      </trkpt>
      <trkpt lat="43.65805" lon="1.36338">
        <ele>142</ele>
        <time>2025-01-23T18:40:41Z</time>
      </trkpt>
      <trkpt lat="43.65804" lon="1.36335">
        <ele>142</ele>
        <time>2025-01-23T18:40:42Z</time>
      </trkpt>
      <trkpt lat="43.65804" lon="1.36335">
        <ele>142</ele>
        <time>2025-01-23T18:40:43Z</time>
      </trkpt>
      <trkpt lat="43.65803" lon="1.3633">
        <ele>142</ele>
        <time>2025-01-23T18:40:44Z</time>
      </trkpt>
      <trkpt lat="43.65802" lon="1.36328">
        <ele>142</ele>
        <time>2025-01-23T18:40:45Z</time>
      </trkpt>
      <trkpt lat="43.65802" lon="1.36325">
        <ele>142</ele>
        <time>2025-01-23T18:40:46Z</time>
      </trkpt>
      <trkpt lat="43.65801" lon="1.36323">
        <ele>142</ele>
        <time>2025-01-23T18:40:47Z</time>
      </trkpt>
      <trkpt lat="43.658" lon="1.3632">
        <ele>142</ele>
        <time>2025-01-23T18:40:48Z</time>
      </trkpt>
      <trkpt lat="43.658" lon="1.36318">
        <ele>142</ele>
        <time>2025-01-23T18:40:49Z</time>
      </trkpt>
      <trkpt lat="43.65799" lon="1.36315">
        <ele>142</ele>
        <time>2025-01-23T18:40:50Z</time>
      </trkpt>
      <trkpt lat="43.65798" lon="1.36313">
        <ele>142</ele>
        <time>2025-01-23T18:40:51Z</time>
      </trkpt>
      <trkpt lat="43.65797" lon="1.36311">
        <ele>142</ele>
        <time>2025-01-23T18:40:52Z</time>
      </trkpt>
      <trkpt lat="43.65797" lon="1.36311">
        <ele>142</ele>
        <time>2025-01-23T18:40:53Z</time>
      </trkpt>
      <trkpt lat="43.65796" lon="1.36306">
        <ele>141</ele>
        <time>2025-01-23T18:40:54Z</time>
      </trkpt>
      <trkpt lat="43.65796" lon="1.36306">
        <ele>141</ele>
        <time>2025-01-23T18:40:55Z</time>
      </trkpt>
      <trkpt lat="43.65794" lon="1.36303">
        <ele>141</ele>
        <time>2025-01-23T18:40:56Z</time>
      </trkpt>
      <trkpt lat="43.65794" lon="1.36303">
        <ele>141</ele>
        <time>2025-01-23T18:40:57Z</time>
      </trkpt>
      <trkpt lat="43.65793" lon="1.36297">
        <ele>141</ele>
        <time>2025-01-23T18:40:58Z</time>
      </trkpt>
      <trkpt lat="43.65793" lon="1.36295">
        <ele>141</ele>
        <time>2025-01-23T18:40:59Z</time>
      </trkpt>
      <trkpt lat="43.65793" lon="1.36292">
        <ele>141</ele>
        <time>2025-01-23T18:41:00Z</time>
      </trkpt>
      <trkpt lat="43.65793" lon="1.3629">
        <ele>141</ele>
        <time>2025-01-23T18:41:01Z</time>
      </trkpt>
      <trkpt lat="43.65793" lon="1.36287">
        <ele>141</ele>
        <time>2025-01-23T18:41:02Z</time>
      </trkpt>
      <trkpt lat="43.65793" lon="1.36284">
        <ele>141</ele>
        <time>2025-01-23T18:41:03Z</time>
      </trkpt>
      <trkpt lat="43.65792" lon="1.36281">
        <ele>141</ele>
        <time>2025-01-23T18:41:04Z</time>
      </trkpt>
      <trkpt lat="43.65792" lon="1.36276">
        <ele>140</ele>
        <time>2025-01-23T18:41:05Z</time>
      </trkpt>
      <trkpt lat="43.65792" lon="1.36276">
        <ele>140</ele>
        <time>2025-01-23T18:41:06Z</time>
      </trkpt>
      <trkpt lat="43.65792" lon="1.36273">
        <ele>140</ele>
        <time>2025-01-23T18:41:07Z</time>
      </trkpt>
      <trkpt lat="43.65792" lon="1.36271">
        <ele>140</ele>
        <time>2025-01-23T18:41:08Z</time>
      </trkpt>
      <trkpt lat="43.65792" lon="1.36268">
        <ele>140</ele>
        <time>2025-01-23T18:41:09Z</time>
      </trkpt>
      <trkpt lat="43.65792" lon="1.36265">
        <ele>140</ele>
        <time>2025-01-23T18:41:10Z</time>
      </trkpt>
      <trkpt lat="43.65792" lon="1.36265">
        <ele>140</ele>
        <time>2025-01-23T18:41:11Z</time>
      </trkpt>
      <trkpt lat="43.65792" lon="1.3626">
        <ele>140</ele>
        <time>2025-01-23T18:41:12Z</time>
      </trkpt>
      <trkpt lat="43.65792" lon="1.36258">
        <ele>140</ele>
        <time>2025-01-23T18:41:13Z</time>
      </trkpt>
      <trkpt lat="43.65792" lon="1.36255">
        <ele>140</ele>
        <time>2025-01-23T18:41:14Z</time>
      </trkpt>
      <trkpt lat="43.65792" lon="1.36255">
        <ele>140</ele>
        <time>2025-01-23T18:41:15Z</time>
      </trkpt>
      <trkpt lat="43.65792" lon="1.3625">
        <ele>140</ele>
        <time>2025-01-23T18:41:16Z</time>
      </trkpt>
      <trkpt lat="43.65792" lon="1.3625">
        <ele>139</ele>
        <time>2025-01-23T18:41:17Z</time>
      </trkpt>
      <trkpt lat="43.65792" lon="1.36245">
        <ele>139</ele>
        <time>2025-01-23T18:41:18Z</time>
      </trkpt>
      <trkpt lat="43.65792" lon="1.36243">
        <ele>139</ele>
        <time>2025-01-23T18:41:19Z</time>
      </trkpt>
      <trkpt lat="43.65792" lon="1.3624">
        <ele>139</ele>
        <time>2025-01-23T18:41:20Z</time>
      </trkpt>
      <trkpt lat="43.65792" lon="1.36237">
        <ele>139</ele>
        <time>2025-01-23T18:41:21Z</time>
      </trkpt>
      <trkpt lat="43.65792" lon="1.36234">
        <ele>138</ele>
        <time>2025-01-23T18:41:22Z</time>
      </trkpt>
      <trkpt lat="43.65792" lon="1.36234">
        <ele>138</ele>
        <time>2025-01-23T18:41:23Z</time>
      </trkpt>
      <trkpt lat="43.65792" lon="1.36229">
        <ele>138</ele>
        <time>2025-01-23T18:41:24Z</time>
      </trkpt>
      <trkpt lat="43.65792" lon="1.36226">
        <ele>138</ele>
        <time>2025-01-23T18:41:25Z</time>
      </trkpt>
      <trkpt lat="43.65792" lon="1.36223">
        <ele>138</ele>
        <time>2025-01-23T18:41:26Z</time>
      </trkpt>
      <trkpt lat="43.65792" lon="1.3622">
        <ele>138</ele>
        <time>2025-01-23T18:41:27Z</time>
      </trkpt>
      <trkpt lat="43.65793" lon="1.36218">
        <ele>138</ele>
        <time>2025-01-23T18:41:28Z</time>
      </trkpt>
      <trkpt lat="43.65793" lon="1.36218">
        <ele>138</ele>
        <time>2025-01-23T18:41:29Z</time>
      </trkpt>
      <trkpt lat="43.65793" lon="1.36213">
        <ele>138</ele>
        <time>2025-01-23T18:41:30Z</time>
      </trkpt>
      <trkpt lat="43.65793" lon="1.36213">
        <ele>138</ele>
        <time>2025-01-23T18:41:31Z</time>
      </trkpt>
      <trkpt lat="43.65793" lon="1.36208">
        <ele>138</ele>
        <time>2025-01-23T18:41:32Z</time>
      </trkpt>
      <trkpt lat="43.65793" lon="1.36205">
        <ele>138</ele>
        <time>2025-01-23T18:41:33Z</time>
      </trkpt>
      <trkpt lat="43.65793" lon="1.36205">
        <ele>138</ele>
        <time>2025-01-23T18:41:34Z</time>
      </trkpt>
      <trkpt lat="43.65792" lon="1.36201">
        <ele>138</ele>
        <time>2025-01-23T18:41:35Z</time>
      </trkpt>
      <trkpt lat="43.65792" lon="1.36201">
        <ele>138</ele>
        <time>2025-01-23T18:41:36Z</time>
      </trkpt>
      <trkpt lat="43.65791" lon="1.36196">
        <ele>138</ele>
        <time>2025-01-23T18:41:37Z</time>
      </trkpt>
      <trkpt lat="43.65791" lon="1.36196">
        <ele>138</ele>
        <time>2025-01-23T18:41:38Z</time>
      </trkpt>
      <trkpt lat="43.65791" lon="1.36191">
        <ele>138</ele>
        <time>2025-01-23T18:41:39Z</time>
      </trkpt>
      <trkpt lat="43.65791" lon="1.36188">
        <ele>138</ele>
        <time>2025-01-23T18:41:40Z</time>
      </trkpt>
      <trkpt lat="43.65791" lon="1.36185">
        <ele>138</ele>
        <time>2025-01-23T18:41:41Z</time>
      </trkpt>
      <trkpt lat="43.6579" lon="1.36183">
        <ele>138</ele>
        <time>2025-01-23T18:41:42Z</time>
      </trkpt>
      <trkpt lat="43.6579" lon="1.36183">
        <ele>138</ele>
        <time>2025-01-23T18:41:43Z</time>
      </trkpt>
      <trkpt lat="43.6579" lon="1.36178">
        <ele>138</ele>
        <time>2025-01-23T18:41:44Z</time>
      </trkpt>
      <trkpt lat="43.6579" lon="1.36175">
        <ele>138</ele>
        <time>2025-01-23T18:41:45Z</time>
      </trkpt>
      <trkpt lat="43.6579" lon="1.36173">
        <ele>138</ele>
        <time>2025-01-23T18:41:46Z</time>
      </trkpt>
      <trkpt lat="43.6579" lon="1.3617">
        <ele>137</ele>
        <time>2025-01-23T18:41:47Z</time>
      </trkpt>
      <trkpt lat="43.6579" lon="1.36167">
        <ele>137</ele>
        <time>2025-01-23T18:41:48Z</time>
      </trkpt>
      <trkpt lat="43.65789" lon="1.36164">
        <ele>137</ele>
        <time>2025-01-23T18:41:49Z</time>
      </trkpt>
      <trkpt lat="43.65789" lon="1.36161">
        <ele>137</ele>
        <time>2025-01-23T18:41:50Z</time>
      </trkpt>
      <trkpt lat="43.65789" lon="1.36161">
        <ele>137</ele>
        <time>2025-01-23T18:41:51Z</time>
      </trkpt>
      <trkpt lat="43.65789" lon="1.36157">
        <ele>137</ele>
        <time>2025-01-23T18:41:52Z</time>
      </trkpt>
      <trkpt lat="43.65789" lon="1.36154">
        <ele>137</ele>
        <time>2025-01-23T18:41:53Z</time>
      </trkpt>
      <trkpt lat="43.65789" lon="1.36151">
        <ele>137</ele>
        <time>2025-01-23T18:41:54Z</time>
      </trkpt>
      <trkpt lat="43.65789" lon="1.36151">
        <ele>137</ele>
        <time>2025-01-23T18:41:55Z</time>
      </trkpt>
      <trkpt lat="43.65789" lon="1.36146">
        <ele>137</ele>
        <time>2025-01-23T18:41:56Z</time>
      </trkpt>
      <trkpt lat="43.65789" lon="1.36143">
        <ele>137</ele>
        <time>2025-01-23T18:41:57Z</time>
      </trkpt>
      <trkpt lat="43.65789" lon="1.3614">
        <ele>136</ele>
        <time>2025-01-23T18:41:58Z</time>
      </trkpt>
      <trkpt lat="43.65789" lon="1.36137">
        <ele>136</ele>
        <time>2025-01-23T18:41:59Z</time>
      </trkpt>
      <trkpt lat="43.65789" lon="1.36134">
        <ele>136</ele>
        <time>2025-01-23T18:42:00Z</time>
      </trkpt>
      <trkpt lat="43.65789" lon="1.36132">
        <ele>136</ele>
        <time>2025-01-23T18:42:01Z</time>
      </trkpt>
      <trkpt lat="43.6579" lon="1.36129">
        <ele>136</ele>
        <time>2025-01-23T18:42:02Z</time>
      </trkpt>
      <trkpt lat="43.65791" lon="1.36126">
        <ele>136</ele>
        <time>2025-01-23T18:42:03Z</time>
      </trkpt>
      <trkpt lat="43.65792" lon="1.36124">
        <ele>136</ele>
        <time>2025-01-23T18:42:04Z</time>
      </trkpt>
      <trkpt lat="43.65793" lon="1.36121">
        <ele>136</ele>
        <time>2025-01-23T18:42:05Z</time>
      </trkpt>
      <trkpt lat="43.65794" lon="1.36119">
        <ele>136</ele>
        <time>2025-01-23T18:42:06Z</time>
      </trkpt>
      <trkpt lat="43.65795" lon="1.36116">
        <ele>136</ele>
        <time>2025-01-23T18:42:07Z</time>
      </trkpt>
      <trkpt lat="43.65797" lon="1.36114">
        <ele>136</ele>
        <time>2025-01-23T18:42:08Z</time>
      </trkpt>
      <trkpt lat="43.65797" lon="1.36114">
        <ele>136</ele>
        <time>2025-01-23T18:42:09Z</time>
      </trkpt>
      <trkpt lat="43.65798" lon="1.36113">
        <ele>136</ele>
        <time>2025-01-23T18:42:10Z</time>
      </trkpt>
      <trkpt lat="43.65798" lon="1.36113">
        <ele>136</ele>
        <time>2025-01-23T18:42:11Z</time>
      </trkpt>
      <trkpt lat="43.65797" lon="1.36115">
        <ele>136</ele>
        <time>2025-01-23T18:42:12Z</time>
      </trkpt>
      <trkpt lat="43.65796" lon="1.36118">
        <ele>136</ele>
        <time>2025-01-23T18:42:13Z</time>
      </trkpt>
      <trkpt lat="43.65795" lon="1.36121">
        <ele>136</ele>
        <time>2025-01-23T18:42:14Z</time>
      </trkpt>
      <trkpt lat="43.65793" lon="1.36126">
        <ele>136</ele>
        <time>2025-01-23T18:42:15Z</time>
      </trkpt>
      <trkpt lat="43.65792" lon="1.36131">
        <ele>136</ele>
        <time>2025-01-23T18:42:16Z</time>
      </trkpt>
      <trkpt lat="43.65791" lon="1.36136">
        <ele>136</ele>
        <time>2025-01-23T18:42:17Z</time>
      </trkpt>
      <trkpt lat="43.65791" lon="1.36142">
        <ele>136</ele>
        <time>2025-01-23T18:42:18Z</time>
      </trkpt>
      <trkpt lat="43.65791" lon="1.36147">
        <ele>136</ele>
        <time>2025-01-23T18:42:19Z</time>
      </trkpt>
      <trkpt lat="43.65791" lon="1.36152">
        <ele>136</ele>
        <time>2025-01-23T18:42:20Z</time>
      </trkpt>
      <trkpt lat="43.65791" lon="1.36158">
        <ele>136</ele>
        <time>2025-01-23T18:42:21Z</time>
      </trkpt>
      <trkpt lat="43.65791" lon="1.36163">
        <ele>136</ele>
        <time>2025-01-23T18:42:22Z</time>
      </trkpt>
      <trkpt lat="43.65792" lon="1.36168">
        <ele>137</ele>
        <time>2025-01-23T18:42:23Z</time>
      </trkpt>
      <trkpt lat="43.65791" lon="1.36173">
        <ele>137</ele>
        <time>2025-01-23T18:42:24Z</time>
      </trkpt>
      <trkpt lat="43.65791" lon="1.36178">
        <ele>137</ele>
        <time>2025-01-23T18:42:25Z</time>
      </trkpt>
      <trkpt lat="43.65791" lon="1.36183">
        <ele>137</ele>
        <time>2025-01-23T18:42:26Z</time>
      </trkpt>
      <trkpt lat="43.65791" lon="1.36188">
        <ele>137</ele>
        <time>2025-01-23T18:42:27Z</time>
      </trkpt>
      <trkpt lat="43.6579" lon="1.36192">
        <ele>137</ele>
        <time>2025-01-23T18:42:28Z</time>
      </trkpt>
      <trkpt lat="43.65791" lon="1.36197">
        <ele>138</ele>
        <time>2025-01-23T18:42:29Z</time>
      </trkpt>
      <trkpt lat="43.65791" lon="1.36202">
        <ele>138</ele>
        <time>2025-01-23T18:42:30Z</time>
      </trkpt>
      <trkpt lat="43.65792" lon="1.36207">
        <ele>138</ele>
        <time>2025-01-23T18:42:31Z</time>
      </trkpt>
      <trkpt lat="43.65792" lon="1.36212">
        <ele>138</ele>
        <time>2025-01-23T18:42:32Z</time>
      </trkpt>
      <trkpt lat="43.65792" lon="1.36222">
        <ele>138</ele>
        <time>2025-01-23T18:42:33Z</time>
      </trkpt>
      <trkpt lat="43.65792" lon="1.36222">
        <ele>139</ele>
        <time>2025-01-23T18:42:34Z</time>
      </trkpt>
      <trkpt lat="43.65792" lon="1.36228">
        <ele>139</ele>
        <time>2025-01-23T18:42:35Z</time>
      </trkpt>
      <trkpt lat="43.65792" lon="1.36234">
        <ele>139</ele>
        <time>2025-01-23T18:42:36Z</time>
      </trkpt>
      <trkpt lat="43.65793" lon="1.3624">
        <ele>139</ele>
        <time>2025-01-23T18:42:37Z</time>
      </trkpt>
      <trkpt lat="43.65793" lon="1.36246">
        <ele>139</ele>
        <time>2025-01-23T18:42:38Z</time>
      </trkpt>
      <trkpt lat="43.65793" lon="1.36251">
        <ele>140</ele>
        <time>2025-01-23T18:42:39Z</time>
      </trkpt>
      <trkpt lat="43.65793" lon="1.36257">
        <ele>140</ele>
        <time>2025-01-23T18:42:40Z</time>
      </trkpt>
      <trkpt lat="43.65793" lon="1.36262">
        <ele>140</ele>
        <time>2025-01-23T18:42:41Z</time>
      </trkpt>
      <trkpt lat="43.65793" lon="1.36268">
        <ele>139</ele>
        <time>2025-01-23T18:42:42Z</time>
      </trkpt>
      <trkpt lat="43.65793" lon="1.36273">
        <ele>140</ele>
        <time>2025-01-23T18:42:43Z</time>
      </trkpt>
      <trkpt lat="43.65793" lon="1.36279">
        <ele>140</ele>
        <time>2025-01-23T18:42:44Z</time>
      </trkpt>
      <trkpt lat="43.65793" lon="1.36285">
        <ele>140</ele>
        <time>2025-01-23T18:42:45Z</time>
      </trkpt>
      <trkpt lat="43.65793" lon="1.36291">
        <ele>140</ele>
        <time>2025-01-23T18:42:46Z</time>
      </trkpt>
      <trkpt lat="43.65793" lon="1.36297">
        <ele>140</ele>
        <time>2025-01-23T18:42:47Z</time>
      </trkpt>
      <trkpt lat="43.65794" lon="1.36303">
        <ele>141</ele>
        <time>2025-01-23T18:42:48Z</time>
      </trkpt>
      <trkpt lat="43.65795" lon="1.36308">
        <ele>141</ele>
        <time>2025-01-23T18:42:49Z</time>
      </trkpt>
      <trkpt lat="43.65796" lon="1.36313">
        <ele>141</ele>
        <time>2025-01-23T18:42:50Z</time>
      </trkpt>
      <trkpt lat="43.65797" lon="1.36318">
        <ele>141</ele>
        <time>2025-01-23T18:42:51Z</time>
      </trkpt>
      <trkpt lat="43.65798" lon="1.36323">
        <ele>142</ele>
        <time>2025-01-23T18:42:52Z</time>
      </trkpt>
      <trkpt lat="43.658" lon="1.36328">
        <ele>142</ele>
        <time>2025-01-23T18:42:53Z</time>
      </trkpt>
      <trkpt lat="43.65801" lon="1.36333">
        <ele>142</ele>
        <time>2025-01-23T18:42:54Z</time>
      </trkpt>
      <trkpt lat="43.65802" lon="1.36338">
        <ele>142</ele>
        <time>2025-01-23T18:42:55Z</time>
      </trkpt>
      <trkpt lat="43.65804" lon="1.36343">
        <ele>142</ele>
        <time>2025-01-23T18:42:56Z</time>
      </trkpt>
      <trkpt lat="43.65806" lon="1.36348">
        <ele>143</ele>
        <time>2025-01-23T18:42:57Z</time>
      </trkpt>
      <trkpt lat="43.65807" lon="1.36353">
        <ele>143</ele>
        <time>2025-01-23T18:42:58Z</time>
      </trkpt>
      <trkpt lat="43.65809" lon="1.36358">
        <ele>143</ele>
        <time>2025-01-23T18:42:59Z</time>
      </trkpt>
      <trkpt lat="43.6581" lon="1.36362">
        <ele>143</ele>
        <time>2025-01-23T18:43:00Z</time>
      </trkpt>
      <trkpt lat="43.65812" lon="1.36367">
        <ele>143</ele>
        <time>2025-01-23T18:43:01Z</time>
      </trkpt>
      <trkpt lat="43.65814" lon="1.36371">
        <ele>143</ele>
        <time>2025-01-23T18:43:02Z</time>
      </trkpt>
      <trkpt lat="43.65815" lon="1.36376">
        <ele>143</ele>
        <time>2025-01-23T18:43:03Z</time>
      </trkpt>
      <trkpt lat="43.65817" lon="1.36381">
        <ele>144</ele>
        <time>2025-01-23T18:43:04Z</time>
      </trkpt>
      <trkpt lat="43.65818" lon="1.36386">
        <ele>144</ele>
        <time>2025-01-23T18:43:05Z</time>
      </trkpt>
      <trkpt lat="43.6582" lon="1.36391">
        <ele>144</ele>
        <time>2025-01-23T18:43:06Z</time>
      </trkpt>
      <trkpt lat="43.65822" lon="1.36396">
        <ele>144</ele>
        <time>2025-01-23T18:43:07Z</time>
      </trkpt>
      <trkpt lat="43.65823" lon="1.364">
        <ele>143</ele>
        <time>2025-01-23T18:43:08Z</time>
      </trkpt>
      <trkpt lat="43.65825" lon="1.36406">
        <ele>143</ele>
        <time>2025-01-23T18:43:09Z</time>
      </trkpt>
      <trkpt lat="43.65827" lon="1.3641">
        <ele>143</ele>
        <time>2025-01-23T18:43:10Z</time>
      </trkpt>
      <trkpt lat="43.65828" lon="1.36415">
        <ele>143</ele>
        <time>2025-01-23T18:43:11Z</time>
      </trkpt>
      <trkpt lat="43.65829" lon="1.36419">
        <ele>143</ele>
        <time>2025-01-23T18:43:12Z</time>
      </trkpt>
      <trkpt lat="43.6583" lon="1.36424">
        <ele>143</ele>
        <time>2025-01-23T18:43:13Z</time>
      </trkpt>
      <trkpt lat="43.65831" lon="1.36429">
        <ele>143</ele>
        <time>2025-01-23T18:43:14Z</time>
      </trkpt>
      <trkpt lat="43.65833" lon="1.36433">
        <ele>142</ele>
        <time>2025-01-23T18:43:15Z</time>
      </trkpt>
      <trkpt lat="43.65834" lon="1.36438">
        <ele>141</ele>
        <time>2025-01-23T18:43:16Z</time>
      </trkpt>
      <trkpt lat="43.65834" lon="1.36443">
        <ele>141</ele>
        <time>2025-01-23T18:43:17Z</time>
      </trkpt>
      <trkpt lat="43.65831" lon="1.36448">
        <ele>141</ele>
        <time>2025-01-23T18:43:18Z</time>
      </trkpt>
      <trkpt lat="43.65828" lon="1.36451">
        <ele>140</ele>
        <time>2025-01-23T18:43:19Z</time>
      </trkpt>
      <trkpt lat="43.65825" lon="1.36453">
        <ele>139</ele>
        <time>2025-01-23T18:43:20Z</time>
      </trkpt>
      <trkpt lat="43.65821" lon="1.36455">
        <ele>139</ele>
        <time>2025-01-23T18:43:21Z</time>
      </trkpt>
      <trkpt lat="43.65817" lon="1.36456">
        <ele>139</ele>
        <time>2025-01-23T18:43:22Z</time>
      </trkpt>
      <trkpt lat="43.65813" lon="1.36457">
        <ele>139</ele>
        <time>2025-01-23T18:43:23Z</time>
      </trkpt>
      <trkpt lat="43.65809" lon="1.36457">
        <ele>139</ele>
        <time>2025-01-23T18:43:24Z</time>
      </trkpt>
      <trkpt lat="43.65805" lon="1.36457">
        <ele>140</ele>
        <time>2025-01-23T18:43:25Z</time>
      </trkpt>
      <trkpt lat="43.65802" lon="1.36455">
        <ele>140</ele>
        <time>2025-01-23T18:43:26Z</time>
      </trkpt>
      <trkpt lat="43.65799" lon="1.3645">
        <ele>140</ele>
        <time>2025-01-23T18:43:27Z</time>
      </trkpt>
      <trkpt lat="43.65799" lon="1.36444">
        <ele>140</ele>
        <time>2025-01-23T18:43:28Z</time>
      </trkpt>
      <trkpt lat="43.65799" lon="1.36438">
        <ele>140</ele>
        <time>2025-01-23T18:43:29Z</time>
      </trkpt>
      <trkpt lat="43.65805" lon="1.3643">
        <ele>141</ele>
        <time>2025-01-23T18:43:30Z</time>
      </trkpt>
      <trkpt lat="43.65805" lon="1.3643">
        <ele>141</ele>
        <time>2025-01-23T18:43:31Z</time>
      </trkpt>
      <trkpt lat="43.65808" lon="1.36428">
        <ele>141</ele>
        <time>2025-01-23T18:43:32Z</time>
      </trkpt>
      <trkpt lat="43.65812" lon="1.36425">
        <ele>141</ele>
        <time>2025-01-23T18:43:33Z</time>
      </trkpt>
      <trkpt lat="43.65816" lon="1.36423">
        <ele>141</ele>
        <time>2025-01-23T18:43:34Z</time>
      </trkpt>
      <trkpt lat="43.65819" lon="1.36421">
        <ele>141</ele>
        <time>2025-01-23T18:43:35Z</time>
      </trkpt>
      <trkpt lat="43.65822" lon="1.36418">
        <ele>141</ele>
        <time>2025-01-23T18:43:36Z</time>
      </trkpt>
      <trkpt lat="43.65825" lon="1.36414">
        <ele>141</ele>
        <time>2025-01-23T18:43:37Z</time>
      </trkpt>
      <trkpt lat="43.65826" lon="1.3641">
        <ele>141</ele>
        <time>2025-01-23T18:43:38Z</time>
      </trkpt>
      <trkpt lat="43.65826" lon="1.36407">
        <ele>142</ele>
        <time>2025-01-23T18:43:39Z</time>
      </trkpt>
      <trkpt lat="43.65825" lon="1.36405">
        <ele>142</ele>
        <time>2025-01-23T18:43:40Z</time>
      </trkpt>
      <trkpt lat="43.65824" lon="1.36402">
        <ele>142</ele>
        <time>2025-01-23T18:43:41Z</time>
      </trkpt>
      <trkpt lat="43.65824" lon="1.36402">
        <ele>142</ele>
        <time>2025-01-23T18:43:42Z</time>
      </trkpt>
      <trkpt lat="43.65823" lon="1.36398">
        <ele>142</ele>
        <time>2025-01-23T18:43:43Z</time>
      </trkpt>
      <trkpt lat="43.65823" lon="1.36398">
        <ele>142</ele>
        <time>2025-01-23T18:43:44Z</time>
      </trkpt>
      <trkpt lat="43.65822" lon="1.36395">
        <ele>142</ele>
        <time>2025-01-23T18:43:45Z</time>
      </trkpt>
      <trkpt lat="43.65822" lon="1.36395">
        <ele>142</ele>
        <time>2025-01-23T18:43:46Z</time>
      </trkpt>
      <trkpt lat="43.6582" lon="1.36391">
        <ele>142</ele>
        <time>2025-01-23T18:43:47Z</time>
      </trkpt>
      <trkpt lat="43.6582" lon="1.36391">
        <ele>142</ele>
        <time>2025-01-23T18:43:48Z</time>
      </trkpt>
      <trkpt lat="43.6582" lon="1.36388">
        <ele>142</ele>
        <time>2025-01-23T18:43:49Z</time>
      </trkpt>
      <trkpt lat="43.6582" lon="1.36388">
        <ele>142</ele>
        <time>2025-01-23T18:43:50Z</time>
      </trkpt>
      <trkpt lat="43.65818" lon="1.36385">
        <ele>142</ele>
        <time>2025-01-23T18:43:51Z</time>
      </trkpt>
      <trkpt lat="43.65818" lon="1.36385">
        <ele>142</ele>
        <time>2025-01-23T18:43:52Z</time>
      </trkpt>
      <trkpt lat="43.65818" lon="1.36382">
        <ele>142</ele>
        <time>2025-01-23T18:43:53Z</time>
      </trkpt>
      <trkpt lat="43.65818" lon="1.36382">
        <ele>142</ele>
        <time>2025-01-23T18:43:54Z</time>
      </trkpt>
      <trkpt lat="43.65817" lon="1.36379">
        <ele>142</ele>
        <time>2025-01-23T18:43:55Z</time>
      </trkpt>
      <trkpt lat="43.65817" lon="1.36379">
        <ele>142</ele>
        <time>2025-01-23T18:43:56Z</time>
      </trkpt>
      <trkpt lat="43.65816" lon="1.36375">
        <ele>142</ele>
        <time>2025-01-23T18:43:57Z</time>
      </trkpt>
      <trkpt lat="43.65816" lon="1.36375">
        <ele>142</ele>
        <time>2025-01-23T18:43:58Z</time>
      </trkpt>
      <trkpt lat="43.65815" lon="1.36372">
        <ele>142</ele>
        <time>2025-01-23T18:43:59Z</time>
      </trkpt>
      <trkpt lat="43.65815" lon="1.36372">
        <ele>142</ele>
        <time>2025-01-23T18:44:00Z</time>
      </trkpt>
      <trkpt lat="43.65814" lon="1.36369">
        <ele>142</ele>
        <time>2025-01-23T18:44:01Z</time>
      </trkpt>
      <trkpt lat="43.65814" lon="1.36369">
        <ele>142</ele>
        <time>2025-01-23T18:44:02Z</time>
      </trkpt>
      <trkpt lat="43.65813" lon="1.36366">
        <ele>142</ele>
        <time>2025-01-23T18:44:03Z</time>
      </trkpt>
      <trkpt lat="43.65813" lon="1.36366">
        <ele>142</ele>
        <time>2025-01-23T18:44:04Z</time>
      </trkpt>
      <trkpt lat="43.65812" lon="1.36362">
        <ele>142</ele>
        <time>2025-01-23T18:44:05Z</time>
      </trkpt>
      <trkpt lat="43.65812" lon="1.36362">
        <ele>142</ele>
        <time>2025-01-23T18:44:06Z</time>
      </trkpt>
      <trkpt lat="43.65811" lon="1.36359">
        <ele>143</ele>
        <time>2025-01-23T18:44:07Z</time>
      </trkpt>
      <trkpt lat="43.6581" lon="1.36355">
        <ele>143</ele>
        <time>2025-01-23T18:44:08Z</time>
      </trkpt>
      <trkpt lat="43.6581" lon="1.36355">
        <ele>143</ele>
        <time>2025-01-23T18:44:09Z</time>
      </trkpt>
      <trkpt lat="43.6581" lon="1.36355">
        <ele>143</ele>
        <time>2025-01-23T18:44:10Z</time>
      </trkpt>
      <trkpt lat="43.65809" lon="1.36352">
        <ele>143</ele>
        <time>2025-01-23T18:44:11Z</time>
      </trkpt>
      <trkpt lat="43.65809" lon="1.36352">
        <ele>143</ele>
        <time>2025-01-23T18:44:12Z</time>
      </trkpt>
      <trkpt lat="43.65807" lon="1.36348">
        <ele>143</ele>
        <time>2025-01-23T18:44:13Z</time>
      </trkpt>
      <trkpt lat="43.65807" lon="1.36348">
        <ele>142</ele>
        <time>2025-01-23T18:44:14Z</time>
      </trkpt>
      <trkpt lat="43.65806" lon="1.36345">
        <ele>142</ele>
        <time>2025-01-23T18:44:15Z</time>
      </trkpt>
      <trkpt lat="43.65806" lon="1.36345">
        <ele>142</ele>
        <time>2025-01-23T18:44:16Z</time>
      </trkpt>
      <trkpt lat="43.65806" lon="1.36342">
        <ele>142</ele>
        <time>2025-01-23T18:44:17Z</time>
      </trkpt>
      <trkpt lat="43.65806" lon="1.36342">
        <ele>142</ele>
        <time>2025-01-23T18:44:18Z</time>
      </trkpt>
      <trkpt lat="43.65804" lon="1.36338">
        <ele>142</ele>
        <time>2025-01-23T18:44:19Z</time>
      </trkpt>
      <trkpt lat="43.65804" lon="1.36338">
        <ele>142</ele>
        <time>2025-01-23T18:44:20Z</time>
      </trkpt>
      <trkpt lat="43.65803" lon="1.36335">
        <ele>142</ele>
        <time>2025-01-23T18:44:21Z</time>
      </trkpt>
      <trkpt lat="43.65803" lon="1.36335">
        <ele>142</ele>
        <time>2025-01-23T18:44:22Z</time>
      </trkpt>
      <trkpt lat="43.65803" lon="1.36332">
        <ele>142</ele>
        <time>2025-01-23T18:44:23Z</time>
      </trkpt>
      <trkpt lat="43.65803" lon="1.36332">
        <ele>142</ele>
        <time>2025-01-23T18:44:24Z</time>
      </trkpt>
      <trkpt lat="43.65802" lon="1.36328">
        <ele>142</ele>
        <time>2025-01-23T18:44:25Z</time>
      </trkpt>
      <trkpt lat="43.65802" lon="1.36328">
        <ele>142</ele>
        <time>2025-01-23T18:44:26Z</time>
      </trkpt>
      <trkpt lat="43.658" lon="1.36323">
        <ele>142</ele>
        <time>2025-01-23T18:44:27Z</time>
      </trkpt>
      <trkpt lat="43.65799" lon="1.36321">
        <ele>142</ele>
        <time>2025-01-23T18:44:28Z</time>
      </trkpt>
      <trkpt lat="43.65799" lon="1.36318">
        <ele>142</ele>
        <time>2025-01-23T18:44:29Z</time>
      </trkpt>
      <trkpt lat="43.65798" lon="1.36315">
        <ele>141</ele>
        <time>2025-01-23T18:44:30Z</time>
      </trkpt>
      <trkpt lat="43.65797" lon="1.36313">
        <ele>141</ele>
        <time>2025-01-23T18:44:31Z</time>
      </trkpt>
      <trkpt lat="43.65796" lon="1.3631">
        <ele>141</ele>
        <time>2025-01-23T18:44:32Z</time>
      </trkpt>
      <trkpt lat="43.65795" lon="1.36308">
        <ele>141</ele>
        <time>2025-01-23T18:44:33Z</time>
      </trkpt>
      <trkpt lat="43.65795" lon="1.36305">
        <ele>141</ele>
        <time>2025-01-23T18:44:34Z</time>
      </trkpt>
      <trkpt lat="43.65794" lon="1.36302">
        <ele>141</ele>
        <time>2025-01-23T18:44:35Z</time>
      </trkpt>
      <trkpt lat="43.65793" lon="1.363">
        <ele>141</ele>
        <time>2025-01-23T18:44:36Z</time>
      </trkpt>
      <trkpt lat="43.65793" lon="1.36297">
        <ele>141</ele>
        <time>2025-01-23T18:44:37Z</time>
      </trkpt>
      <trkpt lat="43.65793" lon="1.36294">
        <ele>141</ele>
        <time>2025-01-23T18:44:38Z</time>
      </trkpt>
      <trkpt lat="43.65793" lon="1.36292">
        <ele>141</ele>
        <time>2025-01-23T18:44:39Z</time>
      </trkpt>
      <trkpt lat="43.65793" lon="1.36289">
        <ele>141</ele>
        <time>2025-01-23T18:44:40Z</time>
      </trkpt>
      <trkpt lat="43.65793" lon="1.36286">
        <ele>141</ele>
        <time>2025-01-23T18:44:41Z</time>
      </trkpt>
      <trkpt lat="43.65792" lon="1.36283">
        <ele>141</ele>
        <time>2025-01-23T18:44:42Z</time>
      </trkpt>
      <trkpt lat="43.65792" lon="1.3628">
        <ele>141</ele>
        <time>2025-01-23T18:44:43Z</time>
      </trkpt>
      <trkpt lat="43.65792" lon="1.36278">
        <ele>141</ele>
        <time>2025-01-23T18:44:44Z</time>
      </trkpt>
      <trkpt lat="43.65792" lon="1.36275">
        <ele>141</ele>
        <time>2025-01-23T18:44:45Z</time>
      </trkpt>
      <trkpt lat="43.65792" lon="1.36275">
        <ele>141</ele>
        <time>2025-01-23T18:44:46Z</time>
      </trkpt>
      <trkpt lat="43.65792" lon="1.3627">
        <ele>141</ele>
        <time>2025-01-23T18:44:47Z</time>
      </trkpt>
      <trkpt lat="43.65792" lon="1.36267">
        <ele>141</ele>
        <time>2025-01-23T18:44:48Z</time>
      </trkpt>
      <trkpt lat="43.65792" lon="1.36264">
        <ele>141</ele>
        <time>2025-01-23T18:44:49Z</time>
      </trkpt>
      <trkpt lat="43.65792" lon="1.36261">
        <ele>141</ele>
        <time>2025-01-23T18:44:50Z</time>
      </trkpt>
      <trkpt lat="43.65792" lon="1.36258">
        <ele>141</ele>
        <time>2025-01-23T18:44:51Z</time>
      </trkpt>
      <trkpt lat="43.65792" lon="1.36255">
        <ele>141</ele>
        <time>2025-01-23T18:44:52Z</time>
      </trkpt>
      <trkpt lat="43.65792" lon="1.36255">
        <ele>141</ele>
        <time>2025-01-23T18:44:53Z</time>
      </trkpt>
      <trkpt lat="43.65792" lon="1.36249">
        <ele>141</ele>
        <time>2025-01-23T18:44:54Z</time>
      </trkpt>
      <trkpt lat="43.65792" lon="1.36247">
        <ele>140</ele>
        <time>2025-01-23T18:44:55Z</time>
      </trkpt>
      <trkpt lat="43.65791" lon="1.36243">
        <ele>140</ele>
        <time>2025-01-23T18:44:56Z</time>
      </trkpt>
      <trkpt lat="43.65791" lon="1.3624">
        <ele>140</ele>
        <time>2025-01-23T18:44:57Z</time>
      </trkpt>
      <trkpt lat="43.65791" lon="1.36238">
        <ele>140</ele>
        <time>2025-01-23T18:44:58Z</time>
      </trkpt>
      <trkpt lat="43.65791" lon="1.36235">
        <ele>140</ele>
        <time>2025-01-23T18:44:59Z</time>
      </trkpt>
      <trkpt lat="43.65791" lon="1.36232">
        <ele>140</ele>
        <time>2025-01-23T18:45:00Z</time>
      </trkpt>
      <trkpt lat="43.6579" lon="1.36229">
        <ele>139</ele>
        <time>2025-01-23T18:45:01Z</time>
      </trkpt>
      <trkpt lat="43.6579" lon="1.36226">
        <ele>139</ele>
        <time>2025-01-23T18:45:02Z</time>
      </trkpt>
      <trkpt lat="43.65791" lon="1.36223">
        <ele>139</ele>
        <time>2025-01-23T18:45:03Z</time>
      </trkpt>
      <trkpt lat="43.65791" lon="1.3622">
        <ele>139</ele>
        <time>2025-01-23T18:45:04Z</time>
      </trkpt>
      <trkpt lat="43.65791" lon="1.36217">
        <ele>139</ele>
        <time>2025-01-23T18:45:05Z</time>
      </trkpt>
      <trkpt lat="43.65791" lon="1.36214">
        <ele>139</ele>
        <time>2025-01-23T18:45:06Z</time>
      </trkpt>
      <trkpt lat="43.65791" lon="1.36211">
        <ele>139</ele>
        <time>2025-01-23T18:45:07Z</time>
      </trkpt>
      <trkpt lat="43.65791" lon="1.36208">
        <ele>139</ele>
        <time>2025-01-23T18:45:08Z</time>
      </trkpt>
      <trkpt lat="43.65791" lon="1.36206">
        <ele>139</ele>
        <time>2025-01-23T18:45:09Z</time>
      </trkpt>
      <trkpt lat="43.65791" lon="1.36203">
        <ele>139</ele>
        <time>2025-01-23T18:45:10Z</time>
      </trkpt>
      <trkpt lat="43.65791" lon="1.362">
        <ele>139</ele>
        <time>2025-01-23T18:45:11Z</time>
      </trkpt>
      <trkpt lat="43.6579" lon="1.36198">
        <ele>139</ele>
        <time>2025-01-23T18:45:12Z</time>
      </trkpt>
      <trkpt lat="43.6579" lon="1.36198">
        <ele>139</ele>
        <time>2025-01-23T18:45:13Z</time>
      </trkpt>
      <trkpt lat="43.6579" lon="1.36193">
        <ele>138</ele>
        <time>2025-01-23T18:45:14Z</time>
      </trkpt>
      <trkpt lat="43.6579" lon="1.36193">
        <ele>138</ele>
        <time>2025-01-23T18:45:15Z</time>
      </trkpt>
      <trkpt lat="43.6579" lon="1.36188">
        <ele>138</ele>
        <time>2025-01-23T18:45:16Z</time>
      </trkpt>
      <trkpt lat="43.6579" lon="1.36188">
        <ele>138</ele>
        <time>2025-01-23T18:45:17Z</time>
      </trkpt>
      <trkpt lat="43.6579" lon="1.36183">
        <ele>138</ele>
        <time>2025-01-23T18:45:18Z</time>
      </trkpt>
      <trkpt lat="43.6579" lon="1.3618">
        <ele>138</ele>
        <time>2025-01-23T18:45:19Z</time>
      </trkpt>
      <trkpt lat="43.6579" lon="1.36177">
        <ele>138</ele>
        <time>2025-01-23T18:45:20Z</time>
      </trkpt>
      <trkpt lat="43.6579" lon="1.36174">
        <ele>137</ele>
        <time>2025-01-23T18:45:21Z</time>
      </trkpt>
      <trkpt lat="43.65789" lon="1.36171">
        <ele>137</ele>
        <time>2025-01-23T18:45:22Z</time>
      </trkpt>
      <trkpt lat="43.65789" lon="1.36168">
        <ele>137</ele>
        <time>2025-01-23T18:45:23Z</time>
      </trkpt>
      <trkpt lat="43.65789" lon="1.36165">
        <ele>137</ele>
        <time>2025-01-23T18:45:24Z</time>
      </trkpt>
      <trkpt lat="43.65789" lon="1.36162">
        <ele>137</ele>
        <time>2025-01-23T18:45:25Z</time>
      </trkpt>
      <trkpt lat="43.65788" lon="1.36158">
        <ele>137</ele>
        <time>2025-01-23T18:45:26Z</time>
      </trkpt>
      <trkpt lat="43.65788" lon="1.36158">
        <ele>137</ele>
        <time>2025-01-23T18:45:27Z</time>
      </trkpt>
      <trkpt lat="43.65789" lon="1.36153">
        <ele>137</ele>
        <time>2025-01-23T18:45:28Z</time>
      </trkpt>
      <trkpt lat="43.65789" lon="1.36151">
        <ele>136</ele>
        <time>2025-01-23T18:45:29Z</time>
      </trkpt>
      <trkpt lat="43.65789" lon="1.36148">
        <ele>136</ele>
        <time>2025-01-23T18:45:30Z</time>
      </trkpt>
      <trkpt lat="43.65789" lon="1.36145">
        <ele>136</ele>
        <time>2025-01-23T18:45:31Z</time>
      </trkpt>
      <trkpt lat="43.65789" lon="1.36142">
        <ele>136</ele>
        <time>2025-01-23T18:45:32Z</time>
      </trkpt>
      <trkpt lat="43.65789" lon="1.36138">
        <ele>136</ele>
        <time>2025-01-23T18:45:33Z</time>
      </trkpt>
      <trkpt lat="43.65789" lon="1.36136">
        <ele>136</ele>
        <time>2025-01-23T18:45:34Z</time>
      </trkpt>
      <trkpt lat="43.65789" lon="1.36133">
        <ele>136</ele>
        <time>2025-01-23T18:45:35Z</time>
      </trkpt>
      <trkpt lat="43.6579" lon="1.3613">
        <ele>136</ele>
        <time>2025-01-23T18:45:36Z</time>
      </trkpt>
      <trkpt lat="43.65791" lon="1.36127">
        <ele>136</ele>
        <time>2025-01-23T18:45:37Z</time>
      </trkpt>
      <trkpt lat="43.65792" lon="1.36125">
        <ele>136</ele>
        <time>2025-01-23T18:45:38Z</time>
      </trkpt>
      <trkpt lat="43.65793" lon="1.36122">
        <ele>136</ele>
        <time>2025-01-23T18:45:39Z</time>
      </trkpt>
      <trkpt lat="43.65795" lon="1.3612">
        <ele>136</ele>
        <time>2025-01-23T18:45:40Z</time>
      </trkpt>
      <trkpt lat="43.65796" lon="1.36117">
        <ele>136</ele>
        <time>2025-01-23T18:45:41Z</time>
      </trkpt>
      <trkpt lat="43.65798" lon="1.36115">
        <ele>136</ele>
        <time>2025-01-23T18:45:42Z</time>
      </trkpt>
      <trkpt lat="43.65798" lon="1.36115">
        <ele>136</ele>
        <time>2025-01-23T18:45:43Z</time>
      </trkpt>
      <trkpt lat="43.65798" lon="1.36115">
        <ele>136</ele>
        <time>2025-01-23T18:45:44Z</time>
      </trkpt>
      <trkpt lat="43.65798" lon="1.36115">
        <ele>136</ele>
        <time>2025-01-23T18:45:45Z</time>
      </trkpt>
      <trkpt lat="43.65796" lon="1.36117">
        <ele>136</ele>
        <time>2025-01-23T18:45:46Z</time>
      </trkpt>
      <trkpt lat="43.65795" lon="1.3612">
        <ele>136</ele>
        <time>2025-01-23T18:45:47Z</time>
      </trkpt>
      <trkpt lat="43.65793" lon="1.36125">
        <ele>136</ele>
        <time>2025-01-23T18:45:48Z</time>
      </trkpt>
      <trkpt lat="43.65791" lon="1.3613">
        <ele>136</ele>
        <time>2025-01-23T18:45:49Z</time>
      </trkpt>
      <trkpt lat="43.6579" lon="1.36136">
        <ele>136</ele>
        <time>2025-01-23T18:45:50Z</time>
      </trkpt>
      <trkpt lat="43.6579" lon="1.36142">
        <ele>136</ele>
        <time>2025-01-23T18:45:51Z</time>
      </trkpt>
      <trkpt lat="43.65789" lon="1.36148">
        <ele>136</ele>
        <time>2025-01-23T18:45:52Z</time>
      </trkpt>
      <trkpt lat="43.65789" lon="1.36154">
        <ele>136</ele>
        <time>2025-01-23T18:45:53Z</time>
      </trkpt>
      <trkpt lat="43.65789" lon="1.36159">
        <ele>137</ele>
        <time>2025-01-23T18:45:54Z</time>
      </trkpt>
      <trkpt lat="43.65789" lon="1.36164">
        <ele>137</ele>
        <time>2025-01-23T18:45:55Z</time>
      </trkpt>
      <trkpt lat="43.65789" lon="1.36169">
        <ele>137</ele>
        <time>2025-01-23T18:45:56Z</time>
      </trkpt>
      <trkpt lat="43.65789" lon="1.36174">
        <ele>137</ele>
        <time>2025-01-23T18:45:57Z</time>
      </trkpt>
      <trkpt lat="43.6579" lon="1.36179">
        <ele>137</ele>
        <time>2025-01-23T18:45:58Z</time>
      </trkpt>
      <trkpt lat="43.6579" lon="1.3619">
        <ele>137</ele>
        <time>2025-01-23T18:45:59Z</time>
      </trkpt>
      <trkpt lat="43.6579" lon="1.3619">
        <ele>137</ele>
        <time>2025-01-23T18:46:00Z</time>
      </trkpt>
      <trkpt lat="43.6579" lon="1.36195">
        <ele>137</ele>
        <time>2025-01-23T18:46:01Z</time>
      </trkpt>
      <trkpt lat="43.65791" lon="1.36206">
        <ele>137</ele>
        <time>2025-01-23T18:46:02Z</time>
      </trkpt>
      <trkpt lat="43.65791" lon="1.36206">
        <ele>138</ele>
        <time>2025-01-23T18:46:03Z</time>
      </trkpt>
      <trkpt lat="43.65791" lon="1.36211">
        <ele>138</ele>
        <time>2025-01-23T18:46:04Z</time>
      </trkpt>
      <trkpt lat="43.65791" lon="1.36216">
        <ele>138</ele>
        <time>2025-01-23T18:46:05Z</time>
      </trkpt>
      <trkpt lat="43.65792" lon="1.36221">
        <ele>138</ele>
        <time>2025-01-23T18:46:06Z</time>
      </trkpt>
      <trkpt lat="43.65792" lon="1.36226">
        <ele>138</ele>
        <time>2025-01-23T18:46:07Z</time>
      </trkpt>
      <trkpt lat="43.65792" lon="1.36232">
        <ele>138</ele>
        <time>2025-01-23T18:46:08Z</time>
      </trkpt>
      <trkpt lat="43.65793" lon="1.36238">
        <ele>139</ele>
        <time>2025-01-23T18:46:09Z</time>
      </trkpt>
      <trkpt lat="43.65793" lon="1.36243">
        <ele>140</ele>
        <time>2025-01-23T18:46:10Z</time>
      </trkpt>
      <trkpt lat="43.65793" lon="1.36249">
        <ele>140</ele>
        <time>2025-01-23T18:46:11Z</time>
      </trkpt>
      <trkpt lat="43.65793" lon="1.36254">
        <ele>139</ele>
        <time>2025-01-23T18:46:12Z</time>
      </trkpt>
      <trkpt lat="43.65793" lon="1.3626">
        <ele>139</ele>
        <time>2025-01-23T18:46:13Z</time>
      </trkpt>
      <trkpt lat="43.65793" lon="1.36265">
        <ele>139</ele>
        <time>2025-01-23T18:46:14Z</time>
      </trkpt>
      <trkpt lat="43.65793" lon="1.3627">
        <ele>140</ele>
        <time>2025-01-23T18:46:15Z</time>
      </trkpt>
      <trkpt lat="43.65793" lon="1.36276">
        <ele>140</ele>
        <time>2025-01-23T18:46:16Z</time>
      </trkpt>
      <trkpt lat="43.65793" lon="1.36281">
        <ele>140</ele>
        <time>2025-01-23T18:46:17Z</time>
      </trkpt>
      <trkpt lat="43.65792" lon="1.36287">
        <ele>141</ele>
        <time>2025-01-23T18:46:18Z</time>
      </trkpt>
      <trkpt lat="43.65792" lon="1.36293">
        <ele>141</ele>
        <time>2025-01-23T18:46:19Z</time>
      </trkpt>
      <trkpt lat="43.65792" lon="1.36298">
        <ele>142</ele>
        <time>2025-01-23T18:46:20Z</time>
      </trkpt>
      <trkpt lat="43.65793" lon="1.36304">
        <ele>142</ele>
        <time>2025-01-23T18:46:21Z</time>
      </trkpt>
      <trkpt lat="43.65794" lon="1.36309">
        <ele>142</ele>
        <time>2025-01-23T18:46:22Z</time>
      </trkpt>
      <trkpt lat="43.65795" lon="1.36314">
        <ele>142</ele>
        <time>2025-01-23T18:46:23Z</time>
      </trkpt>
      <trkpt lat="43.65798" lon="1.36324">
        <ele>142</ele>
        <time>2025-01-23T18:46:24Z</time>
      </trkpt>
      <trkpt lat="43.65798" lon="1.36324">
        <ele>142</ele>
        <time>2025-01-23T18:46:25Z</time>
      </trkpt>
      <trkpt lat="43.658" lon="1.3633">
        <ele>142</ele>
        <time>2025-01-23T18:46:26Z</time>
      </trkpt>
      <trkpt lat="43.65801" lon="1.36336">
        <ele>142</ele>
        <time>2025-01-23T18:46:27Z</time>
      </trkpt>
      <trkpt lat="43.65803" lon="1.36341">
        <ele>142</ele>
        <time>2025-01-23T18:46:28Z</time>
      </trkpt>
      <trkpt lat="43.65805" lon="1.36347">
        <ele>142</ele>
        <time>2025-01-23T18:46:29Z</time>
      </trkpt>
      <trkpt lat="43.65807" lon="1.36352">
        <ele>142</ele>
        <time>2025-01-23T18:46:30Z</time>
      </trkpt>
      <trkpt lat="43.65809" lon="1.36357">
        <ele>142</ele>
        <time>2025-01-23T18:46:31Z</time>
      </trkpt>
      <trkpt lat="43.6581" lon="1.36362">
        <ele>142</ele>
        <time>2025-01-23T18:46:32Z</time>
      </trkpt>
      <trkpt lat="43.65811" lon="1.36365">
        <ele>143</ele>
        <time>2025-01-23T18:46:33Z</time>
      </trkpt>
      <trkpt lat="43.65812" lon="1.36367">
        <ele>143</ele>
        <time>2025-01-23T18:46:34Z</time>
      </trkpt>
      <trkpt lat="43.65813" lon="1.3637">
        <ele>143</ele>
        <time>2025-01-23T18:46:35Z</time>
      </trkpt>
      <trkpt lat="43.65817" lon="1.3638">
        <ele>143</ele>
        <time>2025-01-23T18:46:36Z</time>
      </trkpt>
      <trkpt lat="43.65817" lon="1.36383">
        <ele>143</ele>
        <time>2025-01-23T18:46:37Z</time>
      </trkpt>
      <trkpt lat="43.65818" lon="1.36386">
        <ele>143</ele>
        <time>2025-01-23T18:46:38Z</time>
      </trkpt>
      <trkpt lat="43.65821" lon="1.36396">
        <ele>143</ele>
        <time>2025-01-23T18:46:39Z</time>
      </trkpt>
      <trkpt lat="43.65824" lon="1.36405">
        <ele>143</ele>
        <time>2025-01-23T18:46:40Z</time>
      </trkpt>
      <trkpt lat="43.65824" lon="1.36405">
        <ele>143</ele>
        <time>2025-01-23T18:46:41Z</time>
      </trkpt>
      <trkpt lat="43.65825" lon="1.3641">
        <ele>143</ele>
        <time>2025-01-23T18:46:42Z</time>
      </trkpt>
      <trkpt lat="43.65826" lon="1.36414">
        <ele>143</ele>
        <time>2025-01-23T18:46:43Z</time>
      </trkpt>
      <trkpt lat="43.65827" lon="1.36419">
        <ele>142</ele>
        <time>2025-01-23T18:46:44Z</time>
      </trkpt>
      <trkpt lat="43.65829" lon="1.36423">
        <ele>142</ele>
        <time>2025-01-23T18:46:45Z</time>
      </trkpt>
      <trkpt lat="43.6583" lon="1.36428">
        <ele>142</ele>
        <time>2025-01-23T18:46:46Z</time>
      </trkpt>
      <trkpt lat="43.65832" lon="1.36433">
        <ele>142</ele>
        <time>2025-01-23T18:46:47Z</time>
      </trkpt>
      <trkpt lat="43.65833" lon="1.36438">
        <ele>142</ele>
        <time>2025-01-23T18:46:48Z</time>
      </trkpt>
      <trkpt lat="43.65833" lon="1.36442">
        <ele>141</ele>
        <time>2025-01-23T18:46:49Z</time>
      </trkpt>
      <trkpt lat="43.65831" lon="1.36448">
        <ele>141</ele>
        <time>2025-01-23T18:46:50Z</time>
      </trkpt>
      <trkpt lat="43.65828" lon="1.36451">
        <ele>140</ele>
        <time>2025-01-23T18:46:51Z</time>
      </trkpt>
      <trkpt lat="43.65826" lon="1.36452">
        <ele>139</ele>
        <time>2025-01-23T18:46:52Z</time>
      </trkpt>
      <trkpt lat="43.65822" lon="1.36453">
        <ele>139</ele>
        <time>2025-01-23T18:46:53Z</time>
      </trkpt>
      <trkpt lat="43.65818" lon="1.36454">
        <ele>140</ele>
        <time>2025-01-23T18:46:54Z</time>
      </trkpt>
      <trkpt lat="43.65814" lon="1.36456">
        <ele>140</ele>
        <time>2025-01-23T18:46:55Z</time>
      </trkpt>
      <trkpt lat="43.6581" lon="1.36456">
        <ele>140</ele>
        <time>2025-01-23T18:46:56Z</time>
      </trkpt>
      <trkpt lat="43.65806" lon="1.36456">
        <ele>140</ele>
        <time>2025-01-23T18:46:57Z</time>
      </trkpt>
      <trkpt lat="43.65802" lon="1.36455">
        <ele>140</ele>
        <time>2025-01-23T18:46:58Z</time>
      </trkpt>
      <trkpt lat="43.65799" lon="1.36451">
        <ele>141</ele>
        <time>2025-01-23T18:46:59Z</time>
      </trkpt>
      <trkpt lat="43.65798" lon="1.36444">
        <ele>141</ele>
        <time>2025-01-23T18:47:00Z</time>
      </trkpt>
      <trkpt lat="43.65799" lon="1.36438">
        <ele>141</ele>
        <time>2025-01-23T18:47:01Z</time>
      </trkpt>
      <trkpt lat="43.65802" lon="1.36434">
        <ele>141</ele>
        <time>2025-01-23T18:47:02Z</time>
      </trkpt>
      <trkpt lat="43.65806" lon="1.3643">
        <ele>141</ele>
        <time>2025-01-23T18:47:03Z</time>
      </trkpt>
      <trkpt lat="43.65809" lon="1.36427">
        <ele>141</ele>
        <time>2025-01-23T18:47:04Z</time>
      </trkpt>
      <trkpt lat="43.65814" lon="1.36424">
        <ele>141</ele>
        <time>2025-01-23T18:47:05Z</time>
      </trkpt>
      <trkpt lat="43.65817" lon="1.36422">
        <ele>142</ele>
        <time>2025-01-23T18:47:06Z</time>
      </trkpt>
      <trkpt lat="43.65821" lon="1.36419">
        <ele>142</ele>
        <time>2025-01-23T18:47:07Z</time>
      </trkpt>
      <trkpt lat="43.65824" lon="1.36415">
        <ele>142</ele>
        <time>2025-01-23T18:47:08Z</time>
      </trkpt>
      <trkpt lat="43.65826" lon="1.36411">
        <ele>142</ele>
        <time>2025-01-23T18:47:09Z</time>
      </trkpt>
      <trkpt lat="43.65826" lon="1.36407">
        <ele>142</ele>
        <time>2025-01-23T18:47:10Z</time>
      </trkpt>
      <trkpt lat="43.65824" lon="1.36402">
        <ele>143</ele>
        <time>2025-01-23T18:47:11Z</time>
      </trkpt>
      <trkpt lat="43.65822" lon="1.36398">
        <ele>143</ele>
        <time>2025-01-23T18:47:12Z</time>
      </trkpt>
      <trkpt lat="43.65821" lon="1.36395">
        <ele>143</ele>
        <time>2025-01-23T18:47:13Z</time>
      </trkpt>
      <trkpt lat="43.65821" lon="1.36395">
        <ele>143</ele>
        <time>2025-01-23T18:47:14Z</time>
      </trkpt>
      <trkpt lat="43.65808" lon="1.36347">
        <ele>143</ele>
        <time>2025-01-23T18:54:01Z</time>
      </trkpt>
      <trkpt lat="43.65808" lon="1.36347">
        <ele>143</ele>
        <time>2025-01-23T18:54:02Z</time>
      </trkpt>
      <trkpt lat="43.65809" lon="1.3635">
        <ele>143</ele>
        <time>2025-01-23T18:54:03Z</time>
      </trkpt>
      <trkpt lat="43.65809" lon="1.3635">
        <ele>143</ele>
        <time>2025-01-23T18:54:04Z</time>
      </trkpt>
      <trkpt lat="43.6581" lon="1.36353">
        <ele>143</ele>
        <time>2025-01-23T18:54:05Z</time>
      </trkpt>
      <trkpt lat="43.6581" lon="1.36353">
        <ele>143</ele>
        <time>2025-01-23T18:54:06Z</time>
      </trkpt>
      <trkpt lat="43.65811" lon="1.36357">
        <ele>143</ele>
        <time>2025-01-23T18:54:07Z</time>
      </trkpt>
      <trkpt lat="43.65811" lon="1.36357">
        <ele>143</ele>
        <time>2025-01-23T18:54:08Z</time>
      </trkpt>
      <trkpt lat="43.65812" lon="1.36362">
        <ele>143</ele>
        <time>2025-01-23T18:54:09Z</time>
      </trkpt>
      <trkpt lat="43.65812" lon="1.36362">
        <ele>143</ele>
        <time>2025-01-23T18:54:10Z</time>
      </trkpt>
      <trkpt lat="43.65813" lon="1.36366">
        <ele>143</ele>
        <time>2025-01-23T18:54:11Z</time>
      </trkpt>
      <trkpt lat="43.65813" lon="1.36366">
        <ele>143</ele>
        <time>2025-01-23T18:54:12Z</time>
      </trkpt>
      <trkpt lat="43.65815" lon="1.3637">
        <ele>143</ele>
        <time>2025-01-23T18:54:13Z</time>
      </trkpt>
      <trkpt lat="43.65815" lon="1.3637">
        <ele>143</ele>
        <time>2025-01-23T18:54:14Z</time>
      </trkpt>
      <trkpt lat="43.65816" lon="1.36374">
        <ele>143</ele>
        <time>2025-01-23T18:54:15Z</time>
      </trkpt>
      <trkpt lat="43.65817" lon="1.36377">
        <ele>143</ele>
        <time>2025-01-23T18:54:16Z</time>
      </trkpt>
      <trkpt lat="43.65817" lon="1.36379">
        <ele>143</ele>
        <time>2025-01-23T18:54:17Z</time>
      </trkpt>
      <trkpt lat="43.65818" lon="1.36381">
        <ele>143</ele>
        <time>2025-01-23T18:54:18Z</time>
      </trkpt>
      <trkpt lat="43.65818" lon="1.36384">
        <ele>143</ele>
        <time>2025-01-23T18:54:19Z</time>
      </trkpt>
      <trkpt lat="43.65818" lon="1.36384">
        <ele>143</ele>
        <time>2025-01-23T18:54:20Z</time>
      </trkpt>
      <trkpt lat="43.6582" lon="1.36388">
        <ele>143</ele>
        <time>2025-01-23T18:54:21Z</time>
      </trkpt>
      <trkpt lat="43.6582" lon="1.36391">
        <ele>143</ele>
        <time>2025-01-23T18:54:22Z</time>
      </trkpt>
      <trkpt lat="43.65821" lon="1.36393">
        <ele>143</ele>
        <time>2025-01-23T18:54:23Z</time>
      </trkpt>
      <trkpt lat="43.65822" lon="1.36396">
        <ele>143</ele>
        <time>2025-01-23T18:54:24Z</time>
      </trkpt>
      <trkpt lat="43.65823" lon="1.36399">
        <ele>143</ele>
        <time>2025-01-23T18:54:25Z</time>
      </trkpt>
      <trkpt lat="43.65824" lon="1.36401">
        <ele>143</ele>
        <time>2025-01-23T18:54:26Z</time>
      </trkpt>
      <trkpt lat="43.65825" lon="1.36404">
        <ele>143</ele>
        <time>2025-01-23T18:54:27Z</time>
      </trkpt>
      <trkpt lat="43.65826" lon="1.36407">
        <ele>143</ele>
        <time>2025-01-23T18:54:28Z</time>
      </trkpt>
      <trkpt lat="43.65826" lon="1.36409">
        <ele>143</ele>
        <time>2025-01-23T18:54:29Z</time>
      </trkpt>
      <trkpt lat="43.65826" lon="1.36409">
        <ele>143</ele>
        <time>2025-01-23T18:54:30Z</time>
      </trkpt>
      <trkpt lat="43.65828" lon="1.36414">
        <ele>143</ele>
        <time>2025-01-23T18:54:31Z</time>
      </trkpt>
      <trkpt lat="43.65828" lon="1.36417">
        <ele>143</ele>
        <time>2025-01-23T18:54:32Z</time>
      </trkpt>
      <trkpt lat="43.65829" lon="1.36419">
        <ele>143</ele>
        <time>2025-01-23T18:54:33Z</time>
      </trkpt>
      <trkpt lat="43.6583" lon="1.36422">
        <ele>142</ele>
        <time>2025-01-23T18:54:34Z</time>
      </trkpt>
      <trkpt lat="43.65831" lon="1.36425">
        <ele>142</ele>
        <time>2025-01-23T18:54:35Z</time>
      </trkpt>
      <trkpt lat="43.65832" lon="1.36427">
        <ele>142</ele>
        <time>2025-01-23T18:54:36Z</time>
      </trkpt>
      <trkpt lat="43.65832" lon="1.3643">
        <ele>142</ele>
        <time>2025-01-23T18:54:37Z</time>
      </trkpt>
      <trkpt lat="43.65832" lon="1.3643">
        <ele>142</ele>
        <time>2025-01-23T18:54:38Z</time>
      </trkpt>
      <trkpt lat="43.65832" lon="1.3643">
        <ele>141</ele>
        <time>2025-01-23T18:54:39Z</time>
      </trkpt>
      <trkpt lat="43.65832" lon="1.36433">
        <ele>141</ele>
        <time>2025-01-23T18:54:40Z</time>
      </trkpt>
      <trkpt lat="43.65832" lon="1.36433">
        <ele>141</ele>
        <time>2025-01-23T18:54:41Z</time>
      </trkpt>
      <trkpt lat="43.65832" lon="1.36433">
        <ele>141</ele>
        <time>2025-01-23T18:54:42Z</time>
      </trkpt>
      <trkpt lat="43.65833" lon="1.36436">
        <ele>140</ele>
        <time>2025-01-23T18:54:43Z</time>
      </trkpt>
      <trkpt lat="43.65833" lon="1.36436">
        <ele>140</ele>
        <time>2025-01-23T18:54:44Z</time>
      </trkpt>
      <trkpt lat="43.65836" lon="1.36438">
        <ele>140</ele>
        <time>2025-01-23T18:54:45Z</time>
      </trkpt>
      <trkpt lat="43.65836" lon="1.36438">
        <ele>140</ele>
        <time>2025-01-23T18:54:46Z</time>
      </trkpt>
      <trkpt lat="43.65837" lon="1.3644">
        <ele>140</ele>
        <time>2025-01-23T18:54:47Z</time>
      </trkpt>
      <trkpt lat="43.65837" lon="1.3644">
        <ele>140</ele>
        <time>2025-01-23T18:54:48Z</time>
      </trkpt>
      <trkpt lat="43.65838" lon="1.36444">
        <ele>139</ele>
        <time>2025-01-23T18:54:49Z</time>
      </trkpt>
      <trkpt lat="43.65838" lon="1.36444">
        <ele>139</ele>
        <time>2025-01-23T18:54:50Z</time>
      </trkpt>
      <trkpt lat="43.65839" lon="1.36448">
        <ele>139</ele>
        <time>2025-01-23T18:54:51Z</time>
      </trkpt>
      <trkpt lat="43.65839" lon="1.36448">
        <ele>139</ele>
        <time>2025-01-23T18:54:52Z</time>
      </trkpt>
      <trkpt lat="43.6584" lon="1.36451">
        <ele>139</ele>
        <time>2025-01-23T18:54:53Z</time>
      </trkpt>
      <trkpt lat="43.6584" lon="1.36451">
        <ele>139</ele>
        <time>2025-01-23T18:54:54Z</time>
      </trkpt>
      <trkpt lat="43.65841" lon="1.36455">
        <ele>138</ele>
        <time>2025-01-23T18:54:55Z</time>
      </trkpt>
      <trkpt lat="43.65841" lon="1.36455">
        <ele>138</ele>
        <time>2025-01-23T18:54:56Z</time>
      </trkpt>
      <trkpt lat="43.65842" lon="1.36458">
        <ele>138</ele>
        <time>2025-01-23T18:54:57Z</time>
      </trkpt>
      <trkpt lat="43.65842" lon="1.36458">
        <ele>138</ele>
        <time>2025-01-23T18:54:58Z</time>
      </trkpt>
      <trkpt lat="43.65842" lon="1.36462">
        <ele>138</ele>
        <time>2025-01-23T18:54:59Z</time>
      </trkpt>
      <trkpt lat="43.65842" lon="1.36462">
        <ele>138</ele>
        <time>2025-01-23T18:55:00Z</time>
      </trkpt>
      <trkpt lat="43.65843" lon="1.36466">
        <ele>138</ele>
        <time>2025-01-23T18:55:01Z</time>
      </trkpt>
      <trkpt lat="43.65843" lon="1.36466">
        <ele>138</ele>
        <time>2025-01-23T18:55:02Z</time>
      </trkpt>
      <trkpt lat="43.65844" lon="1.36469">
        <ele>138</ele>
        <time>2025-01-23T18:55:03Z</time>
      </trkpt>
      <trkpt lat="43.65844" lon="1.36469">
        <ele>138</ele>
        <time>2025-01-23T18:55:04Z</time>
      </trkpt>
      <trkpt lat="43.65846" lon="1.36472">
        <ele>138</ele>
        <time>2025-01-23T18:55:05Z</time>
      </trkpt>
      <trkpt lat="43.65846" lon="1.36472">
        <ele>138</ele>
        <time>2025-01-23T18:55:06Z</time>
      </trkpt>
      <trkpt lat="43.65846" lon="1.36475">
        <ele>138</ele>
        <time>2025-01-23T18:55:07Z</time>
      </trkpt>
      <trkpt lat="43.65846" lon="1.36475">
        <ele>137</ele>
        <time>2025-01-23T18:55:08Z</time>
      </trkpt>
      <trkpt lat="43.65846" lon="1.36475">
        <ele>137</ele>
        <time>2025-01-23T18:55:09Z</time>
      </trkpt>
      <trkpt lat="43.65848" lon="1.36476">
        <ele>137</ele>
        <time>2025-01-23T18:55:10Z</time>
      </trkpt>
      <trkpt lat="43.65848" lon="1.36476">
        <ele>137</ele>
        <time>2025-01-23T18:55:11Z</time>
      </trkpt>
      <trkpt lat="43.6585" lon="1.36478">
        <ele>137</ele>
        <time>2025-01-23T18:55:12Z</time>
      </trkpt>
      <trkpt lat="43.6585" lon="1.36478">
        <ele>137</ele>
        <time>2025-01-23T18:55:13Z</time>
      </trkpt>
      <trkpt lat="43.65851" lon="1.36482">
        <ele>137</ele>
        <time>2025-01-23T18:55:14Z</time>
      </trkpt>
      <trkpt lat="43.65851" lon="1.36482">
        <ele>137</ele>
        <time>2025-01-23T18:55:15Z</time>
      </trkpt>
      <trkpt lat="43.65852" lon="1.36485">
        <ele>137</ele>
        <time>2025-01-23T18:55:16Z</time>
      </trkpt>
      <trkpt lat="43.65852" lon="1.36485">
        <ele>137</ele>
        <time>2025-01-23T18:55:17Z</time>
      </trkpt>
      <trkpt lat="43.65853" lon="1.36489">
        <ele>137</ele>
        <time>2025-01-23T18:55:18Z</time>
      </trkpt>
      <trkpt lat="43.65853" lon="1.36489">
        <ele>137</ele>
        <time>2025-01-23T18:55:19Z</time>
      </trkpt>
      <trkpt lat="43.65854" lon="1.36492">
        <ele>137</ele>
        <time>2025-01-23T18:55:20Z</time>
      </trkpt>
      <trkpt lat="43.65854" lon="1.36492">
        <ele>136</ele>
        <time>2025-01-23T18:55:21Z</time>
      </trkpt>
      <trkpt lat="43.65855" lon="1.36496">
        <ele>136</ele>
        <time>2025-01-23T18:55:22Z</time>
      </trkpt>
      <trkpt lat="43.65855" lon="1.36496">
        <ele>136</ele>
        <time>2025-01-23T18:55:23Z</time>
      </trkpt>
      <trkpt lat="43.65856" lon="1.36499">
        <ele>136</ele>
        <time>2025-01-23T18:55:24Z</time>
      </trkpt>
      <trkpt lat="43.65856" lon="1.36499">
        <ele>136</ele>
        <time>2025-01-23T18:55:25Z</time>
      </trkpt>
      <trkpt lat="43.65857" lon="1.36502">
        <ele>136</ele>
        <time>2025-01-23T18:55:26Z</time>
      </trkpt>
      <trkpt lat="43.65857" lon="1.36502">
        <ele>136</ele>
        <time>2025-01-23T18:55:27Z</time>
      </trkpt>
      <trkpt lat="43.65858" lon="1.36506">
        <ele>136</ele>
        <time>2025-01-23T18:55:28Z</time>
      </trkpt>
      <trkpt lat="43.65858" lon="1.36506">
        <ele>136</ele>
        <time>2025-01-23T18:55:29Z</time>
      </trkpt>
      <trkpt lat="43.65859" lon="1.3651">
        <ele>136</ele>
        <time>2025-01-23T18:55:30Z</time>
      </trkpt>
      <trkpt lat="43.65859" lon="1.3651">
        <ele>136</ele>
        <time>2025-01-23T18:55:31Z</time>
      </trkpt>
      <trkpt lat="43.65859" lon="1.36513">
        <ele>136</ele>
        <time>2025-01-23T18:55:32Z</time>
      </trkpt>
      <trkpt lat="43.65859" lon="1.36513">
        <ele>136</ele>
        <time>2025-01-23T18:55:33Z</time>
      </trkpt>
      <trkpt lat="43.6586" lon="1.36517">
        <ele>136</ele>
        <time>2025-01-23T18:55:34Z</time>
      </trkpt>
      <trkpt lat="43.6586" lon="1.36517">
        <ele>136</ele>
        <time>2025-01-23T18:55:35Z</time>
      </trkpt>
      <trkpt lat="43.65861" lon="1.36521">
        <ele>136</ele>
        <time>2025-01-23T18:55:36Z</time>
      </trkpt>
      <trkpt lat="43.65861" lon="1.36521">
        <ele>136</ele>
        <time>2025-01-23T18:55:37Z</time>
      </trkpt>
      <trkpt lat="43.65862" lon="1.36525">
        <ele>136</ele>
        <time>2025-01-23T18:55:38Z</time>
      </trkpt>
      <trkpt lat="43.65862" lon="1.36525">
        <ele>136</ele>
        <time>2025-01-23T18:55:39Z</time>
      </trkpt>
      <trkpt lat="43.65863" lon="1.36528">
        <ele>136</ele>
        <time>2025-01-23T18:55:40Z</time>
      </trkpt>
      <trkpt lat="43.65863" lon="1.36528">
        <ele>136</ele>
        <time>2025-01-23T18:55:41Z</time>
      </trkpt>
      <trkpt lat="43.65863" lon="1.36532">
        <ele>136</ele>
        <time>2025-01-23T18:55:42Z</time>
      </trkpt>
      <trkpt lat="43.65863" lon="1.36532">
        <ele>136</ele>
        <time>2025-01-23T18:55:43Z</time>
      </trkpt>
      <trkpt lat="43.65864" lon="1.36535">
        <ele>136</ele>
        <time>2025-01-23T18:55:44Z</time>
      </trkpt>
      <trkpt lat="43.65864" lon="1.36535">
        <ele>136</ele>
        <time>2025-01-23T18:55:45Z</time>
      </trkpt>
      <trkpt lat="43.65865" lon="1.36537">
        <ele>136</ele>
        <time>2025-01-23T18:55:46Z</time>
      </trkpt>
      <trkpt lat="43.65865" lon="1.36537">
        <ele>136</ele>
        <time>2025-01-23T18:55:47Z</time>
      </trkpt>
      <trkpt lat="43.65866" lon="1.3654">
        <ele>136</ele>
        <time>2025-01-23T18:55:48Z</time>
      </trkpt>
      <trkpt lat="43.65866" lon="1.3654">
        <ele>136</ele>
        <time>2025-01-23T18:55:49Z</time>
      </trkpt>
      <trkpt lat="43.65866" lon="1.36543">
        <ele>136</ele>
        <time>2025-01-23T18:55:50Z</time>
      </trkpt>
      <trkpt lat="43.65866" lon="1.36543">
        <ele>136</ele>
        <time>2025-01-23T18:55:51Z</time>
      </trkpt>
      <trkpt lat="43.65868" lon="1.36546">
        <ele>136</ele>
        <time>2025-01-23T18:55:52Z</time>
      </trkpt>
      <trkpt lat="43.65868" lon="1.36546">
        <ele>136</ele>
        <time>2025-01-23T18:55:53Z</time>
      </trkpt>
      <trkpt lat="43.65869" lon="1.3655">
        <ele>136</ele>
        <time>2025-01-23T18:55:54Z</time>
      </trkpt>
      <trkpt lat="43.65869" lon="1.3655">
        <ele>136</ele>
        <time>2025-01-23T18:55:55Z</time>
      </trkpt>
      <trkpt lat="43.6587" lon="1.36553">
        <ele>136</ele>
        <time>2025-01-23T18:55:56Z</time>
      </trkpt>
      <trkpt lat="43.6587" lon="1.36553">
        <ele>136</ele>
        <time>2025-01-23T18:55:57Z</time>
      </trkpt>
      <trkpt lat="43.65872" lon="1.36555">
        <ele>136</ele>
        <time>2025-01-23T18:55:58Z</time>
      </trkpt>
      <trkpt lat="43.65872" lon="1.36555">
        <ele>136</ele>
        <time>2025-01-23T18:55:59Z</time>
      </trkpt>
      <trkpt lat="43.65873" lon="1.36559">
        <ele>136</ele>
        <time>2025-01-23T18:56:00Z</time>
      </trkpt>
      <trkpt lat="43.65876" lon="1.3658">
        <ele>136</ele>
        <time>2025-01-23T18:56:35Z</time>
      </trkpt>
      <trkpt lat="43.65876" lon="1.3658">
        <ele>136</ele>
        <time>2025-01-23T18:56:36Z</time>
      </trkpt>
      <trkpt lat="43.65877" lon="1.36584">
        <ele>136</ele>
        <time>2025-01-23T18:56:37Z</time>
      </trkpt>
      <trkpt lat="43.65878" lon="1.36586">
        <ele>136</ele>
        <time>2025-01-23T18:56:38Z</time>
      </trkpt>
      <trkpt lat="43.65879" lon="1.36589">
        <ele>136</ele>
        <time>2025-01-23T18:56:39Z</time>
      </trkpt>
      <trkpt lat="43.6588" lon="1.36592">
        <ele>135</ele>
        <time>2025-01-23T18:56:40Z</time>
      </trkpt>
      <trkpt lat="43.65881" lon="1.36594">
        <ele>135</ele>
        <time>2025-01-23T18:56:41Z</time>
      </trkpt>
      <trkpt lat="43.65882" lon="1.36597">
        <ele>135</ele>
        <time>2025-01-23T18:56:42Z</time>
      </trkpt>
      <trkpt lat="43.65883" lon="1.36599">
        <ele>135</ele>
        <time>2025-01-23T18:56:43Z</time>
      </trkpt>
      <trkpt lat="43.65884" lon="1.36602">
        <ele>135</ele>
        <time>2025-01-23T18:56:44Z</time>
      </trkpt>
      <trkpt lat="43.65885" lon="1.36605">
        <ele>135</ele>
        <time>2025-01-23T18:56:45Z</time>
      </trkpt>
      <trkpt lat="43.65886" lon="1.36607">
        <ele>135</ele>
        <time>2025-01-23T18:56:46Z</time>
      </trkpt>
      <trkpt lat="43.65887" lon="1.3661">
        <ele>135</ele>
        <time>2025-01-23T18:56:47Z</time>
      </trkpt>
      <trkpt lat="43.65887" lon="1.36613">
        <ele>135</ele>
        <time>2025-01-23T18:56:48Z</time>
      </trkpt>
      <trkpt lat="43.65888" lon="1.36616">
        <ele>135</ele>
        <time>2025-01-23T18:56:49Z</time>
      </trkpt>
      <trkpt lat="43.65889" lon="1.36618">
        <ele>135</ele>
        <time>2025-01-23T18:56:50Z</time>
      </trkpt>
      <trkpt lat="43.65889" lon="1.36621">
        <ele>135</ele>
        <time>2025-01-23T18:56:51Z</time>
      </trkpt>
      <trkpt lat="43.6589" lon="1.36624">
        <ele>134</ele>
        <time>2025-01-23T18:56:52Z</time>
      </trkpt>
      <trkpt lat="43.6589" lon="1.36627">
        <ele>134</ele>
        <time>2025-01-23T18:56:53Z</time>
      </trkpt>
      <trkpt lat="43.6589" lon="1.36627">
        <ele>135</ele>
        <time>2025-01-23T18:56:54Z</time>
      </trkpt>
      <trkpt lat="43.65891" lon="1.36632">
        <ele>135</ele>
        <time>2025-01-23T18:56:55Z</time>
      </trkpt>
      <trkpt lat="43.65893" lon="1.36634">
        <ele>135</ele>
        <time>2025-01-23T18:56:56Z</time>
      </trkpt>
      <trkpt lat="43.65894" lon="1.36637">
        <ele>134</ele>
        <time>2025-01-23T18:56:57Z</time>
      </trkpt>
      <trkpt lat="43.65894" lon="1.3664">
        <ele>134</ele>
        <time>2025-01-23T18:56:58Z</time>
      </trkpt>
      <trkpt lat="43.65894" lon="1.36642">
        <ele>134</ele>
        <time>2025-01-23T18:56:59Z</time>
      </trkpt>
      <trkpt lat="43.65893" lon="1.36645">
        <ele>134</ele>
        <time>2025-01-23T18:57:00Z</time>
      </trkpt>
      <trkpt lat="43.65892" lon="1.36647">
        <ele>134</ele>
        <time>2025-01-23T18:57:01Z</time>
      </trkpt>
      <trkpt lat="43.6589" lon="1.36648">
        <ele>134</ele>
        <time>2025-01-23T18:57:02Z</time>
      </trkpt>
      <trkpt lat="43.65888" lon="1.36648">
        <ele>134</ele>
        <time>2025-01-23T18:57:03Z</time>
      </trkpt>
      <trkpt lat="43.65885" lon="1.3665">
        <ele>134</ele>
        <time>2025-01-23T18:57:04Z</time>
      </trkpt>
      <trkpt lat="43.65884" lon="1.36651">
        <ele>134</ele>
        <time>2025-01-23T18:57:05Z</time>
      </trkpt>
      <trkpt lat="43.65882" lon="1.36651">
        <ele>134</ele>
        <time>2025-01-23T18:57:06Z</time>
      </trkpt>
      <trkpt lat="43.6588" lon="1.36652">
        <ele>134</ele>
        <time>2025-01-23T18:57:07Z</time>
      </trkpt>
      <trkpt lat="43.65878" lon="1.36653">
        <ele>135</ele>
        <time>2025-01-23T18:57:08Z</time>
      </trkpt>
      <trkpt lat="43.65876" lon="1.36655">
        <ele>135</ele>
        <time>2025-01-23T18:57:09Z</time>
      </trkpt>
      <trkpt lat="43.65876" lon="1.36655">
        <ele>135</ele>
        <time>2025-01-23T18:57:10Z</time>
      </trkpt>
      <trkpt lat="43.65874" lon="1.36659">
        <ele>135</ele>
        <time>2025-01-23T18:57:11Z</time>
      </trkpt>
      <trkpt lat="43.65874" lon="1.36659">
        <ele>135</ele>
        <time>2025-01-23T18:57:12Z</time>
      </trkpt>
      <trkpt lat="43.65871" lon="1.36662">
        <ele>135</ele>
        <time>2025-01-23T18:57:13Z</time>
      </trkpt>
      <trkpt lat="43.6587" lon="1.36665">
        <ele>135</ele>
        <time>2025-01-23T18:57:14Z</time>
      </trkpt>
      <trkpt lat="43.6587" lon="1.36665">
        <ele>134</ele>
        <time>2025-01-23T18:57:15Z</time>
      </trkpt>
      <trkpt lat="43.65868" lon="1.36669">
        <ele>134</ele>
        <time>2025-01-23T18:57:16Z</time>
      </trkpt>
      <trkpt lat="43.65866" lon="1.3667">
        <ele>134</ele>
        <time>2025-01-23T18:57:17Z</time>
      </trkpt>
      <trkpt lat="43.65865" lon="1.36673">
        <ele>134</ele>
        <time>2025-01-23T18:57:18Z</time>
      </trkpt>
      <trkpt lat="43.65863" lon="1.36674">
        <ele>134</ele>
        <time>2025-01-23T18:57:19Z</time>
      </trkpt>
      <trkpt lat="43.65863" lon="1.36674">
        <ele>134</ele>
        <time>2025-01-23T18:57:20Z</time>
      </trkpt>
      <trkpt lat="43.65861" lon="1.36676">
        <ele>134</ele>
        <time>2025-01-23T18:57:21Z</time>
      </trkpt>
      <trkpt lat="43.65861" lon="1.36676">
        <ele>134</ele>
        <time>2025-01-23T18:57:22Z</time>
      </trkpt>
      <trkpt lat="43.65858" lon="1.36677">
        <ele>134</ele>
        <time>2025-01-23T18:57:23Z</time>
      </trkpt>
      <trkpt lat="43.65858" lon="1.36677">
        <ele>135</ele>
        <time>2025-01-23T18:57:24Z</time>
      </trkpt>
      <trkpt lat="43.65856" lon="1.36679">
        <ele>135</ele>
        <time>2025-01-23T18:57:25Z</time>
      </trkpt>
      <trkpt lat="43.65856" lon="1.36679">
        <ele>135</ele>
        <time>2025-01-23T18:57:26Z</time>
      </trkpt>
      <trkpt lat="43.65853" lon="1.36682">
        <ele>135</ele>
        <time>2025-01-23T18:57:27Z</time>
      </trkpt>
      <trkpt lat="43.65851" lon="1.36684">
        <ele>135</ele>
        <time>2025-01-23T18:57:28Z</time>
      </trkpt>
      <trkpt lat="43.6585" lon="1.36685">
        <ele>135</ele>
        <time>2025-01-23T18:57:29Z</time>
      </trkpt>
      <trkpt lat="43.6585" lon="1.36685">
        <ele>135</ele>
        <time>2025-01-23T18:57:30Z</time>
      </trkpt>
      <trkpt lat="43.65848" lon="1.36688">
        <ele>134</ele>
        <time>2025-01-23T18:57:31Z</time>
      </trkpt>
      <trkpt lat="43.65848" lon="1.36688">
        <ele>134</ele>
        <time>2025-01-23T18:57:32Z</time>
      </trkpt>
      <trkpt lat="43.65846" lon="1.36692">
        <ele>134</ele>
        <time>2025-01-23T18:57:33Z</time>
      </trkpt>
      <trkpt lat="43.65846" lon="1.36692">
        <ele>134</ele>
        <time>2025-01-23T18:57:34Z</time>
      </trkpt>
      <trkpt lat="43.65843" lon="1.36696">
        <ele>134</ele>
        <time>2025-01-23T18:57:35Z</time>
      </trkpt>
      <trkpt lat="43.65842" lon="1.36699">
        <ele>134</ele>
        <time>2025-01-23T18:57:36Z</time>
      </trkpt>
      <trkpt lat="43.6584" lon="1.36701">
        <ele>134</ele>
        <time>2025-01-23T18:57:37Z</time>
      </trkpt>
      <trkpt lat="43.65839" lon="1.36703">
        <ele>134</ele>
        <time>2025-01-23T18:57:38Z</time>
      </trkpt>
      <trkpt lat="43.65838" lon="1.36706">
        <ele>134</ele>
        <time>2025-01-23T18:57:39Z</time>
      </trkpt>
      <trkpt lat="43.65838" lon="1.36706">
        <ele>134</ele>
        <time>2025-01-23T18:57:40Z</time>
      </trkpt>
      <trkpt lat="43.65836" lon="1.3671">
        <ele>134</ele>
        <time>2025-01-23T18:57:41Z</time>
      </trkpt>
      <trkpt lat="43.65836" lon="1.3671">
        <ele>134</ele>
        <time>2025-01-23T18:57:42Z</time>
      </trkpt>
      <trkpt lat="43.65835" lon="1.36715">
        <ele>134</ele>
        <time>2025-01-23T18:57:43Z</time>
      </trkpt>
      <trkpt lat="43.65834" lon="1.36717">
        <ele>135</ele>
        <time>2025-01-23T18:57:44Z</time>
      </trkpt>
      <trkpt lat="43.65833" lon="1.3672">
        <ele>135</ele>
        <time>2025-01-23T18:57:45Z</time>
      </trkpt>
      <trkpt lat="43.65832" lon="1.36722">
        <ele>135</ele>
        <time>2025-01-23T18:57:46Z</time>
      </trkpt>
      <trkpt lat="43.65832" lon="1.36722">
        <ele>135</ele>
        <time>2025-01-23T18:57:47Z</time>
      </trkpt>
      <trkpt lat="43.6583" lon="1.36726">
        <ele>135</ele>
        <time>2025-01-23T18:57:48Z</time>
      </trkpt>
      <trkpt lat="43.65829" lon="1.36728">
        <ele>135</ele>
        <time>2025-01-23T18:57:49Z</time>
      </trkpt>
      <trkpt lat="43.65828" lon="1.3673">
        <ele>135</ele>
        <time>2025-01-23T18:57:50Z</time>
      </trkpt>
      <trkpt lat="43.65827" lon="1.36732">
        <ele>134</ele>
        <time>2025-01-23T18:57:51Z</time>
      </trkpt>
      <trkpt lat="43.65827" lon="1.36732">
        <ele>134</ele>
        <time>2025-01-23T18:57:52Z</time>
      </trkpt>
      <trkpt lat="43.65825" lon="1.36736">
        <ele>134</ele>
        <time>2025-01-23T18:57:53Z</time>
      </trkpt>
      <trkpt lat="43.65825" lon="1.36736">
        <ele>134</ele>
        <time>2025-01-23T18:57:54Z</time>
      </trkpt>
      <trkpt lat="43.65823" lon="1.3674">
        <ele>134</ele>
        <time>2025-01-23T18:57:55Z</time>
      </trkpt>
      <trkpt lat="43.65821" lon="1.36742">
        <ele>134</ele>
        <time>2025-01-23T18:57:56Z</time>
      </trkpt>
      <trkpt lat="43.6582" lon="1.36744">
        <ele>135</ele>
        <time>2025-01-23T18:57:57Z</time>
      </trkpt>
      <trkpt lat="43.65819" lon="1.36746">
        <ele>135</ele>
        <time>2025-01-23T18:57:58Z</time>
      </trkpt>
      <trkpt lat="43.65819" lon="1.36746">
        <ele>134</ele>
        <time>2025-01-23T18:57:59Z</time>
      </trkpt>
      <trkpt lat="43.65818" lon="1.3675">
        <ele>134</ele>
        <time>2025-01-23T18:58:00Z</time>
      </trkpt>
      <trkpt lat="43.65818" lon="1.3675">
        <ele>134</ele>
        <time>2025-01-23T18:58:01Z</time>
      </trkpt>
      <trkpt lat="43.65817" lon="1.36755">
        <ele>134</ele>
        <time>2025-01-23T18:58:02Z</time>
      </trkpt>
      <trkpt lat="43.65817" lon="1.36755">
        <ele>135</ele>
        <time>2025-01-23T18:58:03Z</time>
      </trkpt>
      <trkpt lat="43.65815" lon="1.36759">
        <ele>135</ele>
        <time>2025-01-23T18:58:04Z</time>
      </trkpt>
      <trkpt lat="43.65815" lon="1.36759">
        <ele>135</ele>
        <time>2025-01-23T18:58:05Z</time>
      </trkpt>
      <trkpt lat="43.65812" lon="1.36762">
        <ele>135</ele>
        <time>2025-01-23T18:58:06Z</time>
      </trkpt>
      <trkpt lat="43.65811" lon="1.36764">
        <ele>135</ele>
        <time>2025-01-23T18:58:07Z</time>
      </trkpt>
      <trkpt lat="43.6581" lon="1.36766">
        <ele>135</ele>
        <time>2025-01-23T18:58:08Z</time>
      </trkpt>
      <trkpt lat="43.65809" lon="1.36769">
        <ele>135</ele>
        <time>2025-01-23T18:58:09Z</time>
      </trkpt>
      <trkpt lat="43.65808" lon="1.36771">
        <ele>135</ele>
        <time>2025-01-23T18:58:10Z</time>
      </trkpt>
      <trkpt lat="43.65806" lon="1.36773">
        <ele>135</ele>
        <time>2025-01-23T18:58:11Z</time>
      </trkpt>
      <trkpt lat="43.65805" lon="1.36775">
        <ele>135</ele>
        <time>2025-01-23T18:58:12Z</time>
      </trkpt>
      <trkpt lat="43.65805" lon="1.36775">
        <ele>135</ele>
        <time>2025-01-23T18:58:13Z</time>
      </trkpt>
      <trkpt lat="43.65804" lon="1.36779">
        <ele>135</ele>
        <time>2025-01-23T18:58:14Z</time>
      </trkpt>
      <trkpt lat="43.65804" lon="1.36779">
        <ele>135</ele>
        <time>2025-01-23T18:58:15Z</time>
      </trkpt>
      <trkpt lat="43.65803" lon="1.36784">
        <ele>135</ele>
        <time>2025-01-23T18:58:16Z</time>
      </trkpt>
      <trkpt lat="43.65802" lon="1.36786">
        <ele>135</ele>
        <time>2025-01-23T18:58:17Z</time>
      </trkpt>
      <trkpt lat="43.65801" lon="1.36789">
        <ele>135</ele>
        <time>2025-01-23T18:58:18Z</time>
      </trkpt>
      <trkpt lat="43.65801" lon="1.36789">
        <ele>135</ele>
        <time>2025-01-23T18:58:19Z</time>
      </trkpt>
      <trkpt lat="43.65799" lon="1.36793">
        <ele>136</ele>
        <time>2025-01-23T18:58:20Z</time>
      </trkpt>
      <trkpt lat="43.65797" lon="1.36795">
        <ele>136</ele>
        <time>2025-01-23T18:58:21Z</time>
      </trkpt>
      <trkpt lat="43.65796" lon="1.36797">
        <ele>136</ele>
        <time>2025-01-23T18:58:22Z</time>
      </trkpt>
      <trkpt lat="43.65795" lon="1.368">
        <ele>136</ele>
        <time>2025-01-23T18:58:23Z</time>
      </trkpt>
      <trkpt lat="43.65794" lon="1.36802">
        <ele>135</ele>
        <time>2025-01-23T18:58:24Z</time>
      </trkpt>
      <trkpt lat="43.65793" lon="1.36805">
        <ele>135</ele>
        <time>2025-01-23T18:58:25Z</time>
      </trkpt>
      <trkpt lat="43.65793" lon="1.36807">
        <ele>135</ele>
        <time>2025-01-23T18:58:26Z</time>
      </trkpt>
      <trkpt lat="43.65793" lon="1.3681">
        <ele>135</ele>
        <time>2025-01-23T18:58:27Z</time>
      </trkpt>
      <trkpt lat="43.65792" lon="1.36812">
        <ele>135</ele>
        <time>2025-01-23T18:58:28Z</time>
      </trkpt>
      <trkpt lat="43.65791" lon="1.36815">
        <ele>135</ele>
        <time>2025-01-23T18:58:29Z</time>
      </trkpt>
      <trkpt lat="43.6579" lon="1.36817">
        <ele>135</ele>
        <time>2025-01-23T18:58:30Z</time>
      </trkpt>
      <trkpt lat="43.65789" lon="1.36819">
        <ele>135</ele>
        <time>2025-01-23T18:58:31Z</time>
      </trkpt>
      <trkpt lat="43.65787" lon="1.36821">
        <ele>135</ele>
        <time>2025-01-23T18:58:32Z</time>
      </trkpt>
      <trkpt lat="43.65785" lon="1.36823">
        <ele>135</ele>
        <time>2025-01-23T18:58:33Z</time>
      </trkpt>
      <trkpt lat="43.65784" lon="1.36826">
        <ele>135</ele>
        <time>2025-01-23T18:58:34Z</time>
      </trkpt>
      <trkpt lat="43.65782" lon="1.36828">
        <ele>135</ele>
        <time>2025-01-23T18:58:35Z</time>
      </trkpt>
      <trkpt lat="43.65781" lon="1.36832">
        <ele>135</ele>
        <time>2025-01-23T18:58:36Z</time>
      </trkpt>
      <trkpt lat="43.6578" lon="1.36834">
        <ele>135</ele>
        <time>2025-01-23T18:58:37Z</time>
      </trkpt>
      <trkpt lat="43.65778" lon="1.36837">
        <ele>135</ele>
        <time>2025-01-23T18:58:38Z</time>
      </trkpt>
      <trkpt lat="43.65777" lon="1.36842">
        <ele>135</ele>
        <time>2025-01-23T18:58:39Z</time>
      </trkpt>
      <trkpt lat="43.65777" lon="1.36842">
        <ele>135</ele>
        <time>2025-01-23T18:58:40Z</time>
      </trkpt>
      <trkpt lat="43.65776" lon="1.36845">
        <ele>135</ele>
        <time>2025-01-23T18:58:41Z</time>
      </trkpt>
      <trkpt lat="43.65776" lon="1.36845">
        <ele>135</ele>
        <time>2025-01-23T18:58:42Z</time>
      </trkpt>
      <trkpt lat="43.65775" lon="1.36849">
        <ele>135</ele>
        <time>2025-01-23T18:58:43Z</time>
      </trkpt>
      <trkpt lat="43.65773" lon="1.36851">
        <ele>135</ele>
        <time>2025-01-23T18:58:44Z</time>
      </trkpt>
      <trkpt lat="43.65772" lon="1.36852">
        <ele>136</ele>
        <time>2025-01-23T18:58:45Z</time>
      </trkpt>
      <trkpt lat="43.6577" lon="1.36854">
        <ele>136</ele>
        <time>2025-01-23T18:58:46Z</time>
      </trkpt>
      <trkpt lat="43.65769" lon="1.36857">
        <ele>136</ele>
        <time>2025-01-23T18:58:47Z</time>
      </trkpt>
      <trkpt lat="43.65767" lon="1.36862">
        <ele>136</ele>
        <time>2025-01-23T18:58:48Z</time>
      </trkpt>
      <trkpt lat="43.65767" lon="1.36862">
        <ele>135</ele>
        <time>2025-01-23T18:58:49Z</time>
      </trkpt>
      <trkpt lat="43.65766" lon="1.36864">
        <ele>135</ele>
        <time>2025-01-23T18:58:50Z</time>
      </trkpt>
      <trkpt lat="43.65766" lon="1.36867">
        <ele>135</ele>
        <time>2025-01-23T18:58:51Z</time>
      </trkpt>
      <trkpt lat="43.65764" lon="1.3687">
        <ele>135</ele>
        <time>2025-01-23T18:58:52Z</time>
      </trkpt>
      <trkpt lat="43.65763" lon="1.36873">
        <ele>136</ele>
        <time>2025-01-23T18:58:53Z</time>
      </trkpt>
      <trkpt lat="43.65762" lon="1.36875">
        <ele>136</ele>
        <time>2025-01-23T18:58:54Z</time>
      </trkpt>
      <trkpt lat="43.65761" lon="1.36878">
        <ele>136</ele>
        <time>2025-01-23T18:58:55Z</time>
      </trkpt>
      <trkpt lat="43.6576" lon="1.36881">
        <ele>136</ele>
        <time>2025-01-23T18:58:56Z</time>
      </trkpt>
      <trkpt lat="43.65758" lon="1.36883">
        <ele>136</ele>
        <time>2025-01-23T18:58:57Z</time>
      </trkpt>
      <trkpt lat="43.65757" lon="1.36886">
        <ele>136</ele>
        <time>2025-01-23T18:58:58Z</time>
      </trkpt>
      <trkpt lat="43.65756" lon="1.36888">
        <ele>136</ele>
        <time>2025-01-23T18:58:59Z</time>
      </trkpt>
      <trkpt lat="43.65754" lon="1.36891">
        <ele>136</ele>
        <time>2025-01-23T18:59:00Z</time>
      </trkpt>
      <trkpt lat="43.65753" lon="1.36893">
        <ele>136</ele>
        <time>2025-01-23T18:59:01Z</time>
      </trkpt>
      <trkpt lat="43.65752" lon="1.36896">
        <ele>136</ele>
        <time>2025-01-23T18:59:02Z</time>
      </trkpt>
      <trkpt lat="43.65751" lon="1.36898">
        <ele>136</ele>
        <time>2025-01-23T18:59:03Z</time>
      </trkpt>
      <trkpt lat="43.6575" lon="1.36901">
        <ele>136</ele>
        <time>2025-01-23T18:59:04Z</time>
      </trkpt>
      <trkpt lat="43.65749" lon="1.36903">
        <ele>136</ele>
        <time>2025-01-23T18:59:05Z</time>
      </trkpt>
      <trkpt lat="43.65748" lon="1.36906">
        <ele>136</ele>
        <time>2025-01-23T18:59:06Z</time>
      </trkpt>
      <trkpt lat="43.65747" lon="1.36909">
        <ele>136</ele>
        <time>2025-01-23T18:59:07Z</time>
      </trkpt>
      <trkpt lat="43.65745" lon="1.36911">
        <ele>136</ele>
        <time>2025-01-23T18:59:08Z</time>
      </trkpt>
      <trkpt lat="43.65743" lon="1.36914">
        <ele>136</ele>
        <time>2025-01-23T18:59:09Z</time>
      </trkpt>
      <trkpt lat="43.65742" lon="1.36916">
        <ele>136</ele>
        <time>2025-01-23T18:59:10Z</time>
      </trkpt>
      <trkpt lat="43.65741" lon="1.36918">
        <ele>136</ele>
        <time>2025-01-23T18:59:11Z</time>
      </trkpt>
      <trkpt lat="43.65741" lon="1.36918">
        <ele>136</ele>
        <time>2025-01-23T18:59:12Z</time>
      </trkpt>
      <trkpt lat="43.65739" lon="1.36922">
        <ele>137</ele>
        <time>2025-01-23T18:59:13Z</time>
      </trkpt>
      <trkpt lat="43.65739" lon="1.36922">
        <ele>137</ele>
        <time>2025-01-23T18:59:14Z</time>
      </trkpt>
      <trkpt lat="43.65738" lon="1.36926">
        <ele>137</ele>
        <time>2025-01-23T18:59:15Z</time>
      </trkpt>
      <trkpt lat="43.65738" lon="1.36926">
        <ele>137</ele>
        <time>2025-01-23T18:59:16Z</time>
      </trkpt>
      <trkpt lat="43.65739" lon="1.36929">
        <ele>137</ele>
        <time>2025-01-23T18:59:17Z</time>
      </trkpt>
      <trkpt lat="43.65739" lon="1.36929">
        <ele>137</ele>
        <time>2025-01-23T18:59:18Z</time>
      </trkpt>
      <trkpt lat="43.65739" lon="1.36933">
        <ele>137</ele>
        <time>2025-01-23T18:59:19Z</time>
      </trkpt>
      <trkpt lat="43.65739" lon="1.36935">
        <ele>137</ele>
        <time>2025-01-23T18:59:20Z</time>
      </trkpt>
      <trkpt lat="43.65739" lon="1.36938">
        <ele>137</ele>
        <time>2025-01-23T18:59:21Z</time>
      </trkpt>
      <trkpt lat="43.65739" lon="1.36938">
        <ele>137</ele>
        <time>2025-01-23T18:59:22Z</time>
      </trkpt>
      <trkpt lat="43.65739" lon="1.36943">
        <ele>137</ele>
        <time>2025-01-23T18:59:23Z</time>
      </trkpt>
      <trkpt lat="43.65739" lon="1.36946">
        <ele>137</ele>
        <time>2025-01-23T18:59:24Z</time>
      </trkpt>
      <trkpt lat="43.65739" lon="1.36948">
        <ele>137</ele>
        <time>2025-01-23T18:59:25Z</time>
      </trkpt>
      <trkpt lat="43.65739" lon="1.36948">
        <ele>137</ele>
        <time>2025-01-23T18:59:26Z</time>
      </trkpt>
      <trkpt lat="43.65739" lon="1.36952">
        <ele>137</ele>
        <time>2025-01-23T18:59:27Z</time>
      </trkpt>
      <trkpt lat="43.65739" lon="1.36952">
        <ele>137</ele>
        <time>2025-01-23T18:59:28Z</time>
      </trkpt>
      <trkpt lat="43.6574" lon="1.36957">
        <ele>137</ele>
        <time>2025-01-23T18:59:29Z</time>
      </trkpt>
      <trkpt lat="43.6574" lon="1.36957">
        <ele>137</ele>
        <time>2025-01-23T18:59:30Z</time>
      </trkpt>
      <trkpt lat="43.65741" lon="1.36962">
        <ele>136</ele>
        <time>2025-01-23T18:59:31Z</time>
      </trkpt>
      <trkpt lat="43.65742" lon="1.36964">
        <ele>136</ele>
        <time>2025-01-23T18:59:32Z</time>
      </trkpt>
      <trkpt lat="43.65743" lon="1.36966">
        <ele>137</ele>
        <time>2025-01-23T18:59:33Z</time>
      </trkpt>
      <trkpt lat="43.65745" lon="1.36967">
        <ele>137</ele>
        <time>2025-01-23T18:59:34Z</time>
      </trkpt>
      <trkpt lat="43.65745" lon="1.36967">
        <ele>137</ele>
        <time>2025-01-23T18:59:35Z</time>
      </trkpt>
      <trkpt lat="43.65747" lon="1.3697">
        <ele>137</ele>
        <time>2025-01-23T18:59:36Z</time>
      </trkpt>
      <trkpt lat="43.65747" lon="1.3697">
        <ele>137</ele>
        <time>2025-01-23T18:59:37Z</time>
      </trkpt>
      <trkpt lat="43.6575" lon="1.36973">
        <ele>137</ele>
        <time>2025-01-23T18:59:38Z</time>
      </trkpt>
      <trkpt lat="43.65751" lon="1.36975">
        <ele>137</ele>
        <time>2025-01-23T18:59:39Z</time>
      </trkpt>
      <trkpt lat="43.65751" lon="1.36975">
        <ele>137</ele>
        <time>2025-01-23T18:59:40Z</time>
      </trkpt>
      <trkpt lat="43.65754" lon="1.36978">
        <ele>137</ele>
        <time>2025-01-23T18:59:41Z</time>
      </trkpt>
      <trkpt lat="43.65756" lon="1.3698">
        <ele>137</ele>
        <time>2025-01-23T18:59:42Z</time>
      </trkpt>
      <trkpt lat="43.65757" lon="1.36981">
        <ele>137</ele>
        <time>2025-01-23T18:59:43Z</time>
      </trkpt>
      <trkpt lat="43.65759" lon="1.36983">
        <ele>137</ele>
        <time>2025-01-23T18:59:44Z</time>
      </trkpt>
      <trkpt lat="43.6576" lon="1.36984">
        <ele>137</ele>
        <time>2025-01-23T18:59:45Z</time>
      </trkpt>
      <trkpt lat="43.6576" lon="1.36984">
        <ele>137</ele>
        <time>2025-01-23T18:59:46Z</time>
      </trkpt>
      <trkpt lat="43.65762" lon="1.36988">
        <ele>137</ele>
        <time>2025-01-23T18:59:47Z</time>
      </trkpt>
      <trkpt lat="43.65762" lon="1.36988">
        <ele>137</ele>
        <time>2025-01-23T18:59:48Z</time>
      </trkpt>
      <trkpt lat="43.65765" lon="1.36991">
        <ele>137</ele>
        <time>2025-01-23T18:59:49Z</time>
      </trkpt>
      <trkpt lat="43.65765" lon="1.36991">
        <ele>137</ele>
        <time>2025-01-23T18:59:50Z</time>
      </trkpt>
      <trkpt lat="43.65767" lon="1.36994">
        <ele>137</ele>
        <time>2025-01-23T18:59:51Z</time>
      </trkpt>
      <trkpt lat="43.65767" lon="1.36994">
        <ele>137</ele>
        <time>2025-01-23T18:59:52Z</time>
      </trkpt>
      <trkpt lat="43.6577" lon="1.36997">
        <ele>137</ele>
        <time>2025-01-23T18:59:53Z</time>
      </trkpt>
      <trkpt lat="43.6577" lon="1.36997">
        <ele>137</ele>
        <time>2025-01-23T18:59:54Z</time>
      </trkpt>
      <trkpt lat="43.65772" lon="1.37001">
        <ele>137</ele>
        <time>2025-01-23T18:59:55Z</time>
      </trkpt>
      <trkpt lat="43.65772" lon="1.37001">
        <ele>137</ele>
        <time>2025-01-23T18:59:56Z</time>
      </trkpt>
      <trkpt lat="43.65775" lon="1.37004">
        <ele>137</ele>
        <time>2025-01-23T18:59:57Z</time>
      </trkpt>
      <trkpt lat="43.65776" lon="1.37006">
        <ele>137</ele>
        <time>2025-01-23T18:59:58Z</time>
      </trkpt>
      <trkpt lat="43.65779" lon="1.37009">
        <ele>137</ele>
        <time>2025-01-23T18:59:59Z</time>
      </trkpt>
      <trkpt lat="43.6578" lon="1.3701">
        <ele>137</ele>
        <time>2025-01-23T19:00:00Z</time>
      </trkpt>
      <trkpt lat="43.65781" lon="1.37011">
        <ele>137</ele>
        <time>2025-01-23T19:00:01Z</time>
      </trkpt>
      <trkpt lat="43.65783" lon="1.37013">
        <ele>137</ele>
        <time>2025-01-23T19:00:02Z</time>
      </trkpt>
      <trkpt lat="43.65785" lon="1.37015">
        <ele>137</ele>
        <time>2025-01-23T19:00:03Z</time>
      </trkpt>
      <trkpt lat="43.65788" lon="1.37019">
        <ele>137</ele>
        <time>2025-01-23T19:00:04Z</time>
      </trkpt>
      <trkpt lat="43.65788" lon="1.37019">
        <ele>137</ele>
        <time>2025-01-23T19:00:05Z</time>
      </trkpt>
      <trkpt lat="43.65789" lon="1.37021">
        <ele>137</ele>
        <time>2025-01-23T19:00:06Z</time>
      </trkpt>
      <trkpt lat="43.65789" lon="1.37021">
        <ele>137</ele>
        <time>2025-01-23T19:00:07Z</time>
      </trkpt>
      <trkpt lat="43.65791" lon="1.37025">
        <ele>137</ele>
        <time>2025-01-23T19:00:08Z</time>
      </trkpt>
      <trkpt lat="43.65793" lon="1.37027">
        <ele>137</ele>
        <time>2025-01-23T19:00:09Z</time>
      </trkpt>
      <trkpt lat="43.65794" lon="1.37029">
        <ele>137</ele>
        <time>2025-01-23T19:00:10Z</time>
      </trkpt>
      <trkpt lat="43.65795" lon="1.37031">
        <ele>137</ele>
        <time>2025-01-23T19:00:11Z</time>
      </trkpt>
      <trkpt lat="43.65796" lon="1.37034">
        <ele>137</ele>
        <time>2025-01-23T19:00:12Z</time>
      </trkpt>
      <trkpt lat="43.65797" lon="1.37036">
        <ele>137</ele>
        <time>2025-01-23T19:00:13Z</time>
      </trkpt>
      <trkpt lat="43.65798" lon="1.37039">
        <ele>137</ele>
        <time>2025-01-23T19:00:14Z</time>
      </trkpt>
      <trkpt lat="43.65799" lon="1.37042">
        <ele>137</ele>
        <time>2025-01-23T19:00:15Z</time>
      </trkpt>
      <trkpt lat="43.658" lon="1.37045">
        <ele>137</ele>
        <time>2025-01-23T19:00:16Z</time>
      </trkpt>
      <trkpt lat="43.65802" lon="1.37048">
        <ele>137</ele>
        <time>2025-01-23T19:00:17Z</time>
      </trkpt>
      <trkpt lat="43.65803" lon="1.3705">
        <ele>137</ele>
        <time>2025-01-23T19:00:18Z</time>
      </trkpt>
      <trkpt lat="43.65804" lon="1.37053">
        <ele>137</ele>
        <time>2025-01-23T19:00:19Z</time>
      </trkpt>
      <trkpt lat="43.65805" lon="1.37056">
        <ele>137</ele>
        <time>2025-01-23T19:00:20Z</time>
      </trkpt>
      <trkpt lat="43.65806" lon="1.37059">
        <ele>137</ele>
        <time>2025-01-23T19:00:21Z</time>
      </trkpt>
      <trkpt lat="43.65807" lon="1.37061">
        <ele>137</ele>
        <time>2025-01-23T19:00:22Z</time>
      </trkpt>
      <trkpt lat="43.65807" lon="1.37064">
        <ele>137</ele>
        <time>2025-01-23T19:00:23Z</time>
      </trkpt>
      <trkpt lat="43.65807" lon="1.37064">
        <ele>137</ele>
        <time>2025-01-23T19:00:24Z</time>
      </trkpt>
      <trkpt lat="43.65809" lon="1.37067">
        <ele>137</ele>
        <time>2025-01-23T19:00:25Z</time>
      </trkpt>
      <trkpt lat="43.65809" lon="1.37067">
        <ele>137</ele>
        <time>2025-01-23T19:00:26Z</time>
      </trkpt>
      <trkpt lat="43.65811" lon="1.37071">
        <ele>137</ele>
        <time>2025-01-23T19:00:27Z</time>
      </trkpt>
      <trkpt lat="43.65811" lon="1.37071">
        <ele>137</ele>
        <time>2025-01-23T19:00:28Z</time>
      </trkpt>
      <trkpt lat="43.65813" lon="1.37074">
        <ele>137</ele>
        <time>2025-01-23T19:00:29Z</time>
      </trkpt>
      <trkpt lat="43.65813" lon="1.37074">
        <ele>137</ele>
        <time>2025-01-23T19:00:30Z</time>
      </trkpt>
      <trkpt lat="43.65816" lon="1.37077">
        <ele>137</ele>
        <time>2025-01-23T19:00:31Z</time>
      </trkpt>
      <trkpt lat="43.65817" lon="1.37079">
        <ele>137</ele>
        <time>2025-01-23T19:00:32Z</time>
      </trkpt>
      <trkpt lat="43.65818" lon="1.37081">
        <ele>137</ele>
        <time>2025-01-23T19:00:33Z</time>
      </trkpt>
      <trkpt lat="43.65819" lon="1.37084">
        <ele>137</ele>
        <time>2025-01-23T19:00:34Z</time>
      </trkpt>
      <trkpt lat="43.6582" lon="1.37086">
        <ele>137</ele>
        <time>2025-01-23T19:00:35Z</time>
      </trkpt>
      <trkpt lat="43.65822" lon="1.37089">
        <ele>137</ele>
        <time>2025-01-23T19:00:36Z</time>
      </trkpt>
      <trkpt lat="43.65823" lon="1.37092">
        <ele>137</ele>
        <time>2025-01-23T19:00:37Z</time>
      </trkpt>
      <trkpt lat="43.65823" lon="1.37094">
        <ele>138</ele>
        <time>2025-01-23T19:00:38Z</time>
      </trkpt>
      <trkpt lat="43.65823" lon="1.37094">
        <ele>138</ele>
        <time>2025-01-23T19:00:39Z</time>
      </trkpt>
      <trkpt lat="43.65823" lon="1.37098">
        <ele>138</ele>
        <time>2025-01-23T19:00:40Z</time>
      </trkpt>
      <trkpt lat="43.65823" lon="1.37098">
        <ele>138</ele>
        <time>2025-01-23T19:00:41Z</time>
      </trkpt>
      <trkpt lat="43.65822" lon="1.37101">
        <ele>138</ele>
        <time>2025-01-23T19:00:42Z</time>
      </trkpt>
      <trkpt lat="43.65822" lon="1.37101">
        <ele>138</ele>
        <time>2025-01-23T19:00:43Z</time>
      </trkpt>
      <trkpt lat="43.65822" lon="1.37104">
        <ele>138</ele>
        <time>2025-01-23T19:00:44Z</time>
      </trkpt>
      <trkpt lat="43.65822" lon="1.37104">
        <ele>138</ele>
        <time>2025-01-23T19:00:45Z</time>
      </trkpt>
      <trkpt lat="43.65823" lon="1.37108">
        <ele>138</ele>
        <time>2025-01-23T19:00:46Z</time>
      </trkpt>
      <trkpt lat="43.65823" lon="1.37108">
        <ele>138</ele>
        <time>2025-01-23T19:00:47Z</time>
      </trkpt>
      <trkpt lat="43.65823" lon="1.37111">
        <ele>138</ele>
        <time>2025-01-23T19:00:48Z</time>
      </trkpt>
      <trkpt lat="43.65823" lon="1.37111">
        <ele>138</ele>
        <time>2025-01-23T19:00:49Z</time>
      </trkpt>
      <trkpt lat="43.65822" lon="1.37114">
        <ele>138</ele>
        <time>2025-01-23T19:00:50Z</time>
      </trkpt>
      <trkpt lat="43.65822" lon="1.37114">
        <ele>138</ele>
        <time>2025-01-23T19:00:51Z</time>
      </trkpt>
      <trkpt lat="43.65822" lon="1.37117">
        <ele>138</ele>
        <time>2025-01-23T19:00:52Z</time>
      </trkpt>
      <trkpt lat="43.65822" lon="1.37117">
        <ele>138</ele>
        <time>2025-01-23T19:00:53Z</time>
      </trkpt>
      <trkpt lat="43.65821" lon="1.3712">
        <ele>138</ele>
        <time>2025-01-23T19:00:54Z</time>
      </trkpt>
      <trkpt lat="43.65821" lon="1.3712">
        <ele>138</ele>
        <time>2025-01-23T19:00:55Z</time>
      </trkpt>
      <trkpt lat="43.65821" lon="1.37123">
        <ele>138</ele>
        <time>2025-01-23T19:00:56Z</time>
      </trkpt>
      <trkpt lat="43.65821" lon="1.37123">
        <ele>138</ele>
        <time>2025-01-23T19:00:57Z</time>
      </trkpt>
      <trkpt lat="43.6582" lon="1.37126">
        <ele>138</ele>
        <time>2025-01-23T19:00:58Z</time>
      </trkpt>
      <trkpt lat="43.6582" lon="1.37126">
        <ele>138</ele>
        <time>2025-01-23T19:00:59Z</time>
      </trkpt>
      <trkpt lat="43.6582" lon="1.37126">
        <ele>138</ele>
        <time>2025-01-23T19:01:00Z</time>
      </trkpt>
      <trkpt lat="43.65818" lon="1.37127">
        <ele>138</ele>
        <time>2025-01-23T19:01:01Z</time>
      </trkpt>
      <trkpt lat="43.65818" lon="1.37127">
        <ele>138</ele>
        <time>2025-01-23T19:01:02Z</time>
      </trkpt>
      <trkpt lat="43.65818" lon="1.37127">
        <ele>138</ele>
        <time>2025-01-23T19:01:03Z</time>
      </trkpt>
      <trkpt lat="43.65818" lon="1.37127">
        <ele>138</ele>
        <time>2025-01-23T19:01:04Z</time>
      </trkpt>
      <trkpt lat="43.65818" lon="1.37127">
        <ele>138</ele>
        <time>2025-01-23T19:01:05Z</time>
      </trkpt>
      <trkpt lat="43.65817" lon="1.37129">
        <ele>138</ele>
        <time>2025-01-23T19:01:06Z</time>
      </trkpt>
      <trkpt lat="43.65817" lon="1.37129">
        <ele>138</ele>
        <time>2025-01-23T19:01:07Z</time>
      </trkpt>
      <trkpt lat="43.65815" lon="1.37132">
        <ele>138</ele>
        <time>2025-01-23T19:01:08Z</time>
      </trkpt>
      <trkpt lat="43.65815" lon="1.37132">
        <ele>138</ele>
        <time>2025-01-23T19:01:09Z</time>
      </trkpt>
      <trkpt lat="43.65812" lon="1.37134">
        <ele>138</ele>
        <time>2025-01-23T19:01:10Z</time>
      </trkpt>
      <trkpt lat="43.65811" lon="1.37136">
        <ele>138</ele>
        <time>2025-01-23T19:01:11Z</time>
      </trkpt>
      <trkpt lat="43.65809" lon="1.37137">
        <ele>138</ele>
        <time>2025-01-23T19:01:12Z</time>
      </trkpt>
      <trkpt lat="43.65808" lon="1.37139">
        <ele>138</ele>
        <time>2025-01-23T19:01:13Z</time>
      </trkpt>
      <trkpt lat="43.65806" lon="1.37141">
        <ele>138</ele>
        <time>2025-01-23T19:01:14Z</time>
      </trkpt>
      <trkpt lat="43.65804" lon="1.37142">
        <ele>138</ele>
        <time>2025-01-23T19:01:15Z</time>
      </trkpt>
      <trkpt lat="43.65802" lon="1.37144">
        <ele>138</ele>
        <time>2025-01-23T19:01:16Z</time>
      </trkpt>
      <trkpt lat="43.658" lon="1.37146">
        <ele>138</ele>
        <time>2025-01-23T19:01:17Z</time>
      </trkpt>
      <trkpt lat="43.65798" lon="1.37148">
        <ele>138</ele>
        <time>2025-01-23T19:01:18Z</time>
      </trkpt>
      <trkpt lat="43.65796" lon="1.3715">
        <ele>138</ele>
        <time>2025-01-23T19:01:19Z</time>
      </trkpt>
      <trkpt lat="43.65794" lon="1.37152">
        <ele>138</ele>
        <time>2025-01-23T19:01:20Z</time>
      </trkpt>
      <trkpt lat="43.65792" lon="1.37154">
        <ele>138</ele>
        <time>2025-01-23T19:01:21Z</time>
      </trkpt>
      <trkpt lat="43.6579" lon="1.37155">
        <ele>138</ele>
        <time>2025-01-23T19:01:22Z</time>
      </trkpt>
      <trkpt lat="43.65788" lon="1.37157">
        <ele>138</ele>
        <time>2025-01-23T19:01:23Z</time>
      </trkpt>
      <trkpt lat="43.65786" lon="1.37159">
        <ele>138</ele>
        <time>2025-01-23T19:01:24Z</time>
      </trkpt>
      <trkpt lat="43.65784" lon="1.37161">
        <ele>138</ele>
        <time>2025-01-23T19:01:25Z</time>
      </trkpt>
      <trkpt lat="43.65782" lon="1.37163">
        <ele>138</ele>
        <time>2025-01-23T19:01:26Z</time>
      </trkpt>
      <trkpt lat="43.6578" lon="1.37164">
        <ele>138</ele>
        <time>2025-01-23T19:01:27Z</time>
      </trkpt>
      <trkpt lat="43.65777" lon="1.37166">
        <ele>138</ele>
        <time>2025-01-23T19:01:28Z</time>
      </trkpt>
      <trkpt lat="43.65776" lon="1.37167">
        <ele>138</ele>
        <time>2025-01-23T19:01:29Z</time>
      </trkpt>
      <trkpt lat="43.65774" lon="1.37169">
        <ele>138</ele>
        <time>2025-01-23T19:01:30Z</time>
      </trkpt>
      <trkpt lat="43.65772" lon="1.37171">
        <ele>138</ele>
        <time>2025-01-23T19:01:31Z</time>
      </trkpt>
      <trkpt lat="43.6577" lon="1.37173">
        <ele>138</ele>
        <time>2025-01-23T19:01:32Z</time>
      </trkpt>
      <trkpt lat="43.65768" lon="1.37175">
        <ele>138</ele>
        <time>2025-01-23T19:01:33Z</time>
      </trkpt>
      <trkpt lat="43.65766" lon="1.37176">
        <ele>138</ele>
        <time>2025-01-23T19:01:34Z</time>
      </trkpt>
      <trkpt lat="43.65764" lon="1.37177">
        <ele>138</ele>
        <time>2025-01-23T19:01:35Z</time>
      </trkpt>
      <trkpt lat="43.65762" lon="1.37179">
        <ele>138</ele>
        <time>2025-01-23T19:01:36Z</time>
      </trkpt>
      <trkpt lat="43.6576" lon="1.3718">
        <ele>138</ele>
        <time>2025-01-23T19:01:37Z</time>
      </trkpt>
      <trkpt lat="43.65758" lon="1.37182">
        <ele>138</ele>
        <time>2025-01-23T19:01:38Z</time>
      </trkpt>
      <trkpt lat="43.65756" lon="1.37183">
        <ele>138</ele>
        <time>2025-01-23T19:01:39Z</time>
      </trkpt>
      <trkpt lat="43.65754" lon="1.37185">
        <ele>138</ele>
        <time>2025-01-23T19:01:40Z</time>
      </trkpt>
      <trkpt lat="43.65752" lon="1.37186">
        <ele>138</ele>
        <time>2025-01-23T19:01:41Z</time>
      </trkpt>
      <trkpt lat="43.6575" lon="1.37188">
        <ele>138</ele>
        <time>2025-01-23T19:01:42Z</time>
      </trkpt>
      <trkpt lat="43.65748" lon="1.37189">
        <ele>138</ele>
        <time>2025-01-23T19:01:43Z</time>
      </trkpt>
      <trkpt lat="43.65746" lon="1.37191">
        <ele>138</ele>
        <time>2025-01-23T19:01:44Z</time>
      </trkpt>
      <trkpt lat="43.65744" lon="1.37192">
        <ele>138</ele>
        <time>2025-01-23T19:01:45Z</time>
      </trkpt>
      <trkpt lat="43.65742" lon="1.37194">
        <ele>138</ele>
        <time>2025-01-23T19:01:46Z</time>
      </trkpt>
      <trkpt lat="43.6574" lon="1.37196">
        <ele>138</ele>
        <time>2025-01-23T19:01:47Z</time>
      </trkpt>
      <trkpt lat="43.65738" lon="1.37197">
        <ele>138</ele>
        <time>2025-01-23T19:01:48Z</time>
      </trkpt>
      <trkpt lat="43.65736" lon="1.37199">
        <ele>138</ele>
        <time>2025-01-23T19:01:49Z</time>
      </trkpt>
      <trkpt lat="43.65734" lon="1.372">
        <ele>138</ele>
        <time>2025-01-23T19:01:50Z</time>
      </trkpt>
      <trkpt lat="43.65732" lon="1.37202">
        <ele>138</ele>
        <time>2025-01-23T19:01:51Z</time>
      </trkpt>
      <trkpt lat="43.6573" lon="1.37203">
        <ele>138</ele>
        <time>2025-01-23T19:01:52Z</time>
      </trkpt>
      <trkpt lat="43.65728" lon="1.37205">
        <ele>138</ele>
        <time>2025-01-23T19:01:53Z</time>
      </trkpt>
      <trkpt lat="43.65726" lon="1.37206">
        <ele>138</ele>
        <time>2025-01-23T19:01:54Z</time>
      </trkpt>
      <trkpt lat="43.65724" lon="1.37208">
        <ele>138</ele>
        <time>2025-01-23T19:01:55Z</time>
      </trkpt>
      <trkpt lat="43.65722" lon="1.37209">
        <ele>138</ele>
        <time>2025-01-23T19:01:56Z</time>
      </trkpt>
      <trkpt lat="43.6572" lon="1.37211">
        <ele>138</ele>
        <time>2025-01-23T19:01:57Z</time>
      </trkpt>
      <trkpt lat="43.65718" lon="1.37212">
        <ele>138</ele>
        <time>2025-01-23T19:01:58Z</time>
      </trkpt>
      <trkpt lat="43.65716" lon="1.37214">
        <ele>138</ele>
        <time>2025-01-23T19:01:59Z</time>
      </trkpt>
      <trkpt lat="43.65714" lon="1.37215">
        <ele>138</ele>
        <time>2025-01-23T19:02:00Z</time>
      </trkpt>
      <trkpt lat="43.65712" lon="1.37217">
        <ele>138</ele>
        <time>2025-01-23T19:02:01Z</time>
      </trkpt>
      <trkpt lat="43.6571" lon="1.37218">
        <ele>138</ele>
        <time>2025-01-23T19:02:02Z</time>
      </trkpt>
      <trkpt lat="43.65709" lon="1.37219">
        <ele>138</ele>
        <time>2025-01-23T19:02:03Z</time>
      </trkpt>
      <trkpt lat="43.65706" lon="1.37221">
        <ele>138</ele>
        <time>2025-01-23T19:02:04Z</time>
      </trkpt>
      <trkpt lat="43.65705" lon="1.37222">
        <ele>138</ele>
        <time>2025-01-23T19:02:05Z</time>
      </trkpt>
      <trkpt lat="43.65703" lon="1.37223">
        <ele>138</ele>
        <time>2025-01-23T19:02:06Z</time>
      </trkpt>
      <trkpt lat="43.65701" lon="1.37224">
        <ele>138</ele>
        <time>2025-01-23T19:02:07Z</time>
      </trkpt>
      <trkpt lat="43.65699" lon="1.37226">
        <ele>138</ele>
        <time>2025-01-23T19:02:08Z</time>
      </trkpt>
      <trkpt lat="43.65697" lon="1.37228">
        <ele>138</ele>
        <time>2025-01-23T19:02:09Z</time>
      </trkpt>
      <trkpt lat="43.65695" lon="1.37229">
        <ele>138</ele>
        <time>2025-01-23T19:02:10Z</time>
      </trkpt>
      <trkpt lat="43.65693" lon="1.37231">
        <ele>138</ele>
        <time>2025-01-23T19:02:11Z</time>
      </trkpt>
      <trkpt lat="43.65691" lon="1.37232">
        <ele>138</ele>
        <time>2025-01-23T19:02:12Z</time>
      </trkpt>
      <trkpt lat="43.65689" lon="1.37234">
        <ele>138</ele>
        <time>2025-01-23T19:02:13Z</time>
      </trkpt>
      <trkpt lat="43.65687" lon="1.37236">
        <ele>138</ele>
        <time>2025-01-23T19:02:14Z</time>
      </trkpt>
      <trkpt lat="43.65685" lon="1.37238">
        <ele>138</ele>
        <time>2025-01-23T19:02:15Z</time>
      </trkpt>
      <trkpt lat="43.65683" lon="1.37239">
        <ele>138</ele>
        <time>2025-01-23T19:02:16Z</time>
      </trkpt>
      <trkpt lat="43.65678" lon="1.37243">
        <ele>138</ele>
        <time>2025-01-23T19:02:17Z</time>
      </trkpt>
      <trkpt lat="43.65678" lon="1.37243">
        <ele>138</ele>
        <time>2025-01-23T19:02:18Z</time>
      </trkpt>
      <trkpt lat="43.65676" lon="1.37245">
        <ele>138</ele>
        <time>2025-01-23T19:02:19Z</time>
      </trkpt>
      <trkpt lat="43.65674" lon="1.37246">
        <ele>138</ele>
        <time>2025-01-23T19:02:20Z</time>
      </trkpt>
      <trkpt lat="43.65672" lon="1.37248">
        <ele>138</ele>
        <time>2025-01-23T19:02:21Z</time>
      </trkpt>
      <trkpt lat="43.6567" lon="1.3725">
        <ele>138</ele>
        <time>2025-01-23T19:02:22Z</time>
      </trkpt>
      <trkpt lat="43.65668" lon="1.37251">
        <ele>138</ele>
        <time>2025-01-23T19:02:23Z</time>
      </trkpt>
      <trkpt lat="43.65667" lon="1.37253">
        <ele>138</ele>
        <time>2025-01-23T19:02:24Z</time>
      </trkpt>
      <trkpt lat="43.65665" lon="1.37254">
        <ele>138</ele>
        <time>2025-01-23T19:02:25Z</time>
      </trkpt>
      <trkpt lat="43.65663" lon="1.37256">
        <ele>138</ele>
        <time>2025-01-23T19:02:26Z</time>
      </trkpt>
      <trkpt lat="43.6566" lon="1.37257">
        <ele>138</ele>
        <time>2025-01-23T19:02:27Z</time>
      </trkpt>
      <trkpt lat="43.65658" lon="1.37259">
        <ele>138</ele>
        <time>2025-01-23T19:02:28Z</time>
      </trkpt>
      <trkpt lat="43.65656" lon="1.3726">
        <ele>138</ele>
        <time>2025-01-23T19:02:29Z</time>
      </trkpt>
      <trkpt lat="43.65654" lon="1.37261">
        <ele>138</ele>
        <time>2025-01-23T19:02:30Z</time>
      </trkpt>
      <trkpt lat="43.65654" lon="1.37261">
        <ele>138</ele>
        <time>2025-01-23T19:02:31Z</time>
      </trkpt>
      <trkpt lat="43.65651" lon="1.37262">
        <ele>138</ele>
        <time>2025-01-23T19:02:32Z</time>
      </trkpt>
      <trkpt lat="43.65651" lon="1.37262">
        <ele>138</ele>
        <time>2025-01-23T19:02:33Z</time>
      </trkpt>
      <trkpt lat="43.65651" lon="1.37262">
        <ele>138</ele>
        <time>2025-01-23T19:02:34Z</time>
      </trkpt>
      <trkpt lat="43.65651" lon="1.37262">
        <ele>138</ele>
        <time>2025-01-23T19:02:35Z</time>
      </trkpt>
      <trkpt lat="43.6565" lon="1.37264">
        <ele>138</ele>
        <time>2025-01-23T19:02:36Z</time>
      </trkpt>
      <trkpt lat="43.6565" lon="1.37264">
        <ele>137</ele>
        <time>2025-01-23T19:02:37Z</time>
      </trkpt>
      <trkpt lat="43.65648" lon="1.37265">
        <ele>137</ele>
        <time>2025-01-23T19:02:38Z</time>
      </trkpt>
      <trkpt lat="43.65646" lon="1.37267">
        <ele>137</ele>
        <time>2025-01-23T19:02:39Z</time>
      </trkpt>
      <trkpt lat="43.65646" lon="1.37267">
        <ele>137</ele>
        <time>2025-01-23T19:02:40Z</time>
      </trkpt>
      <trkpt lat="43.65643" lon="1.37267">
        <ele>137</ele>
        <time>2025-01-23T19:02:41Z</time>
      </trkpt>
      <trkpt lat="43.65643" lon="1.37267">
        <ele>137</ele>
        <time>2025-01-23T19:02:42Z</time>
      </trkpt>
      <trkpt lat="43.65643" lon="1.37267">
        <ele>137</ele>
        <time>2025-01-23T19:02:43Z</time>
      </trkpt>
      <trkpt lat="43.65643" lon="1.37267">
        <ele>137</ele>
        <time>2025-01-23T19:02:44Z</time>
      </trkpt>
      <trkpt lat="43.65644" lon="1.37264">
        <ele>137</ele>
        <time>2025-01-23T19:02:45Z</time>
      </trkpt>
      <trkpt lat="43.65644" lon="1.37264">
        <ele>137</ele>
        <time>2025-01-23T19:02:46Z</time>
      </trkpt>
      <trkpt lat="43.65644" lon="1.37264">
        <ele>137</ele>
        <time>2025-01-23T19:02:47Z</time>
      </trkpt>
      <trkpt lat="43.65644" lon="1.37264">
        <ele>137</ele>
        <time>2025-01-23T19:02:48Z</time>
      </trkpt>
      <trkpt lat="43.65644" lon="1.37264">
        <ele>137</ele>
        <time>2025-01-23T19:02:49Z</time>
      </trkpt>
      <trkpt lat="43.65644" lon="1.37264">
        <ele>137</ele>
        <time>2025-01-23T19:02:50Z</time>
      </trkpt>
      <trkpt lat="43.65644" lon="1.37264">
        <ele>137</ele>
        <time>2025-01-23T19:02:51Z</time>
      </trkpt>
      <trkpt lat="43.65644" lon="1.37264">
        <ele>137</ele>
        <time>2025-01-23T19:02:52Z</time>
      </trkpt>
      <trkpt lat="43.65643" lon="1.37267">
        <ele>137</ele>
        <time>2025-01-23T19:02:53Z</time>
      </trkpt>
      <trkpt lat="43.65643" lon="1.37267">
        <ele>137</ele>
        <time>2025-01-23T19:02:54Z</time>
      </trkpt>
      <trkpt lat="43.65641" lon="1.37269">
        <ele>137</ele>
        <time>2025-01-23T19:02:55Z</time>
      </trkpt>
      <trkpt lat="43.65641" lon="1.37269">
        <ele>138</ele>
        <time>2025-01-23T19:02:56Z</time>
      </trkpt>
      <trkpt lat="43.65638" lon="1.37271">
        <ele>138</ele>
        <time>2025-01-23T19:02:57Z</time>
      </trkpt>
      <trkpt lat="43.65638" lon="1.37271">
        <ele>138</ele>
        <time>2025-01-23T19:02:58Z</time>
      </trkpt>
      <trkpt lat="43.65636" lon="1.37273">
        <ele>138</ele>
        <time>2025-01-23T19:02:59Z</time>
      </trkpt>
      <trkpt lat="43.65636" lon="1.37273">
        <ele>138</ele>
        <time>2025-01-23T19:03:00Z</time>
      </trkpt>
      <trkpt lat="43.65634" lon="1.37274">
        <ele>138</ele>
        <time>2025-01-23T19:03:01Z</time>
      </trkpt>
      <trkpt lat="43.65634" lon="1.37274">
        <ele>138</ele>
        <time>2025-01-23T19:03:02Z</time>
      </trkpt>
      <trkpt lat="43.65631" lon="1.37276">
        <ele>137</ele>
        <time>2025-01-23T19:03:03Z</time>
      </trkpt>
      <trkpt lat="43.65631" lon="1.37276">
        <ele>137</ele>
        <time>2025-01-23T19:03:04Z</time>
      </trkpt>
      <trkpt lat="43.65629" lon="1.37278">
        <ele>137</ele>
        <time>2025-01-23T19:03:05Z</time>
      </trkpt>
      <trkpt lat="43.65629" lon="1.37278">
        <ele>137</ele>
        <time>2025-01-23T19:03:06Z</time>
      </trkpt>
      <trkpt lat="43.65627" lon="1.3728">
        <ele>137</ele>
        <time>2025-01-23T19:03:07Z</time>
      </trkpt>
      <trkpt lat="43.65627" lon="1.3728">
        <ele>137</ele>
        <time>2025-01-23T19:03:08Z</time>
      </trkpt>
      <trkpt lat="43.65624" lon="1.37281">
        <ele>137</ele>
        <time>2025-01-23T19:03:09Z</time>
      </trkpt>
      <trkpt lat="43.65624" lon="1.37281">
        <ele>137</ele>
        <time>2025-01-23T19:03:10Z</time>
      </trkpt>
      <trkpt lat="43.65622" lon="1.37283">
        <ele>137</ele>
        <time>2025-01-23T19:03:11Z</time>
      </trkpt>
      <trkpt lat="43.65442" lon="1.3741">
        <ele>138</ele>
        <time>2025-01-23T19:05:30Z</time>
      </trkpt>
      <trkpt lat="43.65442" lon="1.3741">
        <ele>138</ele>
        <time>2025-01-23T19:05:31Z</time>
      </trkpt>
      <trkpt lat="43.6544" lon="1.3741">
        <ele>138</ele>
        <time>2025-01-23T19:05:32Z</time>
      </trkpt>
      <trkpt lat="43.65437" lon="1.3741">
        <ele>138</ele>
        <time>2025-01-23T19:05:33Z</time>
      </trkpt>
      <trkpt lat="43.65435" lon="1.3741">
        <ele>138</ele>
        <time>2025-01-23T19:05:34Z</time>
      </trkpt>
      <trkpt lat="43.65432" lon="1.3741">
        <ele>138</ele>
        <time>2025-01-23T19:05:35Z</time>
      </trkpt>
      <trkpt lat="43.6543" lon="1.37412">
        <ele>138</ele>
        <time>2025-01-23T19:05:36Z</time>
      </trkpt>
      <trkpt lat="43.65428" lon="1.37413">
        <ele>138</ele>
        <time>2025-01-23T19:05:37Z</time>
      </trkpt>
      <trkpt lat="43.65425" lon="1.37414">
        <ele>138</ele>
        <time>2025-01-23T19:05:38Z</time>
      </trkpt>
      <trkpt lat="43.65423" lon="1.37416">
        <ele>138</ele>
        <time>2025-01-23T19:05:39Z</time>
      </trkpt>
      <trkpt lat="43.65421" lon="1.37417">
        <ele>138</ele>
        <time>2025-01-23T19:05:40Z</time>
      </trkpt>
      <trkpt lat="43.65419" lon="1.37418">
        <ele>138</ele>
        <time>2025-01-23T19:05:41Z</time>
      </trkpt>
      <trkpt lat="43.65417" lon="1.3742">
        <ele>138</ele>
        <time>2025-01-23T19:05:42Z</time>
      </trkpt>
      <trkpt lat="43.65415" lon="1.37422">
        <ele>138</ele>
        <time>2025-01-23T19:05:43Z</time>
      </trkpt>
      <trkpt lat="43.65413" lon="1.37423">
        <ele>138</ele>
        <time>2025-01-23T19:05:44Z</time>
      </trkpt>
      <trkpt lat="43.6541" lon="1.37425">
        <ele>138</ele>
        <time>2025-01-23T19:05:45Z</time>
      </trkpt>
      <trkpt lat="43.65408" lon="1.37427">
        <ele>138</ele>
        <time>2025-01-23T19:05:46Z</time>
      </trkpt>
      <trkpt lat="43.65406" lon="1.37428">
        <ele>138</ele>
        <time>2025-01-23T19:05:47Z</time>
      </trkpt>
      <trkpt lat="43.65404" lon="1.3743">
        <ele>138</ele>
        <time>2025-01-23T19:05:48Z</time>
      </trkpt>
      <trkpt lat="43.65401" lon="1.37432">
        <ele>138</ele>
        <time>2025-01-23T19:05:49Z</time>
      </trkpt>
      <trkpt lat="43.65399" lon="1.37433">
        <ele>138</ele>
        <time>2025-01-23T19:05:50Z</time>
      </trkpt>
      <trkpt lat="43.65397" lon="1.37436">
        <ele>138</ele>
        <time>2025-01-23T19:05:51Z</time>
      </trkpt>
      <trkpt lat="43.65395" lon="1.37438">
        <ele>138</ele>
        <time>2025-01-23T19:05:52Z</time>
      </trkpt>
      <trkpt lat="43.65393" lon="1.37439">
        <ele>138</ele>
        <time>2025-01-23T19:05:53Z</time>
      </trkpt>
      <trkpt lat="43.65391" lon="1.37441">
        <ele>138</ele>
        <time>2025-01-23T19:05:54Z</time>
      </trkpt>
      <trkpt lat="43.65388" lon="1.37443">
        <ele>138</ele>
        <time>2025-01-23T19:05:55Z</time>
      </trkpt>
      <trkpt lat="43.65386" lon="1.37445">
        <ele>138</ele>
        <time>2025-01-23T19:05:56Z</time>
      </trkpt>
      <trkpt lat="43.65384" lon="1.37446">
        <ele>138</ele>
        <time>2025-01-23T19:05:57Z</time>
      </trkpt>
      <trkpt lat="43.65382" lon="1.37447">
        <ele>138</ele>
        <time>2025-01-23T19:05:58Z</time>
      </trkpt>
      <trkpt lat="43.65379" lon="1.37448">
        <ele>138</ele>
        <time>2025-01-23T19:05:59Z</time>
      </trkpt>
      <trkpt lat="43.65377" lon="1.37449">
        <ele>138</ele>
        <time>2025-01-23T19:06:00Z</time>
      </trkpt>
      <trkpt lat="43.65374" lon="1.3745">
        <ele>139</ele>
        <time>2025-01-23T19:06:01Z</time>
      </trkpt>
      <trkpt lat="43.65372" lon="1.37451">
        <ele>139</ele>
        <time>2025-01-23T19:06:02Z</time>
      </trkpt>
      <trkpt lat="43.6537" lon="1.37453">
        <ele>139</ele>
        <time>2025-01-23T19:06:03Z</time>
      </trkpt>
      <trkpt lat="43.65367" lon="1.37454">
        <ele>139</ele>
        <time>2025-01-23T19:06:04Z</time>
      </trkpt>
      <trkpt lat="43.65364" lon="1.37455">
        <ele>139</ele>
        <time>2025-01-23T19:06:05Z</time>
      </trkpt>
      <trkpt lat="43.65362" lon="1.37456">
        <ele>139</ele>
        <time>2025-01-23T19:06:06Z</time>
      </trkpt>
      <trkpt lat="43.65359" lon="1.37458">
        <ele>139</ele>
        <time>2025-01-23T19:06:07Z</time>
      </trkpt>
      <trkpt lat="43.65354" lon="1.3746">
        <ele>139</ele>
        <time>2025-01-23T19:06:08Z</time>
      </trkpt>
      <trkpt lat="43.65354" lon="1.3746">
        <ele>139</ele>
        <time>2025-01-23T19:06:09Z</time>
      </trkpt>
      <trkpt lat="43.65352" lon="1.37461">
        <ele>139</ele>
        <time>2025-01-23T19:06:10Z</time>
      </trkpt>
      <trkpt lat="43.6535" lon="1.37462">
        <ele>139</ele>
        <time>2025-01-23T19:06:11Z</time>
      </trkpt>
      <trkpt lat="43.6535" lon="1.37462">
        <ele>139</ele>
        <time>2025-01-23T19:06:12Z</time>
      </trkpt>
      <trkpt lat="43.65347" lon="1.37462">
        <ele>139</ele>
        <time>2025-01-23T19:06:13Z</time>
      </trkpt>
      <trkpt lat="43.65344" lon="1.37462">
        <ele>139</ele>
        <time>2025-01-23T19:06:14Z</time>
      </trkpt>
      <trkpt lat="43.65342" lon="1.37463">
        <ele>139</ele>
        <time>2025-01-23T19:06:15Z</time>
      </trkpt>
      <trkpt lat="43.6534" lon="1.37463">
        <ele>139</ele>
        <time>2025-01-23T19:06:16Z</time>
      </trkpt>
      <trkpt lat="43.65337" lon="1.37463">
        <ele>139</ele>
        <time>2025-01-23T19:06:17Z</time>
      </trkpt>
      <trkpt lat="43.65335" lon="1.37463">
        <ele>139</ele>
        <time>2025-01-23T19:06:18Z</time>
      </trkpt>
      <trkpt lat="43.65333" lon="1.37464">
        <ele>139</ele>
        <time>2025-01-23T19:06:19Z</time>
      </trkpt>
      <trkpt lat="43.6533" lon="1.37464">
        <ele>139</ele>
        <time>2025-01-23T19:06:20Z</time>
      </trkpt>
      <trkpt lat="43.65328" lon="1.37464">
        <ele>139</ele>
        <time>2025-01-23T19:06:21Z</time>
      </trkpt>
      <trkpt lat="43.65325" lon="1.37464">
        <ele>139</ele>
        <time>2025-01-23T19:06:22Z</time>
      </trkpt>
      <trkpt lat="43.65323" lon="1.37465">
        <ele>139</ele>
        <time>2025-01-23T19:06:23Z</time>
      </trkpt>
      <trkpt lat="43.65321" lon="1.37465">
        <ele>139</ele>
        <time>2025-01-23T19:06:24Z</time>
      </trkpt>
      <trkpt lat="43.65319" lon="1.37466">
        <ele>139</ele>
        <time>2025-01-23T19:06:25Z</time>
      </trkpt>
      <trkpt lat="43.65316" lon="1.37466">
        <ele>139</ele>
        <time>2025-01-23T19:06:26Z</time>
      </trkpt>
      <trkpt lat="43.65314" lon="1.37466">
        <ele>139</ele>
        <time>2025-01-23T19:06:27Z</time>
      </trkpt>
      <trkpt lat="43.65312" lon="1.37466">
        <ele>139</ele>
        <time>2025-01-23T19:06:28Z</time>
      </trkpt>
      <trkpt lat="43.65309" lon="1.37465">
        <ele>139</ele>
        <time>2025-01-23T19:06:29Z</time>
      </trkpt>
      <trkpt lat="43.65307" lon="1.37465">
        <ele>139</ele>
        <time>2025-01-23T19:06:30Z</time>
      </trkpt>
      <trkpt lat="43.65305" lon="1.37465">
        <ele>139</ele>
        <time>2025-01-23T19:06:31Z</time>
      </trkpt>
      <trkpt lat="43.65302" lon="1.37465">
        <ele>139</ele>
        <time>2025-01-23T19:06:32Z</time>
      </trkpt>
      <trkpt lat="43.65299" lon="1.37466">
        <ele>139</ele>
        <time>2025-01-23T19:06:33Z</time>
      </trkpt>
      <trkpt lat="43.65297" lon="1.37467">
        <ele>139</ele>
        <time>2025-01-23T19:06:34Z</time>
      </trkpt>
      <trkpt lat="43.65294" lon="1.37468">
        <ele>139</ele>
        <time>2025-01-23T19:06:35Z</time>
      </trkpt>
      <trkpt lat="43.65292" lon="1.37467">
        <ele>139</ele>
        <time>2025-01-23T19:06:36Z</time>
      </trkpt>
      <trkpt lat="43.65289" lon="1.37467">
        <ele>139</ele>
        <time>2025-01-23T19:06:37Z</time>
      </trkpt>
      <trkpt lat="43.65287" lon="1.37466">
        <ele>139</ele>
        <time>2025-01-23T19:06:38Z</time>
      </trkpt>
      <trkpt lat="43.65284" lon="1.37465">
        <ele>139</ele>
        <time>2025-01-23T19:06:39Z</time>
      </trkpt>
      <trkpt lat="43.65282" lon="1.37464">
        <ele>139</ele>
        <time>2025-01-23T19:06:40Z</time>
      </trkpt>
      <trkpt lat="43.6528" lon="1.37464">
        <ele>139</ele>
        <time>2025-01-23T19:06:41Z</time>
      </trkpt>
      <trkpt lat="43.65278" lon="1.37463">
        <ele>139</ele>
        <time>2025-01-23T19:06:42Z</time>
      </trkpt>
      <trkpt lat="43.65276" lon="1.37463">
        <ele>139</ele>
        <time>2025-01-23T19:06:43Z</time>
      </trkpt>
      <trkpt lat="43.65273" lon="1.37463">
        <ele>139</ele>
        <time>2025-01-23T19:06:44Z</time>
      </trkpt>
      <trkpt lat="43.65271" lon="1.37462">
        <ele>139</ele>
        <time>2025-01-23T19:06:45Z</time>
      </trkpt>
      <trkpt lat="43.65268" lon="1.37462">
        <ele>139</ele>
        <time>2025-01-23T19:06:46Z</time>
      </trkpt>
      <trkpt lat="43.65265" lon="1.37461">
        <ele>139</ele>
        <time>2025-01-23T19:06:47Z</time>
      </trkpt>
      <trkpt lat="43.65263" lon="1.37461">
        <ele>139</ele>
        <time>2025-01-23T19:06:48Z</time>
      </trkpt>
      <trkpt lat="43.65261" lon="1.3746">
        <ele>139</ele>
        <time>2025-01-23T19:06:49Z</time>
      </trkpt>
      <trkpt lat="43.65258" lon="1.3746">
        <ele>139</ele>
        <time>2025-01-23T19:06:50Z</time>
      </trkpt>
      <trkpt lat="43.65256" lon="1.37459">
        <ele>139</ele>
        <time>2025-01-23T19:06:51Z</time>
      </trkpt>
      <trkpt lat="43.65254" lon="1.37459">
        <ele>139</ele>
        <time>2025-01-23T19:06:52Z</time>
      </trkpt>
      <trkpt lat="43.65251" lon="1.37459">
        <ele>139</ele>
        <time>2025-01-23T19:06:53Z</time>
      </trkpt>
      <trkpt lat="43.65249" lon="1.37459">
        <ele>139</ele>
        <time>2025-01-23T19:06:54Z</time>
      </trkpt>
      <trkpt lat="43.65246" lon="1.37459">
        <ele>139</ele>
        <time>2025-01-23T19:06:55Z</time>
      </trkpt>
      <trkpt lat="43.65244" lon="1.37458">
        <ele>139</ele>
        <time>2025-01-23T19:06:56Z</time>
      </trkpt>
      <trkpt lat="43.65241" lon="1.37458">
        <ele>139</ele>
        <time>2025-01-23T19:06:57Z</time>
      </trkpt>
      <trkpt lat="43.65239" lon="1.37457">
        <ele>139</ele>
        <time>2025-01-23T19:06:58Z</time>
      </trkpt>
      <trkpt lat="43.65237" lon="1.37456">
        <ele>139</ele>
        <time>2025-01-23T19:06:59Z</time>
      </trkpt>
      <trkpt lat="43.65235" lon="1.37454">
        <ele>139</ele>
        <time>2025-01-23T19:07:00Z</time>
      </trkpt>
      <trkpt lat="43.65233" lon="1.37453">
        <ele>139</ele>
        <time>2025-01-23T19:07:01Z</time>
      </trkpt>
      <trkpt lat="43.65231" lon="1.37452">
        <ele>139</ele>
        <time>2025-01-23T19:07:02Z</time>
      </trkpt>
      <trkpt lat="43.65229" lon="1.37452">
        <ele>140</ele>
        <time>2025-01-23T19:07:03Z</time>
      </trkpt>
      <trkpt lat="43.65226" lon="1.3745">
        <ele>140</ele>
        <time>2025-01-23T19:07:04Z</time>
      </trkpt>
      <trkpt lat="43.65224" lon="1.3745">
        <ele>140</ele>
        <time>2025-01-23T19:07:05Z</time>
      </trkpt>
      <trkpt lat="43.65222" lon="1.37449">
        <ele>140</ele>
        <time>2025-01-23T19:07:06Z</time>
      </trkpt>
      <trkpt lat="43.65219" lon="1.37448">
        <ele>140</ele>
        <time>2025-01-23T19:07:07Z</time>
      </trkpt>
      <trkpt lat="43.65217" lon="1.37448">
        <ele>140</ele>
        <time>2025-01-23T19:07:08Z</time>
      </trkpt>
      <trkpt lat="43.65215" lon="1.37447">
        <ele>140</ele>
        <time>2025-01-23T19:07:09Z</time>
      </trkpt>
      <trkpt lat="43.65212" lon="1.37447">
        <ele>140</ele>
        <time>2025-01-23T19:07:10Z</time>
      </trkpt>
      <trkpt lat="43.6521" lon="1.37447">
        <ele>139</ele>
        <time>2025-01-23T19:07:11Z</time>
      </trkpt>
      <trkpt lat="43.65208" lon="1.37446">
        <ele>139</ele>
        <time>2025-01-23T19:07:12Z</time>
      </trkpt>
      <trkpt lat="43.65206" lon="1.37446">
        <ele>139</ele>
        <time>2025-01-23T19:07:13Z</time>
      </trkpt>
      <trkpt lat="43.65204" lon="1.37445">
        <ele>140</ele>
        <time>2025-01-23T19:07:14Z</time>
      </trkpt>
      <trkpt lat="43.65202" lon="1.37445">
        <ele>140</ele>
        <time>2025-01-23T19:07:15Z</time>
      </trkpt>
      <trkpt lat="43.65199" lon="1.37445">
        <ele>140</ele>
        <time>2025-01-23T19:07:16Z</time>
      </trkpt>
      <trkpt lat="43.65197" lon="1.37446">
        <ele>140</ele>
        <time>2025-01-23T19:07:17Z</time>
      </trkpt>
      <trkpt lat="43.65194" lon="1.37446">
        <ele>140</ele>
        <time>2025-01-23T19:07:18Z</time>
      </trkpt>
      <trkpt lat="43.65192" lon="1.37447">
        <ele>140</ele>
        <time>2025-01-23T19:07:19Z</time>
      </trkpt>
      <trkpt lat="43.65189" lon="1.37447">
        <ele>140</ele>
        <time>2025-01-23T19:07:20Z</time>
      </trkpt>
      <trkpt lat="43.65187" lon="1.37447">
        <ele>140</ele>
        <time>2025-01-23T19:07:21Z</time>
      </trkpt>
      <trkpt lat="43.65184" lon="1.37447">
        <ele>140</ele>
        <time>2025-01-23T19:07:22Z</time>
      </trkpt>
      <trkpt lat="43.65181" lon="1.37447">
        <ele>140</ele>
        <time>2025-01-23T19:07:23Z</time>
      </trkpt>
      <trkpt lat="43.65179" lon="1.37447">
        <ele>140</ele>
        <time>2025-01-23T19:07:24Z</time>
      </trkpt>
      <trkpt lat="43.65177" lon="1.37447">
        <ele>140</ele>
        <time>2025-01-23T19:07:25Z</time>
      </trkpt>
      <trkpt lat="43.65174" lon="1.37448">
        <ele>140</ele>
        <time>2025-01-23T19:07:26Z</time>
      </trkpt>
      <trkpt lat="43.65172" lon="1.37449">
        <ele>140</ele>
        <time>2025-01-23T19:07:27Z</time>
      </trkpt>
      <trkpt lat="43.65169" lon="1.37451">
        <ele>140</ele>
        <time>2025-01-23T19:07:28Z</time>
      </trkpt>
      <trkpt lat="43.65166" lon="1.37453">
        <ele>140</ele>
        <time>2025-01-23T19:07:29Z</time>
      </trkpt>
      <trkpt lat="43.65163" lon="1.37455">
        <ele>140</ele>
        <time>2025-01-23T19:07:30Z</time>
      </trkpt>
      <trkpt lat="43.65161" lon="1.37456">
        <ele>140</ele>
        <time>2025-01-23T19:07:31Z</time>
      </trkpt>
      <trkpt lat="43.65158" lon="1.37457">
        <ele>140</ele>
        <time>2025-01-23T19:07:32Z</time>
      </trkpt>
      <trkpt lat="43.65156" lon="1.37458">
        <ele>140</ele>
        <time>2025-01-23T19:07:33Z</time>
      </trkpt>
      <trkpt lat="43.65153" lon="1.37459">
        <ele>140</ele>
        <time>2025-01-23T19:07:34Z</time>
      </trkpt>
      <trkpt lat="43.65151" lon="1.3746">
        <ele>140</ele>
        <time>2025-01-23T19:07:35Z</time>
      </trkpt>
      <trkpt lat="43.65149" lon="1.37462">
        <ele>140</ele>
        <time>2025-01-23T19:07:36Z</time>
      </trkpt>
      <trkpt lat="43.65146" lon="1.37463">
        <ele>140</ele>
        <time>2025-01-23T19:07:37Z</time>
      </trkpt>
      <trkpt lat="43.65144" lon="1.37464">
        <ele>140</ele>
        <time>2025-01-23T19:07:38Z</time>
      </trkpt>
      <trkpt lat="43.65141" lon="1.37466">
        <ele>140</ele>
        <time>2025-01-23T19:07:39Z</time>
      </trkpt>
      <trkpt lat="43.65139" lon="1.37467">
        <ele>140</ele>
        <time>2025-01-23T19:07:40Z</time>
      </trkpt>
      <trkpt lat="43.65136" lon="1.37469">
        <ele>140</ele>
        <time>2025-01-23T19:07:41Z</time>
      </trkpt>
      <trkpt lat="43.65133" lon="1.3747">
        <ele>140</ele>
        <time>2025-01-23T19:07:42Z</time>
      </trkpt>
      <trkpt lat="43.65131" lon="1.3747">
        <ele>140</ele>
        <time>2025-01-23T19:07:43Z</time>
      </trkpt>
      <trkpt lat="43.65129" lon="1.37471">
        <ele>140</ele>
        <time>2025-01-23T19:07:44Z</time>
      </trkpt>
      <trkpt lat="43.65127" lon="1.37471">
        <ele>140</ele>
        <time>2025-01-23T19:07:45Z</time>
      </trkpt>
      <trkpt lat="43.65125" lon="1.37471">
        <ele>140</ele>
        <time>2025-01-23T19:07:46Z</time>
      </trkpt>
      <trkpt lat="43.65122" lon="1.37472">
        <ele>140</ele>
        <time>2025-01-23T19:07:47Z</time>
      </trkpt>
      <trkpt lat="43.6512" lon="1.37472">
        <ele>140</ele>
        <time>2025-01-23T19:07:48Z</time>
      </trkpt>
      <trkpt lat="43.65118" lon="1.37472">
        <ele>140</ele>
        <time>2025-01-23T19:07:49Z</time>
      </trkpt>
      <trkpt lat="43.65116" lon="1.37471">
        <ele>140</ele>
        <time>2025-01-23T19:07:50Z</time>
      </trkpt>
      <trkpt lat="43.65113" lon="1.37471">
        <ele>140</ele>
        <time>2025-01-23T19:07:51Z</time>
      </trkpt>
      <trkpt lat="43.65111" lon="1.37471">
        <ele>140</ele>
        <time>2025-01-23T19:07:52Z</time>
      </trkpt>
      <trkpt lat="43.65109" lon="1.3747">
        <ele>140</ele>
        <time>2025-01-23T19:07:53Z</time>
      </trkpt>
      <trkpt lat="43.65107" lon="1.37471">
        <ele>140</ele>
        <time>2025-01-23T19:07:54Z</time>
      </trkpt>
      <trkpt lat="43.65105" lon="1.37471">
        <ele>140</ele>
        <time>2025-01-23T19:07:55Z</time>
      </trkpt>
      <trkpt lat="43.65102" lon="1.37472">
        <ele>140</ele>
        <time>2025-01-23T19:07:56Z</time>
      </trkpt>
      <trkpt lat="43.65101" lon="1.37472">
        <ele>140</ele>
        <time>2025-01-23T19:07:57Z</time>
      </trkpt>
      <trkpt lat="43.65099" lon="1.37472">
        <ele>140</ele>
        <time>2025-01-23T19:07:58Z</time>
      </trkpt>
      <trkpt lat="43.65097" lon="1.37471">
        <ele>140</ele>
        <time>2025-01-23T19:07:59Z</time>
      </trkpt>
      <trkpt lat="43.65095" lon="1.37471">
        <ele>140</ele>
        <time>2025-01-23T19:08:00Z</time>
      </trkpt>
      <trkpt lat="43.65093" lon="1.37471">
        <ele>140</ele>
        <time>2025-01-23T19:08:01Z</time>
      </trkpt>
      <trkpt lat="43.65091" lon="1.37471">
        <ele>140</ele>
        <time>2025-01-23T19:08:02Z</time>
      </trkpt>
      <trkpt lat="43.65091" lon="1.37471">
        <ele>140</ele>
        <time>2025-01-23T19:08:03Z</time>
      </trkpt>
      <trkpt lat="43.65088" lon="1.37472">
        <ele>140</ele>
        <time>2025-01-23T19:08:04Z</time>
      </trkpt>
      <trkpt lat="43.65086" lon="1.37472">
        <ele>140</ele>
        <time>2025-01-23T19:08:05Z</time>
      </trkpt>
      <trkpt lat="43.65084" lon="1.37473">
        <ele>140</ele>
        <time>2025-01-23T19:08:06Z</time>
      </trkpt>
      <trkpt lat="43.65082" lon="1.37473">
        <ele>140</ele>
        <time>2025-01-23T19:08:07Z</time>
      </trkpt>
      <trkpt lat="43.6508" lon="1.37474">
        <ele>140</ele>
        <time>2025-01-23T19:08:08Z</time>
      </trkpt>
      <trkpt lat="43.65078" lon="1.37475">
        <ele>140</ele>
        <time>2025-01-23T19:08:09Z</time>
      </trkpt>
      <trkpt lat="43.65076" lon="1.37476">
        <ele>140</ele>
        <time>2025-01-23T19:08:10Z</time>
      </trkpt>
      <trkpt lat="43.65074" lon="1.37477">
        <ele>140</ele>
        <time>2025-01-23T19:08:11Z</time>
      </trkpt>
      <trkpt lat="43.65072" lon="1.37478">
        <ele>140</ele>
        <time>2025-01-23T19:08:12Z</time>
      </trkpt>
      <trkpt lat="43.65069" lon="1.37479">
        <ele>140</ele>
        <time>2025-01-23T19:08:13Z</time>
      </trkpt>
      <trkpt lat="43.65067" lon="1.3748">
        <ele>140</ele>
        <time>2025-01-23T19:08:14Z</time>
      </trkpt>
      <trkpt lat="43.65065" lon="1.37481">
        <ele>140</ele>
        <time>2025-01-23T19:08:15Z</time>
      </trkpt>
      <trkpt lat="43.65063" lon="1.37482">
        <ele>140</ele>
        <time>2025-01-23T19:08:16Z</time>
      </trkpt>
      <trkpt lat="43.65061" lon="1.37483">
        <ele>140</ele>
        <time>2025-01-23T19:08:17Z</time>
      </trkpt>
      <trkpt lat="43.65059" lon="1.37484">
        <ele>140</ele>
        <time>2025-01-23T19:08:18Z</time>
      </trkpt>
      <trkpt lat="43.65057" lon="1.37486">
        <ele>140</ele>
        <time>2025-01-23T19:08:19Z</time>
      </trkpt>
      <trkpt lat="43.65055" lon="1.37487">
        <ele>140</ele>
        <time>2025-01-23T19:08:20Z</time>
      </trkpt>
      <trkpt lat="43.65052" lon="1.37488">
        <ele>140</ele>
        <time>2025-01-23T19:08:21Z</time>
      </trkpt>
      <trkpt lat="43.6505" lon="1.37489">
        <ele>140</ele>
        <time>2025-01-23T19:08:22Z</time>
      </trkpt>
      <trkpt lat="43.65048" lon="1.3749">
        <ele>140</ele>
        <time>2025-01-23T19:08:23Z</time>
      </trkpt>
      <trkpt lat="43.65046" lon="1.37491">
        <ele>140</ele>
        <time>2025-01-23T19:08:24Z</time>
      </trkpt>
      <trkpt lat="43.65043" lon="1.37492">
        <ele>140</ele>
        <time>2025-01-23T19:08:25Z</time>
      </trkpt>
      <trkpt lat="43.65041" lon="1.37493">
        <ele>140</ele>
        <time>2025-01-23T19:08:26Z</time>
      </trkpt>
      <trkpt lat="43.65039" lon="1.37494">
        <ele>140</ele>
        <time>2025-01-23T19:08:27Z</time>
      </trkpt>
      <trkpt lat="43.65037" lon="1.37495">
        <ele>140</ele>
        <time>2025-01-23T19:08:28Z</time>
      </trkpt>
      <trkpt lat="43.65033" lon="1.37497">
        <ele>140</ele>
        <time>2025-01-23T19:08:29Z</time>
      </trkpt>
      <trkpt lat="43.65033" lon="1.37497">
        <ele>140</ele>
        <time>2025-01-23T19:08:30Z</time>
      </trkpt>
      <trkpt lat="43.65031" lon="1.37498">
        <ele>140</ele>
        <time>2025-01-23T19:08:31Z</time>
      </trkpt>
      <trkpt lat="43.65029" lon="1.37498">
        <ele>140</ele>
        <time>2025-01-23T19:08:32Z</time>
      </trkpt>
      <trkpt lat="43.65027" lon="1.37499">
        <ele>140</ele>
        <time>2025-01-23T19:08:33Z</time>
      </trkpt>
      <trkpt lat="43.65024" lon="1.375">
        <ele>140</ele>
        <time>2025-01-23T19:08:34Z</time>
      </trkpt>
      <trkpt lat="43.65022" lon="1.37502">
        <ele>140</ele>
        <time>2025-01-23T19:08:35Z</time>
      </trkpt>
      <trkpt lat="43.6502" lon="1.37503">
        <ele>140</ele>
        <time>2025-01-23T19:08:36Z</time>
      </trkpt>
      <trkpt lat="43.65018" lon="1.37503">
        <ele>140</ele>
        <time>2025-01-23T19:08:37Z</time>
      </trkpt>
      <trkpt lat="43.65015" lon="1.37505">
        <ele>140</ele>
        <time>2025-01-23T19:08:38Z</time>
      </trkpt>
      <trkpt lat="43.65013" lon="1.37506">
        <ele>140</ele>
        <time>2025-01-23T19:08:39Z</time>
      </trkpt>
      <trkpt lat="43.65008" lon="1.37509">
        <ele>140</ele>
        <time>2025-01-23T19:08:40Z</time>
      </trkpt>
      <trkpt lat="43.65008" lon="1.37509">
        <ele>140</ele>
        <time>2025-01-23T19:08:41Z</time>
      </trkpt>
      <trkpt lat="43.65006" lon="1.37509">
        <ele>140</ele>
        <time>2025-01-23T19:08:42Z</time>
      </trkpt>
      <trkpt lat="43.65004" lon="1.37509">
        <ele>140</ele>
        <time>2025-01-23T19:08:43Z</time>
      </trkpt>
      <trkpt lat="43.65002" lon="1.3751">
        <ele>140</ele>
        <time>2025-01-23T19:08:44Z</time>
      </trkpt>
      <trkpt lat="43.65" lon="1.3751">
        <ele>140</ele>
        <time>2025-01-23T19:08:45Z</time>
      </trkpt>
      <trkpt lat="43.64998" lon="1.37511">
        <ele>140</ele>
        <time>2025-01-23T19:08:46Z</time>
      </trkpt>
      <trkpt lat="43.64996" lon="1.37511">
        <ele>140</ele>
        <time>2025-01-23T19:08:47Z</time>
      </trkpt>
      <trkpt lat="43.64994" lon="1.37512">
        <ele>140</ele>
        <time>2025-01-23T19:08:48Z</time>
      </trkpt>
      <trkpt lat="43.64991" lon="1.37513">
        <ele>140</ele>
        <time>2025-01-23T19:08:49Z</time>
      </trkpt>
      <trkpt lat="43.64989" lon="1.37514">
        <ele>140</ele>
        <time>2025-01-23T19:08:50Z</time>
      </trkpt>
      <trkpt lat="43.64987" lon="1.37515">
        <ele>140</ele>
        <time>2025-01-23T19:08:51Z</time>
      </trkpt>
      <trkpt lat="43.64985" lon="1.37516">
        <ele>140</ele>
        <time>2025-01-23T19:08:52Z</time>
      </trkpt>
      <trkpt lat="43.64983" lon="1.37517">
        <ele>140</ele>
        <time>2025-01-23T19:08:53Z</time>
      </trkpt>
      <trkpt lat="43.6498" lon="1.37517">
        <ele>140</ele>
        <time>2025-01-23T19:08:54Z</time>
      </trkpt>
      <trkpt lat="43.64978" lon="1.37518">
        <ele>140</ele>
        <time>2025-01-23T19:08:55Z</time>
      </trkpt>
      <trkpt lat="43.64976" lon="1.37519">
        <ele>140</ele>
        <time>2025-01-23T19:08:56Z</time>
      </trkpt>
      <trkpt lat="43.64974" lon="1.3752">
        <ele>140</ele>
        <time>2025-01-23T19:08:57Z</time>
      </trkpt>
      <trkpt lat="43.64972" lon="1.37521">
        <ele>140</ele>
        <time>2025-01-23T19:08:58Z</time>
      </trkpt>
      <trkpt lat="43.6497" lon="1.37522">
        <ele>140</ele>
        <time>2025-01-23T19:08:59Z</time>
      </trkpt>
      <trkpt lat="43.64968" lon="1.37523">
        <ele>140</ele>
        <time>2025-01-23T19:09:00Z</time>
      </trkpt>
      <trkpt lat="43.64966" lon="1.37524">
        <ele>140</ele>
        <time>2025-01-23T19:09:01Z</time>
      </trkpt>
      <trkpt lat="43.64964" lon="1.37525">
        <ele>140</ele>
        <time>2025-01-23T19:09:02Z</time>
      </trkpt>
      <trkpt lat="43.64962" lon="1.37526">
        <ele>140</ele>
        <time>2025-01-23T19:09:03Z</time>
      </trkpt>
      <trkpt lat="43.64962" lon="1.37526">
        <ele>139</ele>
        <time>2025-01-23T19:09:04Z</time>
      </trkpt>
      <trkpt lat="43.64959" lon="1.37528">
        <ele>139</ele>
        <time>2025-01-23T19:09:05Z</time>
      </trkpt>
      <trkpt lat="43.64957" lon="1.37528">
        <ele>139</ele>
        <time>2025-01-23T19:09:06Z</time>
      </trkpt>
      <trkpt lat="43.64954" lon="1.37529">
        <ele>140</ele>
        <time>2025-01-23T19:09:07Z</time>
      </trkpt>
      <trkpt lat="43.64954" lon="1.37529">
        <ele>140</ele>
        <time>2025-01-23T19:09:08Z</time>
      </trkpt>
      <trkpt lat="43.64951" lon="1.37531">
        <ele>140</ele>
        <time>2025-01-23T19:09:09Z</time>
      </trkpt>
      <trkpt lat="43.64949" lon="1.37532">
        <ele>140</ele>
        <time>2025-01-23T19:09:10Z</time>
      </trkpt>
      <trkpt lat="43.64946" lon="1.37532">
        <ele>140</ele>
        <time>2025-01-23T19:09:11Z</time>
      </trkpt>
      <trkpt lat="43.64944" lon="1.37533">
        <ele>140</ele>
        <time>2025-01-23T19:09:12Z</time>
      </trkpt>
      <trkpt lat="43.64941" lon="1.37533">
        <ele>140</ele>
        <time>2025-01-23T19:09:13Z</time>
      </trkpt>
      <trkpt lat="43.64938" lon="1.37534">
        <ele>140</ele>
        <time>2025-01-23T19:09:14Z</time>
      </trkpt>
      <trkpt lat="43.64936" lon="1.37535">
        <ele>140</ele>
        <time>2025-01-23T19:09:15Z</time>
      </trkpt>
      <trkpt lat="43.64934" lon="1.37536">
        <ele>140</ele>
        <time>2025-01-23T19:09:16Z</time>
      </trkpt>
      <trkpt lat="43.64932" lon="1.37537">
        <ele>140</ele>
        <time>2025-01-23T19:09:17Z</time>
      </trkpt>
      <trkpt lat="43.6493" lon="1.37539">
        <ele>140</ele>
        <time>2025-01-23T19:09:18Z</time>
      </trkpt>
      <trkpt lat="43.64928" lon="1.3754">
        <ele>140</ele>
        <time>2025-01-23T19:09:19Z</time>
      </trkpt>
      <trkpt lat="43.64926" lon="1.37541">
        <ele>141</ele>
        <time>2025-01-23T19:09:20Z</time>
      </trkpt>
      <trkpt lat="43.64924" lon="1.37542">
        <ele>141</ele>
        <time>2025-01-23T19:09:21Z</time>
      </trkpt>
    </trkseg>
  </trk>
</gpx>